<?xml version="1.0" encoding="UTF-8" standalone="no" ?>
<gpx xmlns="http://www.topografix.com/GPX/1/1" xmlns:xsi="http://www.w3.org/2001/XMLSchema-instance" xsi:schemaLocation="http://www.topografix.com/GPX/1/1 http://www.topografix.com/GPX/1/1/gpx.xsd" version="1.1" creator="VisuGPX - https://www.visugpx.com">
  <metadata>
    <name>Champagnat Cyclisme sur route</name>
  </metadata>
  <trk>
    <name><![CDATA[Champagnat Cyclisme sur route_1]]></name>
    <trkseg>
      <trkpt lat="46.48262" lon="5.36825">
        <ele>267</ele>
        <time>2022-03-02T11:56:03Z</time>
      </trkpt>
      <trkpt lat="46.48244" lon="5.36807">
        <ele>265.2</ele>
        <time>2022-03-02T11:56:05Z</time>
      </trkpt>
      <trkpt lat="46.48234" lon="5.36799">
        <ele>264</ele>
        <time>2022-03-02T11:56:06Z</time>
      </trkpt>
      <trkpt lat="46.48224" lon="5.36791">
        <ele>263.6</ele>
        <time>2022-03-02T11:56:07Z</time>
      </trkpt>
      <trkpt lat="46.48214" lon="5.36783">
        <ele>262.4</ele>
        <time>2022-03-02T11:56:08Z</time>
      </trkpt>
      <trkpt lat="46.48194" lon="5.36767">
        <ele>260.8</ele>
        <time>2022-03-02T11:56:10Z</time>
      </trkpt>
      <trkpt lat="46.48175" lon="5.36752">
        <ele>259.2</ele>
        <time>2022-03-02T11:56:12Z</time>
      </trkpt>
      <trkpt lat="46.48156" lon="5.36737">
        <ele>257.8</ele>
        <time>2022-03-02T11:56:14Z</time>
      </trkpt>
      <trkpt lat="46.48147" lon="5.3673">
        <ele>256.8</ele>
        <time>2022-03-02T11:56:15Z</time>
      </trkpt>
      <trkpt lat="46.48138" lon="5.36723">
        <ele>256.4</ele>
        <time>2022-03-02T11:56:16Z</time>
      </trkpt>
      <trkpt lat="46.48129" lon="5.36716">
        <ele>255.8</ele>
        <time>2022-03-02T11:56:17Z</time>
      </trkpt>
      <trkpt lat="46.48115" lon="5.36704">
        <ele>255.2</ele>
        <time>2022-03-02T11:56:19Z</time>
      </trkpt>
      <trkpt lat="46.48111" lon="5.36697">
        <ele>254.4</ele>
        <time>2022-03-02T11:56:20Z</time>
      </trkpt>
      <trkpt lat="46.48109" lon="5.36689">
        <ele>253.8</ele>
        <time>2022-03-02T11:56:21Z</time>
      </trkpt>
      <trkpt lat="46.4811" lon="5.36681">
        <ele>252.8</ele>
        <time>2022-03-02T11:56:22Z</time>
      </trkpt>
      <trkpt lat="46.48118" lon="5.36668">
        <ele>252</ele>
        <time>2022-03-02T11:56:24Z</time>
      </trkpt>
      <trkpt lat="46.48125" lon="5.36662">
        <ele>251.4</ele>
        <time>2022-03-02T11:56:25Z</time>
      </trkpt>
      <trkpt lat="46.4814" lon="5.36648">
        <ele>250.4</ele>
        <time>2022-03-02T11:56:27Z</time>
      </trkpt>
      <trkpt lat="46.48147" lon="5.36641">
        <ele>250</ele>
        <time>2022-03-02T11:56:28Z</time>
      </trkpt>
      <trkpt lat="46.48154" lon="5.36636">
        <ele>249.2</ele>
        <time>2022-03-02T11:56:29Z</time>
      </trkpt>
      <trkpt lat="46.48173" lon="5.36621">
        <ele>248.6</ele>
        <time>2022-03-02T11:56:31Z</time>
      </trkpt>
      <trkpt lat="46.48181" lon="5.36615">
        <ele>248.4</ele>
        <time>2022-03-02T11:56:32Z</time>
      </trkpt>
      <trkpt lat="46.482" lon="5.36607">
        <ele>248.4</ele>
        <time>2022-03-02T11:56:34Z</time>
      </trkpt>
      <trkpt lat="46.48208" lon="5.36604">
        <ele>248.2</ele>
        <time>2022-03-02T11:56:35Z</time>
      </trkpt>
      <trkpt lat="46.48216" lon="5.36599">
        <ele>248</ele>
        <time>2022-03-02T11:56:36Z</time>
      </trkpt>
      <trkpt lat="46.48222" lon="5.36591">
        <ele>248</ele>
        <time>2022-03-02T11:56:37Z</time>
      </trkpt>
      <trkpt lat="46.48229" lon="5.3657">
        <ele>247.8</ele>
        <time>2022-03-02T11:56:39Z</time>
      </trkpt>
      <trkpt lat="46.48233" lon="5.36561">
        <ele>247.6</ele>
        <time>2022-03-02T11:56:40Z</time>
      </trkpt>
      <trkpt lat="46.48238" lon="5.36553">
        <ele>247.6</ele>
        <time>2022-03-02T11:56:41Z</time>
      </trkpt>
      <trkpt lat="46.48257" lon="5.36533">
        <ele>247.4</ele>
        <time>2022-03-02T11:56:44Z</time>
      </trkpt>
      <trkpt lat="46.48303" lon="5.36481">
        <ele>246.6</ele>
        <time>2022-03-02T11:56:51Z</time>
      </trkpt>
      <trkpt lat="46.48309" lon="5.36473">
        <ele>246.4</ele>
        <time>2022-03-02T11:56:52Z</time>
      </trkpt>
      <trkpt lat="46.48316" lon="5.36466">
        <ele>246.4</ele>
        <time>2022-03-02T11:56:53Z</time>
      </trkpt>
      <trkpt lat="46.48338" lon="5.36443">
        <ele>245.2</ele>
        <time>2022-03-02T11:56:56Z</time>
      </trkpt>
      <trkpt lat="46.48374" lon="5.36403">
        <ele>244</ele>
        <time>2022-03-02T11:57:01Z</time>
      </trkpt>
      <trkpt lat="46.48382" lon="5.36394">
        <ele>243.6</ele>
        <time>2022-03-02T11:57:02Z</time>
      </trkpt>
      <trkpt lat="46.48397" lon="5.36379">
        <ele>243</ele>
        <time>2022-03-02T11:57:04Z</time>
      </trkpt>
      <trkpt lat="46.48415" lon="5.36364">
        <ele>242.4</ele>
        <time>2022-03-02T11:57:06Z</time>
      </trkpt>
      <trkpt lat="46.48421" lon="5.3636">
        <ele>242</ele>
        <time>2022-03-02T11:57:07Z</time>
      </trkpt>
      <trkpt lat="46.48431" lon="5.36355">
        <ele>241.8</ele>
        <time>2022-03-02T11:57:08Z</time>
      </trkpt>
      <trkpt lat="46.48457" lon="5.36349">
        <ele>241.4</ele>
        <time>2022-03-02T11:57:11Z</time>
      </trkpt>
      <trkpt lat="46.48514" lon="5.3634">
        <ele>241</ele>
        <time>2022-03-02T11:57:18Z</time>
      </trkpt>
      <trkpt lat="46.48522" lon="5.36338">
        <ele>241</ele>
        <time>2022-03-02T11:57:19Z</time>
      </trkpt>
      <trkpt lat="46.4854" lon="5.36335">
        <ele>240.8</ele>
        <time>2022-03-02T11:57:21Z</time>
      </trkpt>
      <trkpt lat="46.48597" lon="5.36325">
        <ele>240.2</ele>
        <time>2022-03-02T11:57:28Z</time>
      </trkpt>
      <trkpt lat="46.48607" lon="5.36323">
        <ele>240.2</ele>
        <time>2022-03-02T11:57:29Z</time>
      </trkpt>
      <trkpt lat="46.48616" lon="5.36319">
        <ele>239.6</ele>
        <time>2022-03-02T11:57:30Z</time>
      </trkpt>
      <trkpt lat="46.48624" lon="5.36313">
        <ele>239.2</ele>
        <time>2022-03-02T11:57:31Z</time>
      </trkpt>
      <trkpt lat="46.48634" lon="5.36293">
        <ele>238.6</ele>
        <time>2022-03-02T11:57:33Z</time>
      </trkpt>
      <trkpt lat="46.48638" lon="5.36277">
        <ele>238.4</ele>
        <time>2022-03-02T11:57:34Z</time>
      </trkpt>
      <trkpt lat="46.48641" lon="5.36238">
        <ele>237.2</ele>
        <time>2022-03-02T11:57:37Z</time>
      </trkpt>
      <trkpt lat="46.48643" lon="5.36207">
        <ele>236.2</ele>
        <time>2022-03-02T11:57:39Z</time>
      </trkpt>
      <trkpt lat="46.48644" lon="5.36193">
        <ele>236</ele>
        <time>2022-03-02T11:57:40Z</time>
      </trkpt>
      <trkpt lat="46.48649" lon="5.36139">
        <ele>235.2</ele>
        <time>2022-03-02T11:57:44Z</time>
      </trkpt>
      <trkpt lat="46.48653" lon="5.36116">
        <ele>234.4</ele>
        <time>2022-03-02T11:57:46Z</time>
      </trkpt>
      <trkpt lat="46.48669" lon="5.36045">
        <ele>233.6</ele>
        <time>2022-03-02T11:57:52Z</time>
      </trkpt>
      <trkpt lat="46.48677" lon="5.35996">
        <ele>233.6</ele>
        <time>2022-03-02T11:57:57Z</time>
      </trkpt>
      <trkpt lat="46.48682" lon="5.35958">
        <ele>234.2</ele>
        <time>2022-03-02T11:58:01Z</time>
      </trkpt>
      <trkpt lat="46.48691" lon="5.35908">
        <ele>234.8</ele>
        <time>2022-03-02T11:58:06Z</time>
      </trkpt>
      <trkpt lat="46.48713" lon="5.35848">
        <ele>234.8</ele>
        <time>2022-03-02T11:58:12Z</time>
      </trkpt>
      <trkpt lat="46.48743" lon="5.3578">
        <ele>233.8</ele>
        <time>2022-03-02T11:58:19Z</time>
      </trkpt>
      <trkpt lat="46.48752" lon="5.35761">
        <ele>233.4</ele>
        <time>2022-03-02T11:58:21Z</time>
      </trkpt>
      <trkpt lat="46.4878" lon="5.35697">
        <ele>232.8</ele>
        <time>2022-03-02T11:58:28Z</time>
      </trkpt>
      <trkpt lat="46.48801" lon="5.35652">
        <ele>232.4</ele>
        <time>2022-03-02T11:58:33Z</time>
      </trkpt>
      <trkpt lat="46.48809" lon="5.35635">
        <ele>232.4</ele>
        <time>2022-03-02T11:58:35Z</time>
      </trkpt>
      <trkpt lat="46.48838" lon="5.35568">
        <ele>232.6</ele>
        <time>2022-03-02T11:58:43Z</time>
      </trkpt>
      <trkpt lat="46.48842" lon="5.3556">
        <ele>232.8</ele>
        <time>2022-03-02T11:58:44Z</time>
      </trkpt>
      <trkpt lat="46.48871" lon="5.35494">
        <ele>232.8</ele>
        <time>2022-03-02T11:58:52Z</time>
      </trkpt>
      <trkpt lat="46.48875" lon="5.35485">
        <ele>232.8</ele>
        <time>2022-03-02T11:58:53Z</time>
      </trkpt>
      <trkpt lat="46.48901" lon="5.35427">
        <ele>232.6</ele>
        <time>2022-03-02T11:59:00Z</time>
      </trkpt>
      <trkpt lat="46.48929" lon="5.35363">
        <ele>232.2</ele>
        <time>2022-03-02T11:59:07Z</time>
      </trkpt>
      <trkpt lat="46.48955" lon="5.35301">
        <ele>231.4</ele>
        <time>2022-03-02T11:59:14Z</time>
      </trkpt>
      <trkpt lat="46.48959" lon="5.35292">
        <ele>231.4</ele>
        <time>2022-03-02T11:59:15Z</time>
      </trkpt>
      <trkpt lat="46.48989" lon="5.35221">
        <ele>231.2</ele>
        <time>2022-03-02T11:59:24Z</time>
      </trkpt>
      <trkpt lat="46.48996" lon="5.35208">
        <ele>231.2</ele>
        <time>2022-03-02T11:59:26Z</time>
      </trkpt>
      <trkpt lat="46.4901" lon="5.35177">
        <ele>231.8</ele>
        <time>2022-03-02T11:59:30Z</time>
      </trkpt>
      <trkpt lat="46.49032" lon="5.35124">
        <ele>232.4</ele>
        <time>2022-03-02T11:59:37Z</time>
      </trkpt>
      <trkpt lat="46.49045" lon="5.35069">
        <ele>232.8</ele>
        <time>2022-03-02T11:59:43Z</time>
      </trkpt>
      <trkpt lat="46.49059" lon="5.35">
        <ele>232.2</ele>
        <time>2022-03-02T11:59:50Z</time>
      </trkpt>
      <trkpt lat="46.49075" lon="5.3492">
        <ele>231.4</ele>
        <time>2022-03-02T11:59:57Z</time>
      </trkpt>
      <trkpt lat="46.49078" lon="5.34899">
        <ele>231</ele>
        <time>2022-03-02T11:59:59Z</time>
      </trkpt>
      <trkpt lat="46.49091" lon="5.3484">
        <ele>229.8</ele>
        <time>2022-03-02T12:00:04Z</time>
      </trkpt>
      <trkpt lat="46.49101" lon="5.34782">
        <ele>228.8</ele>
        <time>2022-03-02T12:00:09Z</time>
      </trkpt>
      <trkpt lat="46.49115" lon="5.34712">
        <ele>227.8</ele>
        <time>2022-03-02T12:00:15Z</time>
      </trkpt>
      <trkpt lat="46.49129" lon="5.34636">
        <ele>227.8</ele>
        <time>2022-03-02T12:00:22Z</time>
      </trkpt>
      <trkpt lat="46.49132" lon="5.34625">
        <ele>227.8</ele>
        <time>2022-03-02T12:00:23Z</time>
      </trkpt>
      <trkpt lat="46.49141" lon="5.3458">
        <ele>227.8</ele>
        <time>2022-03-02T12:00:28Z</time>
      </trkpt>
      <trkpt lat="46.49146" lon="5.34553">
        <ele>227.6</ele>
        <time>2022-03-02T12:00:31Z</time>
      </trkpt>
      <trkpt lat="46.49154" lon="5.34514">
        <ele>227.2</ele>
        <time>2022-03-02T12:00:35Z</time>
      </trkpt>
      <trkpt lat="46.49166" lon="5.3445">
        <ele>226.6</ele>
        <time>2022-03-02T12:00:41Z</time>
      </trkpt>
      <trkpt lat="46.4917" lon="5.34429">
        <ele>226.4</ele>
        <time>2022-03-02T12:00:43Z</time>
      </trkpt>
      <trkpt lat="46.49184" lon="5.34358">
        <ele>226.2</ele>
        <time>2022-03-02T12:00:51Z</time>
      </trkpt>
      <trkpt lat="46.49188" lon="5.34333">
        <ele>227</ele>
        <time>2022-03-02T12:00:54Z</time>
      </trkpt>
      <trkpt lat="46.49191" lon="5.34314">
        <ele>227.4</ele>
        <time>2022-03-02T12:00:56Z</time>
      </trkpt>
      <trkpt lat="46.49193" lon="5.34304">
        <ele>227.6</ele>
        <time>2022-03-02T12:00:57Z</time>
      </trkpt>
      <trkpt lat="46.49203" lon="5.34254">
        <ele>227.8</ele>
        <time>2022-03-02T12:01:02Z</time>
      </trkpt>
      <trkpt lat="46.49217" lon="5.34179">
        <ele>227.2</ele>
        <time>2022-03-02T12:01:09Z</time>
      </trkpt>
      <trkpt lat="46.4923" lon="5.34116">
        <ele>226.8</ele>
        <time>2022-03-02T12:01:16Z</time>
      </trkpt>
      <trkpt lat="46.49237" lon="5.34086">
        <ele>227</ele>
        <time>2022-03-02T12:01:20Z</time>
      </trkpt>
      <trkpt lat="46.49238" lon="5.34079">
        <ele>227</ele>
        <time>2022-03-02T12:01:21Z</time>
      </trkpt>
      <trkpt lat="46.4924" lon="5.3407">
        <ele>227.4</ele>
        <time>2022-03-02T12:01:22Z</time>
      </trkpt>
      <trkpt lat="46.49242" lon="5.34056">
        <ele>228</ele>
        <time>2022-03-02T12:01:24Z</time>
      </trkpt>
      <trkpt lat="46.49244" lon="5.34042">
        <ele>228.4</ele>
        <time>2022-03-02T12:01:26Z</time>
      </trkpt>
      <trkpt lat="46.49245" lon="5.34033">
        <ele>228.8</ele>
        <time>2022-03-02T12:01:27Z</time>
      </trkpt>
      <trkpt lat="46.49253" lon="5.3399">
        <ele>229.6</ele>
        <time>2022-03-02T12:01:32Z</time>
      </trkpt>
      <trkpt lat="46.49255" lon="5.33981">
        <ele>229.6</ele>
        <time>2022-03-02T12:01:33Z</time>
      </trkpt>
      <trkpt lat="46.49256" lon="5.33972">
        <ele>229.8</ele>
        <time>2022-03-02T12:01:34Z</time>
      </trkpt>
      <trkpt lat="46.49259" lon="5.33956">
        <ele>229.8</ele>
        <time>2022-03-02T12:01:36Z</time>
      </trkpt>
      <trkpt lat="46.49262" lon="5.33945">
        <ele>229.8</ele>
        <time>2022-03-02T12:01:37Z</time>
      </trkpt>
      <trkpt lat="46.49264" lon="5.33938">
        <ele>229.8</ele>
        <time>2022-03-02T12:01:38Z</time>
      </trkpt>
      <trkpt lat="46.49274" lon="5.33885">
        <ele>230</ele>
        <time>2022-03-02T12:01:44Z</time>
      </trkpt>
      <trkpt lat="46.4929" lon="5.33813">
        <ele>230</ele>
        <time>2022-03-02T12:01:52Z</time>
      </trkpt>
      <trkpt lat="46.49303" lon="5.33735">
        <ele>230</ele>
        <time>2022-03-02T12:02:00Z</time>
      </trkpt>
      <trkpt lat="46.49305" lon="5.33715">
        <ele>229.8</ele>
        <time>2022-03-02T12:02:02Z</time>
      </trkpt>
      <trkpt lat="46.49307" lon="5.33652">
        <ele>229.2</ele>
        <time>2022-03-02T12:02:08Z</time>
      </trkpt>
      <trkpt lat="46.4931" lon="5.33609">
        <ele>229</ele>
        <time>2022-03-02T12:02:12Z</time>
      </trkpt>
      <trkpt lat="46.49316" lon="5.33578">
        <ele>229</ele>
        <time>2022-03-02T12:02:15Z</time>
      </trkpt>
      <trkpt lat="46.49319" lon="5.33558">
        <ele>228.8</ele>
        <time>2022-03-02T12:02:17Z</time>
      </trkpt>
      <trkpt lat="46.4932" lon="5.33548">
        <ele>228.6</ele>
        <time>2022-03-02T12:02:18Z</time>
      </trkpt>
      <trkpt lat="46.4932" lon="5.33538">
        <ele>228.6</ele>
        <time>2022-03-02T12:02:19Z</time>
      </trkpt>
      <trkpt lat="46.49317" lon="5.33497">
        <ele>228.4</ele>
        <time>2022-03-02T12:02:23Z</time>
      </trkpt>
      <trkpt lat="46.49314" lon="5.33478">
        <ele>228.4</ele>
        <time>2022-03-02T12:02:25Z</time>
      </trkpt>
      <trkpt lat="46.49301" lon="5.334">
        <ele>228.4</ele>
        <time>2022-03-02T12:02:33Z</time>
      </trkpt>
      <trkpt lat="46.49283" lon="5.33318">
        <ele>228</ele>
        <time>2022-03-02T12:02:41Z</time>
      </trkpt>
      <trkpt lat="46.49281" lon="5.33308">
        <ele>227.8</ele>
        <time>2022-03-02T12:02:42Z</time>
      </trkpt>
      <trkpt lat="46.49276" lon="5.33276">
        <ele>227.6</ele>
        <time>2022-03-02T12:02:45Z</time>
      </trkpt>
      <trkpt lat="46.49263" lon="5.33225">
        <ele>226.6</ele>
        <time>2022-03-02T12:02:50Z</time>
      </trkpt>
      <trkpt lat="46.4926" lon="5.33216">
        <ele>226.4</ele>
        <time>2022-03-02T12:02:51Z</time>
      </trkpt>
      <trkpt lat="46.49254" lon="5.33205">
        <ele>226.2</ele>
        <time>2022-03-02T12:02:52Z</time>
      </trkpt>
      <trkpt lat="46.49244" lon="5.33191">
        <ele>226</ele>
        <time>2022-03-02T12:02:54Z</time>
      </trkpt>
      <trkpt lat="46.49232" lon="5.3318">
        <ele>225.6</ele>
        <time>2022-03-02T12:02:56Z</time>
      </trkpt>
      <trkpt lat="46.49225" lon="5.33176">
        <ele>225.4</ele>
        <time>2022-03-02T12:02:57Z</time>
      </trkpt>
      <trkpt lat="46.49211" lon="5.33166">
        <ele>225.2</ele>
        <time>2022-03-02T12:02:59Z</time>
      </trkpt>
      <trkpt lat="46.49167" lon="5.33124">
        <ele>224.4</ele>
        <time>2022-03-02T12:03:06Z</time>
      </trkpt>
      <trkpt lat="46.49162" lon="5.33116">
        <ele>224.4</ele>
        <time>2022-03-02T12:03:07Z</time>
      </trkpt>
      <trkpt lat="46.49157" lon="5.33107">
        <ele>224.2</ele>
        <time>2022-03-02T12:03:08Z</time>
      </trkpt>
      <trkpt lat="46.49151" lon="5.33091">
        <ele>223.8</ele>
        <time>2022-03-02T12:03:10Z</time>
      </trkpt>
      <trkpt lat="46.49145" lon="5.33073">
        <ele>223.6</ele>
        <time>2022-03-02T12:03:12Z</time>
      </trkpt>
      <trkpt lat="46.49137" lon="5.33037">
        <ele>223.6</ele>
        <time>2022-03-02T12:03:16Z</time>
      </trkpt>
      <trkpt lat="46.49129" lon="5.32987">
        <ele>223.4</ele>
        <time>2022-03-02T12:03:21Z</time>
      </trkpt>
      <trkpt lat="46.49127" lon="5.32965">
        <ele>223</ele>
        <time>2022-03-02T12:03:23Z</time>
      </trkpt>
      <trkpt lat="46.49126" lon="5.32911">
        <ele>222</ele>
        <time>2022-03-02T12:03:28Z</time>
      </trkpt>
      <trkpt lat="46.49126" lon="5.329">
        <ele>222</ele>
        <time>2022-03-02T12:03:29Z</time>
      </trkpt>
      <trkpt lat="46.49129" lon="5.32879">
        <ele>221.8</ele>
        <time>2022-03-02T12:03:31Z</time>
      </trkpt>
      <trkpt lat="46.49134" lon="5.3286">
        <ele>221.6</ele>
        <time>2022-03-02T12:03:33Z</time>
      </trkpt>
      <trkpt lat="46.49143" lon="5.32823">
        <ele>221.6</ele>
        <time>2022-03-02T12:03:37Z</time>
      </trkpt>
      <trkpt lat="46.49143" lon="5.32813">
        <ele>221.6</ele>
        <time>2022-03-02T12:03:38Z</time>
      </trkpt>
      <trkpt lat="46.49143" lon="5.32803">
        <ele>221.6</ele>
        <time>2022-03-02T12:03:39Z</time>
      </trkpt>
      <trkpt lat="46.49139" lon="5.32775">
        <ele>221.6</ele>
        <time>2022-03-02T12:03:42Z</time>
      </trkpt>
      <trkpt lat="46.49132" lon="5.32731">
        <ele>221.6</ele>
        <time>2022-03-02T12:03:47Z</time>
      </trkpt>
      <trkpt lat="46.49129" lon="5.32722">
        <ele>221.6</ele>
        <time>2022-03-02T12:03:48Z</time>
      </trkpt>
      <trkpt lat="46.4912" lon="5.32707">
        <ele>221.8</ele>
        <time>2022-03-02T12:03:50Z</time>
      </trkpt>
      <trkpt lat="46.49108" lon="5.32697">
        <ele>221.8</ele>
        <time>2022-03-02T12:03:52Z</time>
      </trkpt>
      <trkpt lat="46.49093" lon="5.32697">
        <ele>221.8</ele>
        <time>2022-03-02T12:03:54Z</time>
      </trkpt>
      <trkpt lat="46.49086" lon="5.32698">
        <ele>221.6</ele>
        <time>2022-03-02T12:03:55Z</time>
      </trkpt>
      <trkpt lat="46.49061" lon="5.32704">
        <ele>220.8</ele>
        <time>2022-03-02T12:03:58Z</time>
      </trkpt>
      <trkpt lat="46.49036" lon="5.32709">
        <ele>220</ele>
        <time>2022-03-02T12:04:01Z</time>
      </trkpt>
      <trkpt lat="46.49028" lon="5.3271">
        <ele>219.6</ele>
        <time>2022-03-02T12:04:02Z</time>
      </trkpt>
      <trkpt lat="46.49001" lon="5.32713">
        <ele>218.4</ele>
        <time>2022-03-02T12:04:05Z</time>
      </trkpt>
      <trkpt lat="46.48982" lon="5.32713">
        <ele>217.8</ele>
        <time>2022-03-02T12:04:07Z</time>
      </trkpt>
      <trkpt lat="46.48973" lon="5.32711">
        <ele>217.2</ele>
        <time>2022-03-02T12:04:08Z</time>
      </trkpt>
      <trkpt lat="46.48954" lon="5.32704">
        <ele>216.2</ele>
        <time>2022-03-02T12:04:10Z</time>
      </trkpt>
      <trkpt lat="46.48944" lon="5.32698">
        <ele>215.8</ele>
        <time>2022-03-02T12:04:11Z</time>
      </trkpt>
      <trkpt lat="46.48936" lon="5.32689">
        <ele>214.8</ele>
        <time>2022-03-02T12:04:12Z</time>
      </trkpt>
      <trkpt lat="46.48928" lon="5.32678">
        <ele>214.6</ele>
        <time>2022-03-02T12:04:13Z</time>
      </trkpt>
      <trkpt lat="46.48921" lon="5.32666">
        <ele>214</ele>
        <time>2022-03-02T12:04:14Z</time>
      </trkpt>
      <trkpt lat="46.48916" lon="5.32652">
        <ele>214</ele>
        <time>2022-03-02T12:04:15Z</time>
      </trkpt>
      <trkpt lat="46.48914" lon="5.32637">
        <ele>213.4</ele>
        <time>2022-03-02T12:04:16Z</time>
      </trkpt>
      <trkpt lat="46.48915" lon="5.32622">
        <ele>212.8</ele>
        <time>2022-03-02T12:04:17Z</time>
      </trkpt>
      <trkpt lat="46.4892" lon="5.32608">
        <ele>211.6</ele>
        <time>2022-03-02T12:04:18Z</time>
      </trkpt>
      <trkpt lat="46.48928" lon="5.32595">
        <ele>210.8</ele>
        <time>2022-03-02T12:04:19Z</time>
      </trkpt>
      <trkpt lat="46.48936" lon="5.32583">
        <ele>210</ele>
        <time>2022-03-02T12:04:20Z</time>
      </trkpt>
      <trkpt lat="46.48944" lon="5.32571">
        <ele>209</ele>
        <time>2022-03-02T12:04:21Z</time>
      </trkpt>
      <trkpt lat="46.48951" lon="5.32557">
        <ele>208.8</ele>
        <time>2022-03-02T12:04:22Z</time>
      </trkpt>
      <trkpt lat="46.48955" lon="5.32541">
        <ele>208.4</ele>
        <time>2022-03-02T12:04:23Z</time>
      </trkpt>
      <trkpt lat="46.48955" lon="5.32511">
        <ele>207.2</ele>
        <time>2022-03-02T12:04:25Z</time>
      </trkpt>
      <trkpt lat="46.4895" lon="5.32498">
        <ele>207</ele>
        <time>2022-03-02T12:04:26Z</time>
      </trkpt>
      <trkpt lat="46.48943" lon="5.32473">
        <ele>206</ele>
        <time>2022-03-02T12:04:28Z</time>
      </trkpt>
      <trkpt lat="46.48932" lon="5.32437">
        <ele>205.6</ele>
        <time>2022-03-02T12:04:31Z</time>
      </trkpt>
      <trkpt lat="46.48915" lon="5.32382">
        <ele>205.4</ele>
        <time>2022-03-02T12:04:36Z</time>
      </trkpt>
      <trkpt lat="46.48902" lon="5.32341">
        <ele>205</ele>
        <time>2022-03-02T12:04:40Z</time>
      </trkpt>
      <trkpt lat="46.48886" lon="5.32313">
        <ele>205.2</ele>
        <time>2022-03-02T12:04:44Z</time>
      </trkpt>
      <trkpt lat="46.48883" lon="5.32308">
        <ele>205.4</ele>
        <time>2022-03-02T12:04:45Z</time>
      </trkpt>
      <trkpt lat="46.48876" lon="5.32297">
        <ele>205.4</ele>
        <time>2022-03-02T12:04:47Z</time>
      </trkpt>
      <trkpt lat="46.48869" lon="5.32287">
        <ele>205.6</ele>
        <time>2022-03-02T12:04:49Z</time>
      </trkpt>
      <trkpt lat="46.48866" lon="5.32283">
        <ele>206.2</ele>
        <time>2022-03-02T12:04:50Z</time>
      </trkpt>
      <trkpt lat="46.4886" lon="5.32274">
        <ele>206.8</ele>
        <time>2022-03-02T12:04:52Z</time>
      </trkpt>
      <trkpt lat="46.48852" lon="5.32262">
        <ele>207.8</ele>
        <time>2022-03-02T12:04:55Z</time>
      </trkpt>
      <trkpt lat="46.48844" lon="5.3225">
        <ele>208.8</ele>
        <time>2022-03-02T12:04:58Z</time>
      </trkpt>
      <trkpt lat="46.48838" lon="5.32237">
        <ele>210.2</ele>
        <time>2022-03-02T12:05:01Z</time>
      </trkpt>
      <trkpt lat="46.48836" lon="5.32232">
        <ele>210.6</ele>
        <time>2022-03-02T12:05:02Z</time>
      </trkpt>
      <trkpt lat="46.48833" lon="5.32218">
        <ele>211</ele>
        <time>2022-03-02T12:05:04Z</time>
      </trkpt>
      <trkpt lat="46.4883" lon="5.32203">
        <ele>211.4</ele>
        <time>2022-03-02T12:05:06Z</time>
      </trkpt>
      <trkpt lat="46.48827" lon="5.32186">
        <ele>211.4</ele>
        <time>2022-03-02T12:05:08Z</time>
      </trkpt>
      <trkpt lat="46.48825" lon="5.32158">
        <ele>211.4</ele>
        <time>2022-03-02T12:05:11Z</time>
      </trkpt>
      <trkpt lat="46.48826" lon="5.32127">
        <ele>210.8</ele>
        <time>2022-03-02T12:05:14Z</time>
      </trkpt>
      <trkpt lat="46.48829" lon="5.32106">
        <ele>210.4</ele>
        <time>2022-03-02T12:05:16Z</time>
      </trkpt>
      <trkpt lat="46.48833" lon="5.32086">
        <ele>210.2</ele>
        <time>2022-03-02T12:05:18Z</time>
      </trkpt>
      <trkpt lat="46.48842" lon="5.32034">
        <ele>209.4</ele>
        <time>2022-03-02T12:05:23Z</time>
      </trkpt>
      <trkpt lat="46.48846" lon="5.32013">
        <ele>209.2</ele>
        <time>2022-03-02T12:05:25Z</time>
      </trkpt>
      <trkpt lat="46.48848" lon="5.31969">
        <ele>208.6</ele>
        <time>2022-03-02T12:05:29Z</time>
      </trkpt>
      <trkpt lat="46.48844" lon="5.31914">
        <ele>208.2</ele>
        <time>2022-03-02T12:05:34Z</time>
      </trkpt>
      <trkpt lat="46.48841" lon="5.31891">
        <ele>207.8</ele>
        <time>2022-03-02T12:05:36Z</time>
      </trkpt>
      <trkpt lat="46.48839" lon="5.31881">
        <ele>207.8</ele>
        <time>2022-03-02T12:05:37Z</time>
      </trkpt>
      <trkpt lat="46.48831" lon="5.31863">
        <ele>207.2</ele>
        <time>2022-03-02T12:05:39Z</time>
      </trkpt>
      <trkpt lat="46.48818" lon="5.31852">
        <ele>207</ele>
        <time>2022-03-02T12:05:41Z</time>
      </trkpt>
      <trkpt lat="46.4881" lon="5.31848">
        <ele>207</ele>
        <time>2022-03-02T12:05:42Z</time>
      </trkpt>
      <trkpt lat="46.48803" lon="5.31846">
        <ele>206.8</ele>
        <time>2022-03-02T12:05:43Z</time>
      </trkpt>
      <trkpt lat="46.48791" lon="5.31837">
        <ele>206.4</ele>
        <time>2022-03-02T12:05:45Z</time>
      </trkpt>
      <trkpt lat="46.48785" lon="5.31828">
        <ele>206.4</ele>
        <time>2022-03-02T12:05:46Z</time>
      </trkpt>
      <trkpt lat="46.48782" lon="5.31819">
        <ele>206.4</ele>
        <time>2022-03-02T12:05:47Z</time>
      </trkpt>
      <trkpt lat="46.48781" lon="5.31802">
        <ele>206.4</ele>
        <time>2022-03-02T12:05:49Z</time>
      </trkpt>
      <trkpt lat="46.48779" lon="5.31745">
        <ele>206.8</ele>
        <time>2022-03-02T12:05:55Z</time>
      </trkpt>
      <trkpt lat="46.48778" lon="5.31736">
        <ele>206.8</ele>
        <time>2022-03-02T12:05:56Z</time>
      </trkpt>
      <trkpt lat="46.48775" lon="5.31722">
        <ele>206.8</ele>
        <time>2022-03-02T12:05:58Z</time>
      </trkpt>
      <trkpt lat="46.48772" lon="5.31715">
        <ele>207</ele>
        <time>2022-03-02T12:05:59Z</time>
      </trkpt>
      <trkpt lat="46.48768" lon="5.31708">
        <ele>207</ele>
        <time>2022-03-02T12:06:00Z</time>
      </trkpt>
      <trkpt lat="46.48756" lon="5.31693">
        <ele>207</ele>
        <time>2022-03-02T12:06:03Z</time>
      </trkpt>
      <trkpt lat="46.48733" lon="5.31665">
        <ele>208</ele>
        <time>2022-03-02T12:06:08Z</time>
      </trkpt>
      <trkpt lat="46.48722" lon="5.31654">
        <ele>208.2</ele>
        <time>2022-03-02T12:06:10Z</time>
      </trkpt>
      <trkpt lat="46.48704" lon="5.31633">
        <ele>208</ele>
        <time>2022-03-02T12:06:14Z</time>
      </trkpt>
      <trkpt lat="46.48696" lon="5.31624">
        <ele>207.8</ele>
        <time>2022-03-02T12:06:16Z</time>
      </trkpt>
      <trkpt lat="46.48684" lon="5.31611">
        <ele>207.6</ele>
        <time>2022-03-02T12:06:18Z</time>
      </trkpt>
      <trkpt lat="46.4866" lon="5.31578">
        <ele>207.8</ele>
        <time>2022-03-02T12:06:23Z</time>
      </trkpt>
      <trkpt lat="46.48654" lon="5.31571">
        <ele>207.6</ele>
        <time>2022-03-02T12:06:24Z</time>
      </trkpt>
      <trkpt lat="46.4864" lon="5.31554">
        <ele>207.6</ele>
        <time>2022-03-02T12:06:27Z</time>
      </trkpt>
      <trkpt lat="46.48635" lon="5.31547">
        <ele>207.6</ele>
        <time>2022-03-02T12:06:28Z</time>
      </trkpt>
      <trkpt lat="46.4862" lon="5.31522">
        <ele>207.4</ele>
        <time>2022-03-02T12:06:32Z</time>
      </trkpt>
      <trkpt lat="46.48617" lon="5.31514">
        <ele>207.4</ele>
        <time>2022-03-02T12:06:33Z</time>
      </trkpt>
      <trkpt lat="46.48612" lon="5.31498">
        <ele>207.4</ele>
        <time>2022-03-02T12:06:35Z</time>
      </trkpt>
      <trkpt lat="46.48609" lon="5.31476">
        <ele>207.4</ele>
        <time>2022-03-02T12:06:37Z</time>
      </trkpt>
      <trkpt lat="46.48609" lon="5.31458">
        <ele>207.4</ele>
        <time>2022-03-02T12:06:39Z</time>
      </trkpt>
      <trkpt lat="46.48607" lon="5.31438">
        <ele>207.4</ele>
        <time>2022-03-02T12:06:41Z</time>
      </trkpt>
      <trkpt lat="46.48605" lon="5.31428">
        <ele>207.4</ele>
        <time>2022-03-02T12:06:42Z</time>
      </trkpt>
      <trkpt lat="46.486" lon="5.31415">
        <ele>207.4</ele>
        <time>2022-03-02T12:06:44Z</time>
      </trkpt>
      <trkpt lat="46.48596" lon="5.31408">
        <ele>207.6</ele>
        <time>2022-03-02T12:06:45Z</time>
      </trkpt>
      <trkpt lat="46.48592" lon="5.31403">
        <ele>207.6</ele>
        <time>2022-03-02T12:06:46Z</time>
      </trkpt>
      <trkpt lat="46.48581" lon="5.3139">
        <ele>208.2</ele>
        <time>2022-03-02T12:06:50Z</time>
      </trkpt>
      <trkpt lat="46.48569" lon="5.31373">
        <ele>208.6</ele>
        <time>2022-03-02T12:06:54Z</time>
      </trkpt>
      <trkpt lat="46.48566" lon="5.31369">
        <ele>208.8</ele>
        <time>2022-03-02T12:06:55Z</time>
      </trkpt>
      <trkpt lat="46.48565" lon="5.31365">
        <ele>209.4</ele>
        <time>2022-03-02T12:06:56Z</time>
      </trkpt>
      <trkpt lat="46.48559" lon="5.31343">
        <ele>210.4</ele>
        <time>2022-03-02T12:07:00Z</time>
      </trkpt>
      <trkpt lat="46.48556" lon="5.3132">
        <ele>211.4</ele>
        <time>2022-03-02T12:07:04Z</time>
      </trkpt>
      <trkpt lat="46.48553" lon="5.31293">
        <ele>212.2</ele>
        <time>2022-03-02T12:07:08Z</time>
      </trkpt>
      <trkpt lat="46.48552" lon="5.31279">
        <ele>212.6</ele>
        <time>2022-03-02T12:07:10Z</time>
      </trkpt>
      <trkpt lat="46.48551" lon="5.31251">
        <ele>213.4</ele>
        <time>2022-03-02T12:07:14Z</time>
      </trkpt>
      <trkpt lat="46.48553" lon="5.31244">
        <ele>213.6</ele>
        <time>2022-03-02T12:07:15Z</time>
      </trkpt>
      <trkpt lat="46.48556" lon="5.31231">
        <ele>213.6</ele>
        <time>2022-03-02T12:07:17Z</time>
      </trkpt>
      <trkpt lat="46.48566" lon="5.31209">
        <ele>214</ele>
        <time>2022-03-02T12:07:21Z</time>
      </trkpt>
      <trkpt lat="46.48586" lon="5.31168">
        <ele>214.8</ele>
        <time>2022-03-02T12:07:28Z</time>
      </trkpt>
      <trkpt lat="46.48588" lon="5.31163">
        <ele>215.4</ele>
        <time>2022-03-02T12:07:29Z</time>
      </trkpt>
      <trkpt lat="46.48599" lon="5.31141">
        <ele>215.8</ele>
        <time>2022-03-02T12:07:33Z</time>
      </trkpt>
      <trkpt lat="46.48616" lon="5.31106">
        <ele>217</ele>
        <time>2022-03-02T12:07:39Z</time>
      </trkpt>
      <trkpt lat="46.48638" lon="5.31059">
        <ele>218</ele>
        <time>2022-03-02T12:07:47Z</time>
      </trkpt>
      <trkpt lat="46.48641" lon="5.31055">
        <ele>218</ele>
        <time>2022-03-02T12:07:48Z</time>
      </trkpt>
      <trkpt lat="46.48652" lon="5.31032">
        <ele>219</ele>
        <time>2022-03-02T12:07:52Z</time>
      </trkpt>
      <trkpt lat="46.4866" lon="5.31013">
        <ele>219.4</ele>
        <time>2022-03-02T12:07:55Z</time>
      </trkpt>
      <trkpt lat="46.48666" lon="5.31003">
        <ele>219.6</ele>
        <time>2022-03-02T12:07:57Z</time>
      </trkpt>
      <trkpt lat="46.48677" lon="5.30978">
        <ele>220.4</ele>
        <time>2022-03-02T12:08:01Z</time>
      </trkpt>
      <trkpt lat="46.48694" lon="5.30944">
        <ele>220.6</ele>
        <time>2022-03-02T12:08:06Z</time>
      </trkpt>
      <trkpt lat="46.48713" lon="5.30914">
        <ele>220.4</ele>
        <time>2022-03-02T12:08:10Z</time>
      </trkpt>
      <trkpt lat="46.48717" lon="5.30908">
        <ele>220.4</ele>
        <time>2022-03-02T12:08:11Z</time>
      </trkpt>
      <trkpt lat="46.48722" lon="5.30887">
        <ele>219.8</ele>
        <time>2022-03-02T12:08:13Z</time>
      </trkpt>
      <trkpt lat="46.4872" lon="5.30876">
        <ele>219.2</ele>
        <time>2022-03-02T12:08:14Z</time>
      </trkpt>
      <trkpt lat="46.48718" lon="5.30868">
        <ele>218.6</ele>
        <time>2022-03-02T12:08:15Z</time>
      </trkpt>
      <trkpt lat="46.48714" lon="5.3086">
        <ele>218.4</ele>
        <time>2022-03-02T12:08:16Z</time>
      </trkpt>
      <trkpt lat="46.48708" lon="5.30852">
        <ele>218</ele>
        <time>2022-03-02T12:08:17Z</time>
      </trkpt>
      <trkpt lat="46.48696" lon="5.30841">
        <ele>217.8</ele>
        <time>2022-03-02T12:08:19Z</time>
      </trkpt>
      <trkpt lat="46.48664" lon="5.30822">
        <ele>217</ele>
        <time>2022-03-02T12:08:24Z</time>
      </trkpt>
      <trkpt lat="46.4865" lon="5.30813">
        <ele>216.6</ele>
        <time>2022-03-02T12:08:26Z</time>
      </trkpt>
      <trkpt lat="46.48623" lon="5.30795">
        <ele>215.8</ele>
        <time>2022-03-02T12:08:30Z</time>
      </trkpt>
      <trkpt lat="46.48599" lon="5.30776">
        <ele>215.4</ele>
        <time>2022-03-02T12:08:34Z</time>
      </trkpt>
      <trkpt lat="46.48564" lon="5.30743">
        <ele>215.6</ele>
        <time>2022-03-02T12:08:41Z</time>
      </trkpt>
      <trkpt lat="46.48548" lon="5.30709">
        <ele>216</ele>
        <time>2022-03-02T12:08:46Z</time>
      </trkpt>
      <trkpt lat="46.48545" lon="5.30695">
        <ele>216.2</ele>
        <time>2022-03-02T12:08:48Z</time>
      </trkpt>
      <trkpt lat="46.48543" lon="5.3068">
        <ele>216.2</ele>
        <time>2022-03-02T12:08:50Z</time>
      </trkpt>
      <trkpt lat="46.48543" lon="5.30675">
        <ele>217.2</ele>
        <time>2022-03-02T12:08:51Z</time>
      </trkpt>
      <trkpt lat="46.48544" lon="5.30646">
        <ele>218.2</ele>
        <time>2022-03-02T12:08:55Z</time>
      </trkpt>
      <trkpt lat="46.48544" lon="5.3064">
        <ele>218.6</ele>
        <time>2022-03-02T12:08:56Z</time>
      </trkpt>
      <trkpt lat="46.48545" lon="5.30635">
        <ele>218.6</ele>
        <time>2022-03-02T12:08:57Z</time>
      </trkpt>
      <trkpt lat="46.48548" lon="5.30615">
        <ele>219.2</ele>
        <time>2022-03-02T12:09:00Z</time>
      </trkpt>
      <trkpt lat="46.48549" lon="5.30604">
        <ele>219.8</ele>
        <time>2022-03-02T12:09:02Z</time>
      </trkpt>
      <trkpt lat="46.48551" lon="5.30584">
        <ele>220.4</ele>
        <time>2022-03-02T12:09:05Z</time>
      </trkpt>
      <trkpt lat="46.48553" lon="5.30564">
        <ele>220.8</ele>
        <time>2022-03-02T12:09:08Z</time>
      </trkpt>
      <trkpt lat="46.48554" lon="5.30558">
        <ele>220.8</ele>
        <time>2022-03-02T12:09:09Z</time>
      </trkpt>
      <trkpt lat="46.48556" lon="5.30538">
        <ele>221.6</ele>
        <time>2022-03-02T12:09:12Z</time>
      </trkpt>
      <trkpt lat="46.4856" lon="5.30512">
        <ele>222.2</ele>
        <time>2022-03-02T12:09:16Z</time>
      </trkpt>
      <trkpt lat="46.48559" lon="5.305">
        <ele>222.4</ele>
        <time>2022-03-02T12:09:18Z</time>
      </trkpt>
      <trkpt lat="46.48556" lon="5.30497">
        <ele>222.4</ele>
        <time>2022-03-02T12:09:19Z</time>
      </trkpt>
      <trkpt lat="46.48553" lon="5.30494">
        <ele>222.6</ele>
        <time>2022-03-02T12:09:20Z</time>
      </trkpt>
      <trkpt lat="46.48549" lon="5.30494">
        <ele>222.6</ele>
        <time>2022-03-02T12:09:21Z</time>
      </trkpt>
      <trkpt lat="46.48544" lon="5.30496">
        <ele>222.8</ele>
        <time>2022-03-02T12:09:22Z</time>
      </trkpt>
      <trkpt lat="46.48522" lon="5.30513">
        <ele>223.2</ele>
        <time>2022-03-02T12:09:27Z</time>
      </trkpt>
      <trkpt lat="46.48478" lon="5.30553">
        <ele>223.6</ele>
        <time>2022-03-02T12:09:36Z</time>
      </trkpt>
      <trkpt lat="46.48437" lon="5.30591">
        <ele>223.4</ele>
        <time>2022-03-02T12:09:44Z</time>
      </trkpt>
      <trkpt lat="46.48389" lon="5.30637">
        <ele>222.8</ele>
        <time>2022-03-02T12:09:53Z</time>
      </trkpt>
      <trkpt lat="46.48384" lon="5.30642">
        <ele>222.8</ele>
        <time>2022-03-02T12:09:54Z</time>
      </trkpt>
      <trkpt lat="46.48368" lon="5.30658">
        <ele>222.6</ele>
        <time>2022-03-02T12:09:57Z</time>
      </trkpt>
      <trkpt lat="46.48334" lon="5.30687">
        <ele>222.2</ele>
        <time>2022-03-02T12:10:03Z</time>
      </trkpt>
      <trkpt lat="46.48322" lon="5.30694">
        <ele>222.2</ele>
        <time>2022-03-02T12:10:05Z</time>
      </trkpt>
      <trkpt lat="46.4831" lon="5.30698">
        <ele>222</ele>
        <time>2022-03-02T12:10:07Z</time>
      </trkpt>
      <trkpt lat="46.48303" lon="5.30699">
        <ele>221.8</ele>
        <time>2022-03-02T12:10:08Z</time>
      </trkpt>
      <trkpt lat="46.4828" lon="5.30698">
        <ele>221.6</ele>
        <time>2022-03-02T12:10:12Z</time>
      </trkpt>
      <trkpt lat="46.48275" lon="5.30696">
        <ele>221.6</ele>
        <time>2022-03-02T12:10:13Z</time>
      </trkpt>
      <trkpt lat="46.48244" lon="5.30687">
        <ele>221.4</ele>
        <time>2022-03-02T12:10:19Z</time>
      </trkpt>
      <trkpt lat="46.48214" lon="5.30685">
        <ele>221.8</ele>
        <time>2022-03-02T12:10:25Z</time>
      </trkpt>
      <trkpt lat="46.48183" lon="5.30698">
        <ele>222.6</ele>
        <time>2022-03-02T12:10:32Z</time>
      </trkpt>
      <trkpt lat="46.48158" lon="5.30711">
        <ele>223.4</ele>
        <time>2022-03-02T12:10:38Z</time>
      </trkpt>
      <trkpt lat="46.48153" lon="5.30713">
        <ele>223.8</ele>
        <time>2022-03-02T12:10:39Z</time>
      </trkpt>
      <trkpt lat="46.48149" lon="5.30715">
        <ele>224</ele>
        <time>2022-03-02T12:10:40Z</time>
      </trkpt>
      <trkpt lat="46.4812" lon="5.30732">
        <ele>225</ele>
        <time>2022-03-02T12:10:46Z</time>
      </trkpt>
      <trkpt lat="46.48111" lon="5.30737">
        <ele>225.2</ele>
        <time>2022-03-02T12:10:48Z</time>
      </trkpt>
      <trkpt lat="46.48083" lon="5.30753">
        <ele>226</ele>
        <time>2022-03-02T12:10:54Z</time>
      </trkpt>
      <trkpt lat="46.48059" lon="5.30766">
        <ele>226.4</ele>
        <time>2022-03-02T12:10:59Z</time>
      </trkpt>
      <trkpt lat="46.48015" lon="5.3079">
        <ele>226.2</ele>
        <time>2022-03-02T12:11:07Z</time>
      </trkpt>
      <trkpt lat="46.4796" lon="5.30816">
        <ele>225</ele>
        <time>2022-03-02T12:11:16Z</time>
      </trkpt>
      <trkpt lat="46.47947" lon="5.30818">
        <ele>224.6</ele>
        <time>2022-03-02T12:11:18Z</time>
      </trkpt>
      <trkpt lat="46.47929" lon="5.30816">
        <ele>224</ele>
        <time>2022-03-02T12:11:21Z</time>
      </trkpt>
      <trkpt lat="46.47906" lon="5.3081">
        <ele>224</ele>
        <time>2022-03-02T12:11:26Z</time>
      </trkpt>
      <trkpt lat="46.47877" lon="5.308">
        <ele>226.2</ele>
        <time>2022-03-02T12:11:33Z</time>
      </trkpt>
      <trkpt lat="46.47869" lon="5.30798">
        <ele>226.6</ele>
        <time>2022-03-02T12:11:35Z</time>
      </trkpt>
      <trkpt lat="46.47865" lon="5.30798">
        <ele>226.8</ele>
        <time>2022-03-02T12:11:36Z</time>
      </trkpt>
      <trkpt lat="46.47861" lon="5.30798">
        <ele>227.2</ele>
        <time>2022-03-02T12:11:37Z</time>
      </trkpt>
      <trkpt lat="46.47853" lon="5.30798">
        <ele>227.8</ele>
        <time>2022-03-02T12:11:39Z</time>
      </trkpt>
      <trkpt lat="46.47845" lon="5.308">
        <ele>228.4</ele>
        <time>2022-03-02T12:11:41Z</time>
      </trkpt>
      <trkpt lat="46.4783" lon="5.30809">
        <ele>229.6</ele>
        <time>2022-03-02T12:11:45Z</time>
      </trkpt>
      <trkpt lat="46.47826" lon="5.30811">
        <ele>229.8</ele>
        <time>2022-03-02T12:11:46Z</time>
      </trkpt>
      <trkpt lat="46.47819" lon="5.30819">
        <ele>230.4</ele>
        <time>2022-03-02T12:11:48Z</time>
      </trkpt>
      <trkpt lat="46.47816" lon="5.30823">
        <ele>230.6</ele>
        <time>2022-03-02T12:11:49Z</time>
      </trkpt>
      <trkpt lat="46.47813" lon="5.30827">
        <ele>230.8</ele>
        <time>2022-03-02T12:11:50Z</time>
      </trkpt>
      <trkpt lat="46.47801" lon="5.30847">
        <ele>232</ele>
        <time>2022-03-02T12:11:54Z</time>
      </trkpt>
      <trkpt lat="46.47798" lon="5.30852">
        <ele>232</ele>
        <time>2022-03-02T12:11:55Z</time>
      </trkpt>
      <trkpt lat="46.47786" lon="5.30873">
        <ele>233</ele>
        <time>2022-03-02T12:11:59Z</time>
      </trkpt>
      <trkpt lat="46.47782" lon="5.30878">
        <ele>233</ele>
        <time>2022-03-02T12:12:00Z</time>
      </trkpt>
      <trkpt lat="46.47774" lon="5.30887">
        <ele>233.2</ele>
        <time>2022-03-02T12:12:02Z</time>
      </trkpt>
      <trkpt lat="46.47759" lon="5.30899">
        <ele>232.8</ele>
        <time>2022-03-02T12:12:05Z</time>
      </trkpt>
      <trkpt lat="46.47746" lon="5.30905">
        <ele>232.6</ele>
        <time>2022-03-02T12:12:07Z</time>
      </trkpt>
      <trkpt lat="46.47732" lon="5.30907">
        <ele>232.6</ele>
        <time>2022-03-02T12:12:09Z</time>
      </trkpt>
      <trkpt lat="46.47717" lon="5.30905">
        <ele>232.4</ele>
        <time>2022-03-02T12:12:11Z</time>
      </trkpt>
      <trkpt lat="46.47701" lon="5.309">
        <ele>231</ele>
        <time>2022-03-02T12:12:13Z</time>
      </trkpt>
      <trkpt lat="46.47687" lon="5.30894">
        <ele>230</ele>
        <time>2022-03-02T12:12:15Z</time>
      </trkpt>
      <trkpt lat="46.47672" lon="5.30889">
        <ele>229.2</ele>
        <time>2022-03-02T12:12:17Z</time>
      </trkpt>
      <trkpt lat="46.47656" lon="5.30888">
        <ele>228.6</ele>
        <time>2022-03-02T12:12:19Z</time>
      </trkpt>
      <trkpt lat="46.47643" lon="5.30891">
        <ele>227.8</ele>
        <time>2022-03-02T12:12:21Z</time>
      </trkpt>
      <trkpt lat="46.47635" lon="5.30894">
        <ele>227.6</ele>
        <time>2022-03-02T12:12:22Z</time>
      </trkpt>
      <trkpt lat="46.47592" lon="5.30913">
        <ele>226.4</ele>
        <time>2022-03-02T12:12:28Z</time>
      </trkpt>
      <trkpt lat="46.47555" lon="5.3093">
        <ele>225.2</ele>
        <time>2022-03-02T12:12:33Z</time>
      </trkpt>
      <trkpt lat="46.47535" lon="5.30941">
        <ele>224.2</ele>
        <time>2022-03-02T12:12:36Z</time>
      </trkpt>
      <trkpt lat="46.47521" lon="5.30951">
        <ele>224</ele>
        <time>2022-03-02T12:12:38Z</time>
      </trkpt>
      <trkpt lat="46.47475" lon="5.30981">
        <ele>223</ele>
        <time>2022-03-02T12:12:45Z</time>
      </trkpt>
      <trkpt lat="46.47469" lon="5.30985">
        <ele>223</ele>
        <time>2022-03-02T12:12:46Z</time>
      </trkpt>
      <trkpt lat="46.47428" lon="5.31012">
        <ele>222.8</ele>
        <time>2022-03-02T12:12:53Z</time>
      </trkpt>
      <trkpt lat="46.47394" lon="5.31034">
        <ele>224</ele>
        <time>2022-03-02T12:13:00Z</time>
      </trkpt>
      <trkpt lat="46.47389" lon="5.31037">
        <ele>224.2</ele>
        <time>2022-03-02T12:13:01Z</time>
      </trkpt>
      <trkpt lat="46.47363" lon="5.31055">
        <ele>225.2</ele>
        <time>2022-03-02T12:13:07Z</time>
      </trkpt>
      <trkpt lat="46.47356" lon="5.31061">
        <ele>225.8</ele>
        <time>2022-03-02T12:13:09Z</time>
      </trkpt>
      <trkpt lat="46.4734" lon="5.31076">
        <ele>226.4</ele>
        <time>2022-03-02T12:13:13Z</time>
      </trkpt>
      <trkpt lat="46.47323" lon="5.31095">
        <ele>227.4</ele>
        <time>2022-03-02T12:13:17Z</time>
      </trkpt>
      <trkpt lat="46.47319" lon="5.311">
        <ele>227.6</ele>
        <time>2022-03-02T12:13:18Z</time>
      </trkpt>
      <trkpt lat="46.47311" lon="5.31111">
        <ele>227.8</ele>
        <time>2022-03-02T12:13:20Z</time>
      </trkpt>
      <trkpt lat="46.47302" lon="5.31121">
        <ele>228.2</ele>
        <time>2022-03-02T12:13:22Z</time>
      </trkpt>
      <trkpt lat="46.47298" lon="5.31127">
        <ele>228.2</ele>
        <time>2022-03-02T12:13:23Z</time>
      </trkpt>
      <trkpt lat="46.4728" lon="5.31158">
        <ele>228.6</ele>
        <time>2022-03-02T12:13:28Z</time>
      </trkpt>
      <trkpt lat="46.47245" lon="5.3121">
        <ele>229</ele>
        <time>2022-03-02T12:13:37Z</time>
      </trkpt>
      <trkpt lat="46.47241" lon="5.31216">
        <ele>229</ele>
        <time>2022-03-02T12:13:38Z</time>
      </trkpt>
      <trkpt lat="46.47229" lon="5.31234">
        <ele>229.2</ele>
        <time>2022-03-02T12:13:42Z</time>
      </trkpt>
      <trkpt lat="46.47225" lon="5.3124">
        <ele>229.4</ele>
        <time>2022-03-02T12:13:43Z</time>
      </trkpt>
      <trkpt lat="46.47214" lon="5.31255">
        <ele>229.8</ele>
        <time>2022-03-02T12:13:46Z</time>
      </trkpt>
      <trkpt lat="46.47187" lon="5.31288">
        <ele>230</ele>
        <time>2022-03-02T12:13:52Z</time>
      </trkpt>
      <trkpt lat="46.47174" lon="5.31304">
        <ele>230.4</ele>
        <time>2022-03-02T12:13:55Z</time>
      </trkpt>
      <trkpt lat="46.47157" lon="5.31328">
        <ele>230.6</ele>
        <time>2022-03-02T12:13:59Z</time>
      </trkpt>
      <trkpt lat="46.47152" lon="5.31332">
        <ele>231</ele>
        <time>2022-03-02T12:14:00Z</time>
      </trkpt>
      <trkpt lat="46.4714" lon="5.3135">
        <ele>231.4</ele>
        <time>2022-03-02T12:14:03Z</time>
      </trkpt>
      <trkpt lat="46.47117" lon="5.31389">
        <ele>231.4</ele>
        <time>2022-03-02T12:14:09Z</time>
      </trkpt>
      <trkpt lat="46.47088" lon="5.3143">
        <ele>231.2</ele>
        <time>2022-03-02T12:14:16Z</time>
      </trkpt>
      <trkpt lat="46.47056" lon="5.31469">
        <ele>231.2</ele>
        <time>2022-03-02T12:14:23Z</time>
      </trkpt>
      <trkpt lat="46.47027" lon="5.31502">
        <ele>231.4</ele>
        <time>2022-03-02T12:14:29Z</time>
      </trkpt>
      <trkpt lat="46.47014" lon="5.31519">
        <ele>231.6</ele>
        <time>2022-03-02T12:14:32Z</time>
      </trkpt>
      <trkpt lat="46.46997" lon="5.31541">
        <ele>231.8</ele>
        <time>2022-03-02T12:14:36Z</time>
      </trkpt>
      <trkpt lat="46.46989" lon="5.31551">
        <ele>231.8</ele>
        <time>2022-03-02T12:14:38Z</time>
      </trkpt>
      <trkpt lat="46.46972" lon="5.31572">
        <ele>232.6</ele>
        <time>2022-03-02T12:14:42Z</time>
      </trkpt>
      <trkpt lat="46.46959" lon="5.31589">
        <ele>232.8</ele>
        <time>2022-03-02T12:14:45Z</time>
      </trkpt>
      <trkpt lat="46.46933" lon="5.31621">
        <ele>232.8</ele>
        <time>2022-03-02T12:14:51Z</time>
      </trkpt>
      <trkpt lat="46.46907" lon="5.31656">
        <ele>233.2</ele>
        <time>2022-03-02T12:14:57Z</time>
      </trkpt>
      <trkpt lat="46.46874" lon="5.31699">
        <ele>233.4</ele>
        <time>2022-03-02T12:15:04Z</time>
      </trkpt>
      <trkpt lat="46.46839" lon="5.31742">
        <ele>233</ele>
        <time>2022-03-02T12:15:11Z</time>
      </trkpt>
      <trkpt lat="46.46829" lon="5.31754">
        <ele>232.8</ele>
        <time>2022-03-02T12:15:13Z</time>
      </trkpt>
      <trkpt lat="46.46808" lon="5.31778">
        <ele>232.4</ele>
        <time>2022-03-02T12:15:17Z</time>
      </trkpt>
      <trkpt lat="46.46762" lon="5.31834">
        <ele>231.8</ele>
        <time>2022-03-02T12:15:26Z</time>
      </trkpt>
      <trkpt lat="46.46741" lon="5.31857">
        <ele>231.6</ele>
        <time>2022-03-02T12:15:30Z</time>
      </trkpt>
      <trkpt lat="46.46713" lon="5.31882">
        <ele>231.4</ele>
        <time>2022-03-02T12:15:35Z</time>
      </trkpt>
      <trkpt lat="46.46663" lon="5.31921">
        <ele>231.4</ele>
        <time>2022-03-02T12:15:44Z</time>
      </trkpt>
      <trkpt lat="46.46632" lon="5.31957">
        <ele>231.8</ele>
        <time>2022-03-02T12:15:51Z</time>
      </trkpt>
      <trkpt lat="46.46597" lon="5.32017">
        <ele>232.6</ele>
        <time>2022-03-02T12:16:00Z</time>
      </trkpt>
      <trkpt lat="46.46593" lon="5.32024">
        <ele>232.6</ele>
        <time>2022-03-02T12:16:01Z</time>
      </trkpt>
      <trkpt lat="46.46558" lon="5.32089">
        <ele>232.8</ele>
        <time>2022-03-02T12:16:10Z</time>
      </trkpt>
      <trkpt lat="46.46522" lon="5.32152">
        <ele>232.8</ele>
        <time>2022-03-02T12:16:19Z</time>
      </trkpt>
      <trkpt lat="46.46494" lon="5.32202">
        <ele>233</ele>
        <time>2022-03-02T12:16:26Z</time>
      </trkpt>
      <trkpt lat="46.46461" lon="5.32263">
        <ele>233.4</ele>
        <time>2022-03-02T12:16:35Z</time>
      </trkpt>
      <trkpt lat="46.46434" lon="5.32313">
        <ele>233.4</ele>
        <time>2022-03-02T12:16:42Z</time>
      </trkpt>
      <trkpt lat="46.46401" lon="5.32376">
        <ele>233.6</ele>
        <time>2022-03-02T12:16:51Z</time>
      </trkpt>
      <trkpt lat="46.46398" lon="5.32383">
        <ele>233.6</ele>
        <time>2022-03-02T12:16:52Z</time>
      </trkpt>
      <trkpt lat="46.46372" lon="5.32445">
        <ele>233.6</ele>
        <time>2022-03-02T12:17:00Z</time>
      </trkpt>
      <trkpt lat="46.46343" lon="5.32519">
        <ele>233.4</ele>
        <time>2022-03-02T12:17:09Z</time>
      </trkpt>
      <trkpt lat="46.4634" lon="5.32528">
        <ele>233.2</ele>
        <time>2022-03-02T12:17:10Z</time>
      </trkpt>
      <trkpt lat="46.46324" lon="5.32582">
        <ele>233.2</ele>
        <time>2022-03-02T12:17:16Z</time>
      </trkpt>
      <trkpt lat="46.46318" lon="5.32642">
        <ele>233</ele>
        <time>2022-03-02T12:17:22Z</time>
      </trkpt>
      <trkpt lat="46.46319" lon="5.32714">
        <ele>233</ele>
        <time>2022-03-02T12:17:29Z</time>
      </trkpt>
      <trkpt lat="46.46316" lon="5.32765">
        <ele>233</ele>
        <time>2022-03-02T12:17:34Z</time>
      </trkpt>
      <trkpt lat="46.46314" lon="5.32775">
        <ele>233</ele>
        <time>2022-03-02T12:17:35Z</time>
      </trkpt>
      <trkpt lat="46.46303" lon="5.32801">
        <ele>233.4</ele>
        <time>2022-03-02T12:17:38Z</time>
      </trkpt>
      <trkpt lat="46.4628" lon="5.32836">
        <ele>233.8</ele>
        <time>2022-03-02T12:17:43Z</time>
      </trkpt>
      <trkpt lat="46.46275" lon="5.32843">
        <ele>234</ele>
        <time>2022-03-02T12:17:44Z</time>
      </trkpt>
      <trkpt lat="46.46235" lon="5.32901">
        <ele>234</ele>
        <time>2022-03-02T12:17:52Z</time>
      </trkpt>
      <trkpt lat="46.4621" lon="5.32937">
        <ele>234</ele>
        <time>2022-03-02T12:17:57Z</time>
      </trkpt>
      <trkpt lat="46.46204" lon="5.32944">
        <ele>234</ele>
        <time>2022-03-02T12:17:58Z</time>
      </trkpt>
      <trkpt lat="46.46181" lon="5.32965">
        <ele>233.6</ele>
        <time>2022-03-02T12:18:02Z</time>
      </trkpt>
      <trkpt lat="46.46153" lon="5.32985">
        <ele>234</ele>
        <time>2022-03-02T12:18:07Z</time>
      </trkpt>
      <trkpt lat="46.46116" lon="5.33008">
        <ele>234.4</ele>
        <time>2022-03-02T12:18:14Z</time>
      </trkpt>
      <trkpt lat="46.46099" lon="5.33017">
        <ele>234.8</ele>
        <time>2022-03-02T12:18:18Z</time>
      </trkpt>
      <trkpt lat="46.46077" lon="5.33032">
        <ele>235</ele>
        <time>2022-03-02T12:18:22Z</time>
      </trkpt>
      <trkpt lat="46.46053" lon="5.33052">
        <ele>235.4</ele>
        <time>2022-03-02T12:18:26Z</time>
      </trkpt>
      <trkpt lat="46.46047" lon="5.33057">
        <ele>235.4</ele>
        <time>2022-03-02T12:18:27Z</time>
      </trkpt>
      <trkpt lat="46.46007" lon="5.33094">
        <ele>235.4</ele>
        <time>2022-03-02T12:18:34Z</time>
      </trkpt>
      <trkpt lat="46.45963" lon="5.33139">
        <ele>235.2</ele>
        <time>2022-03-02T12:18:42Z</time>
      </trkpt>
      <trkpt lat="46.45953" lon="5.33149">
        <ele>235.2</ele>
        <time>2022-03-02T12:18:44Z</time>
      </trkpt>
      <trkpt lat="46.45926" lon="5.33177">
        <ele>236</ele>
        <time>2022-03-02T12:18:50Z</time>
      </trkpt>
      <trkpt lat="46.45921" lon="5.33182">
        <ele>236.2</ele>
        <time>2022-03-02T12:18:51Z</time>
      </trkpt>
      <trkpt lat="46.45907" lon="5.33197">
        <ele>236</ele>
        <time>2022-03-02T12:18:54Z</time>
      </trkpt>
      <trkpt lat="46.45873" lon="5.33235">
        <ele>236.2</ele>
        <time>2022-03-02T12:19:02Z</time>
      </trkpt>
      <trkpt lat="46.45842" lon="5.33281">
        <ele>236.6</ele>
        <time>2022-03-02T12:19:10Z</time>
      </trkpt>
      <trkpt lat="46.45816" lon="5.33333">
        <ele>237</ele>
        <time>2022-03-02T12:19:18Z</time>
      </trkpt>
      <trkpt lat="46.45812" lon="5.33339">
        <ele>237.2</ele>
        <time>2022-03-02T12:19:19Z</time>
      </trkpt>
      <trkpt lat="46.45795" lon="5.33372">
        <ele>237.6</ele>
        <time>2022-03-02T12:19:24Z</time>
      </trkpt>
      <trkpt lat="46.45769" lon="5.33432">
        <ele>237.8</ele>
        <time>2022-03-02T12:19:33Z</time>
      </trkpt>
      <trkpt lat="46.45752" lon="5.33474">
        <ele>238.4</ele>
        <time>2022-03-02T12:19:39Z</time>
      </trkpt>
      <trkpt lat="46.45743" lon="5.33495">
        <ele>238.6</ele>
        <time>2022-03-02T12:19:42Z</time>
      </trkpt>
      <trkpt lat="46.45714" lon="5.33563">
        <ele>239.4</ele>
        <time>2022-03-02T12:19:52Z</time>
      </trkpt>
      <trkpt lat="46.457" lon="5.33597">
        <ele>240.2</ele>
        <time>2022-03-02T12:19:58Z</time>
      </trkpt>
      <trkpt lat="46.45695" lon="5.3361">
        <ele>240.6</ele>
        <time>2022-03-02T12:20:00Z</time>
      </trkpt>
      <trkpt lat="46.45681" lon="5.33644">
        <ele>241.4</ele>
        <time>2022-03-02T12:20:05Z</time>
      </trkpt>
      <trkpt lat="46.45678" lon="5.33651">
        <ele>241.6</ele>
        <time>2022-03-02T12:20:06Z</time>
      </trkpt>
      <trkpt lat="46.45675" lon="5.33657">
        <ele>241.6</ele>
        <time>2022-03-02T12:20:07Z</time>
      </trkpt>
      <trkpt lat="46.4567" lon="5.3367">
        <ele>241.6</ele>
        <time>2022-03-02T12:20:09Z</time>
      </trkpt>
      <trkpt lat="46.45667" lon="5.33676">
        <ele>241.8</ele>
        <time>2022-03-02T12:20:10Z</time>
      </trkpt>
      <trkpt lat="46.45643" lon="5.33731">
        <ele>242.4</ele>
        <time>2022-03-02T12:20:18Z</time>
      </trkpt>
      <trkpt lat="46.45641" lon="5.33737">
        <ele>242.8</ele>
        <time>2022-03-02T12:20:19Z</time>
      </trkpt>
      <trkpt lat="46.45623" lon="5.33784">
        <ele>243.4</ele>
        <time>2022-03-02T12:20:26Z</time>
      </trkpt>
      <trkpt lat="46.45618" lon="5.33794">
        <ele>243.8</ele>
        <time>2022-03-02T12:20:28Z</time>
      </trkpt>
      <trkpt lat="46.45607" lon="5.33815">
        <ele>244.2</ele>
        <time>2022-03-02T12:20:32Z</time>
      </trkpt>
      <trkpt lat="46.45604" lon="5.33821">
        <ele>244.2</ele>
        <time>2022-03-02T12:20:33Z</time>
      </trkpt>
      <trkpt lat="46.45599" lon="5.33832">
        <ele>244.6</ele>
        <time>2022-03-02T12:20:35Z</time>
      </trkpt>
      <trkpt lat="46.45593" lon="5.33843">
        <ele>244.8</ele>
        <time>2022-03-02T12:20:37Z</time>
      </trkpt>
      <trkpt lat="46.45573" lon="5.33892">
        <ele>246</ele>
        <time>2022-03-02T12:20:45Z</time>
      </trkpt>
      <trkpt lat="46.45555" lon="5.33933">
        <ele>247</ele>
        <time>2022-03-02T12:20:53Z</time>
      </trkpt>
      <trkpt lat="46.45551" lon="5.33942">
        <ele>247.4</ele>
        <time>2022-03-02T12:20:55Z</time>
      </trkpt>
      <trkpt lat="46.45548" lon="5.33948">
        <ele>247.6</ele>
        <time>2022-03-02T12:20:56Z</time>
      </trkpt>
      <trkpt lat="46.45543" lon="5.33958">
        <ele>248.2</ele>
        <time>2022-03-02T12:20:58Z</time>
      </trkpt>
      <trkpt lat="46.45536" lon="5.33966">
        <ele>248.6</ele>
        <time>2022-03-02T12:21:00Z</time>
      </trkpt>
      <trkpt lat="46.45527" lon="5.33977">
        <ele>249.2</ele>
        <time>2022-03-02T12:21:03Z</time>
      </trkpt>
      <trkpt lat="46.45523" lon="5.33982">
        <ele>249.4</ele>
        <time>2022-03-02T12:21:04Z</time>
      </trkpt>
      <trkpt lat="46.45513" lon="5.33994">
        <ele>250</ele>
        <time>2022-03-02T12:21:07Z</time>
      </trkpt>
      <trkpt lat="46.45507" lon="5.33999">
        <ele>250.4</ele>
        <time>2022-03-02T12:21:09Z</time>
      </trkpt>
      <trkpt lat="46.455" lon="5.34006">
        <ele>250.6</ele>
        <time>2022-03-02T12:21:11Z</time>
      </trkpt>
      <trkpt lat="46.45488" lon="5.34014">
        <ele>251.4</ele>
        <time>2022-03-02T12:21:14Z</time>
      </trkpt>
      <trkpt lat="46.45473" lon="5.34021">
        <ele>252.2</ele>
        <time>2022-03-02T12:21:19Z</time>
      </trkpt>
      <trkpt lat="46.45467" lon="5.34025">
        <ele>252.8</ele>
        <time>2022-03-02T12:21:21Z</time>
      </trkpt>
      <trkpt lat="46.45455" lon="5.34031">
        <ele>253.8</ele>
        <time>2022-03-02T12:21:25Z</time>
      </trkpt>
      <trkpt lat="46.45436" lon="5.34038">
        <ele>254.6</ele>
        <time>2022-03-02T12:21:30Z</time>
      </trkpt>
      <trkpt lat="46.45432" lon="5.3404">
        <ele>254.8</ele>
        <time>2022-03-02T12:21:31Z</time>
      </trkpt>
      <trkpt lat="46.45415" lon="5.34043">
        <ele>255.6</ele>
        <time>2022-03-02T12:21:35Z</time>
      </trkpt>
      <trkpt lat="46.4541" lon="5.34044">
        <ele>255.8</ele>
        <time>2022-03-02T12:21:36Z</time>
      </trkpt>
      <trkpt lat="46.45388" lon="5.34049">
        <ele>256.6</ele>
        <time>2022-03-02T12:21:40Z</time>
      </trkpt>
      <trkpt lat="46.45374" lon="5.34052">
        <ele>256.8</ele>
        <time>2022-03-02T12:21:43Z</time>
      </trkpt>
      <trkpt lat="46.45353" lon="5.34058">
        <ele>257.4</ele>
        <time>2022-03-02T12:21:47Z</time>
      </trkpt>
      <trkpt lat="46.45329" lon="5.3406">
        <ele>258</ele>
        <time>2022-03-02T12:21:52Z</time>
      </trkpt>
      <trkpt lat="46.45287" lon="5.34072">
        <ele>258.8</ele>
        <time>2022-03-02T12:22:00Z</time>
      </trkpt>
      <trkpt lat="46.45267" lon="5.34074">
        <ele>259</ele>
        <time>2022-03-02T12:22:04Z</time>
      </trkpt>
      <trkpt lat="46.45252" lon="5.34078">
        <ele>259.4</ele>
        <time>2022-03-02T12:22:07Z</time>
      </trkpt>
      <trkpt lat="46.45209" lon="5.34087">
        <ele>260.2</ele>
        <time>2022-03-02T12:22:16Z</time>
      </trkpt>
      <trkpt lat="46.45168" lon="5.34097">
        <ele>261.2</ele>
        <time>2022-03-02T12:22:25Z</time>
      </trkpt>
      <trkpt lat="46.45158" lon="5.34099">
        <ele>261.2</ele>
        <time>2022-03-02T12:22:27Z</time>
      </trkpt>
      <trkpt lat="46.4513" lon="5.34105">
        <ele>261.4</ele>
        <time>2022-03-02T12:22:33Z</time>
      </trkpt>
      <trkpt lat="46.45077" lon="5.34115">
        <ele>261.8</ele>
        <time>2022-03-02T12:22:43Z</time>
      </trkpt>
      <trkpt lat="46.45039" lon="5.34119">
        <ele>261.4</ele>
        <time>2022-03-02T12:22:49Z</time>
      </trkpt>
      <trkpt lat="46.44996" lon="5.34117">
        <ele>260</ele>
        <time>2022-03-02T12:22:55Z</time>
      </trkpt>
      <trkpt lat="46.44967" lon="5.34109">
        <ele>258.8</ele>
        <time>2022-03-02T12:22:59Z</time>
      </trkpt>
      <trkpt lat="46.44938" lon="5.34101">
        <ele>257.8</ele>
        <time>2022-03-02T12:23:03Z</time>
      </trkpt>
      <trkpt lat="46.44916" lon="5.34094">
        <ele>256.6</ele>
        <time>2022-03-02T12:23:06Z</time>
      </trkpt>
      <trkpt lat="46.44879" lon="5.34087">
        <ele>255.2</ele>
        <time>2022-03-02T12:23:11Z</time>
      </trkpt>
      <trkpt lat="46.44872" lon="5.34087">
        <ele>255.2</ele>
        <time>2022-03-02T12:23:12Z</time>
      </trkpt>
      <trkpt lat="46.44849" lon="5.34093">
        <ele>254.2</ele>
        <time>2022-03-02T12:23:15Z</time>
      </trkpt>
      <trkpt lat="46.44842" lon="5.34097">
        <ele>254</ele>
        <time>2022-03-02T12:23:16Z</time>
      </trkpt>
      <trkpt lat="46.44835" lon="5.34102">
        <ele>253.8</ele>
        <time>2022-03-02T12:23:17Z</time>
      </trkpt>
      <trkpt lat="46.44815" lon="5.34124">
        <ele>252.2</ele>
        <time>2022-03-02T12:23:20Z</time>
      </trkpt>
      <trkpt lat="46.4481" lon="5.34133">
        <ele>251.8</ele>
        <time>2022-03-02T12:23:21Z</time>
      </trkpt>
      <trkpt lat="46.44797" lon="5.3415">
        <ele>251.4</ele>
        <time>2022-03-02T12:23:23Z</time>
      </trkpt>
      <trkpt lat="46.44792" lon="5.3416">
        <ele>251.2</ele>
        <time>2022-03-02T12:23:24Z</time>
      </trkpt>
      <trkpt lat="46.44788" lon="5.34171">
        <ele>250.8</ele>
        <time>2022-03-02T12:23:25Z</time>
      </trkpt>
      <trkpt lat="46.44779" lon="5.34194">
        <ele>250</ele>
        <time>2022-03-02T12:23:27Z</time>
      </trkpt>
      <trkpt lat="46.44763" lon="5.34228">
        <ele>249</ele>
        <time>2022-03-02T12:23:30Z</time>
      </trkpt>
      <trkpt lat="46.44751" lon="5.34249">
        <ele>248</ele>
        <time>2022-03-02T12:23:32Z</time>
      </trkpt>
      <trkpt lat="46.44735" lon="5.34265">
        <ele>247.2</ele>
        <time>2022-03-02T12:23:34Z</time>
      </trkpt>
      <trkpt lat="46.44726" lon="5.34272">
        <ele>247</ele>
        <time>2022-03-02T12:23:35Z</time>
      </trkpt>
      <trkpt lat="46.44717" lon="5.34276">
        <ele>246.4</ele>
        <time>2022-03-02T12:23:36Z</time>
      </trkpt>
      <trkpt lat="46.44708" lon="5.34279">
        <ele>246</ele>
        <time>2022-03-02T12:23:37Z</time>
      </trkpt>
      <trkpt lat="46.44699" lon="5.34279">
        <ele>245.6</ele>
        <time>2022-03-02T12:23:38Z</time>
      </trkpt>
      <trkpt lat="46.44681" lon="5.3428">
        <ele>245</ele>
        <time>2022-03-02T12:23:40Z</time>
      </trkpt>
      <trkpt lat="46.44673" lon="5.34283">
        <ele>244.2</ele>
        <time>2022-03-02T12:23:41Z</time>
      </trkpt>
      <trkpt lat="46.44667" lon="5.34289">
        <ele>243.8</ele>
        <time>2022-03-02T12:23:42Z</time>
      </trkpt>
      <trkpt lat="46.44659" lon="5.343">
        <ele>243.2</ele>
        <time>2022-03-02T12:23:44Z</time>
      </trkpt>
      <trkpt lat="46.44657" lon="5.34303">
        <ele>242.8</ele>
        <time>2022-03-02T12:23:45Z</time>
      </trkpt>
      <trkpt lat="46.44655" lon="5.34305">
        <ele>242</ele>
        <time>2022-03-02T12:23:47Z</time>
      </trkpt>
      <trkpt lat="46.44655" lon="5.34306">
        <ele>241.2</ele>
        <time>2022-03-02T12:23:48Z</time>
      </trkpt>
      <trkpt lat="46.44653" lon="5.34307">
        <ele>240.4</ele>
        <time>2022-03-02T12:23:50Z</time>
      </trkpt>
      <trkpt lat="46.4465" lon="5.34306">
        <ele>240.2</ele>
        <time>2022-03-02T12:23:51Z</time>
      </trkpt>
      <trkpt lat="46.44634" lon="5.34294">
        <ele>239.6</ele>
        <time>2022-03-02T12:23:55Z</time>
      </trkpt>
      <trkpt lat="46.44604" lon="5.34268">
        <ele>239.6</ele>
        <time>2022-03-02T12:24:01Z</time>
      </trkpt>
      <trkpt lat="46.44594" lon="5.3426">
        <ele>239.6</ele>
        <time>2022-03-02T12:24:03Z</time>
      </trkpt>
      <trkpt lat="46.44576" lon="5.34251">
        <ele>239.6</ele>
        <time>2022-03-02T12:24:06Z</time>
      </trkpt>
      <trkpt lat="46.44557" lon="5.34241">
        <ele>239.4</ele>
        <time>2022-03-02T12:24:09Z</time>
      </trkpt>
      <trkpt lat="46.44552" lon="5.34234">
        <ele>239.2</ele>
        <time>2022-03-02T12:24:10Z</time>
      </trkpt>
      <trkpt lat="46.44548" lon="5.34226">
        <ele>238.8</ele>
        <time>2022-03-02T12:24:11Z</time>
      </trkpt>
      <trkpt lat="46.44545" lon="5.34206">
        <ele>238.4</ele>
        <time>2022-03-02T12:24:13Z</time>
      </trkpt>
      <trkpt lat="46.44545" lon="5.34185">
        <ele>237.8</ele>
        <time>2022-03-02T12:24:15Z</time>
      </trkpt>
      <trkpt lat="46.44544" lon="5.34174">
        <ele>237.6</ele>
        <time>2022-03-02T12:24:16Z</time>
      </trkpt>
      <trkpt lat="46.44541" lon="5.34152">
        <ele>236.8</ele>
        <time>2022-03-02T12:24:18Z</time>
      </trkpt>
      <trkpt lat="46.44538" lon="5.34141">
        <ele>236.8</ele>
        <time>2022-03-02T12:24:19Z</time>
      </trkpt>
      <trkpt lat="46.44522" lon="5.34088">
        <ele>234</ele>
        <time>2022-03-02T12:24:24Z</time>
      </trkpt>
      <trkpt lat="46.44519" lon="5.34077">
        <ele>235.8</ele>
        <time>2022-03-02T12:24:25Z</time>
      </trkpt>
      <trkpt lat="46.44508" lon="5.34047">
        <ele>234.6</ele>
        <time>2022-03-02T12:24:28Z</time>
      </trkpt>
      <trkpt lat="46.44496" lon="5.34021">
        <ele>234.2</ele>
        <time>2022-03-02T12:24:31Z</time>
      </trkpt>
      <trkpt lat="46.44477" lon="5.3399">
        <ele>233.8</ele>
        <time>2022-03-02T12:24:35Z</time>
      </trkpt>
      <trkpt lat="46.44472" lon="5.33984">
        <ele>233.6</ele>
        <time>2022-03-02T12:24:36Z</time>
      </trkpt>
      <trkpt lat="46.44467" lon="5.33978">
        <ele>233.6</ele>
        <time>2022-03-02T12:24:37Z</time>
      </trkpt>
      <trkpt lat="46.4443" lon="5.33946">
        <ele>233</ele>
        <time>2022-03-02T12:24:43Z</time>
      </trkpt>
      <trkpt lat="46.44403" lon="5.33928">
        <ele>232.4</ele>
        <time>2022-03-02T12:24:47Z</time>
      </trkpt>
      <trkpt lat="46.44379" lon="5.33904">
        <ele>232</ele>
        <time>2022-03-02T12:24:51Z</time>
      </trkpt>
      <trkpt lat="46.44352" lon="5.33869">
        <ele>231.4</ele>
        <time>2022-03-02T12:24:56Z</time>
      </trkpt>
      <trkpt lat="46.44347" lon="5.33861">
        <ele>231.2</ele>
        <time>2022-03-02T12:24:57Z</time>
      </trkpt>
      <trkpt lat="46.44304" lon="5.33808">
        <ele>230.6</ele>
        <time>2022-03-02T12:25:05Z</time>
      </trkpt>
      <trkpt lat="46.44299" lon="5.33802">
        <ele>230.4</ele>
        <time>2022-03-02T12:25:06Z</time>
      </trkpt>
      <trkpt lat="46.44287" lon="5.33792">
        <ele>230.2</ele>
        <time>2022-03-02T12:25:08Z</time>
      </trkpt>
      <trkpt lat="46.44257" lon="5.33769">
        <ele>229.8</ele>
        <time>2022-03-02T12:25:13Z</time>
      </trkpt>
      <trkpt lat="46.44202" lon="5.33731">
        <ele>229.6</ele>
        <time>2022-03-02T12:25:22Z</time>
      </trkpt>
      <trkpt lat="46.44185" lon="5.33715">
        <ele>229.4</ele>
        <time>2022-03-02T12:25:25Z</time>
      </trkpt>
      <trkpt lat="46.44156" lon="5.33685">
        <ele>228.8</ele>
        <time>2022-03-02T12:25:30Z</time>
      </trkpt>
      <trkpt lat="46.44111" lon="5.33634">
        <ele>228.6</ele>
        <time>2022-03-02T12:25:39Z</time>
      </trkpt>
      <trkpt lat="46.44096" lon="5.33617">
        <ele>228.6</ele>
        <time>2022-03-02T12:25:42Z</time>
      </trkpt>
      <trkpt lat="46.44083" lon="5.33595">
        <ele>228.4</ele>
        <time>2022-03-02T12:25:45Z</time>
      </trkpt>
      <trkpt lat="46.44077" lon="5.33582">
        <ele>228.4</ele>
        <time>2022-03-02T12:25:47Z</time>
      </trkpt>
      <trkpt lat="46.44069" lon="5.33554">
        <ele>228.4</ele>
        <time>2022-03-02T12:25:50Z</time>
      </trkpt>
      <trkpt lat="46.44066" lon="5.33539">
        <ele>228.4</ele>
        <time>2022-03-02T12:25:52Z</time>
      </trkpt>
      <trkpt lat="46.44059" lon="5.33525">
        <ele>228.2</ele>
        <time>2022-03-02T12:25:54Z</time>
      </trkpt>
      <trkpt lat="46.44052" lon="5.33519">
        <ele>228.2</ele>
        <time>2022-03-02T12:25:55Z</time>
      </trkpt>
      <trkpt lat="46.4401" lon="5.33505">
        <ele>227.6</ele>
        <time>2022-03-02T12:26:02Z</time>
      </trkpt>
      <trkpt lat="46.44004" lon="5.33502">
        <ele>227.4</ele>
        <time>2022-03-02T12:26:03Z</time>
      </trkpt>
      <trkpt lat="46.43974" lon="5.33487">
        <ele>227.4</ele>
        <time>2022-03-02T12:26:08Z</time>
      </trkpt>
      <trkpt lat="46.43924" lon="5.33455">
        <ele>227</ele>
        <time>2022-03-02T12:26:17Z</time>
      </trkpt>
      <trkpt lat="46.43918" lon="5.33452">
        <ele>227</ele>
        <time>2022-03-02T12:26:18Z</time>
      </trkpt>
      <trkpt lat="46.43869" lon="5.33436">
        <ele>226.8</ele>
        <time>2022-03-02T12:26:26Z</time>
      </trkpt>
      <trkpt lat="46.4382" lon="5.33432">
        <ele>226.6</ele>
        <time>2022-03-02T12:26:34Z</time>
      </trkpt>
      <trkpt lat="46.438" lon="5.33433">
        <ele>226.4</ele>
        <time>2022-03-02T12:26:37Z</time>
      </trkpt>
      <trkpt lat="46.43759" lon="5.33439">
        <ele>226.2</ele>
        <time>2022-03-02T12:26:44Z</time>
      </trkpt>
      <trkpt lat="46.43703" lon="5.33446">
        <ele>225.8</ele>
        <time>2022-03-02T12:26:53Z</time>
      </trkpt>
      <trkpt lat="46.43697" lon="5.33446">
        <ele>225.6</ele>
        <time>2022-03-02T12:26:54Z</time>
      </trkpt>
      <trkpt lat="46.43673" lon="5.33447">
        <ele>225.6</ele>
        <time>2022-03-02T12:26:58Z</time>
      </trkpt>
      <trkpt lat="46.43632" lon="5.33449">
        <ele>226</ele>
        <time>2022-03-02T12:27:05Z</time>
      </trkpt>
      <trkpt lat="46.43589" lon="5.33449">
        <ele>226.4</ele>
        <time>2022-03-02T12:27:13Z</time>
      </trkpt>
      <trkpt lat="46.4354" lon="5.33446">
        <ele>226.6</ele>
        <time>2022-03-02T12:27:22Z</time>
      </trkpt>
      <trkpt lat="46.43535" lon="5.33449">
        <ele>226.6</ele>
        <time>2022-03-02T12:27:23Z</time>
      </trkpt>
      <trkpt lat="46.4353" lon="5.33453">
        <ele>226.6</ele>
        <time>2022-03-02T12:27:24Z</time>
      </trkpt>
      <trkpt lat="46.43516" lon="5.3347">
        <ele>226.6</ele>
        <time>2022-03-02T12:27:27Z</time>
      </trkpt>
      <trkpt lat="46.43482" lon="5.33513">
        <ele>226.6</ele>
        <time>2022-03-02T12:27:35Z</time>
      </trkpt>
      <trkpt lat="46.43467" lon="5.33539">
        <ele>226.2</ele>
        <time>2022-03-02T12:27:39Z</time>
      </trkpt>
      <trkpt lat="46.43462" lon="5.33553">
        <ele>226.2</ele>
        <time>2022-03-02T12:27:41Z</time>
      </trkpt>
      <trkpt lat="46.43456" lon="5.33573">
        <ele>226.8</ele>
        <time>2022-03-02T12:27:44Z</time>
      </trkpt>
      <trkpt lat="46.43454" lon="5.33587">
        <ele>226.8</ele>
        <time>2022-03-02T12:27:46Z</time>
      </trkpt>
      <trkpt lat="46.43454" lon="5.33614">
        <ele>227.2</ele>
        <time>2022-03-02T12:27:50Z</time>
      </trkpt>
      <trkpt lat="46.43454" lon="5.33631">
        <ele>227.6</ele>
        <time>2022-03-02T12:27:53Z</time>
      </trkpt>
      <trkpt lat="46.43455" lon="5.33636">
        <ele>227.8</ele>
        <time>2022-03-02T12:27:54Z</time>
      </trkpt>
      <trkpt lat="46.43462" lon="5.33662">
        <ele>228.6</ele>
        <time>2022-03-02T12:27:59Z</time>
      </trkpt>
      <trkpt lat="46.43464" lon="5.33668">
        <ele>228.8</ele>
        <time>2022-03-02T12:28:00Z</time>
      </trkpt>
      <trkpt lat="46.4347" lon="5.33685">
        <ele>230</ele>
        <time>2022-03-02T12:28:03Z</time>
      </trkpt>
      <trkpt lat="46.43476" lon="5.337">
        <ele>230.6</ele>
        <time>2022-03-02T12:28:06Z</time>
      </trkpt>
      <trkpt lat="46.43481" lon="5.33709">
        <ele>231</ele>
        <time>2022-03-02T12:28:08Z</time>
      </trkpt>
      <trkpt lat="46.43492" lon="5.33729">
        <ele>231.6</ele>
        <time>2022-03-02T12:28:12Z</time>
      </trkpt>
      <trkpt lat="46.43498" lon="5.33744">
        <ele>232</ele>
        <time>2022-03-02T12:28:15Z</time>
      </trkpt>
      <trkpt lat="46.435" lon="5.33766">
        <ele>232.4</ele>
        <time>2022-03-02T12:28:18Z</time>
      </trkpt>
      <trkpt lat="46.435" lon="5.33786">
        <ele>233.2</ele>
        <time>2022-03-02T12:28:21Z</time>
      </trkpt>
      <trkpt lat="46.43497" lon="5.33808">
        <ele>233.8</ele>
        <time>2022-03-02T12:28:25Z</time>
      </trkpt>
      <trkpt lat="46.43496" lon="5.33819">
        <ele>234.4</ele>
        <time>2022-03-02T12:28:27Z</time>
      </trkpt>
      <trkpt lat="46.43493" lon="5.33847">
        <ele>234.8</ele>
        <time>2022-03-02T12:28:32Z</time>
      </trkpt>
      <trkpt lat="46.43491" lon="5.33864">
        <ele>235.4</ele>
        <time>2022-03-02T12:28:35Z</time>
      </trkpt>
      <trkpt lat="46.43489" lon="5.33885">
        <ele>236.6</ele>
        <time>2022-03-02T12:28:39Z</time>
      </trkpt>
      <trkpt lat="46.43489" lon="5.33898">
        <ele>237.6</ele>
        <time>2022-03-02T12:28:42Z</time>
      </trkpt>
      <trkpt lat="46.43486" lon="5.33919">
        <ele>238.8</ele>
        <time>2022-03-02T12:28:46Z</time>
      </trkpt>
      <trkpt lat="46.43483" lon="5.33947">
        <ele>239.8</ele>
        <time>2022-03-02T12:28:51Z</time>
      </trkpt>
      <trkpt lat="46.43482" lon="5.33968">
        <ele>240.8</ele>
        <time>2022-03-02T12:28:55Z</time>
      </trkpt>
      <trkpt lat="46.43482" lon="5.33973">
        <ele>241</ele>
        <time>2022-03-02T12:28:56Z</time>
      </trkpt>
      <trkpt lat="46.43479" lon="5.33999">
        <ele>242.2</ele>
        <time>2022-03-02T12:29:01Z</time>
      </trkpt>
      <trkpt lat="46.43478" lon="5.3401">
        <ele>242.6</ele>
        <time>2022-03-02T12:29:03Z</time>
      </trkpt>
      <trkpt lat="46.43476" lon="5.34034">
        <ele>243.4</ele>
        <time>2022-03-02T12:29:07Z</time>
      </trkpt>
      <trkpt lat="46.43473" lon="5.34058">
        <ele>244</ele>
        <time>2022-03-02T12:29:11Z</time>
      </trkpt>
      <trkpt lat="46.4347" lon="5.34091">
        <ele>244.4</ele>
        <time>2022-03-02T12:29:16Z</time>
      </trkpt>
      <trkpt lat="46.43467" lon="5.34125">
        <ele>245.4</ele>
        <time>2022-03-02T12:29:21Z</time>
      </trkpt>
      <trkpt lat="46.43462" lon="5.34164">
        <ele>245.6</ele>
        <time>2022-03-02T12:29:27Z</time>
      </trkpt>
      <trkpt lat="46.43458" lon="5.34185">
        <ele>246</ele>
        <time>2022-03-02T12:29:30Z</time>
      </trkpt>
      <trkpt lat="46.43447" lon="5.34229">
        <ele>246.6</ele>
        <time>2022-03-02T12:29:37Z</time>
      </trkpt>
      <trkpt lat="46.43446" lon="5.34258">
        <ele>246.8</ele>
        <time>2022-03-02T12:29:41Z</time>
      </trkpt>
      <trkpt lat="46.43441" lon="5.34271">
        <ele>246.8</ele>
        <time>2022-03-02T12:29:43Z</time>
      </trkpt>
      <trkpt lat="46.4343" lon="5.34272">
        <ele>246.8</ele>
        <time>2022-03-02T12:29:45Z</time>
      </trkpt>
      <trkpt lat="46.43422" lon="5.3427">
        <ele>246.8</ele>
        <time>2022-03-02T12:29:46Z</time>
      </trkpt>
      <trkpt lat="46.43388" lon="5.34258">
        <ele>245.6</ele>
        <time>2022-03-02T12:29:50Z</time>
      </trkpt>
      <trkpt lat="46.43377" lon="5.34254">
        <ele>245</ele>
        <time>2022-03-02T12:29:51Z</time>
      </trkpt>
      <trkpt lat="46.43357" lon="5.34248">
        <ele>243.8</ele>
        <time>2022-03-02T12:29:53Z</time>
      </trkpt>
      <trkpt lat="46.4334" lon="5.3424">
        <ele>242.4</ele>
        <time>2022-03-02T12:29:55Z</time>
      </trkpt>
      <trkpt lat="46.43319" lon="5.3423">
        <ele>241.4</ele>
        <time>2022-03-02T12:29:57Z</time>
      </trkpt>
      <trkpt lat="46.4331" lon="5.34225">
        <ele>240.6</ele>
        <time>2022-03-02T12:29:58Z</time>
      </trkpt>
      <trkpt lat="46.43292" lon="5.34213">
        <ele>239.2</ele>
        <time>2022-03-02T12:30:00Z</time>
      </trkpt>
      <trkpt lat="46.43276" lon="5.342">
        <ele>238.2</ele>
        <time>2022-03-02T12:30:02Z</time>
      </trkpt>
      <trkpt lat="46.4327" lon="5.34194">
        <ele>238</ele>
        <time>2022-03-02T12:30:03Z</time>
      </trkpt>
      <trkpt lat="46.43245" lon="5.34173">
        <ele>236.4</ele>
        <time>2022-03-02T12:30:06Z</time>
      </trkpt>
      <trkpt lat="46.43232" lon="5.34161">
        <ele>235.6</ele>
        <time>2022-03-02T12:30:08Z</time>
      </trkpt>
      <trkpt lat="46.43224" lon="5.34153">
        <ele>235</ele>
        <time>2022-03-02T12:30:09Z</time>
      </trkpt>
      <trkpt lat="46.43217" lon="5.34147">
        <ele>234.8</ele>
        <time>2022-03-02T12:30:10Z</time>
      </trkpt>
      <trkpt lat="46.43206" lon="5.34134">
        <ele>234.4</ele>
        <time>2022-03-02T12:30:12Z</time>
      </trkpt>
      <trkpt lat="46.43193" lon="5.3412">
        <ele>233.8</ele>
        <time>2022-03-02T12:30:14Z</time>
      </trkpt>
      <trkpt lat="46.43172" lon="5.34094">
        <ele>233.2</ele>
        <time>2022-03-02T12:30:18Z</time>
      </trkpt>
      <trkpt lat="46.43155" lon="5.34069">
        <ele>233</ele>
        <time>2022-03-02T12:30:22Z</time>
      </trkpt>
      <trkpt lat="46.4315" lon="5.34061">
        <ele>233</ele>
        <time>2022-03-02T12:30:23Z</time>
      </trkpt>
      <trkpt lat="46.43128" lon="5.34025">
        <ele>233.6</ele>
        <time>2022-03-02T12:30:29Z</time>
      </trkpt>
      <trkpt lat="46.43108" lon="5.33995">
        <ele>234.2</ele>
        <time>2022-03-02T12:30:34Z</time>
      </trkpt>
      <trkpt lat="46.43095" lon="5.33979">
        <ele>234.6</ele>
        <time>2022-03-02T12:30:37Z</time>
      </trkpt>
      <trkpt lat="46.4308" lon="5.33965">
        <ele>234.8</ele>
        <time>2022-03-02T12:30:40Z</time>
      </trkpt>
      <trkpt lat="46.43064" lon="5.33951">
        <ele>235.4</ele>
        <time>2022-03-02T12:30:43Z</time>
      </trkpt>
      <trkpt lat="46.4306" lon="5.33947">
        <ele>235.4</ele>
        <time>2022-03-02T12:30:44Z</time>
      </trkpt>
      <trkpt lat="46.43015" lon="5.33903">
        <ele>235.6</ele>
        <time>2022-03-02T12:30:53Z</time>
      </trkpt>
      <trkpt lat="46.43009" lon="5.33899">
        <ele>235.6</ele>
        <time>2022-03-02T12:30:54Z</time>
      </trkpt>
      <trkpt lat="46.42965" lon="5.33868">
        <ele>235.2</ele>
        <time>2022-03-02T12:31:02Z</time>
      </trkpt>
      <trkpt lat="46.42923" lon="5.33845">
        <ele>235</ele>
        <time>2022-03-02T12:31:09Z</time>
      </trkpt>
      <trkpt lat="46.42911" lon="5.33843">
        <ele>234.8</ele>
        <time>2022-03-02T12:31:11Z</time>
      </trkpt>
      <trkpt lat="46.42863" lon="5.33838">
        <ele>234.2</ele>
        <time>2022-03-02T12:31:18Z</time>
      </trkpt>
      <trkpt lat="46.42844" lon="5.33837">
        <ele>233.8</ele>
        <time>2022-03-02T12:31:21Z</time>
      </trkpt>
      <trkpt lat="46.42804" lon="5.33833">
        <ele>233.6</ele>
        <time>2022-03-02T12:31:27Z</time>
      </trkpt>
      <trkpt lat="46.42776" lon="5.33826">
        <ele>234</ele>
        <time>2022-03-02T12:31:33Z</time>
      </trkpt>
      <trkpt lat="46.42755" lon="5.33819">
        <ele>235</ele>
        <time>2022-03-02T12:31:38Z</time>
      </trkpt>
      <trkpt lat="46.42747" lon="5.33816">
        <ele>235.2</ele>
        <time>2022-03-02T12:31:40Z</time>
      </trkpt>
      <trkpt lat="46.42735" lon="5.33809">
        <ele>236</ele>
        <time>2022-03-02T12:31:43Z</time>
      </trkpt>
      <trkpt lat="46.42723" lon="5.33802">
        <ele>237.2</ele>
        <time>2022-03-02T12:31:46Z</time>
      </trkpt>
      <trkpt lat="46.42719" lon="5.33799">
        <ele>237.2</ele>
        <time>2022-03-02T12:31:47Z</time>
      </trkpt>
      <trkpt lat="46.42687" lon="5.33795">
        <ele>238.2</ele>
        <time>2022-03-02T12:31:54Z</time>
      </trkpt>
      <trkpt lat="46.42683" lon="5.33795">
        <ele>238.4</ele>
        <time>2022-03-02T12:31:55Z</time>
      </trkpt>
      <trkpt lat="46.42665" lon="5.33795">
        <ele>239.4</ele>
        <time>2022-03-02T12:31:59Z</time>
      </trkpt>
      <trkpt lat="46.42642" lon="5.33798">
        <ele>239.8</ele>
        <time>2022-03-02T12:32:04Z</time>
      </trkpt>
      <trkpt lat="46.42598" lon="5.33801">
        <ele>240.2</ele>
        <time>2022-03-02T12:32:13Z</time>
      </trkpt>
      <trkpt lat="46.42584" lon="5.33797">
        <ele>240.4</ele>
        <time>2022-03-02T12:32:16Z</time>
      </trkpt>
      <trkpt lat="46.42575" lon="5.33793">
        <ele>240.8</ele>
        <time>2022-03-02T12:32:18Z</time>
      </trkpt>
      <trkpt lat="46.42563" lon="5.33787">
        <ele>241.2</ele>
        <time>2022-03-02T12:32:21Z</time>
      </trkpt>
      <trkpt lat="46.42555" lon="5.33781">
        <ele>241.4</ele>
        <time>2022-03-02T12:32:23Z</time>
      </trkpt>
      <trkpt lat="46.42551" lon="5.33779">
        <ele>241.4</ele>
        <time>2022-03-02T12:32:24Z</time>
      </trkpt>
      <trkpt lat="46.42521" lon="5.3376">
        <ele>242.6</ele>
        <time>2022-03-02T12:32:32Z</time>
      </trkpt>
      <trkpt lat="46.42505" lon="5.33748">
        <ele>243.8</ele>
        <time>2022-03-02T12:32:37Z</time>
      </trkpt>
      <trkpt lat="46.42502" lon="5.33745">
        <ele>244.2</ele>
        <time>2022-03-02T12:32:38Z</time>
      </trkpt>
      <trkpt lat="46.42493" lon="5.33739">
        <ele>245.2</ele>
        <time>2022-03-02T12:32:41Z</time>
      </trkpt>
      <trkpt lat="46.42476" lon="5.33726">
        <ele>246.4</ele>
        <time>2022-03-02T12:32:46Z</time>
      </trkpt>
      <trkpt lat="46.42472" lon="5.33722">
        <ele>246.6</ele>
        <time>2022-03-02T12:32:47Z</time>
      </trkpt>
      <trkpt lat="46.42454" lon="5.33707">
        <ele>247.6</ele>
        <time>2022-03-02T12:32:52Z</time>
      </trkpt>
      <trkpt lat="46.42439" lon="5.33696">
        <ele>248.2</ele>
        <time>2022-03-02T12:32:56Z</time>
      </trkpt>
      <trkpt lat="46.42408" lon="5.3368">
        <ele>248.6</ele>
        <time>2022-03-02T12:33:03Z</time>
      </trkpt>
      <trkpt lat="46.42404" lon="5.33679">
        <ele>248.6</ele>
        <time>2022-03-02T12:33:04Z</time>
      </trkpt>
      <trkpt lat="46.42394" lon="5.33676">
        <ele>248.8</ele>
        <time>2022-03-02T12:33:06Z</time>
      </trkpt>
      <trkpt lat="46.4238" lon="5.33677">
        <ele>249.2</ele>
        <time>2022-03-02T12:33:09Z</time>
      </trkpt>
      <trkpt lat="46.42358" lon="5.3369">
        <ele>249.6</ele>
        <time>2022-03-02T12:33:15Z</time>
      </trkpt>
      <trkpt lat="46.42345" lon="5.33698">
        <ele>250.8</ele>
        <time>2022-03-02T12:33:19Z</time>
      </trkpt>
      <trkpt lat="46.42336" lon="5.33704">
        <ele>251.4</ele>
        <time>2022-03-02T12:33:22Z</time>
      </trkpt>
      <trkpt lat="46.42329" lon="5.33709">
        <ele>251.8</ele>
        <time>2022-03-02T12:33:24Z</time>
      </trkpt>
      <trkpt lat="46.42319" lon="5.33717">
        <ele>252.8</ele>
        <time>2022-03-02T12:33:28Z</time>
      </trkpt>
      <trkpt lat="46.42316" lon="5.3372">
        <ele>253.4</ele>
        <time>2022-03-02T12:33:29Z</time>
      </trkpt>
      <trkpt lat="46.42301" lon="5.33738">
        <ele>254.4</ele>
        <time>2022-03-02T12:33:35Z</time>
      </trkpt>
      <trkpt lat="46.42299" lon="5.33741">
        <ele>254.4</ele>
        <time>2022-03-02T12:33:36Z</time>
      </trkpt>
      <trkpt lat="46.42289" lon="5.33755">
        <ele>255.4</ele>
        <time>2022-03-02T12:33:40Z</time>
      </trkpt>
      <trkpt lat="46.42283" lon="5.33768">
        <ele>255.8</ele>
        <time>2022-03-02T12:33:43Z</time>
      </trkpt>
      <trkpt lat="46.42272" lon="5.33791">
        <ele>256.6</ele>
        <time>2022-03-02T12:33:48Z</time>
      </trkpt>
      <trkpt lat="46.42263" lon="5.33809">
        <ele>257</ele>
        <time>2022-03-02T12:33:52Z</time>
      </trkpt>
      <trkpt lat="46.42253" lon="5.33828">
        <ele>257.6</ele>
        <time>2022-03-02T12:33:56Z</time>
      </trkpt>
      <trkpt lat="46.42246" lon="5.33841">
        <ele>257.8</ele>
        <time>2022-03-02T12:33:59Z</time>
      </trkpt>
      <trkpt lat="46.42234" lon="5.33865">
        <ele>258.6</ele>
        <time>2022-03-02T12:34:04Z</time>
      </trkpt>
      <trkpt lat="46.42228" lon="5.33878">
        <ele>259</ele>
        <time>2022-03-02T12:34:07Z</time>
      </trkpt>
      <trkpt lat="46.42216" lon="5.33903">
        <ele>259.8</ele>
        <time>2022-03-02T12:34:13Z</time>
      </trkpt>
      <trkpt lat="46.42209" lon="5.33915">
        <ele>260</ele>
        <time>2022-03-02T12:34:16Z</time>
      </trkpt>
      <trkpt lat="46.42199" lon="5.33928">
        <ele>261</ele>
        <time>2022-03-02T12:34:20Z</time>
      </trkpt>
      <trkpt lat="46.4219" lon="5.33935">
        <ele>261.6</ele>
        <time>2022-03-02T12:34:23Z</time>
      </trkpt>
      <trkpt lat="46.42176" lon="5.33938">
        <ele>262.2</ele>
        <time>2022-03-02T12:34:27Z</time>
      </trkpt>
      <trkpt lat="46.42169" lon="5.33938">
        <ele>262.6</ele>
        <time>2022-03-02T12:34:29Z</time>
      </trkpt>
      <trkpt lat="46.42156" lon="5.33933">
        <ele>263.4</ele>
        <time>2022-03-02T12:34:33Z</time>
      </trkpt>
      <trkpt lat="46.42147" lon="5.33929">
        <ele>264</ele>
        <time>2022-03-02T12:34:36Z</time>
      </trkpt>
      <trkpt lat="46.42139" lon="5.33926">
        <ele>264.8</ele>
        <time>2022-03-02T12:34:38Z</time>
      </trkpt>
      <trkpt lat="46.42125" lon="5.33919">
        <ele>265.8</ele>
        <time>2022-03-02T12:34:42Z</time>
      </trkpt>
      <trkpt lat="46.42119" lon="5.33917">
        <ele>266</ele>
        <time>2022-03-02T12:34:43Z</time>
      </trkpt>
      <trkpt lat="46.42099" lon="5.33906">
        <ele>266.4</ele>
        <time>2022-03-02T12:34:48Z</time>
      </trkpt>
      <trkpt lat="46.42085" lon="5.33901">
        <ele>266.6</ele>
        <time>2022-03-02T12:34:51Z</time>
      </trkpt>
      <trkpt lat="46.42065" lon="5.339">
        <ele>266.4</ele>
        <time>2022-03-02T12:34:55Z</time>
      </trkpt>
      <trkpt lat="46.42025" lon="5.33901">
        <ele>266</ele>
        <time>2022-03-02T12:35:03Z</time>
      </trkpt>
      <trkpt lat="46.42007" lon="5.339">
        <ele>265.8</ele>
        <time>2022-03-02T12:35:06Z</time>
      </trkpt>
      <trkpt lat="46.41995" lon="5.33896">
        <ele>265.6</ele>
        <time>2022-03-02T12:35:08Z</time>
      </trkpt>
      <trkpt lat="46.41977" lon="5.33883">
        <ele>264.8</ele>
        <time>2022-03-02T12:35:11Z</time>
      </trkpt>
      <trkpt lat="46.41964" lon="5.33875">
        <ele>264.4</ele>
        <time>2022-03-02T12:35:13Z</time>
      </trkpt>
      <trkpt lat="46.41949" lon="5.33871">
        <ele>263.8</ele>
        <time>2022-03-02T12:35:15Z</time>
      </trkpt>
      <trkpt lat="46.41933" lon="5.3387">
        <ele>263</ele>
        <time>2022-03-02T12:35:17Z</time>
      </trkpt>
      <trkpt lat="46.41925" lon="5.33871">
        <ele>262.4</ele>
        <time>2022-03-02T12:35:18Z</time>
      </trkpt>
      <trkpt lat="46.4191" lon="5.33875">
        <ele>261.2</ele>
        <time>2022-03-02T12:35:20Z</time>
      </trkpt>
      <trkpt lat="46.41895" lon="5.33878">
        <ele>260.8</ele>
        <time>2022-03-02T12:35:22Z</time>
      </trkpt>
      <trkpt lat="46.4188" lon="5.3388">
        <ele>260</ele>
        <time>2022-03-02T12:35:24Z</time>
      </trkpt>
      <trkpt lat="46.41866" lon="5.3388">
        <ele>259.6</ele>
        <time>2022-03-02T12:35:26Z</time>
      </trkpt>
      <trkpt lat="46.41832" lon="5.33879">
        <ele>259.4</ele>
        <time>2022-03-02T12:35:32Z</time>
      </trkpt>
      <trkpt lat="46.41822" lon="5.33877">
        <ele>259.8</ele>
        <time>2022-03-02T12:35:34Z</time>
      </trkpt>
      <trkpt lat="46.41809" lon="5.33872">
        <ele>260.2</ele>
        <time>2022-03-02T12:35:37Z</time>
      </trkpt>
      <trkpt lat="46.41788" lon="5.33864">
        <ele>261.2</ele>
        <time>2022-03-02T12:35:42Z</time>
      </trkpt>
      <trkpt lat="46.41782" lon="5.33861">
        <ele>261.6</ele>
        <time>2022-03-02T12:35:44Z</time>
      </trkpt>
      <trkpt lat="46.41772" lon="5.33858">
        <ele>262.2</ele>
        <time>2022-03-02T12:35:47Z</time>
      </trkpt>
      <trkpt lat="46.41761" lon="5.33856">
        <ele>263</ele>
        <time>2022-03-02T12:35:50Z</time>
      </trkpt>
      <trkpt lat="46.41754" lon="5.33857">
        <ele>263.6</ele>
        <time>2022-03-02T12:35:52Z</time>
      </trkpt>
      <trkpt lat="46.41739" lon="5.33861">
        <ele>264.8</ele>
        <time>2022-03-02T12:35:56Z</time>
      </trkpt>
      <trkpt lat="46.41734" lon="5.33863">
        <ele>265.2</ele>
        <time>2022-03-02T12:35:58Z</time>
      </trkpt>
      <trkpt lat="46.41724" lon="5.33866">
        <ele>265.8</ele>
        <time>2022-03-02T12:36:01Z</time>
      </trkpt>
      <trkpt lat="46.41712" lon="5.3387">
        <ele>267</ele>
        <time>2022-03-02T12:36:05Z</time>
      </trkpt>
      <trkpt lat="46.4169" lon="5.33875">
        <ele>268</ele>
        <time>2022-03-02T12:36:11Z</time>
      </trkpt>
      <trkpt lat="46.41679" lon="5.33877">
        <ele>269.4</ele>
        <time>2022-03-02T12:36:14Z</time>
      </trkpt>
      <trkpt lat="46.41672" lon="5.33877">
        <ele>270</ele>
        <time>2022-03-02T12:36:16Z</time>
      </trkpt>
      <trkpt lat="46.41659" lon="5.33876">
        <ele>270.4</ele>
        <time>2022-03-02T12:36:20Z</time>
      </trkpt>
      <trkpt lat="46.41649" lon="5.33876">
        <ele>270.8</ele>
        <time>2022-03-02T12:36:23Z</time>
      </trkpt>
      <trkpt lat="46.41638" lon="5.33877">
        <ele>271.4</ele>
        <time>2022-03-02T12:36:26Z</time>
      </trkpt>
      <trkpt lat="46.41624" lon="5.33879">
        <ele>272.2</ele>
        <time>2022-03-02T12:36:30Z</time>
      </trkpt>
      <trkpt lat="46.41613" lon="5.33882">
        <ele>272.6</ele>
        <time>2022-03-02T12:36:33Z</time>
      </trkpt>
      <trkpt lat="46.41594" lon="5.33885">
        <ele>273</ele>
        <time>2022-03-02T12:36:38Z</time>
      </trkpt>
      <trkpt lat="46.41572" lon="5.33882">
        <ele>273.8</ele>
        <time>2022-03-02T12:36:43Z</time>
      </trkpt>
      <trkpt lat="46.41563" lon="5.33881">
        <ele>273.8</ele>
        <time>2022-03-02T12:36:45Z</time>
      </trkpt>
      <trkpt lat="46.41533" lon="5.33876">
        <ele>273.6</ele>
        <time>2022-03-02T12:36:51Z</time>
      </trkpt>
      <trkpt lat="46.41505" lon="5.3387">
        <ele>273.4</ele>
        <time>2022-03-02T12:36:56Z</time>
      </trkpt>
      <trkpt lat="46.41498" lon="5.33867">
        <ele>273.4</ele>
        <time>2022-03-02T12:36:57Z</time>
      </trkpt>
      <trkpt lat="46.41482" lon="5.33855">
        <ele>272.6</ele>
        <time>2022-03-02T12:37:00Z</time>
      </trkpt>
      <trkpt lat="46.41475" lon="5.3385">
        <ele>272.2</ele>
        <time>2022-03-02T12:37:01Z</time>
      </trkpt>
      <trkpt lat="46.4145" lon="5.33833">
        <ele>271.6</ele>
        <time>2022-03-02T12:37:05Z</time>
      </trkpt>
      <trkpt lat="46.41445" lon="5.33831">
        <ele>271.4</ele>
        <time>2022-03-02T12:37:06Z</time>
      </trkpt>
      <trkpt lat="46.41436" lon="5.33828">
        <ele>271.2</ele>
        <time>2022-03-02T12:37:07Z</time>
      </trkpt>
      <trkpt lat="46.41416" lon="5.33821">
        <ele>270.2</ele>
        <time>2022-03-02T12:37:10Z</time>
      </trkpt>
      <trkpt lat="46.41393" lon="5.33816">
        <ele>269.2</ele>
        <time>2022-03-02T12:37:13Z</time>
      </trkpt>
      <trkpt lat="46.41386" lon="5.33814">
        <ele>268.8</ele>
        <time>2022-03-02T12:37:14Z</time>
      </trkpt>
      <trkpt lat="46.41364" lon="5.33808">
        <ele>268</ele>
        <time>2022-03-02T12:37:17Z</time>
      </trkpt>
      <trkpt lat="46.41327" lon="5.33796">
        <ele>267</ele>
        <time>2022-03-02T12:37:22Z</time>
      </trkpt>
      <trkpt lat="46.4132" lon="5.33792">
        <ele>266.8</ele>
        <time>2022-03-02T12:37:23Z</time>
      </trkpt>
      <trkpt lat="46.41304" lon="5.33778">
        <ele>266.2</ele>
        <time>2022-03-02T12:37:25Z</time>
      </trkpt>
      <trkpt lat="46.41299" lon="5.33773">
        <ele>265.8</ele>
        <time>2022-03-02T12:37:26Z</time>
      </trkpt>
      <trkpt lat="46.41272" lon="5.33742">
        <ele>264</ele>
        <time>2022-03-02T12:37:30Z</time>
      </trkpt>
      <trkpt lat="46.41259" lon="5.33729">
        <ele>263.4</ele>
        <time>2022-03-02T12:37:32Z</time>
      </trkpt>
      <trkpt lat="46.41252" lon="5.33723">
        <ele>263</ele>
        <time>2022-03-02T12:37:33Z</time>
      </trkpt>
      <trkpt lat="46.41212" lon="5.33686">
        <ele>262</ele>
        <time>2022-03-02T12:37:39Z</time>
      </trkpt>
      <trkpt lat="46.41199" lon="5.33674">
        <ele>261.6</ele>
        <time>2022-03-02T12:37:41Z</time>
      </trkpt>
      <trkpt lat="46.41179" lon="5.33655">
        <ele>260.6</ele>
        <time>2022-03-02T12:37:44Z</time>
      </trkpt>
      <trkpt lat="46.41144" lon="5.33623">
        <ele>259.8</ele>
        <time>2022-03-02T12:37:50Z</time>
      </trkpt>
      <trkpt lat="46.41126" lon="5.33609">
        <ele>259.4</ele>
        <time>2022-03-02T12:37:53Z</time>
      </trkpt>
      <trkpt lat="46.41103" lon="5.33593">
        <ele>259</ele>
        <time>2022-03-02T12:37:57Z</time>
      </trkpt>
      <trkpt lat="46.41053" lon="5.33568">
        <ele>259.4</ele>
        <time>2022-03-02T12:38:06Z</time>
      </trkpt>
      <trkpt lat="46.41021" lon="5.33558">
        <ele>260.8</ele>
        <time>2022-03-02T12:38:12Z</time>
      </trkpt>
      <trkpt lat="46.41007" lon="5.33553">
        <ele>261.4</ele>
        <time>2022-03-02T12:38:15Z</time>
      </trkpt>
      <trkpt lat="46.40997" lon="5.3355">
        <ele>261.8</ele>
        <time>2022-03-02T12:38:17Z</time>
      </trkpt>
      <trkpt lat="46.40968" lon="5.33541">
        <ele>262.8</ele>
        <time>2022-03-02T12:38:23Z</time>
      </trkpt>
      <trkpt lat="46.40963" lon="5.33539">
        <ele>263</ele>
        <time>2022-03-02T12:38:24Z</time>
      </trkpt>
      <trkpt lat="46.40957" lon="5.33537">
        <ele>263.2</ele>
        <time>2022-03-02T12:38:25Z</time>
      </trkpt>
      <trkpt lat="46.40937" lon="5.33533">
        <ele>264</ele>
        <time>2022-03-02T12:38:29Z</time>
      </trkpt>
      <trkpt lat="46.40908" lon="5.33525">
        <ele>265.2</ele>
        <time>2022-03-02T12:38:35Z</time>
      </trkpt>
      <trkpt lat="46.40904" lon="5.33524">
        <ele>265.2</ele>
        <time>2022-03-02T12:38:36Z</time>
      </trkpt>
      <trkpt lat="46.40866" lon="5.33516">
        <ele>265</ele>
        <time>2022-03-02T12:38:42Z</time>
      </trkpt>
      <trkpt lat="46.40833" lon="5.33507">
        <ele>264.2</ele>
        <time>2022-03-02T12:38:47Z</time>
      </trkpt>
      <trkpt lat="46.40826" lon="5.33506">
        <ele>264</ele>
        <time>2022-03-02T12:38:48Z</time>
      </trkpt>
      <trkpt lat="46.40805" lon="5.335">
        <ele>263.2</ele>
        <time>2022-03-02T12:38:51Z</time>
      </trkpt>
      <trkpt lat="46.40777" lon="5.33492">
        <ele>261.6</ele>
        <time>2022-03-02T12:38:55Z</time>
      </trkpt>
      <trkpt lat="46.40768" lon="5.33488">
        <ele>261.2</ele>
        <time>2022-03-02T12:38:56Z</time>
      </trkpt>
      <trkpt lat="46.40733" lon="5.33469">
        <ele>260.4</ele>
        <time>2022-03-02T12:39:01Z</time>
      </trkpt>
      <trkpt lat="46.40712" lon="5.33456">
        <ele>260</ele>
        <time>2022-03-02T12:39:04Z</time>
      </trkpt>
      <trkpt lat="46.40696" lon="5.33447">
        <ele>259.4</ele>
        <time>2022-03-02T12:39:06Z</time>
      </trkpt>
      <trkpt lat="46.40669" lon="5.3343">
        <ele>258.2</ele>
        <time>2022-03-02T12:39:10Z</time>
      </trkpt>
      <trkpt lat="46.40638" lon="5.33411">
        <ele>257</ele>
        <time>2022-03-02T12:39:14Z</time>
      </trkpt>
      <trkpt lat="46.40608" lon="5.33393">
        <ele>255.8</ele>
        <time>2022-03-02T12:39:18Z</time>
      </trkpt>
      <trkpt lat="46.40585" lon="5.33379">
        <ele>254.8</ele>
        <time>2022-03-02T12:39:21Z</time>
      </trkpt>
      <trkpt lat="46.40577" lon="5.33374">
        <ele>254.4</ele>
        <time>2022-03-02T12:39:22Z</time>
      </trkpt>
      <trkpt lat="46.4056" lon="5.33364">
        <ele>253.6</ele>
        <time>2022-03-02T12:39:24Z</time>
      </trkpt>
      <trkpt lat="46.40536" lon="5.33349">
        <ele>252.4</ele>
        <time>2022-03-02T12:39:27Z</time>
      </trkpt>
      <trkpt lat="46.40519" lon="5.33336">
        <ele>251.8</ele>
        <time>2022-03-02T12:39:29Z</time>
      </trkpt>
      <trkpt lat="46.40512" lon="5.33329">
        <ele>251</ele>
        <time>2022-03-02T12:39:30Z</time>
      </trkpt>
      <trkpt lat="46.40492" lon="5.33307">
        <ele>250</ele>
        <time>2022-03-02T12:39:33Z</time>
      </trkpt>
      <trkpt lat="46.40484" lon="5.33302">
        <ele>249.6</ele>
        <time>2022-03-02T12:39:34Z</time>
      </trkpt>
      <trkpt lat="46.40463" lon="5.33292">
        <ele>248.6</ele>
        <time>2022-03-02T12:39:37Z</time>
      </trkpt>
      <trkpt lat="46.40441" lon="5.3328">
        <ele>248</ele>
        <time>2022-03-02T12:39:40Z</time>
      </trkpt>
      <trkpt lat="46.40435" lon="5.33275">
        <ele>247.8</ele>
        <time>2022-03-02T12:39:41Z</time>
      </trkpt>
      <trkpt lat="46.40415" lon="5.33257">
        <ele>247.4</ele>
        <time>2022-03-02T12:39:44Z</time>
      </trkpt>
      <trkpt lat="46.40399" lon="5.3324">
        <ele>247</ele>
        <time>2022-03-02T12:39:47Z</time>
      </trkpt>
      <trkpt lat="46.40371" lon="5.33205">
        <ele>247.4</ele>
        <time>2022-03-02T12:39:53Z</time>
      </trkpt>
      <trkpt lat="46.40358" lon="5.33188">
        <ele>247.6</ele>
        <time>2022-03-02T12:39:56Z</time>
      </trkpt>
      <trkpt lat="46.40346" lon="5.33171">
        <ele>248</ele>
        <time>2022-03-02T12:39:59Z</time>
      </trkpt>
      <trkpt lat="46.40327" lon="5.33142">
        <ele>248.6</ele>
        <time>2022-03-02T12:40:04Z</time>
      </trkpt>
      <trkpt lat="46.40316" lon="5.33125">
        <ele>249</ele>
        <time>2022-03-02T12:40:07Z</time>
      </trkpt>
      <trkpt lat="46.40295" lon="5.33096">
        <ele>249.8</ele>
        <time>2022-03-02T12:40:13Z</time>
      </trkpt>
      <trkpt lat="46.40281" lon="5.33076">
        <ele>250.4</ele>
        <time>2022-03-02T12:40:17Z</time>
      </trkpt>
      <trkpt lat="46.40273" lon="5.33064">
        <ele>250.6</ele>
        <time>2022-03-02T12:40:19Z</time>
      </trkpt>
      <trkpt lat="46.4027" lon="5.3306">
        <ele>250.8</ele>
        <time>2022-03-02T12:40:20Z</time>
      </trkpt>
      <trkpt lat="46.40237" lon="5.33013">
        <ele>251.2</ele>
        <time>2022-03-02T12:40:29Z</time>
      </trkpt>
      <trkpt lat="46.4021" lon="5.32974">
        <ele>250.6</ele>
        <time>2022-03-02T12:40:36Z</time>
      </trkpt>
      <trkpt lat="46.40183" lon="5.32927">
        <ele>250</ele>
        <time>2022-03-02T12:40:44Z</time>
      </trkpt>
      <trkpt lat="46.40152" lon="5.32862">
        <ele>250.2</ele>
        <time>2022-03-02T12:40:55Z</time>
      </trkpt>
      <trkpt lat="46.40122" lon="5.32796">
        <ele>250.6</ele>
        <time>2022-03-02T12:41:05Z</time>
      </trkpt>
      <trkpt lat="46.40119" lon="5.32789">
        <ele>250.6</ele>
        <time>2022-03-02T12:41:06Z</time>
      </trkpt>
      <trkpt lat="46.40099" lon="5.32743">
        <ele>250.6</ele>
        <time>2022-03-02T12:41:13Z</time>
      </trkpt>
      <trkpt lat="46.40079" lon="5.32688">
        <ele>249.8</ele>
        <time>2022-03-02T12:41:21Z</time>
      </trkpt>
      <trkpt lat="46.40069" lon="5.32644">
        <ele>249.4</ele>
        <time>2022-03-02T12:41:27Z</time>
      </trkpt>
      <trkpt lat="46.40065" lon="5.32628">
        <ele>249</ele>
        <time>2022-03-02T12:41:30Z</time>
      </trkpt>
      <trkpt lat="46.40064" lon="5.32626">
        <ele>248.8</ele>
        <time>2022-03-02T12:41:31Z</time>
      </trkpt>
      <trkpt lat="46.40063" lon="5.32623">
        <ele>248.4</ele>
        <time>2022-03-02T12:41:35Z</time>
      </trkpt>
      <trkpt lat="46.40059" lon="5.32622">
        <ele>248.2</ele>
        <time>2022-03-02T12:42:24Z</time>
      </trkpt>
      <trkpt lat="46.40052" lon="5.32623">
        <ele>248.4</ele>
        <time>2022-03-02T12:42:26Z</time>
      </trkpt>
      <trkpt lat="46.40026" lon="5.32636">
        <ele>248.6</ele>
        <time>2022-03-02T12:42:31Z</time>
      </trkpt>
      <trkpt lat="46.39989" lon="5.32655">
        <ele>248.6</ele>
        <time>2022-03-02T12:42:37Z</time>
      </trkpt>
      <trkpt lat="46.39939" lon="5.32678">
        <ele>248.6</ele>
        <time>2022-03-02T12:42:45Z</time>
      </trkpt>
      <trkpt lat="46.39905" lon="5.32694">
        <ele>248</ele>
        <time>2022-03-02T12:42:50Z</time>
      </trkpt>
      <trkpt lat="46.39878" lon="5.32707">
        <ele>247.6</ele>
        <time>2022-03-02T12:42:54Z</time>
      </trkpt>
      <trkpt lat="46.39842" lon="5.32723">
        <ele>246.8</ele>
        <time>2022-03-02T12:42:59Z</time>
      </trkpt>
      <trkpt lat="46.39814" lon="5.32737">
        <ele>246.2</ele>
        <time>2022-03-02T12:43:03Z</time>
      </trkpt>
      <trkpt lat="46.39805" lon="5.32741">
        <ele>245.6</ele>
        <time>2022-03-02T12:43:04Z</time>
      </trkpt>
      <trkpt lat="46.39778" lon="5.32753">
        <ele>244.4</ele>
        <time>2022-03-02T12:43:08Z</time>
      </trkpt>
      <trkpt lat="46.39755" lon="5.32766">
        <ele>243.4</ele>
        <time>2022-03-02T12:43:11Z</time>
      </trkpt>
      <trkpt lat="46.39708" lon="5.32792">
        <ele>242.2</ele>
        <time>2022-03-02T12:43:17Z</time>
      </trkpt>
      <trkpt lat="46.39692" lon="5.32801">
        <ele>241.6</ele>
        <time>2022-03-02T12:43:19Z</time>
      </trkpt>
      <trkpt lat="46.39685" lon="5.32804">
        <ele>241.2</ele>
        <time>2022-03-02T12:43:20Z</time>
      </trkpt>
      <trkpt lat="46.39661" lon="5.32817">
        <ele>240</ele>
        <time>2022-03-02T12:43:23Z</time>
      </trkpt>
      <trkpt lat="46.39643" lon="5.32823">
        <ele>239</ele>
        <time>2022-03-02T12:43:25Z</time>
      </trkpt>
      <trkpt lat="46.39634" lon="5.32825">
        <ele>238.6</ele>
        <time>2022-03-02T12:43:26Z</time>
      </trkpt>
      <trkpt lat="46.39623" lon="5.32828">
        <ele>238</ele>
        <time>2022-03-02T12:43:27Z</time>
      </trkpt>
      <trkpt lat="46.39599" lon="5.32835">
        <ele>237</ele>
        <time>2022-03-02T12:43:30Z</time>
      </trkpt>
      <trkpt lat="46.39582" lon="5.32842">
        <ele>236.2</ele>
        <time>2022-03-02T12:43:32Z</time>
      </trkpt>
      <trkpt lat="46.39574" lon="5.32846">
        <ele>235.8</ele>
        <time>2022-03-02T12:43:33Z</time>
      </trkpt>
      <trkpt lat="46.39544" lon="5.32864">
        <ele>235.2</ele>
        <time>2022-03-02T12:43:37Z</time>
      </trkpt>
      <trkpt lat="46.39525" lon="5.32872">
        <ele>234.6</ele>
        <time>2022-03-02T12:43:40Z</time>
      </trkpt>
      <trkpt lat="46.39502" lon="5.32881">
        <ele>234.2</ele>
        <time>2022-03-02T12:43:43Z</time>
      </trkpt>
      <trkpt lat="46.39472" lon="5.32894">
        <ele>233.6</ele>
        <time>2022-03-02T12:43:47Z</time>
      </trkpt>
      <trkpt lat="46.39449" lon="5.32902">
        <ele>232.4</ele>
        <time>2022-03-02T12:43:50Z</time>
      </trkpt>
      <trkpt lat="46.39414" lon="5.32909">
        <ele>231.2</ele>
        <time>2022-03-02T12:43:54Z</time>
      </trkpt>
      <trkpt lat="46.39405" lon="5.32909">
        <ele>230.6</ele>
        <time>2022-03-02T12:43:55Z</time>
      </trkpt>
      <trkpt lat="46.39388" lon="5.32903">
        <ele>229.8</ele>
        <time>2022-03-02T12:43:57Z</time>
      </trkpt>
      <trkpt lat="46.39381" lon="5.32898">
        <ele>229.6</ele>
        <time>2022-03-02T12:43:58Z</time>
      </trkpt>
      <trkpt lat="46.39364" lon="5.32884">
        <ele>228.2</ele>
        <time>2022-03-02T12:44:01Z</time>
      </trkpt>
      <trkpt lat="46.39361" lon="5.32882">
        <ele>228</ele>
        <time>2022-03-02T12:44:02Z</time>
      </trkpt>
      <trkpt lat="46.39351" lon="5.32886">
        <ele>227.4</ele>
        <time>2022-03-02T12:44:04Z</time>
      </trkpt>
      <trkpt lat="46.39348" lon="5.32893">
        <ele>227.2</ele>
        <time>2022-03-02T12:44:05Z</time>
      </trkpt>
      <trkpt lat="46.39347" lon="5.32902">
        <ele>226.8</ele>
        <time>2022-03-02T12:44:06Z</time>
      </trkpt>
      <trkpt lat="46.39345" lon="5.32911">
        <ele>226.6</ele>
        <time>2022-03-02T12:44:07Z</time>
      </trkpt>
      <trkpt lat="46.39336" lon="5.32927">
        <ele>226.2</ele>
        <time>2022-03-02T12:44:09Z</time>
      </trkpt>
      <trkpt lat="46.39328" lon="5.32933">
        <ele>226.2</ele>
        <time>2022-03-02T12:44:10Z</time>
      </trkpt>
      <trkpt lat="46.39314" lon="5.32939">
        <ele>225.4</ele>
        <time>2022-03-02T12:44:12Z</time>
      </trkpt>
      <trkpt lat="46.39305" lon="5.32943">
        <ele>225</ele>
        <time>2022-03-02T12:44:13Z</time>
      </trkpt>
      <trkpt lat="46.39277" lon="5.32958">
        <ele>224</ele>
        <time>2022-03-02T12:44:17Z</time>
      </trkpt>
      <trkpt lat="46.39252" lon="5.32971">
        <ele>223.2</ele>
        <time>2022-03-02T12:44:20Z</time>
      </trkpt>
      <trkpt lat="46.39239" lon="5.32977">
        <ele>222.8</ele>
        <time>2022-03-02T12:44:22Z</time>
      </trkpt>
      <trkpt lat="46.39184" lon="5.33">
        <ele>222.2</ele>
        <time>2022-03-02T12:44:29Z</time>
      </trkpt>
      <trkpt lat="46.39126" lon="5.33019">
        <ele>222.4</ele>
        <time>2022-03-02T12:44:37Z</time>
      </trkpt>
      <trkpt lat="46.39089" lon="5.33024">
        <ele>221.8</ele>
        <time>2022-03-02T12:44:42Z</time>
      </trkpt>
      <trkpt lat="46.39082" lon="5.33023">
        <ele>221.6</ele>
        <time>2022-03-02T12:44:43Z</time>
      </trkpt>
      <trkpt lat="46.39045" lon="5.33013">
        <ele>221.8</ele>
        <time>2022-03-02T12:44:49Z</time>
      </trkpt>
      <trkpt lat="46.38995" lon="5.32995">
        <ele>222</ele>
        <time>2022-03-02T12:44:57Z</time>
      </trkpt>
      <trkpt lat="46.38941" lon="5.32975">
        <ele>221.2</ele>
        <time>2022-03-02T12:45:05Z</time>
      </trkpt>
      <trkpt lat="46.38929" lon="5.3297">
        <ele>220.6</ele>
        <time>2022-03-02T12:45:07Z</time>
      </trkpt>
      <trkpt lat="46.38876" lon="5.3295">
        <ele>220.2</ele>
        <time>2022-03-02T12:45:15Z</time>
      </trkpt>
      <trkpt lat="46.38871" lon="5.32948">
        <ele>220.2</ele>
        <time>2022-03-02T12:45:16Z</time>
      </trkpt>
      <trkpt lat="46.3884" lon="5.32934">
        <ele>219.6</ele>
        <time>2022-03-02T12:45:21Z</time>
      </trkpt>
      <trkpt lat="46.38809" lon="5.32922">
        <ele>219.6</ele>
        <time>2022-03-02T12:45:26Z</time>
      </trkpt>
      <trkpt lat="46.38778" lon="5.3291">
        <ele>219.8</ele>
        <time>2022-03-02T12:45:31Z</time>
      </trkpt>
      <trkpt lat="46.38768" lon="5.32899">
        <ele>219.8</ele>
        <time>2022-03-02T12:45:33Z</time>
      </trkpt>
      <trkpt lat="46.38763" lon="5.32883">
        <ele>219.8</ele>
        <time>2022-03-02T12:45:35Z</time>
      </trkpt>
      <trkpt lat="46.38761" lon="5.32873">
        <ele>219.8</ele>
        <time>2022-03-02T12:45:36Z</time>
      </trkpt>
      <trkpt lat="46.3876" lon="5.3286">
        <ele>219.8</ele>
        <time>2022-03-02T12:45:37Z</time>
      </trkpt>
      <trkpt lat="46.38762" lon="5.32831">
        <ele>219.4</ele>
        <time>2022-03-02T12:45:40Z</time>
      </trkpt>
      <trkpt lat="46.38764" lon="5.32819">
        <ele>219.4</ele>
        <time>2022-03-02T12:45:41Z</time>
      </trkpt>
      <trkpt lat="46.38774" lon="5.32783">
        <ele>219.2</ele>
        <time>2022-03-02T12:45:45Z</time>
      </trkpt>
      <trkpt lat="46.38789" lon="5.32725">
        <ele>219</ele>
        <time>2022-03-02T12:45:51Z</time>
      </trkpt>
      <trkpt lat="46.3879" lon="5.32718">
        <ele>219</ele>
        <time>2022-03-02T12:45:52Z</time>
      </trkpt>
      <trkpt lat="46.38789" lon="5.32661">
        <ele>219</ele>
        <time>2022-03-02T12:45:58Z</time>
      </trkpt>
      <trkpt lat="46.38788" lon="5.32653">
        <ele>219</ele>
        <time>2022-03-02T12:45:59Z</time>
      </trkpt>
      <trkpt lat="46.38783" lon="5.32642">
        <ele>219</ele>
        <time>2022-03-02T12:46:01Z</time>
      </trkpt>
      <trkpt lat="46.38768" lon="5.32629">
        <ele>219</ele>
        <time>2022-03-02T12:46:04Z</time>
      </trkpt>
      <trkpt lat="46.38762" lon="5.32626">
        <ele>219</ele>
        <time>2022-03-02T12:46:05Z</time>
      </trkpt>
      <trkpt lat="46.38717" lon="5.3259">
        <ele>219.4</ele>
        <time>2022-03-02T12:46:13Z</time>
      </trkpt>
      <trkpt lat="46.38675" lon="5.32548">
        <ele>219.8</ele>
        <time>2022-03-02T12:46:22Z</time>
      </trkpt>
      <trkpt lat="46.3864" lon="5.32518">
        <ele>219.6</ele>
        <time>2022-03-02T12:46:29Z</time>
      </trkpt>
      <trkpt lat="46.38596" lon="5.32484">
        <ele>218.8</ele>
        <time>2022-03-02T12:46:37Z</time>
      </trkpt>
      <trkpt lat="46.38586" lon="5.32474">
        <ele>218.6</ele>
        <time>2022-03-02T12:46:39Z</time>
      </trkpt>
      <trkpt lat="46.38581" lon="5.32468">
        <ele>218.6</ele>
        <time>2022-03-02T12:46:40Z</time>
      </trkpt>
      <trkpt lat="46.38561" lon="5.32448">
        <ele>218.2</ele>
        <time>2022-03-02T12:46:44Z</time>
      </trkpt>
      <trkpt lat="46.38523" lon="5.32415">
        <ele>217.8</ele>
        <time>2022-03-02T12:46:51Z</time>
      </trkpt>
      <trkpt lat="46.38511" lon="5.32402">
        <ele>217.6</ele>
        <time>2022-03-02T12:46:53Z</time>
      </trkpt>
      <trkpt lat="46.38497" lon="5.32385">
        <ele>217.2</ele>
        <time>2022-03-02T12:46:56Z</time>
      </trkpt>
      <trkpt lat="46.38492" lon="5.32381">
        <ele>217</ele>
        <time>2022-03-02T12:46:57Z</time>
      </trkpt>
      <trkpt lat="46.38468" lon="5.32367">
        <ele>217</ele>
        <time>2022-03-02T12:47:01Z</time>
      </trkpt>
      <trkpt lat="46.38461" lon="5.32365">
        <ele>217</ele>
        <time>2022-03-02T12:47:02Z</time>
      </trkpt>
      <trkpt lat="46.38455" lon="5.32365">
        <ele>217</ele>
        <time>2022-03-02T12:47:03Z</time>
      </trkpt>
      <trkpt lat="46.38444" lon="5.32369">
        <ele>217.2</ele>
        <time>2022-03-02T12:47:05Z</time>
      </trkpt>
      <trkpt lat="46.38432" lon="5.3238">
        <ele>217.2</ele>
        <time>2022-03-02T12:47:07Z</time>
      </trkpt>
      <trkpt lat="46.38427" lon="5.32386">
        <ele>217.2</ele>
        <time>2022-03-02T12:47:08Z</time>
      </trkpt>
      <trkpt lat="46.38412" lon="5.32415">
        <ele>217.4</ele>
        <time>2022-03-02T12:47:12Z</time>
      </trkpt>
      <trkpt lat="46.38408" lon="5.3243">
        <ele>217.2</ele>
        <time>2022-03-02T12:47:14Z</time>
      </trkpt>
      <trkpt lat="46.384" lon="5.32476">
        <ele>216.8</ele>
        <time>2022-03-02T12:47:19Z</time>
      </trkpt>
      <trkpt lat="46.38393" lon="5.32494">
        <ele>216.8</ele>
        <time>2022-03-02T12:47:21Z</time>
      </trkpt>
      <trkpt lat="46.38383" lon="5.32503">
        <ele>216.6</ele>
        <time>2022-03-02T12:47:23Z</time>
      </trkpt>
      <trkpt lat="46.38376" lon="5.32505">
        <ele>216.4</ele>
        <time>2022-03-02T12:47:24Z</time>
      </trkpt>
      <trkpt lat="46.38368" lon="5.32505">
        <ele>216.4</ele>
        <time>2022-03-02T12:47:25Z</time>
      </trkpt>
      <trkpt lat="46.38342" lon="5.32497">
        <ele>216.4</ele>
        <time>2022-03-02T12:47:29Z</time>
      </trkpt>
      <trkpt lat="46.38295" lon="5.32479">
        <ele>216.8</ele>
        <time>2022-03-02T12:47:36Z</time>
      </trkpt>
      <trkpt lat="46.3825" lon="5.32472">
        <ele>216.4</ele>
        <time>2022-03-02T12:47:43Z</time>
      </trkpt>
      <trkpt lat="46.38237" lon="5.32468">
        <ele>216.4</ele>
        <time>2022-03-02T12:47:45Z</time>
      </trkpt>
      <trkpt lat="46.38226" lon="5.32462">
        <ele>216.2</ele>
        <time>2022-03-02T12:47:47Z</time>
      </trkpt>
      <trkpt lat="46.3822" lon="5.32457">
        <ele>216.2</ele>
        <time>2022-03-02T12:47:48Z</time>
      </trkpt>
      <trkpt lat="46.38174" lon="5.32413">
        <ele>216</ele>
        <time>2022-03-02T12:47:56Z</time>
      </trkpt>
      <trkpt lat="46.38131" lon="5.32374">
        <ele>215.8</ele>
        <time>2022-03-02T12:48:03Z</time>
      </trkpt>
      <trkpt lat="46.38127" lon="5.32369">
        <ele>215.8</ele>
        <time>2022-03-02T12:48:04Z</time>
      </trkpt>
      <trkpt lat="46.38104" lon="5.3233">
        <ele>215.8</ele>
        <time>2022-03-02T12:48:09Z</time>
      </trkpt>
      <trkpt lat="46.38088" lon="5.32297">
        <ele>215.8</ele>
        <time>2022-03-02T12:48:13Z</time>
      </trkpt>
      <trkpt lat="46.38079" lon="5.32282">
        <ele>215.8</ele>
        <time>2022-03-02T12:48:15Z</time>
      </trkpt>
      <trkpt lat="46.38068" lon="5.32273">
        <ele>215.8</ele>
        <time>2022-03-02T12:48:17Z</time>
      </trkpt>
      <trkpt lat="46.3806" lon="5.32268">
        <ele>216.2</ele>
        <time>2022-03-02T12:48:19Z</time>
      </trkpt>
      <trkpt lat="46.38056" lon="5.32264">
        <ele>216.4</ele>
        <time>2022-03-02T12:48:20Z</time>
      </trkpt>
      <trkpt lat="46.3805" lon="5.32254">
        <ele>216.6</ele>
        <time>2022-03-02T12:48:22Z</time>
      </trkpt>
      <trkpt lat="46.38048" lon="5.32247">
        <ele>216.8</ele>
        <time>2022-03-02T12:48:23Z</time>
      </trkpt>
      <trkpt lat="46.38039" lon="5.32206">
        <ele>217.4</ele>
        <time>2022-03-02T12:48:28Z</time>
      </trkpt>
      <trkpt lat="46.38028" lon="5.3216">
        <ele>217.4</ele>
        <time>2022-03-02T12:48:33Z</time>
      </trkpt>
      <trkpt lat="46.3801" lon="5.32119">
        <ele>217.2</ele>
        <time>2022-03-02T12:48:38Z</time>
      </trkpt>
      <trkpt lat="46.37975" lon="5.32065">
        <ele>216.2</ele>
        <time>2022-03-02T12:48:45Z</time>
      </trkpt>
      <trkpt lat="46.37966" lon="5.32049">
        <ele>215.8</ele>
        <time>2022-03-02T12:48:47Z</time>
      </trkpt>
      <trkpt lat="46.37958" lon="5.32027">
        <ele>215.2</ele>
        <time>2022-03-02T12:48:50Z</time>
      </trkpt>
      <trkpt lat="46.37946" lon="5.31984">
        <ele>214.8</ele>
        <time>2022-03-02T12:48:55Z</time>
      </trkpt>
      <trkpt lat="46.3794" lon="5.31956">
        <ele>214.8</ele>
        <time>2022-03-02T12:48:58Z</time>
      </trkpt>
      <trkpt lat="46.37933" lon="5.31931">
        <ele>215</ele>
        <time>2022-03-02T12:49:01Z</time>
      </trkpt>
      <trkpt lat="46.37927" lon="5.31914">
        <ele>215</ele>
        <time>2022-03-02T12:49:03Z</time>
      </trkpt>
      <trkpt lat="46.37921" lon="5.31899">
        <ele>215.2</ele>
        <time>2022-03-02T12:49:05Z</time>
      </trkpt>
      <trkpt lat="46.37918" lon="5.31892">
        <ele>215.2</ele>
        <time>2022-03-02T12:49:06Z</time>
      </trkpt>
      <trkpt lat="46.37885" lon="5.31839">
        <ele>215.2</ele>
        <time>2022-03-02T12:49:14Z</time>
      </trkpt>
      <trkpt lat="46.37856" lon="5.31796">
        <ele>215.2</ele>
        <time>2022-03-02T12:49:20Z</time>
      </trkpt>
      <trkpt lat="46.37819" lon="5.31744">
        <ele>214.6</ele>
        <time>2022-03-02T12:49:28Z</time>
      </trkpt>
      <trkpt lat="46.37783" lon="5.31692">
        <ele>214.2</ele>
        <time>2022-03-02T12:49:36Z</time>
      </trkpt>
      <trkpt lat="46.37779" lon="5.31686">
        <ele>214.2</ele>
        <time>2022-03-02T12:49:37Z</time>
      </trkpt>
      <trkpt lat="46.37752" lon="5.31649">
        <ele>214</ele>
        <time>2022-03-02T12:49:43Z</time>
      </trkpt>
      <trkpt lat="46.37715" lon="5.31595">
        <ele>213.4</ele>
        <time>2022-03-02T12:49:51Z</time>
      </trkpt>
      <trkpt lat="46.37683" lon="5.31547">
        <ele>213</ele>
        <time>2022-03-02T12:49:58Z</time>
      </trkpt>
      <trkpt lat="46.37668" lon="5.31526">
        <ele>213</ele>
        <time>2022-03-02T12:50:01Z</time>
      </trkpt>
      <trkpt lat="46.37637" lon="5.3148">
        <ele>212.6</ele>
        <time>2022-03-02T12:50:08Z</time>
      </trkpt>
      <trkpt lat="46.37627" lon="5.31465">
        <ele>212.6</ele>
        <time>2022-03-02T12:50:10Z</time>
      </trkpt>
      <trkpt lat="46.3759" lon="5.3141">
        <ele>212.6</ele>
        <time>2022-03-02T12:50:19Z</time>
      </trkpt>
      <trkpt lat="46.37551" lon="5.31354">
        <ele>212.4</ele>
        <time>2022-03-02T12:50:28Z</time>
      </trkpt>
      <trkpt lat="46.37543" lon="5.31343">
        <ele>212.4</ele>
        <time>2022-03-02T12:50:30Z</time>
      </trkpt>
      <trkpt lat="46.37502" lon="5.31282">
        <ele>212.6</ele>
        <time>2022-03-02T12:50:40Z</time>
      </trkpt>
      <trkpt lat="46.37497" lon="5.31276">
        <ele>212.6</ele>
        <time>2022-03-02T12:50:41Z</time>
      </trkpt>
      <trkpt lat="46.37455" lon="5.31215">
        <ele>212.8</ele>
        <time>2022-03-02T12:50:51Z</time>
      </trkpt>
      <trkpt lat="46.37451" lon="5.31209">
        <ele>212.8</ele>
        <time>2022-03-02T12:50:52Z</time>
      </trkpt>
      <trkpt lat="46.37422" lon="5.31166">
        <ele>213</ele>
        <time>2022-03-02T12:50:59Z</time>
      </trkpt>
      <trkpt lat="46.37385" lon="5.31111">
        <ele>212.6</ele>
        <time>2022-03-02T12:51:07Z</time>
      </trkpt>
      <trkpt lat="46.37361" lon="5.31077">
        <ele>212</ele>
        <time>2022-03-02T12:51:12Z</time>
      </trkpt>
      <trkpt lat="46.37339" lon="5.31043">
        <ele>211.6</ele>
        <time>2022-03-02T12:51:17Z</time>
      </trkpt>
      <trkpt lat="46.37313" lon="5.31006">
        <ele>211</ele>
        <time>2022-03-02T12:51:23Z</time>
      </trkpt>
      <trkpt lat="46.37299" lon="5.30987">
        <ele>211.2</ele>
        <time>2022-03-02T12:51:26Z</time>
      </trkpt>
      <trkpt lat="46.37261" lon="5.30931">
        <ele>211</ele>
        <time>2022-03-02T12:51:35Z</time>
      </trkpt>
      <trkpt lat="46.37222" lon="5.30875">
        <ele>210.6</ele>
        <time>2022-03-02T12:51:44Z</time>
      </trkpt>
      <trkpt lat="46.37218" lon="5.30869">
        <ele>210.6</ele>
        <time>2022-03-02T12:51:45Z</time>
      </trkpt>
      <trkpt lat="46.3718" lon="5.3081">
        <ele>210.2</ele>
        <time>2022-03-02T12:51:54Z</time>
      </trkpt>
      <trkpt lat="46.37154" lon="5.30751">
        <ele>211</ele>
        <time>2022-03-02T12:52:02Z</time>
      </trkpt>
      <trkpt lat="46.37135" lon="5.30693">
        <ele>211</ele>
        <time>2022-03-02T12:52:09Z</time>
      </trkpt>
      <trkpt lat="46.37118" lon="5.30617">
        <ele>210.8</ele>
        <time>2022-03-02T12:52:18Z</time>
      </trkpt>
      <trkpt lat="46.37115" lon="5.30584">
        <ele>210.8</ele>
        <time>2022-03-02T12:52:22Z</time>
      </trkpt>
      <trkpt lat="46.37115" lon="5.30564">
        <ele>210.8</ele>
        <time>2022-03-02T12:52:24Z</time>
      </trkpt>
      <trkpt lat="46.37121" lon="5.30495">
        <ele>210.8</ele>
        <time>2022-03-02T12:52:32Z</time>
      </trkpt>
      <trkpt lat="46.37127" lon="5.30415">
        <ele>210.6</ele>
        <time>2022-03-02T12:52:41Z</time>
      </trkpt>
      <trkpt lat="46.37129" lon="5.30397">
        <ele>210.8</ele>
        <time>2022-03-02T12:52:43Z</time>
      </trkpt>
      <trkpt lat="46.37135" lon="5.30319">
        <ele>211.2</ele>
        <time>2022-03-02T12:52:52Z</time>
      </trkpt>
      <trkpt lat="46.37143" lon="5.30261">
        <ele>212.4</ele>
        <time>2022-03-02T12:52:59Z</time>
      </trkpt>
      <trkpt lat="46.37145" lon="5.30254">
        <ele>212.4</ele>
        <time>2022-03-02T12:53:00Z</time>
      </trkpt>
      <trkpt lat="46.3715" lon="5.30243">
        <ele>212.8</ele>
        <time>2022-03-02T12:53:02Z</time>
      </trkpt>
      <trkpt lat="46.37155" lon="5.30237">
        <ele>212.8</ele>
        <time>2022-03-02T12:53:03Z</time>
      </trkpt>
      <trkpt lat="46.37159" lon="5.30232">
        <ele>212.8</ele>
        <time>2022-03-02T12:53:04Z</time>
      </trkpt>
      <trkpt lat="46.37176" lon="5.3022">
        <ele>213.6</ele>
        <time>2022-03-02T12:53:08Z</time>
      </trkpt>
      <trkpt lat="46.37197" lon="5.30209">
        <ele>214.8</ele>
        <time>2022-03-02T12:53:13Z</time>
      </trkpt>
      <trkpt lat="46.3721" lon="5.30203">
        <ele>215.2</ele>
        <time>2022-03-02T12:53:16Z</time>
      </trkpt>
      <trkpt lat="46.37225" lon="5.30195">
        <ele>215.8</ele>
        <time>2022-03-02T12:53:20Z</time>
      </trkpt>
      <trkpt lat="46.3724" lon="5.30186">
        <ele>217.2</ele>
        <time>2022-03-02T12:53:24Z</time>
      </trkpt>
      <trkpt lat="46.37243" lon="5.30183">
        <ele>217.4</ele>
        <time>2022-03-02T12:53:25Z</time>
      </trkpt>
      <trkpt lat="46.37256" lon="5.30163">
        <ele>218.2</ele>
        <time>2022-03-02T12:53:30Z</time>
      </trkpt>
      <trkpt lat="46.37258" lon="5.30157">
        <ele>218.4</ele>
        <time>2022-03-02T12:53:31Z</time>
      </trkpt>
      <trkpt lat="46.37261" lon="5.30141">
        <ele>219.4</ele>
        <time>2022-03-02T12:53:34Z</time>
      </trkpt>
      <trkpt lat="46.37262" lon="5.30128">
        <ele>219.8</ele>
        <time>2022-03-02T12:53:36Z</time>
      </trkpt>
      <trkpt lat="46.37262" lon="5.30116">
        <ele>220.2</ele>
        <time>2022-03-02T12:53:38Z</time>
      </trkpt>
      <trkpt lat="46.37262" lon="5.30105">
        <ele>220.6</ele>
        <time>2022-03-02T12:53:40Z</time>
      </trkpt>
      <trkpt lat="46.37261" lon="5.30092">
        <ele>221.2</ele>
        <time>2022-03-02T12:53:42Z</time>
      </trkpt>
      <trkpt lat="46.3726" lon="5.30074">
        <ele>221.8</ele>
        <time>2022-03-02T12:53:45Z</time>
      </trkpt>
      <trkpt lat="46.37259" lon="5.30046">
        <ele>222.8</ele>
        <time>2022-03-02T12:53:50Z</time>
      </trkpt>
      <trkpt lat="46.37259" lon="5.30034">
        <ele>223.4</ele>
        <time>2022-03-02T12:53:52Z</time>
      </trkpt>
      <trkpt lat="46.37259" lon="5.30018">
        <ele>224</ele>
        <time>2022-03-02T12:53:55Z</time>
      </trkpt>
      <trkpt lat="46.37261" lon="5.30008">
        <ele>224.6</ele>
        <time>2022-03-02T12:53:57Z</time>
      </trkpt>
      <trkpt lat="46.37263" lon="5.30002">
        <ele>224.6</ele>
        <time>2022-03-02T12:53:58Z</time>
      </trkpt>
      <trkpt lat="46.37274" lon="5.29987">
        <ele>225</ele>
        <time>2022-03-02T12:54:02Z</time>
      </trkpt>
      <trkpt lat="46.37282" lon="5.29981">
        <ele>225.6</ele>
        <time>2022-03-02T12:54:04Z</time>
      </trkpt>
      <trkpt lat="46.373" lon="5.29971">
        <ele>226.8</ele>
        <time>2022-03-02T12:54:09Z</time>
      </trkpt>
      <trkpt lat="46.37315" lon="5.29955">
        <ele>227.8</ele>
        <time>2022-03-02T12:54:14Z</time>
      </trkpt>
      <trkpt lat="46.37316" lon="5.2995">
        <ele>228</ele>
        <time>2022-03-02T12:54:15Z</time>
      </trkpt>
      <trkpt lat="46.37315" lon="5.29934">
        <ele>228.6</ele>
        <time>2022-03-02T12:54:18Z</time>
      </trkpt>
      <trkpt lat="46.37312" lon="5.29925">
        <ele>229</ele>
        <time>2022-03-02T12:54:20Z</time>
      </trkpt>
      <trkpt lat="46.37304" lon="5.29915">
        <ele>229.8</ele>
        <time>2022-03-02T12:54:23Z</time>
      </trkpt>
      <trkpt lat="46.37298" lon="5.2991">
        <ele>230.2</ele>
        <time>2022-03-02T12:54:25Z</time>
      </trkpt>
      <trkpt lat="46.37283" lon="5.29905">
        <ele>231.2</ele>
        <time>2022-03-02T12:54:29Z</time>
      </trkpt>
      <trkpt lat="46.37263" lon="5.29906">
        <ele>232.8</ele>
        <time>2022-03-02T12:54:35Z</time>
      </trkpt>
      <trkpt lat="46.37245" lon="5.29911">
        <ele>234.2</ele>
        <time>2022-03-02T12:54:40Z</time>
      </trkpt>
      <trkpt lat="46.37226" lon="5.29917">
        <ele>235.2</ele>
        <time>2022-03-02T12:54:45Z</time>
      </trkpt>
      <trkpt lat="46.37197" lon="5.29929">
        <ele>236</ele>
        <time>2022-03-02T12:54:52Z</time>
      </trkpt>
      <trkpt lat="46.37183" lon="5.2993">
        <ele>236.2</ele>
        <time>2022-03-02T12:54:55Z</time>
      </trkpt>
      <trkpt lat="46.37179" lon="5.2993">
        <ele>236.2</ele>
        <time>2022-03-02T12:54:56Z</time>
      </trkpt>
      <trkpt lat="46.37176" lon="5.2993">
        <ele>236.2</ele>
        <time>2022-03-02T12:54:57Z</time>
      </trkpt>
      <trkpt lat="46.37171" lon="5.29928">
        <ele>236.4</ele>
        <time>2022-03-02T12:54:58Z</time>
      </trkpt>
      <trkpt lat="46.37141" lon="5.29911">
        <ele>236.8</ele>
        <time>2022-03-02T12:55:05Z</time>
      </trkpt>
      <trkpt lat="46.37114" lon="5.2989">
        <ele>236.8</ele>
        <time>2022-03-02T12:55:10Z</time>
      </trkpt>
      <trkpt lat="46.37077" lon="5.29865">
        <ele>235.8</ele>
        <time>2022-03-02T12:55:16Z</time>
      </trkpt>
      <trkpt lat="46.37057" lon="5.29851">
        <ele>234.8</ele>
        <time>2022-03-02T12:55:19Z</time>
      </trkpt>
      <trkpt lat="46.3703" lon="5.29831">
        <ele>233.8</ele>
        <time>2022-03-02T12:55:23Z</time>
      </trkpt>
      <trkpt lat="46.37023" lon="5.29827">
        <ele>233</ele>
        <time>2022-03-02T12:55:24Z</time>
      </trkpt>
      <trkpt lat="46.3701" lon="5.29822">
        <ele>232.4</ele>
        <time>2022-03-02T12:55:26Z</time>
      </trkpt>
      <trkpt lat="46.37001" lon="5.2982">
        <ele>232.2</ele>
        <time>2022-03-02T12:55:27Z</time>
      </trkpt>
      <trkpt lat="46.36971" lon="5.2982">
        <ele>232</ele>
        <time>2022-03-02T12:55:32Z</time>
      </trkpt>
      <trkpt lat="46.36966" lon="5.29819">
        <ele>232</ele>
        <time>2022-03-02T12:55:33Z</time>
      </trkpt>
      <trkpt lat="46.36946" lon="5.29814">
        <ele>232.6</ele>
        <time>2022-03-02T12:55:37Z</time>
      </trkpt>
      <trkpt lat="46.36925" lon="5.29814">
        <ele>233.8</ele>
        <time>2022-03-02T12:55:42Z</time>
      </trkpt>
      <trkpt lat="46.36921" lon="5.29815">
        <ele>234</ele>
        <time>2022-03-02T12:55:43Z</time>
      </trkpt>
      <trkpt lat="46.36913" lon="5.29817">
        <ele>234.6</ele>
        <time>2022-03-02T12:55:45Z</time>
      </trkpt>
      <trkpt lat="46.36909" lon="5.29817">
        <ele>235</ele>
        <time>2022-03-02T12:55:46Z</time>
      </trkpt>
      <trkpt lat="46.36904" lon="5.29818">
        <ele>235.2</ele>
        <time>2022-03-02T12:55:47Z</time>
      </trkpt>
      <trkpt lat="46.36892" lon="5.29822">
        <ele>235.8</ele>
        <time>2022-03-02T12:55:50Z</time>
      </trkpt>
      <trkpt lat="46.36887" lon="5.29823">
        <ele>236.2</ele>
        <time>2022-03-02T12:55:51Z</time>
      </trkpt>
      <trkpt lat="46.36866" lon="5.29828">
        <ele>237.2</ele>
        <time>2022-03-02T12:55:56Z</time>
      </trkpt>
      <trkpt lat="46.36858" lon="5.2983">
        <ele>237.8</ele>
        <time>2022-03-02T12:55:58Z</time>
      </trkpt>
      <trkpt lat="46.36849" lon="5.29833">
        <ele>238.4</ele>
        <time>2022-03-02T12:56:00Z</time>
      </trkpt>
      <trkpt lat="46.36825" lon="5.29841">
        <ele>239.4</ele>
        <time>2022-03-02T12:56:05Z</time>
      </trkpt>
      <trkpt lat="46.36816" lon="5.29843">
        <ele>239.6</ele>
        <time>2022-03-02T12:56:07Z</time>
      </trkpt>
      <trkpt lat="46.36798" lon="5.29842">
        <ele>239.8</ele>
        <time>2022-03-02T12:56:10Z</time>
      </trkpt>
      <trkpt lat="46.36786" lon="5.29837">
        <ele>239.8</ele>
        <time>2022-03-02T12:56:12Z</time>
      </trkpt>
      <trkpt lat="46.3675" lon="5.29816">
        <ele>239</ele>
        <time>2022-03-02T12:56:18Z</time>
      </trkpt>
      <trkpt lat="46.36722" lon="5.29793">
        <ele>238.2</ele>
        <time>2022-03-02T12:56:23Z</time>
      </trkpt>
      <trkpt lat="46.36712" lon="5.29784">
        <ele>237.8</ele>
        <time>2022-03-02T12:56:25Z</time>
      </trkpt>
      <trkpt lat="46.36688" lon="5.29766">
        <ele>237.6</ele>
        <time>2022-03-02T12:56:29Z</time>
      </trkpt>
      <trkpt lat="46.36677" lon="5.29759">
        <ele>237.4</ele>
        <time>2022-03-02T12:56:31Z</time>
      </trkpt>
      <trkpt lat="46.36655" lon="5.29746">
        <ele>237.2</ele>
        <time>2022-03-02T12:56:35Z</time>
      </trkpt>
      <trkpt lat="46.36629" lon="5.29733">
        <ele>237.2</ele>
        <time>2022-03-02T12:56:40Z</time>
      </trkpt>
      <trkpt lat="46.36594" lon="5.29716">
        <ele>237.6</ele>
        <time>2022-03-02T12:56:47Z</time>
      </trkpt>
      <trkpt lat="46.3655" lon="5.29696">
        <ele>238</ele>
        <time>2022-03-02T12:56:56Z</time>
      </trkpt>
      <trkpt lat="46.36511" lon="5.29681">
        <ele>238.4</ele>
        <time>2022-03-02T12:57:03Z</time>
      </trkpt>
      <trkpt lat="46.365" lon="5.29678">
        <ele>238.4</ele>
        <time>2022-03-02T12:57:05Z</time>
      </trkpt>
      <trkpt lat="46.36456" lon="5.29653">
        <ele>238.4</ele>
        <time>2022-03-02T12:57:13Z</time>
      </trkpt>
      <trkpt lat="46.36413" lon="5.29622">
        <ele>238.6</ele>
        <time>2022-03-02T12:57:22Z</time>
      </trkpt>
      <trkpt lat="46.36382" lon="5.29592">
        <ele>239.2</ele>
        <time>2022-03-02T12:57:29Z</time>
      </trkpt>
      <trkpt lat="46.36373" lon="5.29581">
        <ele>239.4</ele>
        <time>2022-03-02T12:57:31Z</time>
      </trkpt>
      <trkpt lat="46.36361" lon="5.29556">
        <ele>240</ele>
        <time>2022-03-02T12:57:35Z</time>
      </trkpt>
      <trkpt lat="46.3634" lon="5.29519">
        <ele>240.2</ele>
        <time>2022-03-02T12:57:41Z</time>
      </trkpt>
      <trkpt lat="46.36336" lon="5.29515">
        <ele>240.4</ele>
        <time>2022-03-02T12:57:42Z</time>
      </trkpt>
      <trkpt lat="46.36299" lon="5.29483">
        <ele>239.8</ele>
        <time>2022-03-02T12:57:48Z</time>
      </trkpt>
      <trkpt lat="46.36292" lon="5.29479">
        <ele>239.6</ele>
        <time>2022-03-02T12:57:49Z</time>
      </trkpt>
      <trkpt lat="46.36272" lon="5.29471">
        <ele>238.8</ele>
        <time>2022-03-02T12:57:52Z</time>
      </trkpt>
      <trkpt lat="46.36255" lon="5.29467">
        <ele>238.4</ele>
        <time>2022-03-02T12:57:54Z</time>
      </trkpt>
      <trkpt lat="46.36246" lon="5.29466">
        <ele>238</ele>
        <time>2022-03-02T12:57:55Z</time>
      </trkpt>
      <trkpt lat="46.3624" lon="5.29466">
        <ele>237.8</ele>
        <time>2022-03-02T12:57:56Z</time>
      </trkpt>
      <trkpt lat="46.36231" lon="5.29469">
        <ele>237.4</ele>
        <time>2022-03-02T12:57:57Z</time>
      </trkpt>
      <trkpt lat="46.36218" lon="5.29477">
        <ele>236.8</ele>
        <time>2022-03-02T12:57:59Z</time>
      </trkpt>
      <trkpt lat="46.3619" lon="5.29506">
        <ele>236.8</ele>
        <time>2022-03-02T12:58:04Z</time>
      </trkpt>
      <trkpt lat="46.36173" lon="5.29519">
        <ele>237.8</ele>
        <time>2022-03-02T12:58:07Z</time>
      </trkpt>
      <trkpt lat="46.3616" lon="5.29525">
        <ele>238.4</ele>
        <time>2022-03-02T12:58:09Z</time>
      </trkpt>
      <trkpt lat="46.36154" lon="5.29527">
        <ele>238.4</ele>
        <time>2022-03-02T12:58:10Z</time>
      </trkpt>
      <trkpt lat="46.36123" lon="5.29532">
        <ele>238.6</ele>
        <time>2022-03-02T12:58:14Z</time>
      </trkpt>
      <trkpt lat="46.36066" lon="5.29539">
        <ele>238</ele>
        <time>2022-03-02T12:58:21Z</time>
      </trkpt>
      <trkpt lat="46.36022" lon="5.29545">
        <ele>237.4</ele>
        <time>2022-03-02T12:58:27Z</time>
      </trkpt>
      <trkpt lat="46.35999" lon="5.29547">
        <ele>237.2</ele>
        <time>2022-03-02T12:58:30Z</time>
      </trkpt>
      <trkpt lat="46.35964" lon="5.29552">
        <ele>237.4</ele>
        <time>2022-03-02T12:58:35Z</time>
      </trkpt>
      <trkpt lat="46.3595" lon="5.29554">
        <ele>237.4</ele>
        <time>2022-03-02T12:58:37Z</time>
      </trkpt>
      <trkpt lat="46.35904" lon="5.29554">
        <ele>237.6</ele>
        <time>2022-03-02T12:58:44Z</time>
      </trkpt>
      <trkpt lat="46.35871" lon="5.29547">
        <ele>238.2</ele>
        <time>2022-03-02T12:58:50Z</time>
      </trkpt>
      <trkpt lat="46.35856" lon="5.29544">
        <ele>238.6</ele>
        <time>2022-03-02T12:58:53Z</time>
      </trkpt>
      <trkpt lat="46.35828" lon="5.29542">
        <ele>239.8</ele>
        <time>2022-03-02T12:58:58Z</time>
      </trkpt>
      <trkpt lat="46.35822" lon="5.29541">
        <ele>239.8</ele>
        <time>2022-03-02T12:58:59Z</time>
      </trkpt>
      <trkpt lat="46.35805" lon="5.2954">
        <ele>240.4</ele>
        <time>2022-03-02T12:59:02Z</time>
      </trkpt>
      <trkpt lat="46.35789" lon="5.29541">
        <ele>240.6</ele>
        <time>2022-03-02T12:59:05Z</time>
      </trkpt>
      <trkpt lat="46.35782" lon="5.29541">
        <ele>240.6</ele>
        <time>2022-03-02T12:59:06Z</time>
      </trkpt>
      <trkpt lat="46.35777" lon="5.29541">
        <ele>240.6</ele>
        <time>2022-03-02T12:59:07Z</time>
      </trkpt>
      <trkpt lat="46.35769" lon="5.29541">
        <ele>241</ele>
        <time>2022-03-02T12:59:09Z</time>
      </trkpt>
      <trkpt lat="46.35742" lon="5.29543">
        <ele>241.8</ele>
        <time>2022-03-02T12:59:14Z</time>
      </trkpt>
      <trkpt lat="46.35737" lon="5.29543">
        <ele>241.8</ele>
        <time>2022-03-02T12:59:15Z</time>
      </trkpt>
      <trkpt lat="46.35725" lon="5.29545">
        <ele>242</ele>
        <time>2022-03-02T12:59:17Z</time>
      </trkpt>
      <trkpt lat="46.3572" lon="5.29546">
        <ele>242.2</ele>
        <time>2022-03-02T12:59:18Z</time>
      </trkpt>
      <trkpt lat="46.35708" lon="5.29553">
        <ele>242.4</ele>
        <time>2022-03-02T12:59:20Z</time>
      </trkpt>
      <trkpt lat="46.35696" lon="5.29561">
        <ele>242.6</ele>
        <time>2022-03-02T12:59:22Z</time>
      </trkpt>
      <trkpt lat="46.35686" lon="5.29571">
        <ele>242.8</ele>
        <time>2022-03-02T12:59:24Z</time>
      </trkpt>
      <trkpt lat="46.3566" lon="5.29593">
        <ele>243.6</ele>
        <time>2022-03-02T12:59:29Z</time>
      </trkpt>
      <trkpt lat="46.35644" lon="5.29603">
        <ele>243.8</ele>
        <time>2022-03-02T12:59:32Z</time>
      </trkpt>
      <trkpt lat="46.35628" lon="5.29612">
        <ele>243.8</ele>
        <time>2022-03-02T12:59:35Z</time>
      </trkpt>
      <trkpt lat="46.35574" lon="5.29638">
        <ele>244</ele>
        <time>2022-03-02T12:59:45Z</time>
      </trkpt>
      <trkpt lat="46.35531" lon="5.29648">
        <ele>244</ele>
        <time>2022-03-02T12:59:53Z</time>
      </trkpt>
      <trkpt lat="46.35499" lon="5.29655">
        <ele>243.6</ele>
        <time>2022-03-02T12:59:58Z</time>
      </trkpt>
      <trkpt lat="46.3549" lon="5.29665">
        <ele>243.4</ele>
        <time>2022-03-02T13:00:00Z</time>
      </trkpt>
      <trkpt lat="46.35486" lon="5.29674">
        <ele>243.2</ele>
        <time>2022-03-02T13:00:01Z</time>
      </trkpt>
      <trkpt lat="46.35478" lon="5.29688">
        <ele>243</ele>
        <time>2022-03-02T13:00:03Z</time>
      </trkpt>
      <trkpt lat="46.35469" lon="5.29696">
        <ele>242.8</ele>
        <time>2022-03-02T13:00:05Z</time>
      </trkpt>
      <trkpt lat="46.35452" lon="5.29694">
        <ele>242.8</ele>
        <time>2022-03-02T13:00:08Z</time>
      </trkpt>
      <trkpt lat="46.35414" lon="5.29682">
        <ele>243.4</ele>
        <time>2022-03-02T13:00:15Z</time>
      </trkpt>
      <trkpt lat="46.35358" lon="5.29664">
        <ele>244.6</ele>
        <time>2022-03-02T13:00:25Z</time>
      </trkpt>
      <trkpt lat="46.35308" lon="5.2965">
        <ele>244.6</ele>
        <time>2022-03-02T13:00:34Z</time>
      </trkpt>
      <trkpt lat="46.35263" lon="5.29644">
        <ele>244.4</ele>
        <time>2022-03-02T13:00:42Z</time>
      </trkpt>
      <trkpt lat="46.35221" lon="5.29646">
        <ele>244</ele>
        <time>2022-03-02T13:00:49Z</time>
      </trkpt>
      <trkpt lat="46.35175" lon="5.29654">
        <ele>243.6</ele>
        <time>2022-03-02T13:00:57Z</time>
      </trkpt>
      <trkpt lat="46.35141" lon="5.29659">
        <ele>242.8</ele>
        <time>2022-03-02T13:01:02Z</time>
      </trkpt>
      <trkpt lat="46.35106" lon="5.29663">
        <ele>241.6</ele>
        <time>2022-03-02T13:01:07Z</time>
      </trkpt>
      <trkpt lat="46.35093" lon="5.29663">
        <ele>241.4</ele>
        <time>2022-03-02T13:01:09Z</time>
      </trkpt>
      <trkpt lat="46.35059" lon="5.29655">
        <ele>240.8</ele>
        <time>2022-03-02T13:01:14Z</time>
      </trkpt>
      <trkpt lat="46.35032" lon="5.2964">
        <ele>240.8</ele>
        <time>2022-03-02T13:01:19Z</time>
      </trkpt>
      <trkpt lat="46.35008" lon="5.29634">
        <ele>241.4</ele>
        <time>2022-03-02T13:01:24Z</time>
      </trkpt>
      <trkpt lat="46.34981" lon="5.29631">
        <ele>242.4</ele>
        <time>2022-03-02T13:01:30Z</time>
      </trkpt>
      <trkpt lat="46.34976" lon="5.29633">
        <ele>242.6</ele>
        <time>2022-03-02T13:01:31Z</time>
      </trkpt>
      <trkpt lat="46.34971" lon="5.29634">
        <ele>242.8</ele>
        <time>2022-03-02T13:01:32Z</time>
      </trkpt>
      <trkpt lat="46.34965" lon="5.29637">
        <ele>243.2</ele>
        <time>2022-03-02T13:01:33Z</time>
      </trkpt>
      <trkpt lat="46.34956" lon="5.29643">
        <ele>243.2</ele>
        <time>2022-03-02T13:01:35Z</time>
      </trkpt>
      <trkpt lat="46.34952" lon="5.29648">
        <ele>243.4</ele>
        <time>2022-03-02T13:01:36Z</time>
      </trkpt>
      <trkpt lat="46.34941" lon="5.29659">
        <ele>243.4</ele>
        <time>2022-03-02T13:01:38Z</time>
      </trkpt>
      <trkpt lat="46.3493" lon="5.29664">
        <ele>243.4</ele>
        <time>2022-03-02T13:01:40Z</time>
      </trkpt>
      <trkpt lat="46.34915" lon="5.29662">
        <ele>243.4</ele>
        <time>2022-03-02T13:01:42Z</time>
      </trkpt>
      <trkpt lat="46.34903" lon="5.29656">
        <ele>243.2</ele>
        <time>2022-03-02T13:01:44Z</time>
      </trkpt>
      <trkpt lat="46.34867" lon="5.2963">
        <ele>243.2</ele>
        <time>2022-03-02T13:01:51Z</time>
      </trkpt>
      <trkpt lat="46.34823" lon="5.29614">
        <ele>243.4</ele>
        <time>2022-03-02T13:01:59Z</time>
      </trkpt>
      <trkpt lat="46.34817" lon="5.29613">
        <ele>243.4</ele>
        <time>2022-03-02T13:02:00Z</time>
      </trkpt>
      <trkpt lat="46.34786" lon="5.29615">
        <ele>243.4</ele>
        <time>2022-03-02T13:02:05Z</time>
      </trkpt>
      <trkpt lat="46.34748" lon="5.29622">
        <ele>243.2</ele>
        <time>2022-03-02T13:02:11Z</time>
      </trkpt>
      <trkpt lat="46.34743" lon="5.29625">
        <ele>243.2</ele>
        <time>2022-03-02T13:02:12Z</time>
      </trkpt>
      <trkpt lat="46.34717" lon="5.29642">
        <ele>242.8</ele>
        <time>2022-03-02T13:02:16Z</time>
      </trkpt>
      <trkpt lat="46.34704" lon="5.29645">
        <ele>242.8</ele>
        <time>2022-03-02T13:02:18Z</time>
      </trkpt>
      <trkpt lat="46.3467" lon="5.29638">
        <ele>242.2</ele>
        <time>2022-03-02T13:02:23Z</time>
      </trkpt>
      <trkpt lat="46.34656" lon="5.29637">
        <ele>242</ele>
        <time>2022-03-02T13:02:25Z</time>
      </trkpt>
      <trkpt lat="46.3463" lon="5.29632">
        <ele>241.6</ele>
        <time>2022-03-02T13:02:29Z</time>
      </trkpt>
      <trkpt lat="46.34591" lon="5.29623">
        <ele>240.8</ele>
        <time>2022-03-02T13:02:35Z</time>
      </trkpt>
      <trkpt lat="46.34584" lon="5.29622">
        <ele>240.8</ele>
        <time>2022-03-02T13:02:36Z</time>
      </trkpt>
      <trkpt lat="46.34526" lon="5.29612">
        <ele>240.2</ele>
        <time>2022-03-02T13:02:45Z</time>
      </trkpt>
      <trkpt lat="46.34471" lon="5.296">
        <ele>240.4</ele>
        <time>2022-03-02T13:02:54Z</time>
      </trkpt>
      <trkpt lat="46.3446" lon="5.2959">
        <ele>240.6</ele>
        <time>2022-03-02T13:02:56Z</time>
      </trkpt>
      <trkpt lat="46.34457" lon="5.29583">
        <ele>240.6</ele>
        <time>2022-03-02T13:02:57Z</time>
      </trkpt>
      <trkpt lat="46.34456" lon="5.29577">
        <ele>240.8</ele>
        <time>2022-03-02T13:02:58Z</time>
      </trkpt>
      <trkpt lat="46.34455" lon="5.2956">
        <ele>240.8</ele>
        <time>2022-03-02T13:03:00Z</time>
      </trkpt>
      <trkpt lat="46.34457" lon="5.29547">
        <ele>241</ele>
        <time>2022-03-02T13:03:02Z</time>
      </trkpt>
      <trkpt lat="46.34462" lon="5.29522">
        <ele>241.8</ele>
        <time>2022-03-02T13:03:05Z</time>
      </trkpt>
      <trkpt lat="46.34463" lon="5.29514">
        <ele>242</ele>
        <time>2022-03-02T13:03:06Z</time>
      </trkpt>
      <trkpt lat="46.34469" lon="5.29474">
        <ele>242.8</ele>
        <time>2022-03-02T13:03:11Z</time>
      </trkpt>
      <trkpt lat="46.34468" lon="5.29468">
        <ele>243</ele>
        <time>2022-03-02T13:03:12Z</time>
      </trkpt>
      <trkpt lat="46.34467" lon="5.29459">
        <ele>243.2</ele>
        <time>2022-03-02T13:03:13Z</time>
      </trkpt>
      <trkpt lat="46.34462" lon="5.29448">
        <ele>243.8</ele>
        <time>2022-03-02T13:03:15Z</time>
      </trkpt>
      <trkpt lat="46.34456" lon="5.29439">
        <ele>244.2</ele>
        <time>2022-03-02T13:03:17Z</time>
      </trkpt>
      <trkpt lat="46.34441" lon="5.29419">
        <ele>244.6</ele>
        <time>2022-03-02T13:03:21Z</time>
      </trkpt>
      <trkpt lat="46.34422" lon="5.29379">
        <ele>244.8</ele>
        <time>2022-03-02T13:03:27Z</time>
      </trkpt>
      <trkpt lat="46.34418" lon="5.29373">
        <ele>244.8</ele>
        <time>2022-03-02T13:03:28Z</time>
      </trkpt>
      <trkpt lat="46.34408" lon="5.29356">
        <ele>244.8</ele>
        <time>2022-03-02T13:03:31Z</time>
      </trkpt>
      <trkpt lat="46.34402" lon="5.2935">
        <ele>244.8</ele>
        <time>2022-03-02T13:03:32Z</time>
      </trkpt>
      <trkpt lat="46.34396" lon="5.29346">
        <ele>244.8</ele>
        <time>2022-03-02T13:03:33Z</time>
      </trkpt>
      <trkpt lat="46.34386" lon="5.29341">
        <ele>244.6</ele>
        <time>2022-03-02T13:03:35Z</time>
      </trkpt>
      <trkpt lat="46.34379" lon="5.29339">
        <ele>244.6</ele>
        <time>2022-03-02T13:03:36Z</time>
      </trkpt>
      <trkpt lat="46.34356" lon="5.29332">
        <ele>244.2</ele>
        <time>2022-03-02T13:03:40Z</time>
      </trkpt>
      <trkpt lat="46.34343" lon="5.29323">
        <ele>244</ele>
        <time>2022-03-02T13:03:42Z</time>
      </trkpt>
      <trkpt lat="46.34302" lon="5.29298">
        <ele>243.6</ele>
        <time>2022-03-02T13:03:49Z</time>
      </trkpt>
      <trkpt lat="46.34276" lon="5.2929">
        <ele>243.2</ele>
        <time>2022-03-02T13:03:53Z</time>
      </trkpt>
      <trkpt lat="46.34256" lon="5.29286">
        <ele>243</ele>
        <time>2022-03-02T13:03:56Z</time>
      </trkpt>
      <trkpt lat="46.34207" lon="5.29268">
        <ele>242.8</ele>
        <time>2022-03-02T13:04:04Z</time>
      </trkpt>
      <trkpt lat="46.3419" lon="5.29261">
        <ele>242.8</ele>
        <time>2022-03-02T13:04:07Z</time>
      </trkpt>
      <trkpt lat="46.34177" lon="5.29262">
        <ele>242.8</ele>
        <time>2022-03-02T13:04:09Z</time>
      </trkpt>
      <trkpt lat="46.34148" lon="5.29267">
        <ele>242.4</ele>
        <time>2022-03-02T13:04:13Z</time>
      </trkpt>
      <trkpt lat="46.34129" lon="5.29269">
        <ele>242.2</ele>
        <time>2022-03-02T13:04:16Z</time>
      </trkpt>
      <trkpt lat="46.34115" lon="5.29273">
        <ele>242</ele>
        <time>2022-03-02T13:04:18Z</time>
      </trkpt>
      <trkpt lat="46.34104" lon="5.29281">
        <ele>241.8</ele>
        <time>2022-03-02T13:04:20Z</time>
      </trkpt>
      <trkpt lat="46.34093" lon="5.29295">
        <ele>241.8</ele>
        <time>2022-03-02T13:04:22Z</time>
      </trkpt>
      <trkpt lat="46.3409" lon="5.29303">
        <ele>241.8</ele>
        <time>2022-03-02T13:04:23Z</time>
      </trkpt>
      <trkpt lat="46.34075" lon="5.29337">
        <ele>241.6</ele>
        <time>2022-03-02T13:04:27Z</time>
      </trkpt>
      <trkpt lat="46.34067" lon="5.29351">
        <ele>241.6</ele>
        <time>2022-03-02T13:04:29Z</time>
      </trkpt>
      <trkpt lat="46.34062" lon="5.29357">
        <ele>241.6</ele>
        <time>2022-03-02T13:04:30Z</time>
      </trkpt>
      <trkpt lat="46.3405" lon="5.29368">
        <ele>241.6</ele>
        <time>2022-03-02T13:04:32Z</time>
      </trkpt>
      <trkpt lat="46.34044" lon="5.29371">
        <ele>241.6</ele>
        <time>2022-03-02T13:04:33Z</time>
      </trkpt>
      <trkpt lat="46.34016" lon="5.29381">
        <ele>241.8</ele>
        <time>2022-03-02T13:04:38Z</time>
      </trkpt>
      <trkpt lat="46.34012" lon="5.29383">
        <ele>242</ele>
        <time>2022-03-02T13:04:39Z</time>
      </trkpt>
      <trkpt lat="46.33997" lon="5.29395">
        <ele>242.2</ele>
        <time>2022-03-02T13:04:42Z</time>
      </trkpt>
      <trkpt lat="46.33993" lon="5.29399">
        <ele>242.4</ele>
        <time>2022-03-02T13:04:43Z</time>
      </trkpt>
      <trkpt lat="46.33971" lon="5.29434">
        <ele>243.2</ele>
        <time>2022-03-02T13:04:49Z</time>
      </trkpt>
      <trkpt lat="46.33963" lon="5.29455">
        <ele>243.4</ele>
        <time>2022-03-02T13:04:52Z</time>
      </trkpt>
      <trkpt lat="46.33956" lon="5.29478">
        <ele>243.8</ele>
        <time>2022-03-02T13:04:55Z</time>
      </trkpt>
      <trkpt lat="46.33952" lon="5.29492">
        <ele>244.2</ele>
        <time>2022-03-02T13:04:57Z</time>
      </trkpt>
      <trkpt lat="46.33949" lon="5.29498">
        <ele>244.4</ele>
        <time>2022-03-02T13:04:58Z</time>
      </trkpt>
      <trkpt lat="46.33944" lon="5.29506">
        <ele>244.6</ele>
        <time>2022-03-02T13:04:59Z</time>
      </trkpt>
      <trkpt lat="46.33939" lon="5.29511">
        <ele>244.8</ele>
        <time>2022-03-02T13:05:00Z</time>
      </trkpt>
      <trkpt lat="46.33933" lon="5.29514">
        <ele>244.8</ele>
        <time>2022-03-02T13:05:01Z</time>
      </trkpt>
      <trkpt lat="46.33914" lon="5.29519">
        <ele>245</ele>
        <time>2022-03-02T13:05:04Z</time>
      </trkpt>
      <trkpt lat="46.3387" lon="5.29518">
        <ele>244.8</ele>
        <time>2022-03-02T13:05:11Z</time>
      </trkpt>
      <trkpt lat="46.33815" lon="5.29518">
        <ele>244.8</ele>
        <time>2022-03-02T13:05:20Z</time>
      </trkpt>
      <trkpt lat="46.33809" lon="5.29516">
        <ele>244.8</ele>
        <time>2022-03-02T13:05:21Z</time>
      </trkpt>
      <trkpt lat="46.33778" lon="5.29498">
        <ele>245.2</ele>
        <time>2022-03-02T13:05:27Z</time>
      </trkpt>
      <trkpt lat="46.33745" lon="5.29467">
        <ele>245.2</ele>
        <time>2022-03-02T13:05:34Z</time>
      </trkpt>
      <trkpt lat="46.3371" lon="5.29421">
        <ele>245.2</ele>
        <time>2022-03-02T13:05:42Z</time>
      </trkpt>
      <trkpt lat="46.33688" lon="5.29387">
        <ele>245.8</ele>
        <time>2022-03-02T13:05:48Z</time>
      </trkpt>
      <trkpt lat="46.33678" lon="5.29376">
        <ele>246</ele>
        <time>2022-03-02T13:05:50Z</time>
      </trkpt>
      <trkpt lat="46.33673" lon="5.29372">
        <ele>246</ele>
        <time>2022-03-02T13:05:51Z</time>
      </trkpt>
      <trkpt lat="46.33658" lon="5.29365">
        <ele>246</ele>
        <time>2022-03-02T13:05:54Z</time>
      </trkpt>
      <trkpt lat="46.33639" lon="5.29365">
        <ele>246</ele>
        <time>2022-03-02T13:05:57Z</time>
      </trkpt>
      <trkpt lat="46.33628" lon="5.29368">
        <ele>246</ele>
        <time>2022-03-02T13:05:59Z</time>
      </trkpt>
      <trkpt lat="46.33594" lon="5.29372">
        <ele>246.2</ele>
        <time>2022-03-02T13:06:05Z</time>
      </trkpt>
      <trkpt lat="46.33552" lon="5.29361">
        <ele>246.8</ele>
        <time>2022-03-02T13:06:13Z</time>
      </trkpt>
      <trkpt lat="46.33496" lon="5.29339">
        <ele>247</ele>
        <time>2022-03-02T13:06:23Z</time>
      </trkpt>
      <trkpt lat="46.33485" lon="5.29335">
        <ele>247</ele>
        <time>2022-03-02T13:06:25Z</time>
      </trkpt>
      <trkpt lat="46.33447" lon="5.29311">
        <ele>246.6</ele>
        <time>2022-03-02T13:06:32Z</time>
      </trkpt>
      <trkpt lat="46.33427" lon="5.29293">
        <ele>246.2</ele>
        <time>2022-03-02T13:06:36Z</time>
      </trkpt>
      <trkpt lat="46.33425" lon="5.29289">
        <ele>245.8</ele>
        <time>2022-03-02T13:06:37Z</time>
      </trkpt>
      <trkpt lat="46.33422" lon="5.29283">
        <ele>245.6</ele>
        <time>2022-03-02T13:06:38Z</time>
      </trkpt>
      <trkpt lat="46.33422" lon="5.29273">
        <ele>245.4</ele>
        <time>2022-03-02T13:06:40Z</time>
      </trkpt>
      <trkpt lat="46.33423" lon="5.29261">
        <ele>245.2</ele>
        <time>2022-03-02T13:06:42Z</time>
      </trkpt>
      <trkpt lat="46.33417" lon="5.29252">
        <ele>245.2</ele>
        <time>2022-03-02T13:06:44Z</time>
      </trkpt>
      <trkpt lat="46.33392" lon="5.29241">
        <ele>244.8</ele>
        <time>2022-03-02T13:06:48Z</time>
      </trkpt>
      <trkpt lat="46.3334" lon="5.29221">
        <ele>244.4</ele>
        <time>2022-03-02T13:06:56Z</time>
      </trkpt>
      <trkpt lat="46.33311" lon="5.292">
        <ele>244.4</ele>
        <time>2022-03-02T13:07:01Z</time>
      </trkpt>
      <trkpt lat="46.33264" lon="5.29147">
        <ele>244.4</ele>
        <time>2022-03-02T13:07:10Z</time>
      </trkpt>
      <trkpt lat="46.33246" lon="5.29137">
        <ele>244</ele>
        <time>2022-03-02T13:07:13Z</time>
      </trkpt>
      <trkpt lat="46.33239" lon="5.29136">
        <ele>244</ele>
        <time>2022-03-02T13:07:14Z</time>
      </trkpt>
      <trkpt lat="46.3319" lon="5.29131">
        <ele>243.8</ele>
        <time>2022-03-02T13:07:22Z</time>
      </trkpt>
      <trkpt lat="46.33146" lon="5.2912">
        <ele>244.2</ele>
        <time>2022-03-02T13:07:30Z</time>
      </trkpt>
      <trkpt lat="46.33106" lon="5.29099">
        <ele>245.4</ele>
        <time>2022-03-02T13:07:38Z</time>
      </trkpt>
      <trkpt lat="46.33065" lon="5.2907">
        <ele>245.4</ele>
        <time>2022-03-02T13:07:46Z</time>
      </trkpt>
      <trkpt lat="46.33033" lon="5.29049">
        <ele>245.4</ele>
        <time>2022-03-02T13:07:52Z</time>
      </trkpt>
      <trkpt lat="46.33016" lon="5.29038">
        <ele>245.6</ele>
        <time>2022-03-02T13:07:55Z</time>
      </trkpt>
      <trkpt lat="46.32977" lon="5.29012">
        <ele>245.8</ele>
        <time>2022-03-02T13:08:02Z</time>
      </trkpt>
      <trkpt lat="46.32951" lon="5.28998">
        <ele>245.8</ele>
        <time>2022-03-02T13:08:06Z</time>
      </trkpt>
      <trkpt lat="46.32904" lon="5.28973">
        <ele>245.4</ele>
        <time>2022-03-02T13:08:14Z</time>
      </trkpt>
      <trkpt lat="46.32856" lon="5.28948">
        <ele>244.6</ele>
        <time>2022-03-02T13:08:22Z</time>
      </trkpt>
      <trkpt lat="46.3285" lon="5.28945">
        <ele>244.4</ele>
        <time>2022-03-02T13:08:23Z</time>
      </trkpt>
      <trkpt lat="46.32795" lon="5.28917">
        <ele>244</ele>
        <time>2022-03-02T13:08:32Z</time>
      </trkpt>
      <trkpt lat="46.32788" lon="5.28915">
        <ele>244.2</ele>
        <time>2022-03-02T13:08:33Z</time>
      </trkpt>
      <trkpt lat="46.32734" lon="5.28891">
        <ele>244</ele>
        <time>2022-03-02T13:08:42Z</time>
      </trkpt>
      <trkpt lat="46.32691" lon="5.28875">
        <ele>244.2</ele>
        <time>2022-03-02T13:08:49Z</time>
      </trkpt>
      <trkpt lat="46.3265" lon="5.28858">
        <ele>244</ele>
        <time>2022-03-02T13:08:56Z</time>
      </trkpt>
      <trkpt lat="46.32619" lon="5.28846">
        <ele>243.6</ele>
        <time>2022-03-02T13:09:01Z</time>
      </trkpt>
      <trkpt lat="46.32599" lon="5.28837">
        <ele>243.2</ele>
        <time>2022-03-02T13:09:04Z</time>
      </trkpt>
      <trkpt lat="46.32554" lon="5.28817">
        <ele>242.8</ele>
        <time>2022-03-02T13:09:11Z</time>
      </trkpt>
      <trkpt lat="46.32547" lon="5.28812">
        <ele>242.8</ele>
        <time>2022-03-02T13:09:12Z</time>
      </trkpt>
      <trkpt lat="46.32532" lon="5.28798">
        <ele>242.8</ele>
        <time>2022-03-02T13:09:15Z</time>
      </trkpt>
      <trkpt lat="46.32493" lon="5.2875">
        <ele>243</ele>
        <time>2022-03-02T13:09:23Z</time>
      </trkpt>
      <trkpt lat="46.32448" lon="5.28704">
        <ele>243</ele>
        <time>2022-03-02T13:09:32Z</time>
      </trkpt>
      <trkpt lat="46.32418" lon="5.28664">
        <ele>243.6</ele>
        <time>2022-03-02T13:09:39Z</time>
      </trkpt>
      <trkpt lat="46.32396" lon="5.28629">
        <ele>243.6</ele>
        <time>2022-03-02T13:09:44Z</time>
      </trkpt>
      <trkpt lat="46.32376" lon="5.28611">
        <ele>243.6</ele>
        <time>2022-03-02T13:09:48Z</time>
      </trkpt>
      <trkpt lat="46.3237" lon="5.28606">
        <ele>243.6</ele>
        <time>2022-03-02T13:09:49Z</time>
      </trkpt>
      <trkpt lat="46.32322" lon="5.28575">
        <ele>243.8</ele>
        <time>2022-03-02T13:09:58Z</time>
      </trkpt>
      <trkpt lat="46.323" lon="5.28562">
        <ele>244</ele>
        <time>2022-03-02T13:10:02Z</time>
      </trkpt>
      <trkpt lat="46.32296" lon="5.28565">
        <ele>244</ele>
        <time>2022-03-02T13:10:03Z</time>
      </trkpt>
      <trkpt lat="46.32293" lon="5.2857">
        <ele>244</ele>
        <time>2022-03-02T13:10:04Z</time>
      </trkpt>
      <trkpt lat="46.32291" lon="5.28584">
        <ele>244</ele>
        <time>2022-03-02T13:10:06Z</time>
      </trkpt>
      <trkpt lat="46.3228" lon="5.28651">
        <ele>243.8</ele>
        <time>2022-03-02T13:10:13Z</time>
      </trkpt>
      <trkpt lat="46.32276" lon="5.28678">
        <ele>244</ele>
        <time>2022-03-02T13:10:16Z</time>
      </trkpt>
      <trkpt lat="46.32275" lon="5.287">
        <ele>243.8</ele>
        <time>2022-03-02T13:10:18Z</time>
      </trkpt>
      <trkpt lat="46.32273" lon="5.28773">
        <ele>243</ele>
        <time>2022-03-02T13:10:25Z</time>
      </trkpt>
      <trkpt lat="46.32274" lon="5.28815">
        <ele>242.6</ele>
        <time>2022-03-02T13:10:29Z</time>
      </trkpt>
      <trkpt lat="46.32275" lon="5.28836">
        <ele>242.6</ele>
        <time>2022-03-02T13:10:31Z</time>
      </trkpt>
      <trkpt lat="46.32278" lon="5.28915">
        <ele>242.6</ele>
        <time>2022-03-02T13:10:39Z</time>
      </trkpt>
      <trkpt lat="46.3228" lon="5.28991">
        <ele>242.8</ele>
        <time>2022-03-02T13:10:47Z</time>
      </trkpt>
      <trkpt lat="46.32285" lon="5.29008">
        <ele>242.8</ele>
        <time>2022-03-02T13:10:49Z</time>
      </trkpt>
      <trkpt lat="46.32289" lon="5.29016">
        <ele>242.8</ele>
        <time>2022-03-02T13:10:50Z</time>
      </trkpt>
      <trkpt lat="46.32294" lon="5.2902">
        <ele>242.8</ele>
        <time>2022-03-02T13:10:51Z</time>
      </trkpt>
      <trkpt lat="46.32315" lon="5.29038">
        <ele>243</ele>
        <time>2022-03-02T13:10:55Z</time>
      </trkpt>
      <trkpt lat="46.32334" lon="5.29056">
        <ele>243.2</ele>
        <time>2022-03-02T13:10:59Z</time>
      </trkpt>
      <trkpt lat="46.32341" lon="5.29065">
        <ele>243.4</ele>
        <time>2022-03-02T13:11:01Z</time>
      </trkpt>
      <trkpt lat="46.32362" lon="5.29104">
        <ele>243.4</ele>
        <time>2022-03-02T13:11:06Z</time>
      </trkpt>
      <trkpt lat="46.32365" lon="5.29113">
        <ele>243.4</ele>
        <time>2022-03-02T13:11:07Z</time>
      </trkpt>
      <trkpt lat="46.32371" lon="5.29133">
        <ele>243</ele>
        <time>2022-03-02T13:11:10Z</time>
      </trkpt>
      <trkpt lat="46.32373" lon="5.29155">
        <ele>242.4</ele>
        <time>2022-03-02T13:11:14Z</time>
      </trkpt>
      <trkpt lat="46.32374" lon="5.29168">
        <ele>242.2</ele>
        <time>2022-03-02T13:11:16Z</time>
      </trkpt>
      <trkpt lat="46.32376" lon="5.29182">
        <ele>241.8</ele>
        <time>2022-03-02T13:11:19Z</time>
      </trkpt>
      <trkpt lat="46.32377" lon="5.29191">
        <ele>241.6</ele>
        <time>2022-03-02T13:11:21Z</time>
      </trkpt>
      <trkpt lat="46.32377" lon="5.29196">
        <ele>241.6</ele>
        <time>2022-03-02T13:11:22Z</time>
      </trkpt>
      <trkpt lat="46.32378" lon="5.292">
        <ele>241.4</ele>
        <time>2022-03-02T13:11:23Z</time>
      </trkpt>
      <trkpt lat="46.32378" lon="5.29209">
        <ele>241.2</ele>
        <time>2022-03-02T13:11:25Z</time>
      </trkpt>
      <trkpt lat="46.32379" lon="5.29213">
        <ele>241</ele>
        <time>2022-03-02T13:11:27Z</time>
      </trkpt>
      <trkpt lat="46.32379" lon="5.29214">
        <ele>240.8</ele>
        <time>2022-03-02T13:11:30Z</time>
      </trkpt>
      <trkpt lat="46.32381" lon="5.29221">
        <ele>240.2</ele>
        <time>2022-03-02T13:11:45Z</time>
      </trkpt>
      <trkpt lat="46.32381" lon="5.29225">
        <ele>240.2</ele>
        <time>2022-03-02T13:11:46Z</time>
      </trkpt>
      <trkpt lat="46.32382" lon="5.29242">
        <ele>240.2</ele>
        <time>2022-03-02T13:11:48Z</time>
      </trkpt>
      <trkpt lat="46.32383" lon="5.29261">
        <ele>240.2</ele>
        <time>2022-03-02T13:11:50Z</time>
      </trkpt>
      <trkpt lat="46.32389" lon="5.29314">
        <ele>239.6</ele>
        <time>2022-03-02T13:11:55Z</time>
      </trkpt>
      <trkpt lat="46.32392" lon="5.29362">
        <ele>239.2</ele>
        <time>2022-03-02T13:11:59Z</time>
      </trkpt>
      <trkpt lat="46.32393" lon="5.29371">
        <ele>239</ele>
        <time>2022-03-02T13:12:00Z</time>
      </trkpt>
      <trkpt lat="46.32394" lon="5.29384">
        <ele>239</ele>
        <time>2022-03-02T13:12:01Z</time>
      </trkpt>
      <trkpt lat="46.32399" lon="5.2946">
        <ele>238.4</ele>
        <time>2022-03-02T13:12:08Z</time>
      </trkpt>
      <trkpt lat="46.32404" lon="5.29538">
        <ele>239</ele>
        <time>2022-03-02T13:12:16Z</time>
      </trkpt>
      <trkpt lat="46.32412" lon="5.29602">
        <ele>239.6</ele>
        <time>2022-03-02T13:12:23Z</time>
      </trkpt>
      <trkpt lat="46.3242" lon="5.29663">
        <ele>239.4</ele>
        <time>2022-03-02T13:12:29Z</time>
      </trkpt>
      <trkpt lat="46.32425" lon="5.29712">
        <ele>238.8</ele>
        <time>2022-03-02T13:12:33Z</time>
      </trkpt>
      <trkpt lat="46.32428" lon="5.29753">
        <ele>237.6</ele>
        <time>2022-03-02T13:12:36Z</time>
      </trkpt>
      <trkpt lat="46.32433" lon="5.29783">
        <ele>236</ele>
        <time>2022-03-02T13:12:38Z</time>
      </trkpt>
      <trkpt lat="46.32437" lon="5.29799">
        <ele>235.2</ele>
        <time>2022-03-02T13:12:39Z</time>
      </trkpt>
      <trkpt lat="46.3244" lon="5.29811">
        <ele>235</ele>
        <time>2022-03-02T13:12:40Z</time>
      </trkpt>
      <trkpt lat="46.3245" lon="5.29842">
        <ele>233.8</ele>
        <time>2022-03-02T13:12:42Z</time>
      </trkpt>
      <trkpt lat="46.32455" lon="5.29861">
        <ele>232.6</ele>
        <time>2022-03-02T13:12:43Z</time>
      </trkpt>
      <trkpt lat="46.3246" lon="5.29877">
        <ele>231.6</ele>
        <time>2022-03-02T13:12:44Z</time>
      </trkpt>
      <trkpt lat="46.32471" lon="5.29906">
        <ele>229.8</ele>
        <time>2022-03-02T13:12:46Z</time>
      </trkpt>
      <trkpt lat="46.32479" lon="5.29923">
        <ele>229.4</ele>
        <time>2022-03-02T13:12:47Z</time>
      </trkpt>
      <trkpt lat="46.32486" lon="5.29937">
        <ele>227.8</ele>
        <time>2022-03-02T13:12:48Z</time>
      </trkpt>
      <trkpt lat="46.32499" lon="5.29962">
        <ele>226.4</ele>
        <time>2022-03-02T13:12:50Z</time>
      </trkpt>
      <trkpt lat="46.32511" lon="5.29986">
        <ele>226</ele>
        <time>2022-03-02T13:12:52Z</time>
      </trkpt>
      <trkpt lat="46.32531" lon="5.30023">
        <ele>225.8</ele>
        <time>2022-03-02T13:12:56Z</time>
      </trkpt>
      <trkpt lat="46.32545" lon="5.3005">
        <ele>227.8</ele>
        <time>2022-03-02T13:13:00Z</time>
      </trkpt>
      <trkpt lat="46.32552" lon="5.30063">
        <ele>229.2</ele>
        <time>2022-03-02T13:13:02Z</time>
      </trkpt>
      <trkpt lat="46.32558" lon="5.30072">
        <ele>230.2</ele>
        <time>2022-03-02T13:13:04Z</time>
      </trkpt>
      <trkpt lat="46.32564" lon="5.30084">
        <ele>231.6</ele>
        <time>2022-03-02T13:13:06Z</time>
      </trkpt>
      <trkpt lat="46.32568" lon="5.30095">
        <ele>232.8</ele>
        <time>2022-03-02T13:13:08Z</time>
      </trkpt>
      <trkpt lat="46.32569" lon="5.30108">
        <ele>234</ele>
        <time>2022-03-02T13:13:10Z</time>
      </trkpt>
      <trkpt lat="46.32567" lon="5.3012">
        <ele>235</ele>
        <time>2022-03-02T13:13:12Z</time>
      </trkpt>
      <trkpt lat="46.32562" lon="5.30131">
        <ele>236</ele>
        <time>2022-03-02T13:13:14Z</time>
      </trkpt>
      <trkpt lat="46.3256" lon="5.30137">
        <ele>236.6</ele>
        <time>2022-03-02T13:13:15Z</time>
      </trkpt>
      <trkpt lat="46.32554" lon="5.30156">
        <ele>237.6</ele>
        <time>2022-03-02T13:13:18Z</time>
      </trkpt>
      <trkpt lat="46.32547" lon="5.3018">
        <ele>238</ele>
        <time>2022-03-02T13:13:22Z</time>
      </trkpt>
      <trkpt lat="46.32539" lon="5.3022">
        <ele>238.2</ele>
        <time>2022-03-02T13:13:27Z</time>
      </trkpt>
      <trkpt lat="46.32536" lon="5.3027">
        <ele>237.8</ele>
        <time>2022-03-02T13:13:32Z</time>
      </trkpt>
      <trkpt lat="46.32538" lon="5.30315">
        <ele>237.8</ele>
        <time>2022-03-02T13:13:38Z</time>
      </trkpt>
      <trkpt lat="46.32538" lon="5.30339">
        <ele>238.8</ele>
        <time>2022-03-02T13:13:42Z</time>
      </trkpt>
      <trkpt lat="46.32538" lon="5.30344">
        <ele>239.2</ele>
        <time>2022-03-02T13:13:43Z</time>
      </trkpt>
      <trkpt lat="46.32536" lon="5.30353">
        <ele>239.8</ele>
        <time>2022-03-02T13:13:45Z</time>
      </trkpt>
      <trkpt lat="46.32524" lon="5.30368">
        <ele>240.8</ele>
        <time>2022-03-02T13:13:49Z</time>
      </trkpt>
      <trkpt lat="46.32519" lon="5.30368">
        <ele>241</ele>
        <time>2022-03-02T13:13:50Z</time>
      </trkpt>
      <trkpt lat="46.32508" lon="5.30365">
        <ele>241</ele>
        <time>2022-03-02T13:13:52Z</time>
      </trkpt>
      <trkpt lat="46.3249" lon="5.30366">
        <ele>240.8</ele>
        <time>2022-03-02T13:13:55Z</time>
      </trkpt>
      <trkpt lat="46.32483" lon="5.3037">
        <ele>240.6</ele>
        <time>2022-03-02T13:13:56Z</time>
      </trkpt>
      <trkpt lat="46.32477" lon="5.30375">
        <ele>240.6</ele>
        <time>2022-03-02T13:13:57Z</time>
      </trkpt>
      <trkpt lat="46.32467" lon="5.3039">
        <ele>240.2</ele>
        <time>2022-03-02T13:13:59Z</time>
      </trkpt>
      <trkpt lat="46.32458" lon="5.30409">
        <ele>239.6</ele>
        <time>2022-03-02T13:14:01Z</time>
      </trkpt>
      <trkpt lat="46.32448" lon="5.30424">
        <ele>239</ele>
        <time>2022-03-02T13:14:03Z</time>
      </trkpt>
      <trkpt lat="46.32441" lon="5.3043">
        <ele>238.6</ele>
        <time>2022-03-02T13:14:04Z</time>
      </trkpt>
      <trkpt lat="46.32434" lon="5.30434">
        <ele>238.4</ele>
        <time>2022-03-02T13:14:05Z</time>
      </trkpt>
      <trkpt lat="46.32418" lon="5.30436">
        <ele>237.4</ele>
        <time>2022-03-02T13:14:07Z</time>
      </trkpt>
      <trkpt lat="46.32385" lon="5.30436">
        <ele>236.2</ele>
        <time>2022-03-02T13:14:11Z</time>
      </trkpt>
      <trkpt lat="46.32369" lon="5.30436">
        <ele>235.4</ele>
        <time>2022-03-02T13:14:13Z</time>
      </trkpt>
      <trkpt lat="46.32359" lon="5.30436">
        <ele>235</ele>
        <time>2022-03-02T13:14:14Z</time>
      </trkpt>
      <trkpt lat="46.32345" lon="5.30444">
        <ele>234.2</ele>
        <time>2022-03-02T13:14:16Z</time>
      </trkpt>
      <trkpt lat="46.32342" lon="5.30451">
        <ele>233.2</ele>
        <time>2022-03-02T13:14:17Z</time>
      </trkpt>
      <trkpt lat="46.32341" lon="5.30463">
        <ele>232.8</ele>
        <time>2022-03-02T13:14:18Z</time>
      </trkpt>
      <trkpt lat="46.32344" lon="5.30473">
        <ele>232.2</ele>
        <time>2022-03-02T13:14:19Z</time>
      </trkpt>
      <trkpt lat="46.32348" lon="5.30481">
        <ele>231.6</ele>
        <time>2022-03-02T13:14:20Z</time>
      </trkpt>
      <trkpt lat="46.32359" lon="5.30494">
        <ele>230.8</ele>
        <time>2022-03-02T13:14:22Z</time>
      </trkpt>
      <trkpt lat="46.3238" lon="5.30516">
        <ele>229.6</ele>
        <time>2022-03-02T13:14:25Z</time>
      </trkpt>
      <trkpt lat="46.32399" lon="5.30539">
        <ele>228.8</ele>
        <time>2022-03-02T13:14:28Z</time>
      </trkpt>
      <trkpt lat="46.32402" lon="5.30548">
        <ele>228.6</ele>
        <time>2022-03-02T13:14:29Z</time>
      </trkpt>
      <trkpt lat="46.32403" lon="5.30555">
        <ele>228.4</ele>
        <time>2022-03-02T13:14:30Z</time>
      </trkpt>
      <trkpt lat="46.32402" lon="5.30562">
        <ele>227.6</ele>
        <time>2022-03-02T13:14:31Z</time>
      </trkpt>
      <trkpt lat="46.32398" lon="5.30574">
        <ele>226</ele>
        <time>2022-03-02T13:14:33Z</time>
      </trkpt>
      <trkpt lat="46.32395" lon="5.3058">
        <ele>225.2</ele>
        <time>2022-03-02T13:14:34Z</time>
      </trkpt>
      <trkpt lat="46.32393" lon="5.30587">
        <ele>225</ele>
        <time>2022-03-02T13:14:35Z</time>
      </trkpt>
      <trkpt lat="46.32392" lon="5.30594">
        <ele>224.6</ele>
        <time>2022-03-02T13:14:36Z</time>
      </trkpt>
      <trkpt lat="46.32387" lon="5.30614">
        <ele>223.8</ele>
        <time>2022-03-02T13:14:38Z</time>
      </trkpt>
      <trkpt lat="46.32382" lon="5.30642">
        <ele>222.8</ele>
        <time>2022-03-02T13:14:41Z</time>
      </trkpt>
      <trkpt lat="46.32377" lon="5.30713">
        <ele>221.6</ele>
        <time>2022-03-02T13:14:47Z</time>
      </trkpt>
      <trkpt lat="46.32372" lon="5.30743">
        <ele>220.6</ele>
        <time>2022-03-02T13:14:50Z</time>
      </trkpt>
      <trkpt lat="46.32369" lon="5.30762">
        <ele>219.8</ele>
        <time>2022-03-02T13:14:52Z</time>
      </trkpt>
      <trkpt lat="46.32363" lon="5.30788">
        <ele>219.6</ele>
        <time>2022-03-02T13:14:56Z</time>
      </trkpt>
      <trkpt lat="46.32362" lon="5.30792">
        <ele>219.8</ele>
        <time>2022-03-02T13:14:58Z</time>
      </trkpt>
      <trkpt lat="46.32362" lon="5.30793">
        <ele>219.8</ele>
        <time>2022-03-02T13:14:59Z</time>
      </trkpt>
      <trkpt lat="46.32361" lon="5.30793">
        <ele>219.8</ele>
        <time>2022-03-02T13:15:01Z</time>
      </trkpt>
      <trkpt lat="46.32361" lon="5.30798">
        <ele>220</ele>
        <time>2022-03-02T13:15:04Z</time>
      </trkpt>
      <trkpt lat="46.32362" lon="5.30801">
        <ele>220</ele>
        <time>2022-03-02T13:15:05Z</time>
      </trkpt>
      <trkpt lat="46.32364" lon="5.30805">
        <ele>220</ele>
        <time>2022-03-02T13:15:06Z</time>
      </trkpt>
      <trkpt lat="46.32364" lon="5.30811">
        <ele>220</ele>
        <time>2022-03-02T13:15:07Z</time>
      </trkpt>
      <trkpt lat="46.32362" lon="5.30822">
        <ele>220.2</ele>
        <time>2022-03-02T13:15:09Z</time>
      </trkpt>
      <trkpt lat="46.32351" lon="5.30836">
        <ele>220.6</ele>
        <time>2022-03-02T13:15:13Z</time>
      </trkpt>
      <trkpt lat="46.32332" lon="5.30851">
        <ele>222.4</ele>
        <time>2022-03-02T13:15:19Z</time>
      </trkpt>
      <trkpt lat="46.32328" lon="5.30853">
        <ele>222.8</ele>
        <time>2022-03-02T13:15:20Z</time>
      </trkpt>
      <trkpt lat="46.32318" lon="5.30857">
        <ele>223.4</ele>
        <time>2022-03-02T13:15:23Z</time>
      </trkpt>
      <trkpt lat="46.32303" lon="5.30865">
        <ele>224.6</ele>
        <time>2022-03-02T13:15:27Z</time>
      </trkpt>
      <trkpt lat="46.32299" lon="5.30868">
        <ele>224.8</ele>
        <time>2022-03-02T13:15:28Z</time>
      </trkpt>
      <trkpt lat="46.32291" lon="5.30872">
        <ele>225.6</ele>
        <time>2022-03-02T13:15:30Z</time>
      </trkpt>
      <trkpt lat="46.32273" lon="5.30883">
        <ele>226.6</ele>
        <time>2022-03-02T13:15:35Z</time>
      </trkpt>
      <trkpt lat="46.3227" lon="5.30885">
        <ele>226.8</ele>
        <time>2022-03-02T13:15:36Z</time>
      </trkpt>
      <trkpt lat="46.32255" lon="5.30895">
        <ele>228</ele>
        <time>2022-03-02T13:15:41Z</time>
      </trkpt>
      <trkpt lat="46.32244" lon="5.30906">
        <ele>229</ele>
        <time>2022-03-02T13:15:45Z</time>
      </trkpt>
      <trkpt lat="46.32236" lon="5.30917">
        <ele>229.6</ele>
        <time>2022-03-02T13:15:48Z</time>
      </trkpt>
      <trkpt lat="46.32231" lon="5.30926">
        <ele>230</ele>
        <time>2022-03-02T13:15:50Z</time>
      </trkpt>
      <trkpt lat="46.32217" lon="5.30952">
        <ele>231</ele>
        <time>2022-03-02T13:15:56Z</time>
      </trkpt>
      <trkpt lat="46.32204" lon="5.30975">
        <ele>232</ele>
        <time>2022-03-02T13:16:02Z</time>
      </trkpt>
      <trkpt lat="46.32201" lon="5.30979">
        <ele>232.2</ele>
        <time>2022-03-02T13:16:03Z</time>
      </trkpt>
      <trkpt lat="46.32189" lon="5.30998">
        <ele>233.2</ele>
        <time>2022-03-02T13:16:08Z</time>
      </trkpt>
      <trkpt lat="46.32185" lon="5.31006">
        <ele>233.6</ele>
        <time>2022-03-02T13:16:10Z</time>
      </trkpt>
      <trkpt lat="46.32181" lon="5.31014">
        <ele>234.4</ele>
        <time>2022-03-02T13:16:12Z</time>
      </trkpt>
      <trkpt lat="46.32173" lon="5.31029">
        <ele>235.6</ele>
        <time>2022-03-02T13:16:16Z</time>
      </trkpt>
      <trkpt lat="46.32171" lon="5.31033">
        <ele>236</ele>
        <time>2022-03-02T13:16:17Z</time>
      </trkpt>
      <trkpt lat="46.32162" lon="5.31049">
        <ele>236.8</ele>
        <time>2022-03-02T13:16:21Z</time>
      </trkpt>
      <trkpt lat="46.32154" lon="5.31065">
        <ele>237.4</ele>
        <time>2022-03-02T13:16:25Z</time>
      </trkpt>
      <trkpt lat="46.32152" lon="5.31071">
        <ele>237.8</ele>
        <time>2022-03-02T13:16:27Z</time>
      </trkpt>
      <trkpt lat="46.32147" lon="5.31082">
        <ele>238.4</ele>
        <time>2022-03-02T13:16:30Z</time>
      </trkpt>
      <trkpt lat="46.3214" lon="5.31097">
        <ele>239</ele>
        <time>2022-03-02T13:16:34Z</time>
      </trkpt>
      <trkpt lat="46.32136" lon="5.31106">
        <ele>239.4</ele>
        <time>2022-03-02T13:16:36Z</time>
      </trkpt>
      <trkpt lat="46.32128" lon="5.31119">
        <ele>240.2</ele>
        <time>2022-03-02T13:16:39Z</time>
      </trkpt>
      <trkpt lat="46.32118" lon="5.31139">
        <ele>241</ele>
        <time>2022-03-02T13:16:43Z</time>
      </trkpt>
      <trkpt lat="46.32115" lon="5.31143">
        <ele>241.2</ele>
        <time>2022-03-02T13:16:44Z</time>
      </trkpt>
      <trkpt lat="46.32102" lon="5.31167">
        <ele>242.2</ele>
        <time>2022-03-02T13:16:49Z</time>
      </trkpt>
      <trkpt lat="46.32099" lon="5.31173">
        <ele>242.2</ele>
        <time>2022-03-02T13:16:50Z</time>
      </trkpt>
      <trkpt lat="46.32083" lon="5.31204">
        <ele>243.2</ele>
        <time>2022-03-02T13:16:56Z</time>
      </trkpt>
      <trkpt lat="46.3207" lon="5.31231">
        <ele>243.8</ele>
        <time>2022-03-02T13:17:01Z</time>
      </trkpt>
      <trkpt lat="46.32057" lon="5.31259">
        <ele>244.2</ele>
        <time>2022-03-02T13:17:06Z</time>
      </trkpt>
      <trkpt lat="46.3205" lon="5.31278">
        <ele>244.4</ele>
        <time>2022-03-02T13:17:09Z</time>
      </trkpt>
      <trkpt lat="46.32029" lon="5.31327">
        <ele>245.2</ele>
        <time>2022-03-02T13:17:17Z</time>
      </trkpt>
      <trkpt lat="46.32009" lon="5.31351">
        <ele>245</ele>
        <time>2022-03-02T13:17:22Z</time>
      </trkpt>
      <trkpt lat="46.32004" lon="5.31355">
        <ele>245</ele>
        <time>2022-03-02T13:17:23Z</time>
      </trkpt>
      <trkpt lat="46.31961" lon="5.3139">
        <ele>245.2</ele>
        <time>2022-03-02T13:17:32Z</time>
      </trkpt>
      <trkpt lat="46.31939" lon="5.31412">
        <ele>245.4</ele>
        <time>2022-03-02T13:17:37Z</time>
      </trkpt>
      <trkpt lat="46.3193" lon="5.3142">
        <ele>245.6</ele>
        <time>2022-03-02T13:17:39Z</time>
      </trkpt>
      <trkpt lat="46.31897" lon="5.31445">
        <ele>245.8</ele>
        <time>2022-03-02T13:17:46Z</time>
      </trkpt>
      <trkpt lat="46.31892" lon="5.31447">
        <ele>245.8</ele>
        <time>2022-03-02T13:17:47Z</time>
      </trkpt>
      <trkpt lat="46.31851" lon="5.31472">
        <ele>246.2</ele>
        <time>2022-03-02T13:17:55Z</time>
      </trkpt>
      <trkpt lat="46.31847" lon="5.31477">
        <ele>246.2</ele>
        <time>2022-03-02T13:17:56Z</time>
      </trkpt>
      <trkpt lat="46.31844" lon="5.31483">
        <ele>246.2</ele>
        <time>2022-03-02T13:17:57Z</time>
      </trkpt>
      <trkpt lat="46.31839" lon="5.31498">
        <ele>246.2</ele>
        <time>2022-03-02T13:17:59Z</time>
      </trkpt>
      <trkpt lat="46.31821" lon="5.31566">
        <ele>246</ele>
        <time>2022-03-02T13:18:07Z</time>
      </trkpt>
      <trkpt lat="46.31803" lon="5.31628">
        <ele>245.8</ele>
        <time>2022-03-02T13:18:14Z</time>
      </trkpt>
      <trkpt lat="46.31781" lon="5.31699">
        <ele>245.2</ele>
        <time>2022-03-02T13:18:22Z</time>
      </trkpt>
      <trkpt lat="46.31764" lon="5.3174">
        <ele>244.8</ele>
        <time>2022-03-02T13:18:27Z</time>
      </trkpt>
      <trkpt lat="46.31758" lon="5.31746">
        <ele>244.8</ele>
        <time>2022-03-02T13:18:28Z</time>
      </trkpt>
      <trkpt lat="46.31746" lon="5.31755">
        <ele>244.4</ele>
        <time>2022-03-02T13:18:30Z</time>
      </trkpt>
      <trkpt lat="46.31714" lon="5.31775">
        <ele>244</ele>
        <time>2022-03-02T13:18:35Z</time>
      </trkpt>
      <trkpt lat="46.31675" lon="5.31798">
        <ele>243.4</ele>
        <time>2022-03-02T13:18:41Z</time>
      </trkpt>
      <trkpt lat="46.31655" lon="5.31809">
        <ele>243.2</ele>
        <time>2022-03-02T13:18:44Z</time>
      </trkpt>
      <trkpt lat="46.31649" lon="5.31813">
        <ele>243.2</ele>
        <time>2022-03-02T13:18:45Z</time>
      </trkpt>
      <trkpt lat="46.31628" lon="5.3182">
        <ele>243</ele>
        <time>2022-03-02T13:18:48Z</time>
      </trkpt>
      <trkpt lat="46.31621" lon="5.31822">
        <ele>242.8</ele>
        <time>2022-03-02T13:18:49Z</time>
      </trkpt>
      <trkpt lat="46.31598" lon="5.31823">
        <ele>242</ele>
        <time>2022-03-02T13:18:52Z</time>
      </trkpt>
      <trkpt lat="46.31582" lon="5.31824">
        <ele>241.6</ele>
        <time>2022-03-02T13:18:54Z</time>
      </trkpt>
      <trkpt lat="46.31559" lon="5.31829">
        <ele>240.8</ele>
        <time>2022-03-02T13:18:57Z</time>
      </trkpt>
      <trkpt lat="46.31544" lon="5.31835">
        <ele>240.4</ele>
        <time>2022-03-02T13:18:59Z</time>
      </trkpt>
      <trkpt lat="46.31531" lon="5.31846">
        <ele>240</ele>
        <time>2022-03-02T13:19:01Z</time>
      </trkpt>
      <trkpt lat="46.31526" lon="5.31854">
        <ele>240</ele>
        <time>2022-03-02T13:19:02Z</time>
      </trkpt>
      <trkpt lat="46.31522" lon="5.31863">
        <ele>239.8</ele>
        <time>2022-03-02T13:19:03Z</time>
      </trkpt>
      <trkpt lat="46.31518" lon="5.31872">
        <ele>239.8</ele>
        <time>2022-03-02T13:19:04Z</time>
      </trkpt>
      <trkpt lat="46.31516" lon="5.31882">
        <ele>239.6</ele>
        <time>2022-03-02T13:19:05Z</time>
      </trkpt>
      <trkpt lat="46.31514" lon="5.31892">
        <ele>239.6</ele>
        <time>2022-03-02T13:19:06Z</time>
      </trkpt>
      <trkpt lat="46.31513" lon="5.31903">
        <ele>239.4</ele>
        <time>2022-03-02T13:19:07Z</time>
      </trkpt>
      <trkpt lat="46.31515" lon="5.31933">
        <ele>239.2</ele>
        <time>2022-03-02T13:19:10Z</time>
      </trkpt>
      <trkpt lat="46.31521" lon="5.31992">
        <ele>238.8</ele>
        <time>2022-03-02T13:19:16Z</time>
      </trkpt>
      <trkpt lat="46.31519" lon="5.32046">
        <ele>239.2</ele>
        <time>2022-03-02T13:19:22Z</time>
      </trkpt>
      <trkpt lat="46.31521" lon="5.32087">
        <ele>240</ele>
        <time>2022-03-02T13:19:27Z</time>
      </trkpt>
      <trkpt lat="46.31521" lon="5.32094">
        <ele>240.2</ele>
        <time>2022-03-02T13:19:28Z</time>
      </trkpt>
      <trkpt lat="46.31519" lon="5.32102">
        <ele>240.6</ele>
        <time>2022-03-02T13:19:29Z</time>
      </trkpt>
      <trkpt lat="46.31515" lon="5.32117">
        <ele>241</ele>
        <time>2022-03-02T13:19:31Z</time>
      </trkpt>
      <trkpt lat="46.31512" lon="5.32124">
        <ele>241.2</ele>
        <time>2022-03-02T13:19:32Z</time>
      </trkpt>
      <trkpt lat="46.31489" lon="5.32165">
        <ele>242.2</ele>
        <time>2022-03-02T13:19:38Z</time>
      </trkpt>
      <trkpt lat="46.31486" lon="5.32172">
        <ele>242.2</ele>
        <time>2022-03-02T13:19:39Z</time>
      </trkpt>
      <trkpt lat="46.3146" lon="5.32234">
        <ele>243</ele>
        <time>2022-03-02T13:19:47Z</time>
      </trkpt>
      <trkpt lat="46.31449" lon="5.32261">
        <ele>242.8</ele>
        <time>2022-03-02T13:19:50Z</time>
      </trkpt>
      <trkpt lat="46.31445" lon="5.32281">
        <ele>242.4</ele>
        <time>2022-03-02T13:19:52Z</time>
      </trkpt>
      <trkpt lat="46.31436" lon="5.32346">
        <ele>241.2</ele>
        <time>2022-03-02T13:19:58Z</time>
      </trkpt>
      <trkpt lat="46.31435" lon="5.32367">
        <ele>241.2</ele>
        <time>2022-03-02T13:20:00Z</time>
      </trkpt>
      <trkpt lat="46.31431" lon="5.32426">
        <ele>241.6</ele>
        <time>2022-03-02T13:20:06Z</time>
      </trkpt>
      <trkpt lat="46.31426" lon="5.32449">
        <ele>241.6</ele>
        <time>2022-03-02T13:20:09Z</time>
      </trkpt>
      <trkpt lat="46.31423" lon="5.32462">
        <ele>241.8</ele>
        <time>2022-03-02T13:20:11Z</time>
      </trkpt>
      <trkpt lat="46.31415" lon="5.32484">
        <ele>242.8</ele>
        <time>2022-03-02T13:20:15Z</time>
      </trkpt>
      <trkpt lat="46.3141" lon="5.325">
        <ele>243.8</ele>
        <time>2022-03-02T13:20:18Z</time>
      </trkpt>
      <trkpt lat="46.31408" lon="5.32505">
        <ele>244.4</ele>
        <time>2022-03-02T13:20:19Z</time>
      </trkpt>
      <trkpt lat="46.31403" lon="5.3252">
        <ele>245.8</ele>
        <time>2022-03-02T13:20:22Z</time>
      </trkpt>
      <trkpt lat="46.31396" lon="5.32542">
        <ele>247.2</ele>
        <time>2022-03-02T13:20:26Z</time>
      </trkpt>
      <trkpt lat="46.31394" lon="5.32548">
        <ele>247.6</ele>
        <time>2022-03-02T13:20:27Z</time>
      </trkpt>
      <trkpt lat="46.31387" lon="5.32566">
        <ele>248.4</ele>
        <time>2022-03-02T13:20:31Z</time>
      </trkpt>
      <trkpt lat="46.31385" lon="5.3257">
        <ele>248.4</ele>
        <time>2022-03-02T13:20:32Z</time>
      </trkpt>
      <trkpt lat="46.31377" lon="5.32586">
        <ele>248.8</ele>
        <time>2022-03-02T13:20:35Z</time>
      </trkpt>
      <trkpt lat="46.31367" lon="5.32603">
        <ele>249.2</ele>
        <time>2022-03-02T13:20:37Z</time>
      </trkpt>
      <trkpt lat="46.3136" lon="5.32616">
        <ele>249.2</ele>
        <time>2022-03-02T13:20:39Z</time>
      </trkpt>
      <trkpt lat="46.31352" lon="5.32639">
        <ele>249.2</ele>
        <time>2022-03-02T13:20:42Z</time>
      </trkpt>
      <trkpt lat="46.31343" lon="5.32663">
        <ele>249.4</ele>
        <time>2022-03-02T13:20:45Z</time>
      </trkpt>
      <trkpt lat="46.31331" lon="5.32697">
        <ele>249.2</ele>
        <time>2022-03-02T13:20:50Z</time>
      </trkpt>
      <trkpt lat="46.31318" lon="5.32739">
        <ele>248.8</ele>
        <time>2022-03-02T13:20:54Z</time>
      </trkpt>
      <trkpt lat="46.31316" lon="5.32757">
        <ele>248.8</ele>
        <time>2022-03-02T13:20:56Z</time>
      </trkpt>
      <trkpt lat="46.31314" lon="5.32812">
        <ele>248.6</ele>
        <time>2022-03-02T13:21:02Z</time>
      </trkpt>
      <trkpt lat="46.3131" lon="5.3285">
        <ele>248.4</ele>
        <time>2022-03-02T13:21:06Z</time>
      </trkpt>
      <trkpt lat="46.31309" lon="5.32861">
        <ele>248.2</ele>
        <time>2022-03-02T13:21:07Z</time>
      </trkpt>
      <trkpt lat="46.31309" lon="5.3288">
        <ele>248.2</ele>
        <time>2022-03-02T13:21:09Z</time>
      </trkpt>
      <trkpt lat="46.31307" lon="5.329">
        <ele>248</ele>
        <time>2022-03-02T13:21:11Z</time>
      </trkpt>
      <trkpt lat="46.31302" lon="5.32921">
        <ele>247.6</ele>
        <time>2022-03-02T13:21:13Z</time>
      </trkpt>
      <trkpt lat="46.31293" lon="5.32942">
        <ele>247.4</ele>
        <time>2022-03-02T13:21:15Z</time>
      </trkpt>
      <trkpt lat="46.31282" lon="5.32964">
        <ele>247</ele>
        <time>2022-03-02T13:21:17Z</time>
      </trkpt>
      <trkpt lat="46.31265" lon="5.32996">
        <ele>246</ele>
        <time>2022-03-02T13:21:20Z</time>
      </trkpt>
      <trkpt lat="46.31249" lon="5.33029">
        <ele>245</ele>
        <time>2022-03-02T13:21:23Z</time>
      </trkpt>
      <trkpt lat="46.31243" lon="5.33042">
        <ele>244.2</ele>
        <time>2022-03-02T13:21:24Z</time>
      </trkpt>
      <trkpt lat="46.3123" lon="5.33067">
        <ele>243.4</ele>
        <time>2022-03-02T13:21:26Z</time>
      </trkpt>
      <trkpt lat="46.31219" lon="5.33092">
        <ele>242.4</ele>
        <time>2022-03-02T13:21:28Z</time>
      </trkpt>
      <trkpt lat="46.31208" lon="5.33115">
        <ele>241.4</ele>
        <time>2022-03-02T13:21:30Z</time>
      </trkpt>
      <trkpt lat="46.31203" lon="5.33126">
        <ele>240.8</ele>
        <time>2022-03-02T13:21:31Z</time>
      </trkpt>
      <trkpt lat="46.31187" lon="5.33161">
        <ele>239.6</ele>
        <time>2022-03-02T13:21:35Z</time>
      </trkpt>
      <trkpt lat="46.31169" lon="5.332">
        <ele>238.8</ele>
        <time>2022-03-02T13:21:37Z</time>
      </trkpt>
      <trkpt lat="46.31163" lon="5.33214">
        <ele>238.2</ele>
        <time>2022-03-02T13:21:38Z</time>
      </trkpt>
      <trkpt lat="46.31151" lon="5.33241">
        <ele>237</ele>
        <time>2022-03-02T13:21:41Z</time>
      </trkpt>
      <trkpt lat="46.31142" lon="5.33269">
        <ele>236.2</ele>
        <time>2022-03-02T13:21:42Z</time>
      </trkpt>
      <trkpt lat="46.31141" lon="5.33284">
        <ele>235.6</ele>
        <time>2022-03-02T13:21:43Z</time>
      </trkpt>
      <trkpt lat="46.31141" lon="5.33298">
        <ele>234.4</ele>
        <time>2022-03-02T13:21:44Z</time>
      </trkpt>
      <trkpt lat="46.31142" lon="5.33325">
        <ele>233.2</ele>
        <time>2022-03-02T13:21:46Z</time>
      </trkpt>
      <trkpt lat="46.31134" lon="5.33347">
        <ele>232.4</ele>
        <time>2022-03-02T13:21:48Z</time>
      </trkpt>
      <trkpt lat="46.31127" lon="5.33354">
        <ele>232.2</ele>
        <time>2022-03-02T13:21:49Z</time>
      </trkpt>
      <trkpt lat="46.31121" lon="5.33359">
        <ele>232.2</ele>
        <time>2022-03-02T13:21:50Z</time>
      </trkpt>
      <trkpt lat="46.31113" lon="5.33362">
        <ele>232.2</ele>
        <time>2022-03-02T13:21:51Z</time>
      </trkpt>
      <trkpt lat="46.311" lon="5.3337">
        <ele>232</ele>
        <time>2022-03-02T13:21:53Z</time>
      </trkpt>
      <trkpt lat="46.31092" lon="5.33384">
        <ele>232</ele>
        <time>2022-03-02T13:21:55Z</time>
      </trkpt>
      <trkpt lat="46.31093" lon="5.33404">
        <ele>232</ele>
        <time>2022-03-02T13:21:57Z</time>
      </trkpt>
      <trkpt lat="46.31095" lon="5.33414">
        <ele>232</ele>
        <time>2022-03-02T13:21:58Z</time>
      </trkpt>
      <trkpt lat="46.3111" lon="5.33493">
        <ele>232</ele>
        <time>2022-03-02T13:22:06Z</time>
      </trkpt>
      <trkpt lat="46.31116" lon="5.33523">
        <ele>232</ele>
        <time>2022-03-02T13:22:09Z</time>
      </trkpt>
      <trkpt lat="46.31129" lon="5.3359">
        <ele>232</ele>
        <time>2022-03-02T13:22:16Z</time>
      </trkpt>
      <trkpt lat="46.31134" lon="5.33617">
        <ele>232.2</ele>
        <time>2022-03-02T13:22:19Z</time>
      </trkpt>
      <trkpt lat="46.31134" lon="5.33625">
        <ele>232.2</ele>
        <time>2022-03-02T13:22:20Z</time>
      </trkpt>
      <trkpt lat="46.31127" lon="5.33637">
        <ele>232.2</ele>
        <time>2022-03-02T13:22:22Z</time>
      </trkpt>
      <trkpt lat="46.31122" lon="5.33639">
        <ele>232.2</ele>
        <time>2022-03-02T13:22:23Z</time>
      </trkpt>
      <trkpt lat="46.31116" lon="5.33641">
        <ele>232.2</ele>
        <time>2022-03-02T13:22:24Z</time>
      </trkpt>
      <trkpt lat="46.311" lon="5.33641">
        <ele>232.6</ele>
        <time>2022-03-02T13:22:27Z</time>
      </trkpt>
      <trkpt lat="46.31089" lon="5.33644">
        <ele>233.2</ele>
        <time>2022-03-02T13:22:29Z</time>
      </trkpt>
      <trkpt lat="46.31067" lon="5.33647">
        <ele>234.4</ele>
        <time>2022-03-02T13:22:33Z</time>
      </trkpt>
      <trkpt lat="46.3105" lon="5.33649">
        <ele>234.8</ele>
        <time>2022-03-02T13:22:36Z</time>
      </trkpt>
      <trkpt lat="46.31022" lon="5.33653">
        <ele>235.4</ele>
        <time>2022-03-02T13:22:41Z</time>
      </trkpt>
      <trkpt lat="46.31012" lon="5.33656">
        <ele>235.6</ele>
        <time>2022-03-02T13:22:43Z</time>
      </trkpt>
      <trkpt lat="46.31007" lon="5.33659">
        <ele>235.8</ele>
        <time>2022-03-02T13:22:44Z</time>
      </trkpt>
      <trkpt lat="46.30954" lon="5.33684">
        <ele>236.2</ele>
        <time>2022-03-02T13:22:54Z</time>
      </trkpt>
      <trkpt lat="46.309" lon="5.33712">
        <ele>236.2</ele>
        <time>2022-03-02T13:23:04Z</time>
      </trkpt>
      <trkpt lat="46.30856" lon="5.33741">
        <ele>236.2</ele>
        <time>2022-03-02T13:23:12Z</time>
      </trkpt>
      <trkpt lat="46.30829" lon="5.33772">
        <ele>236.2</ele>
        <time>2022-03-02T13:23:18Z</time>
      </trkpt>
      <trkpt lat="46.30796" lon="5.33825">
        <ele>236.4</ele>
        <time>2022-03-02T13:23:26Z</time>
      </trkpt>
      <trkpt lat="46.30759" lon="5.33872">
        <ele>236</ele>
        <time>2022-03-02T13:23:33Z</time>
      </trkpt>
      <trkpt lat="46.30746" lon="5.33882">
        <ele>235.8</ele>
        <time>2022-03-02T13:23:35Z</time>
      </trkpt>
      <trkpt lat="46.30739" lon="5.33883">
        <ele>235.4</ele>
        <time>2022-03-02T13:23:36Z</time>
      </trkpt>
      <trkpt lat="46.30732" lon="5.33881">
        <ele>235</ele>
        <time>2022-03-02T13:23:37Z</time>
      </trkpt>
      <trkpt lat="46.3072" lon="5.33871">
        <ele>234.6</ele>
        <time>2022-03-02T13:23:39Z</time>
      </trkpt>
      <trkpt lat="46.30714" lon="5.33866">
        <ele>234.4</ele>
        <time>2022-03-02T13:23:40Z</time>
      </trkpt>
      <trkpt lat="46.30681" lon="5.33827">
        <ele>233.8</ele>
        <time>2022-03-02T13:23:46Z</time>
      </trkpt>
      <trkpt lat="46.30667" lon="5.33805">
        <ele>233.8</ele>
        <time>2022-03-02T13:23:49Z</time>
      </trkpt>
      <trkpt lat="46.30659" lon="5.33789">
        <ele>233.8</ele>
        <time>2022-03-02T13:23:51Z</time>
      </trkpt>
      <trkpt lat="46.30644" lon="5.33753">
        <ele>234</ele>
        <time>2022-03-02T13:23:56Z</time>
      </trkpt>
      <trkpt lat="46.30638" lon="5.3374">
        <ele>234.4</ele>
        <time>2022-03-02T13:23:58Z</time>
      </trkpt>
      <trkpt lat="46.30633" lon="5.33726">
        <ele>234.8</ele>
        <time>2022-03-02T13:24:00Z</time>
      </trkpt>
      <trkpt lat="46.3063" lon="5.3372">
        <ele>234.8</ele>
        <time>2022-03-02T13:24:01Z</time>
      </trkpt>
      <trkpt lat="46.30623" lon="5.33707">
        <ele>235</ele>
        <time>2022-03-02T13:24:03Z</time>
      </trkpt>
      <trkpt lat="46.30611" lon="5.33691">
        <ele>235.4</ele>
        <time>2022-03-02T13:24:06Z</time>
      </trkpt>
      <trkpt lat="46.30604" lon="5.33682">
        <ele>235.6</ele>
        <time>2022-03-02T13:24:08Z</time>
      </trkpt>
      <trkpt lat="46.306" lon="5.33679">
        <ele>235.6</ele>
        <time>2022-03-02T13:24:09Z</time>
      </trkpt>
      <trkpt lat="46.30597" lon="5.33675">
        <ele>235.6</ele>
        <time>2022-03-02T13:24:10Z</time>
      </trkpt>
      <trkpt lat="46.30592" lon="5.33671">
        <ele>235.8</ele>
        <time>2022-03-02T13:24:11Z</time>
      </trkpt>
      <trkpt lat="46.30571" lon="5.3366">
        <ele>236.8</ele>
        <time>2022-03-02T13:24:16Z</time>
      </trkpt>
      <trkpt lat="46.30562" lon="5.33658">
        <ele>237</ele>
        <time>2022-03-02T13:24:18Z</time>
      </trkpt>
      <trkpt lat="46.30554" lon="5.33658">
        <ele>237.6</ele>
        <time>2022-03-02T13:24:21Z</time>
      </trkpt>
      <trkpt lat="46.30545" lon="5.3366">
        <ele>237.8</ele>
        <time>2022-03-02T13:24:22Z</time>
      </trkpt>
      <trkpt lat="46.3054" lon="5.33662">
        <ele>238</ele>
        <time>2022-03-02T13:24:23Z</time>
      </trkpt>
      <trkpt lat="46.30519" lon="5.33671">
        <ele>238.8</ele>
        <time>2022-03-02T13:24:27Z</time>
      </trkpt>
      <trkpt lat="46.30508" lon="5.33676">
        <ele>239.2</ele>
        <time>2022-03-02T13:24:29Z</time>
      </trkpt>
      <trkpt lat="46.30496" lon="5.33678">
        <ele>239.2</ele>
        <time>2022-03-02T13:24:31Z</time>
      </trkpt>
      <trkpt lat="46.3049" lon="5.33679">
        <ele>239.2</ele>
        <time>2022-03-02T13:24:32Z</time>
      </trkpt>
      <trkpt lat="46.3046" lon="5.33684">
        <ele>239.2</ele>
        <time>2022-03-02T13:24:36Z</time>
      </trkpt>
      <trkpt lat="46.30418" lon="5.33699">
        <ele>238</ele>
        <time>2022-03-02T13:24:41Z</time>
      </trkpt>
      <trkpt lat="46.3041" lon="5.33702">
        <ele>237.6</ele>
        <time>2022-03-02T13:24:42Z</time>
      </trkpt>
      <trkpt lat="46.30404" lon="5.33704">
        <ele>236.8</ele>
        <time>2022-03-02T13:24:43Z</time>
      </trkpt>
      <trkpt lat="46.3036" lon="5.33725">
        <ele>236</ele>
        <time>2022-03-02T13:24:49Z</time>
      </trkpt>
      <trkpt lat="46.30309" lon="5.33752">
        <ele>236.6</ele>
        <time>2022-03-02T13:24:57Z</time>
      </trkpt>
      <trkpt lat="46.30302" lon="5.33755">
        <ele>236.6</ele>
        <time>2022-03-02T13:24:58Z</time>
      </trkpt>
      <trkpt lat="46.30248" lon="5.3378">
        <ele>236.2</ele>
        <time>2022-03-02T13:25:06Z</time>
      </trkpt>
      <trkpt lat="46.30242" lon="5.33783">
        <ele>236.2</ele>
        <time>2022-03-02T13:25:07Z</time>
      </trkpt>
      <trkpt lat="46.30235" lon="5.33784">
        <ele>236</ele>
        <time>2022-03-02T13:25:08Z</time>
      </trkpt>
      <trkpt lat="46.30224" lon="5.33785">
        <ele>235.8</ele>
        <time>2022-03-02T13:25:11Z</time>
      </trkpt>
      <trkpt lat="46.30201" lon="5.33787">
        <ele>235.8</ele>
        <time>2022-03-02T13:25:14Z</time>
      </trkpt>
      <trkpt lat="46.30196" lon="5.33786">
        <ele>236</ele>
        <time>2022-03-02T13:25:15Z</time>
      </trkpt>
      <trkpt lat="46.30176" lon="5.33784">
        <ele>236.8</ele>
        <time>2022-03-02T13:25:20Z</time>
      </trkpt>
      <trkpt lat="46.30159" lon="5.33781">
        <ele>237.8</ele>
        <time>2022-03-02T13:25:24Z</time>
      </trkpt>
      <trkpt lat="46.30151" lon="5.3378">
        <ele>238.4</ele>
        <time>2022-03-02T13:25:26Z</time>
      </trkpt>
      <trkpt lat="46.30146" lon="5.33779">
        <ele>239</ele>
        <time>2022-03-02T13:25:27Z</time>
      </trkpt>
      <trkpt lat="46.30142" lon="5.33778">
        <ele>239.2</ele>
        <time>2022-03-02T13:25:28Z</time>
      </trkpt>
      <trkpt lat="46.30128" lon="5.33776">
        <ele>240.2</ele>
        <time>2022-03-02T13:25:31Z</time>
      </trkpt>
      <trkpt lat="46.3012" lon="5.33776">
        <ele>240.8</ele>
        <time>2022-03-02T13:25:33Z</time>
      </trkpt>
      <trkpt lat="46.30106" lon="5.33773">
        <ele>241.6</ele>
        <time>2022-03-02T13:25:36Z</time>
      </trkpt>
      <trkpt lat="46.3009" lon="5.33768">
        <ele>242.8</ele>
        <time>2022-03-02T13:25:40Z</time>
      </trkpt>
      <trkpt lat="46.30082" lon="5.33766">
        <ele>243.4</ele>
        <time>2022-03-02T13:25:42Z</time>
      </trkpt>
      <trkpt lat="46.3007" lon="5.33764">
        <ele>244</ele>
        <time>2022-03-02T13:25:45Z</time>
      </trkpt>
      <trkpt lat="46.30057" lon="5.33763">
        <ele>245</ele>
        <time>2022-03-02T13:25:48Z</time>
      </trkpt>
      <trkpt lat="46.30053" lon="5.33764">
        <ele>245.2</ele>
        <time>2022-03-02T13:25:49Z</time>
      </trkpt>
      <trkpt lat="46.30041" lon="5.33764">
        <ele>246.2</ele>
        <time>2022-03-02T13:25:52Z</time>
      </trkpt>
      <trkpt lat="46.3002" lon="5.33768">
        <ele>247</ele>
        <time>2022-03-02T13:25:57Z</time>
      </trkpt>
      <trkpt lat="46.30016" lon="5.33768">
        <ele>247.2</ele>
        <time>2022-03-02T13:25:58Z</time>
      </trkpt>
      <trkpt lat="46.29988" lon="5.33766">
        <ele>248.2</ele>
        <time>2022-03-02T13:26:04Z</time>
      </trkpt>
      <trkpt lat="46.29979" lon="5.33762">
        <ele>248.4</ele>
        <time>2022-03-02T13:26:06Z</time>
      </trkpt>
      <trkpt lat="46.29948" lon="5.3375">
        <ele>249</ele>
        <time>2022-03-02T13:26:13Z</time>
      </trkpt>
      <trkpt lat="46.29944" lon="5.33749">
        <ele>249</ele>
        <time>2022-03-02T13:26:14Z</time>
      </trkpt>
      <trkpt lat="46.29931" lon="5.33747">
        <ele>249.4</ele>
        <time>2022-03-02T13:26:17Z</time>
      </trkpt>
      <trkpt lat="46.29917" lon="5.33746">
        <ele>250.6</ele>
        <time>2022-03-02T13:26:21Z</time>
      </trkpt>
      <trkpt lat="46.29909" lon="5.33745">
        <ele>250.8</ele>
        <time>2022-03-02T13:26:23Z</time>
      </trkpt>
      <trkpt lat="46.29877" lon="5.33745">
        <ele>251.6</ele>
        <time>2022-03-02T13:26:29Z</time>
      </trkpt>
      <trkpt lat="46.29872" lon="5.33746">
        <ele>251.8</ele>
        <time>2022-03-02T13:26:30Z</time>
      </trkpt>
      <trkpt lat="46.2985" lon="5.33747">
        <ele>252.8</ele>
        <time>2022-03-02T13:26:35Z</time>
      </trkpt>
      <trkpt lat="46.29821" lon="5.33751">
        <ele>253.6</ele>
        <time>2022-03-02T13:26:42Z</time>
      </trkpt>
      <trkpt lat="46.29817" lon="5.33752">
        <ele>253.8</ele>
        <time>2022-03-02T13:26:43Z</time>
      </trkpt>
      <trkpt lat="46.29778" lon="5.33757">
        <ele>254.8</ele>
        <time>2022-03-02T13:26:52Z</time>
      </trkpt>
      <trkpt lat="46.29764" lon="5.33758">
        <ele>255</ele>
        <time>2022-03-02T13:26:55Z</time>
      </trkpt>
      <trkpt lat="46.29727" lon="5.33752">
        <ele>256</ele>
        <time>2022-03-02T13:27:03Z</time>
      </trkpt>
      <trkpt lat="46.29719" lon="5.33752">
        <ele>256.2</ele>
        <time>2022-03-02T13:27:05Z</time>
      </trkpt>
      <trkpt lat="46.29701" lon="5.33751">
        <ele>257</ele>
        <time>2022-03-02T13:27:09Z</time>
      </trkpt>
      <trkpt lat="46.29656" lon="5.3375">
        <ele>258.2</ele>
        <time>2022-03-02T13:27:19Z</time>
      </trkpt>
      <trkpt lat="46.29612" lon="5.33752">
        <ele>259.4</ele>
        <time>2022-03-02T13:27:29Z</time>
      </trkpt>
      <trkpt lat="46.29591" lon="5.33752">
        <ele>260.4</ele>
        <time>2022-03-02T13:27:34Z</time>
      </trkpt>
      <trkpt lat="46.29577" lon="5.33749">
        <ele>261.2</ele>
        <time>2022-03-02T13:27:37Z</time>
      </trkpt>
      <trkpt lat="46.29555" lon="5.33744">
        <ele>261.6</ele>
        <time>2022-03-02T13:27:42Z</time>
      </trkpt>
      <trkpt lat="46.29524" lon="5.33737">
        <ele>262.6</ele>
        <time>2022-03-02T13:27:49Z</time>
      </trkpt>
      <trkpt lat="46.2952" lon="5.33735">
        <ele>262.6</ele>
        <time>2022-03-02T13:27:50Z</time>
      </trkpt>
      <trkpt lat="46.29488" lon="5.33729">
        <ele>263.8</ele>
        <time>2022-03-02T13:27:57Z</time>
      </trkpt>
      <trkpt lat="46.29483" lon="5.33729">
        <ele>263.8</ele>
        <time>2022-03-02T13:27:58Z</time>
      </trkpt>
      <trkpt lat="46.29448" lon="5.33729">
        <ele>264.8</ele>
        <time>2022-03-02T13:28:06Z</time>
      </trkpt>
      <trkpt lat="46.29434" lon="5.33729">
        <ele>265</ele>
        <time>2022-03-02T13:28:09Z</time>
      </trkpt>
      <trkpt lat="46.29407" lon="5.33733">
        <ele>266</ele>
        <time>2022-03-02T13:28:15Z</time>
      </trkpt>
      <trkpt lat="46.29394" lon="5.33736">
        <ele>266.2</ele>
        <time>2022-03-02T13:28:18Z</time>
      </trkpt>
      <trkpt lat="46.29368" lon="5.3374">
        <ele>267</ele>
        <time>2022-03-02T13:28:24Z</time>
      </trkpt>
      <trkpt lat="46.29345" lon="5.33745">
        <ele>267.6</ele>
        <time>2022-03-02T13:28:29Z</time>
      </trkpt>
      <trkpt lat="46.29326" lon="5.3375">
        <ele>268.2</ele>
        <time>2022-03-02T13:28:33Z</time>
      </trkpt>
      <trkpt lat="46.29315" lon="5.33752">
        <ele>268.4</ele>
        <time>2022-03-02T13:28:35Z</time>
      </trkpt>
      <trkpt lat="46.29284" lon="5.33764">
        <ele>269</ele>
        <time>2022-03-02T13:28:41Z</time>
      </trkpt>
      <trkpt lat="46.2928" lon="5.33767">
        <ele>269.2</ele>
        <time>2022-03-02T13:28:42Z</time>
      </trkpt>
      <trkpt lat="46.29261" lon="5.33781">
        <ele>269.6</ele>
        <time>2022-03-02T13:28:46Z</time>
      </trkpt>
      <trkpt lat="46.29253" lon="5.33789">
        <ele>269.8</ele>
        <time>2022-03-02T13:28:48Z</time>
      </trkpt>
      <trkpt lat="46.29234" lon="5.3381">
        <ele>270.2</ele>
        <time>2022-03-02T13:28:53Z</time>
      </trkpt>
      <trkpt lat="46.29226" lon="5.33818">
        <ele>270.4</ele>
        <time>2022-03-02T13:28:55Z</time>
      </trkpt>
      <trkpt lat="46.29206" lon="5.33837">
        <ele>271.2</ele>
        <time>2022-03-02T13:29:00Z</time>
      </trkpt>
      <trkpt lat="46.29193" lon="5.33846">
        <ele>271.6</ele>
        <time>2022-03-02T13:29:03Z</time>
      </trkpt>
      <trkpt lat="46.29164" lon="5.33859">
        <ele>272.4</ele>
        <time>2022-03-02T13:29:09Z</time>
      </trkpt>
      <trkpt lat="46.29153" lon="5.33863">
        <ele>272.6</ele>
        <time>2022-03-02T13:29:11Z</time>
      </trkpt>
      <trkpt lat="46.29107" lon="5.33878">
        <ele>272.8</ele>
        <time>2022-03-02T13:29:20Z</time>
      </trkpt>
      <trkpt lat="46.29052" lon="5.33897">
        <ele>273</ele>
        <time>2022-03-02T13:29:31Z</time>
      </trkpt>
      <trkpt lat="46.29021" lon="5.33903">
        <ele>273.4</ele>
        <time>2022-03-02T13:29:37Z</time>
      </trkpt>
      <trkpt lat="46.28991" lon="5.33904">
        <ele>274</ele>
        <time>2022-03-02T13:29:43Z</time>
      </trkpt>
      <trkpt lat="46.28981" lon="5.33904">
        <ele>274.2</ele>
        <time>2022-03-02T13:29:45Z</time>
      </trkpt>
      <trkpt lat="46.2896" lon="5.33905">
        <ele>274.4</ele>
        <time>2022-03-02T13:29:49Z</time>
      </trkpt>
      <trkpt lat="46.2892" lon="5.3391">
        <ele>274.8</ele>
        <time>2022-03-02T13:29:56Z</time>
      </trkpt>
      <trkpt lat="46.28868" lon="5.33925">
        <ele>275</ele>
        <time>2022-03-02T13:30:05Z</time>
      </trkpt>
      <trkpt lat="46.28826" lon="5.33952">
        <ele>275</ele>
        <time>2022-03-02T13:30:12Z</time>
      </trkpt>
      <trkpt lat="46.28775" lon="5.33987">
        <ele>273.6</ele>
        <time>2022-03-02T13:30:20Z</time>
      </trkpt>
      <trkpt lat="46.28768" lon="5.33993">
        <ele>273.4</ele>
        <time>2022-03-02T13:30:21Z</time>
      </trkpt>
      <trkpt lat="46.28713" lon="5.34031">
        <ele>272.6</ele>
        <time>2022-03-02T13:30:30Z</time>
      </trkpt>
      <trkpt lat="46.28669" lon="5.34064">
        <ele>272.6</ele>
        <time>2022-03-02T13:30:38Z</time>
      </trkpt>
      <trkpt lat="46.28664" lon="5.34068">
        <ele>272.4</ele>
        <time>2022-03-02T13:30:39Z</time>
      </trkpt>
      <trkpt lat="46.28647" lon="5.3408">
        <ele>272.4</ele>
        <time>2022-03-02T13:30:42Z</time>
      </trkpt>
      <trkpt lat="46.28642" lon="5.34083">
        <ele>272.6</ele>
        <time>2022-03-02T13:30:43Z</time>
      </trkpt>
      <trkpt lat="46.28636" lon="5.34087">
        <ele>272.8</ele>
        <time>2022-03-02T13:30:44Z</time>
      </trkpt>
      <trkpt lat="46.28616" lon="5.34101">
        <ele>273</ele>
        <time>2022-03-02T13:30:48Z</time>
      </trkpt>
      <trkpt lat="46.2859" lon="5.34119">
        <ele>273.8</ele>
        <time>2022-03-02T13:30:53Z</time>
      </trkpt>
      <trkpt lat="46.2858" lon="5.34127">
        <ele>274</ele>
        <time>2022-03-02T13:30:55Z</time>
      </trkpt>
      <trkpt lat="46.28557" lon="5.34149">
        <ele>274.8</ele>
        <time>2022-03-02T13:31:00Z</time>
      </trkpt>
      <trkpt lat="46.28552" lon="5.34152">
        <ele>274.8</ele>
        <time>2022-03-02T13:31:01Z</time>
      </trkpt>
      <trkpt lat="46.28547" lon="5.34156">
        <ele>275</ele>
        <time>2022-03-02T13:31:02Z</time>
      </trkpt>
      <trkpt lat="46.28534" lon="5.34166">
        <ele>275.2</ele>
        <time>2022-03-02T13:31:06Z</time>
      </trkpt>
      <trkpt lat="46.28525" lon="5.34164">
        <ele>274.8</ele>
        <time>2022-03-02T13:31:10Z</time>
      </trkpt>
      <trkpt lat="46.28513" lon="5.34147">
        <ele>274.6</ele>
        <time>2022-03-02T13:31:14Z</time>
      </trkpt>
      <trkpt lat="46.28488" lon="5.34112">
        <ele>274.4</ele>
        <time>2022-03-02T13:31:20Z</time>
      </trkpt>
      <trkpt lat="46.28459" lon="5.34073">
        <ele>274.6</ele>
        <time>2022-03-02T13:31:27Z</time>
      </trkpt>
      <trkpt lat="46.28416" lon="5.34018">
        <ele>275.2</ele>
        <time>2022-03-02T13:31:37Z</time>
      </trkpt>
      <trkpt lat="46.28381" lon="5.33972">
        <ele>275.2</ele>
        <time>2022-03-02T13:31:45Z</time>
      </trkpt>
      <trkpt lat="46.28351" lon="5.33933">
        <ele>275.4</ele>
        <time>2022-03-02T13:31:52Z</time>
      </trkpt>
      <trkpt lat="46.28319" lon="5.3389">
        <ele>275.4</ele>
        <time>2022-03-02T13:31:59Z</time>
      </trkpt>
      <trkpt lat="46.28286" lon="5.33847">
        <ele>275.2</ele>
        <time>2022-03-02T13:32:06Z</time>
      </trkpt>
      <trkpt lat="46.28242" lon="5.3379">
        <ele>274.2</ele>
        <time>2022-03-02T13:32:15Z</time>
      </trkpt>
      <trkpt lat="46.28237" lon="5.33784">
        <ele>274.2</ele>
        <time>2022-03-02T13:32:16Z</time>
      </trkpt>
      <trkpt lat="46.28218" lon="5.33759">
        <ele>273.6</ele>
        <time>2022-03-02T13:32:20Z</time>
      </trkpt>
      <trkpt lat="46.28196" lon="5.33729">
        <ele>273</ele>
        <time>2022-03-02T13:32:26Z</time>
      </trkpt>
      <trkpt lat="46.28175" lon="5.33698">
        <ele>272.6</ele>
        <time>2022-03-02T13:32:31Z</time>
      </trkpt>
      <trkpt lat="46.28168" lon="5.3369">
        <ele>272.2</ele>
        <time>2022-03-02T13:32:34Z</time>
      </trkpt>
      <trkpt lat="46.28166" lon="5.3369">
        <ele>272.2</ele>
        <time>2022-03-02T13:32:35Z</time>
      </trkpt>
      <trkpt lat="46.28158" lon="5.33695">
        <ele>272</ele>
        <time>2022-03-02T13:32:40Z</time>
      </trkpt>
      <trkpt lat="46.28158" lon="5.33697">
        <ele>271.8</ele>
        <time>2022-03-02T13:32:41Z</time>
      </trkpt>
      <trkpt lat="46.28166" lon="5.33703">
        <ele>271.4</ele>
        <time>2022-03-02T13:32:45Z</time>
      </trkpt>
      <trkpt lat="46.28168" lon="5.33706">
        <ele>271.4</ele>
        <time>2022-03-02T13:32:46Z</time>
      </trkpt>
      <trkpt lat="46.28171" lon="5.33726">
        <ele>271.8</ele>
        <time>2022-03-02T13:32:50Z</time>
      </trkpt>
      <trkpt lat="46.28176" lon="5.33772">
        <ele>272</ele>
        <time>2022-03-02T13:32:56Z</time>
      </trkpt>
      <trkpt lat="46.28179" lon="5.3381">
        <ele>272.8</ele>
        <time>2022-03-02T13:33:01Z</time>
      </trkpt>
      <trkpt lat="46.28182" lon="5.33842">
        <ele>273</ele>
        <time>2022-03-02T13:33:05Z</time>
      </trkpt>
      <trkpt lat="46.28187" lon="5.33916">
        <ele>273.8</ele>
        <time>2022-03-02T13:33:14Z</time>
      </trkpt>
      <trkpt lat="46.28187" lon="5.33993">
        <ele>274.6</ele>
        <time>2022-03-02T13:33:23Z</time>
      </trkpt>
      <trkpt lat="46.28185" lon="5.3407">
        <ele>274.6</ele>
        <time>2022-03-02T13:33:31Z</time>
      </trkpt>
      <trkpt lat="46.28179" lon="5.34152">
        <ele>273.8</ele>
        <time>2022-03-02T13:33:39Z</time>
      </trkpt>
      <trkpt lat="46.28178" lon="5.34163">
        <ele>273.6</ele>
        <time>2022-03-02T13:33:40Z</time>
      </trkpt>
      <trkpt lat="46.28171" lon="5.34206">
        <ele>272.8</ele>
        <time>2022-03-02T13:33:44Z</time>
      </trkpt>
      <trkpt lat="46.28163" lon="5.34263">
        <ele>271.6</ele>
        <time>2022-03-02T13:33:49Z</time>
      </trkpt>
      <trkpt lat="46.28161" lon="5.34274">
        <ele>271.2</ele>
        <time>2022-03-02T13:33:50Z</time>
      </trkpt>
      <trkpt lat="46.28158" lon="5.34298">
        <ele>270.4</ele>
        <time>2022-03-02T13:33:52Z</time>
      </trkpt>
      <trkpt lat="46.28153" lon="5.34344">
        <ele>269</ele>
        <time>2022-03-02T13:33:56Z</time>
      </trkpt>
      <trkpt lat="46.28147" lon="5.34393">
        <ele>268.4</ele>
        <time>2022-03-02T13:34:00Z</time>
      </trkpt>
      <trkpt lat="46.28144" lon="5.34419">
        <ele>267.8</ele>
        <time>2022-03-02T13:34:02Z</time>
      </trkpt>
      <trkpt lat="46.2814" lon="5.34459">
        <ele>266.8</ele>
        <time>2022-03-02T13:34:05Z</time>
      </trkpt>
      <trkpt lat="46.28135" lon="5.345">
        <ele>265.4</ele>
        <time>2022-03-02T13:34:08Z</time>
      </trkpt>
      <trkpt lat="46.28133" lon="5.34514">
        <ele>265</ele>
        <time>2022-03-02T13:34:09Z</time>
      </trkpt>
      <trkpt lat="46.2813" lon="5.34527">
        <ele>264.4</ele>
        <time>2022-03-02T13:34:10Z</time>
      </trkpt>
      <trkpt lat="46.28126" lon="5.3454">
        <ele>264.2</ele>
        <time>2022-03-02T13:34:11Z</time>
      </trkpt>
      <trkpt lat="46.28121" lon="5.34552">
        <ele>263.4</ele>
        <time>2022-03-02T13:34:12Z</time>
      </trkpt>
      <trkpt lat="46.28115" lon="5.34562">
        <ele>263.2</ele>
        <time>2022-03-02T13:34:13Z</time>
      </trkpt>
      <trkpt lat="46.28103" lon="5.3458">
        <ele>262.2</ele>
        <time>2022-03-02T13:34:15Z</time>
      </trkpt>
      <trkpt lat="46.28096" lon="5.34589">
        <ele>262</ele>
        <time>2022-03-02T13:34:16Z</time>
      </trkpt>
      <trkpt lat="46.28067" lon="5.34627">
        <ele>261.4</ele>
        <time>2022-03-02T13:34:21Z</time>
      </trkpt>
      <trkpt lat="46.28056" lon="5.34642">
        <ele>261.2</ele>
        <time>2022-03-02T13:34:23Z</time>
      </trkpt>
      <trkpt lat="46.28024" lon="5.34683">
        <ele>260.6</ele>
        <time>2022-03-02T13:34:29Z</time>
      </trkpt>
      <trkpt lat="46.27985" lon="5.34735">
        <ele>260.6</ele>
        <time>2022-03-02T13:34:37Z</time>
      </trkpt>
      <trkpt lat="46.27942" lon="5.34793">
        <ele>260.6</ele>
        <time>2022-03-02T13:34:46Z</time>
      </trkpt>
      <trkpt lat="46.27938" lon="5.34799">
        <ele>260.6</ele>
        <time>2022-03-02T13:34:47Z</time>
      </trkpt>
      <trkpt lat="46.27897" lon="5.34852">
        <ele>261.2</ele>
        <time>2022-03-02T13:34:56Z</time>
      </trkpt>
      <trkpt lat="46.27864" lon="5.34886">
        <ele>262</ele>
        <time>2022-03-02T13:35:03Z</time>
      </trkpt>
      <trkpt lat="46.27836" lon="5.34909">
        <ele>262.2</ele>
        <time>2022-03-02T13:35:09Z</time>
      </trkpt>
      <trkpt lat="46.27818" lon="5.34923">
        <ele>262.8</ele>
        <time>2022-03-02T13:35:13Z</time>
      </trkpt>
      <trkpt lat="46.27789" lon="5.34944">
        <ele>263.4</ele>
        <time>2022-03-02T13:35:19Z</time>
      </trkpt>
      <trkpt lat="46.27771" lon="5.34959">
        <ele>263.6</ele>
        <time>2022-03-02T13:35:23Z</time>
      </trkpt>
      <trkpt lat="46.27751" lon="5.34981">
        <ele>264.6</ele>
        <time>2022-03-02T13:35:28Z</time>
      </trkpt>
      <trkpt lat="46.27739" lon="5.34997">
        <ele>265</ele>
        <time>2022-03-02T13:35:31Z</time>
      </trkpt>
      <trkpt lat="46.27711" lon="5.35052">
        <ele>265.4</ele>
        <time>2022-03-02T13:35:40Z</time>
      </trkpt>
      <trkpt lat="46.27709" lon="5.35058">
        <ele>265.6</ele>
        <time>2022-03-02T13:35:41Z</time>
      </trkpt>
      <trkpt lat="46.27686" lon="5.35105">
        <ele>266.6</ele>
        <time>2022-03-02T13:35:49Z</time>
      </trkpt>
      <trkpt lat="46.27681" lon="5.35116">
        <ele>266.6</ele>
        <time>2022-03-02T13:35:51Z</time>
      </trkpt>
      <trkpt lat="46.27663" lon="5.35157">
        <ele>267.8</ele>
        <time>2022-03-02T13:35:58Z</time>
      </trkpt>
      <trkpt lat="46.27658" lon="5.35169">
        <ele>267.8</ele>
        <time>2022-03-02T13:36:00Z</time>
      </trkpt>
      <trkpt lat="46.27641" lon="5.35204">
        <ele>268.6</ele>
        <time>2022-03-02T13:36:06Z</time>
      </trkpt>
      <trkpt lat="46.27629" lon="5.35234">
        <ele>269</ele>
        <time>2022-03-02T13:36:11Z</time>
      </trkpt>
      <trkpt lat="46.27624" lon="5.35246">
        <ele>269</ele>
        <time>2022-03-02T13:36:13Z</time>
      </trkpt>
      <trkpt lat="46.27611" lon="5.35292">
        <ele>270</ele>
        <time>2022-03-02T13:36:20Z</time>
      </trkpt>
      <trkpt lat="46.27608" lon="5.35306">
        <ele>270.2</ele>
        <time>2022-03-02T13:36:22Z</time>
      </trkpt>
      <trkpt lat="46.27596" lon="5.35373">
        <ele>270.6</ele>
        <time>2022-03-02T13:36:31Z</time>
      </trkpt>
      <trkpt lat="46.27592" lon="5.35395">
        <ele>271</ele>
        <time>2022-03-02T13:36:34Z</time>
      </trkpt>
      <trkpt lat="46.27585" lon="5.35432">
        <ele>271.4</ele>
        <time>2022-03-02T13:36:39Z</time>
      </trkpt>
      <trkpt lat="46.2757" lon="5.3548">
        <ele>272.2</ele>
        <time>2022-03-02T13:36:46Z</time>
      </trkpt>
      <trkpt lat="46.27567" lon="5.35486">
        <ele>272.2</ele>
        <time>2022-03-02T13:36:47Z</time>
      </trkpt>
      <trkpt lat="46.27546" lon="5.35533">
        <ele>273.2</ele>
        <time>2022-03-02T13:36:55Z</time>
      </trkpt>
      <trkpt lat="46.27542" lon="5.35539">
        <ele>273.4</ele>
        <time>2022-03-02T13:36:56Z</time>
      </trkpt>
      <trkpt lat="46.2753" lon="5.35557">
        <ele>274.2</ele>
        <time>2022-03-02T13:37:00Z</time>
      </trkpt>
      <trkpt lat="46.27527" lon="5.35561">
        <ele>274.2</ele>
        <time>2022-03-02T13:37:01Z</time>
      </trkpt>
      <trkpt lat="46.27515" lon="5.35578">
        <ele>275.2</ele>
        <time>2022-03-02T13:37:05Z</time>
      </trkpt>
      <trkpt lat="46.27512" lon="5.35582">
        <ele>275.8</ele>
        <time>2022-03-02T13:37:06Z</time>
      </trkpt>
      <trkpt lat="46.27507" lon="5.35592">
        <ele>276.4</ele>
        <time>2022-03-02T13:37:08Z</time>
      </trkpt>
      <trkpt lat="46.27498" lon="5.3562">
        <ele>277.6</ele>
        <time>2022-03-02T13:37:13Z</time>
      </trkpt>
      <trkpt lat="46.27496" lon="5.35634">
        <ele>278.2</ele>
        <time>2022-03-02T13:37:15Z</time>
      </trkpt>
      <trkpt lat="46.27494" lon="5.35645">
        <ele>278.8</ele>
        <time>2022-03-02T13:37:17Z</time>
      </trkpt>
      <trkpt lat="46.27489" lon="5.35672">
        <ele>279.8</ele>
        <time>2022-03-02T13:37:21Z</time>
      </trkpt>
      <trkpt lat="46.27487" lon="5.35684">
        <ele>280.4</ele>
        <time>2022-03-02T13:37:23Z</time>
      </trkpt>
      <trkpt lat="46.27484" lon="5.35695">
        <ele>281</ele>
        <time>2022-03-02T13:37:25Z</time>
      </trkpt>
      <trkpt lat="46.27476" lon="5.35732">
        <ele>281.8</ele>
        <time>2022-03-02T13:37:31Z</time>
      </trkpt>
      <trkpt lat="46.27476" lon="5.35738">
        <ele>282</ele>
        <time>2022-03-02T13:37:32Z</time>
      </trkpt>
      <trkpt lat="46.27467" lon="5.35789">
        <ele>283</ele>
        <time>2022-03-02T13:37:40Z</time>
      </trkpt>
      <trkpt lat="46.27466" lon="5.35795">
        <ele>283.2</ele>
        <time>2022-03-02T13:37:41Z</time>
      </trkpt>
      <trkpt lat="46.27456" lon="5.35832">
        <ele>283.4</ele>
        <time>2022-03-02T13:37:47Z</time>
      </trkpt>
      <trkpt lat="46.27445" lon="5.35859">
        <ele>284.2</ele>
        <time>2022-03-02T13:37:52Z</time>
      </trkpt>
      <trkpt lat="46.27439" lon="5.3587">
        <ele>285</ele>
        <time>2022-03-02T13:37:54Z</time>
      </trkpt>
      <trkpt lat="46.2743" lon="5.35884">
        <ele>285.4</ele>
        <time>2022-03-02T13:37:57Z</time>
      </trkpt>
      <trkpt lat="46.27414" lon="5.35907">
        <ele>286</ele>
        <time>2022-03-02T13:38:02Z</time>
      </trkpt>
      <trkpt lat="46.27396" lon="5.3593">
        <ele>287</ele>
        <time>2022-03-02T13:38:08Z</time>
      </trkpt>
      <trkpt lat="46.27387" lon="5.35942">
        <ele>287.6</ele>
        <time>2022-03-02T13:38:11Z</time>
      </trkpt>
      <trkpt lat="46.27381" lon="5.3595">
        <ele>288</ele>
        <time>2022-03-02T13:38:13Z</time>
      </trkpt>
      <trkpt lat="46.27365" lon="5.35972">
        <ele>289.4</ele>
        <time>2022-03-02T13:38:18Z</time>
      </trkpt>
      <trkpt lat="46.27353" lon="5.35988">
        <ele>290</ele>
        <time>2022-03-02T13:38:22Z</time>
      </trkpt>
      <trkpt lat="46.27345" lon="5.35998">
        <ele>290.4</ele>
        <time>2022-03-02T13:38:24Z</time>
      </trkpt>
      <trkpt lat="46.2733" lon="5.3602">
        <ele>291.6</ele>
        <time>2022-03-02T13:38:29Z</time>
      </trkpt>
      <trkpt lat="46.27325" lon="5.36031">
        <ele>291.6</ele>
        <time>2022-03-02T13:38:31Z</time>
      </trkpt>
      <trkpt lat="46.27307" lon="5.36075">
        <ele>291.8</ele>
        <time>2022-03-02T13:38:38Z</time>
      </trkpt>
      <trkpt lat="46.27299" lon="5.36118">
        <ele>291.8</ele>
        <time>2022-03-02T13:38:43Z</time>
      </trkpt>
      <trkpt lat="46.27295" lon="5.36181">
        <ele>291.2</ele>
        <time>2022-03-02T13:38:50Z</time>
      </trkpt>
      <trkpt lat="46.27294" lon="5.36268">
        <ele>290.8</ele>
        <time>2022-03-02T13:38:59Z</time>
      </trkpt>
      <trkpt lat="46.2729" lon="5.36341">
        <ele>290.6</ele>
        <time>2022-03-02T13:39:07Z</time>
      </trkpt>
      <trkpt lat="46.27288" lon="5.36362">
        <ele>290.4</ele>
        <time>2022-03-02T13:39:09Z</time>
      </trkpt>
      <trkpt lat="46.27284" lon="5.36406">
        <ele>290.4</ele>
        <time>2022-03-02T13:39:14Z</time>
      </trkpt>
      <trkpt lat="46.27272" lon="5.36458">
        <ele>290.6</ele>
        <time>2022-03-02T13:39:20Z</time>
      </trkpt>
      <trkpt lat="46.27253" lon="5.36521">
        <ele>291.2</ele>
        <time>2022-03-02T13:39:28Z</time>
      </trkpt>
      <trkpt lat="46.27247" lon="5.36542">
        <ele>291.6</ele>
        <time>2022-03-02T13:39:31Z</time>
      </trkpt>
      <trkpt lat="46.27237" lon="5.36578">
        <ele>292</ele>
        <time>2022-03-02T13:39:36Z</time>
      </trkpt>
      <trkpt lat="46.27225" lon="5.36624">
        <ele>292.6</ele>
        <time>2022-03-02T13:39:43Z</time>
      </trkpt>
      <trkpt lat="46.27215" lon="5.36639">
        <ele>293</ele>
        <time>2022-03-02T13:39:47Z</time>
      </trkpt>
      <trkpt lat="46.2721" lon="5.36642">
        <ele>293.2</ele>
        <time>2022-03-02T13:39:49Z</time>
      </trkpt>
      <trkpt lat="46.27203" lon="5.36639">
        <ele>293.4</ele>
        <time>2022-03-02T13:39:51Z</time>
      </trkpt>
      <trkpt lat="46.272" lon="5.36636">
        <ele>293.6</ele>
        <time>2022-03-02T13:39:52Z</time>
      </trkpt>
      <trkpt lat="46.27179" lon="5.3662">
        <ele>294</ele>
        <time>2022-03-02T13:39:57Z</time>
      </trkpt>
      <trkpt lat="46.27166" lon="5.36611">
        <ele>294.6</ele>
        <time>2022-03-02T13:40:00Z</time>
      </trkpt>
      <trkpt lat="46.27144" lon="5.36593">
        <ele>295.4</ele>
        <time>2022-03-02T13:40:05Z</time>
      </trkpt>
      <trkpt lat="46.27136" lon="5.36587">
        <ele>295.8</ele>
        <time>2022-03-02T13:40:07Z</time>
      </trkpt>
      <trkpt lat="46.27111" lon="5.36571">
        <ele>296.8</ele>
        <time>2022-03-02T13:40:13Z</time>
      </trkpt>
      <trkpt lat="46.27101" lon="5.36566">
        <ele>297.2</ele>
        <time>2022-03-02T13:40:15Z</time>
      </trkpt>
      <trkpt lat="46.27083" lon="5.36558">
        <ele>298</ele>
        <time>2022-03-02T13:40:19Z</time>
      </trkpt>
      <trkpt lat="46.27054" lon="5.36544">
        <ele>298.6</ele>
        <time>2022-03-02T13:40:25Z</time>
      </trkpt>
      <trkpt lat="46.27027" lon="5.36534">
        <ele>299</ele>
        <time>2022-03-02T13:40:30Z</time>
      </trkpt>
      <trkpt lat="46.27005" lon="5.36527">
        <ele>299</ele>
        <time>2022-03-02T13:40:34Z</time>
      </trkpt>
      <trkpt lat="46.26949" lon="5.3651">
        <ele>299.2</ele>
        <time>2022-03-02T13:40:44Z</time>
      </trkpt>
      <trkpt lat="46.26944" lon="5.36509">
        <ele>299.2</ele>
        <time>2022-03-02T13:40:45Z</time>
      </trkpt>
      <trkpt lat="46.26885" lon="5.3649">
        <ele>299</ele>
        <time>2022-03-02T13:40:55Z</time>
      </trkpt>
      <trkpt lat="46.26868" lon="5.36486">
        <ele>299.2</ele>
        <time>2022-03-02T13:40:58Z</time>
      </trkpt>
      <trkpt lat="46.26814" lon="5.36463">
        <ele>299</ele>
        <time>2022-03-02T13:41:07Z</time>
      </trkpt>
      <trkpt lat="46.26785" lon="5.36436">
        <ele>298.4</ele>
        <time>2022-03-02T13:41:12Z</time>
      </trkpt>
      <trkpt lat="46.26766" lon="5.36403">
        <ele>297.8</ele>
        <time>2022-03-02T13:41:16Z</time>
      </trkpt>
      <trkpt lat="46.26762" lon="5.36394">
        <ele>297.2</ele>
        <time>2022-03-02T13:41:17Z</time>
      </trkpt>
      <trkpt lat="46.26747" lon="5.36361">
        <ele>296.6</ele>
        <time>2022-03-02T13:41:20Z</time>
      </trkpt>
      <trkpt lat="46.26737" lon="5.36344">
        <ele>296.2</ele>
        <time>2022-03-02T13:41:22Z</time>
      </trkpt>
      <trkpt lat="46.26725" lon="5.36326">
        <ele>295.6</ele>
        <time>2022-03-02T13:41:24Z</time>
      </trkpt>
      <trkpt lat="46.26705" lon="5.36304">
        <ele>294.4</ele>
        <time>2022-03-02T13:41:27Z</time>
      </trkpt>
      <trkpt lat="46.26698" lon="5.36299">
        <ele>294.4</ele>
        <time>2022-03-02T13:41:28Z</time>
      </trkpt>
      <trkpt lat="46.26681" lon="5.36289">
        <ele>294</ele>
        <time>2022-03-02T13:41:30Z</time>
      </trkpt>
      <trkpt lat="46.26673" lon="5.36285">
        <ele>293.8</ele>
        <time>2022-03-02T13:41:31Z</time>
      </trkpt>
      <trkpt lat="46.26667" lon="5.36283">
        <ele>293.4</ele>
        <time>2022-03-02T13:41:32Z</time>
      </trkpt>
      <trkpt lat="46.26653" lon="5.3628">
        <ele>293.2</ele>
        <time>2022-03-02T13:41:34Z</time>
      </trkpt>
      <trkpt lat="46.26644" lon="5.3628">
        <ele>293.2</ele>
        <time>2022-03-02T13:41:35Z</time>
      </trkpt>
      <trkpt lat="46.26637" lon="5.36278">
        <ele>293.2</ele>
        <time>2022-03-02T13:41:36Z</time>
      </trkpt>
      <trkpt lat="46.26609" lon="5.36269">
        <ele>293</ele>
        <time>2022-03-02T13:41:40Z</time>
      </trkpt>
      <trkpt lat="46.26553" lon="5.36243">
        <ele>293.2</ele>
        <time>2022-03-02T13:41:49Z</time>
      </trkpt>
      <trkpt lat="46.26509" lon="5.36221">
        <ele>293.6</ele>
        <time>2022-03-02T13:41:57Z</time>
      </trkpt>
      <trkpt lat="46.26472" lon="5.36202">
        <ele>294.6</ele>
        <time>2022-03-02T13:42:04Z</time>
      </trkpt>
      <trkpt lat="46.26464" lon="5.36195">
        <ele>295</ele>
        <time>2022-03-02T13:42:06Z</time>
      </trkpt>
      <trkpt lat="46.26444" lon="5.36181">
        <ele>295.6</ele>
        <time>2022-03-02T13:42:10Z</time>
      </trkpt>
      <trkpt lat="46.26421" lon="5.36159">
        <ele>296</ele>
        <time>2022-03-02T13:42:15Z</time>
      </trkpt>
      <trkpt lat="46.26375" lon="5.36116">
        <ele>296.4</ele>
        <time>2022-03-02T13:42:25Z</time>
      </trkpt>
      <trkpt lat="46.26352" lon="5.36094">
        <ele>296.8</ele>
        <time>2022-03-02T13:42:30Z</time>
      </trkpt>
      <trkpt lat="46.2634" lon="5.3608">
        <ele>297</ele>
        <time>2022-03-02T13:42:33Z</time>
      </trkpt>
      <trkpt lat="46.26307" lon="5.36033">
        <ele>297.4</ele>
        <time>2022-03-02T13:42:41Z</time>
      </trkpt>
      <trkpt lat="46.26288" lon="5.36001">
        <ele>297.8</ele>
        <time>2022-03-02T13:42:47Z</time>
      </trkpt>
      <trkpt lat="46.26281" lon="5.35991">
        <ele>298</ele>
        <time>2022-03-02T13:42:49Z</time>
      </trkpt>
      <trkpt lat="46.26268" lon="5.35975">
        <ele>299</ele>
        <time>2022-03-02T13:42:53Z</time>
      </trkpt>
      <trkpt lat="46.2626" lon="5.35967">
        <ele>299.4</ele>
        <time>2022-03-02T13:42:55Z</time>
      </trkpt>
      <trkpt lat="46.26245" lon="5.35953">
        <ele>300.2</ele>
        <time>2022-03-02T13:42:59Z</time>
      </trkpt>
      <trkpt lat="46.26241" lon="5.3595">
        <ele>300.4</ele>
        <time>2022-03-02T13:43:00Z</time>
      </trkpt>
      <trkpt lat="46.26229" lon="5.35941">
        <ele>301.2</ele>
        <time>2022-03-02T13:43:03Z</time>
      </trkpt>
      <trkpt lat="46.26212" lon="5.3593">
        <ele>302.2</ele>
        <time>2022-03-02T13:43:07Z</time>
      </trkpt>
      <trkpt lat="46.26198" lon="5.35925">
        <ele>302.6</ele>
        <time>2022-03-02T13:43:10Z</time>
      </trkpt>
      <trkpt lat="46.26169" lon="5.35919">
        <ele>303.2</ele>
        <time>2022-03-02T13:43:16Z</time>
      </trkpt>
      <trkpt lat="46.26159" lon="5.35919">
        <ele>303.4</ele>
        <time>2022-03-02T13:43:18Z</time>
      </trkpt>
      <trkpt lat="46.26131" lon="5.35926">
        <ele>304</ele>
        <time>2022-03-02T13:43:24Z</time>
      </trkpt>
      <trkpt lat="46.26122" lon="5.35931">
        <ele>304.2</ele>
        <time>2022-03-02T13:43:26Z</time>
      </trkpt>
      <trkpt lat="46.26113" lon="5.35936">
        <ele>304.2</ele>
        <time>2022-03-02T13:43:28Z</time>
      </trkpt>
      <trkpt lat="46.2609" lon="5.35949">
        <ele>305</ele>
        <time>2022-03-02T13:43:33Z</time>
      </trkpt>
      <trkpt lat="46.26085" lon="5.35951">
        <ele>305</ele>
        <time>2022-03-02T13:43:34Z</time>
      </trkpt>
      <trkpt lat="46.26057" lon="5.35956">
        <ele>305.4</ele>
        <time>2022-03-02T13:43:40Z</time>
      </trkpt>
      <trkpt lat="46.26048" lon="5.35957">
        <ele>305.6</ele>
        <time>2022-03-02T13:43:42Z</time>
      </trkpt>
      <trkpt lat="46.26025" lon="5.35961">
        <ele>306.4</ele>
        <time>2022-03-02T13:43:47Z</time>
      </trkpt>
      <trkpt lat="46.26006" lon="5.35965">
        <ele>307</ele>
        <time>2022-03-02T13:43:51Z</time>
      </trkpt>
      <trkpt lat="46.25992" lon="5.35966">
        <ele>307.6</ele>
        <time>2022-03-02T13:43:54Z</time>
      </trkpt>
      <trkpt lat="46.25969" lon="5.35967">
        <ele>308.4</ele>
        <time>2022-03-02T13:43:59Z</time>
      </trkpt>
      <trkpt lat="46.25959" lon="5.35967">
        <ele>308.6</ele>
        <time>2022-03-02T13:44:01Z</time>
      </trkpt>
      <trkpt lat="46.25929" lon="5.35965">
        <ele>309.4</ele>
        <time>2022-03-02T13:44:08Z</time>
      </trkpt>
      <trkpt lat="46.2592" lon="5.35963">
        <ele>309.8</ele>
        <time>2022-03-02T13:44:10Z</time>
      </trkpt>
      <trkpt lat="46.25898" lon="5.35955">
        <ele>310.6</ele>
        <time>2022-03-02T13:44:15Z</time>
      </trkpt>
      <trkpt lat="46.25894" lon="5.35952">
        <ele>310.8</ele>
        <time>2022-03-02T13:44:16Z</time>
      </trkpt>
      <trkpt lat="46.25879" lon="5.35942">
        <ele>312</ele>
        <time>2022-03-02T13:44:20Z</time>
      </trkpt>
      <trkpt lat="46.25868" lon="5.35934">
        <ele>312.4</ele>
        <time>2022-03-02T13:44:23Z</time>
      </trkpt>
      <trkpt lat="46.25857" lon="5.35927">
        <ele>313</ele>
        <time>2022-03-02T13:44:26Z</time>
      </trkpt>
      <trkpt lat="46.25832" lon="5.35919">
        <ele>314</ele>
        <time>2022-03-02T13:44:32Z</time>
      </trkpt>
      <trkpt lat="46.25827" lon="5.35918">
        <ele>314</ele>
        <time>2022-03-02T13:44:33Z</time>
      </trkpt>
      <trkpt lat="46.25802" lon="5.35914">
        <ele>315.4</ele>
        <time>2022-03-02T13:44:39Z</time>
      </trkpt>
      <trkpt lat="46.25797" lon="5.35914">
        <ele>316</ele>
        <time>2022-03-02T13:44:40Z</time>
      </trkpt>
      <trkpt lat="46.25789" lon="5.35913">
        <ele>316.4</ele>
        <time>2022-03-02T13:44:42Z</time>
      </trkpt>
      <trkpt lat="46.25772" lon="5.35911">
        <ele>317.6</ele>
        <time>2022-03-02T13:44:46Z</time>
      </trkpt>
      <trkpt lat="46.2575" lon="5.35908">
        <ele>318.6</ele>
        <time>2022-03-02T13:44:51Z</time>
      </trkpt>
      <trkpt lat="46.25699" lon="5.35895">
        <ele>319.2</ele>
        <time>2022-03-02T13:45:01Z</time>
      </trkpt>
      <trkpt lat="46.25657" lon="5.35889">
        <ele>318.6</ele>
        <time>2022-03-02T13:45:08Z</time>
      </trkpt>
      <trkpt lat="46.25611" lon="5.35888">
        <ele>317.4</ele>
        <time>2022-03-02T13:45:14Z</time>
      </trkpt>
      <trkpt lat="46.25587" lon="5.35889">
        <ele>316.4</ele>
        <time>2022-03-02T13:45:17Z</time>
      </trkpt>
      <trkpt lat="46.25563" lon="5.35891">
        <ele>315.2</ele>
        <time>2022-03-02T13:45:20Z</time>
      </trkpt>
      <trkpt lat="46.25555" lon="5.35892">
        <ele>314.8</ele>
        <time>2022-03-02T13:45:21Z</time>
      </trkpt>
      <trkpt lat="46.25531" lon="5.35893">
        <ele>314</ele>
        <time>2022-03-02T13:45:24Z</time>
      </trkpt>
      <trkpt lat="46.25499" lon="5.35893">
        <ele>312.6</ele>
        <time>2022-03-02T13:45:28Z</time>
      </trkpt>
      <trkpt lat="46.25491" lon="5.35893">
        <ele>312.2</ele>
        <time>2022-03-02T13:45:29Z</time>
      </trkpt>
      <trkpt lat="46.25475" lon="5.35893">
        <ele>311.6</ele>
        <time>2022-03-02T13:45:31Z</time>
      </trkpt>
      <trkpt lat="46.25443" lon="5.35896">
        <ele>310.4</ele>
        <time>2022-03-02T13:45:35Z</time>
      </trkpt>
      <trkpt lat="46.2542" lon="5.35899">
        <ele>309.4</ele>
        <time>2022-03-02T13:45:38Z</time>
      </trkpt>
      <trkpt lat="46.25412" lon="5.359">
        <ele>309.2</ele>
        <time>2022-03-02T13:45:39Z</time>
      </trkpt>
      <trkpt lat="46.25378" lon="5.35908">
        <ele>308.8</ele>
        <time>2022-03-02T13:45:44Z</time>
      </trkpt>
      <trkpt lat="46.25343" lon="5.35916">
        <ele>308.8</ele>
        <time>2022-03-02T13:45:50Z</time>
      </trkpt>
      <trkpt lat="46.25311" lon="5.35923">
        <ele>310</ele>
        <time>2022-03-02T13:45:56Z</time>
      </trkpt>
      <trkpt lat="46.25299" lon="5.35924">
        <ele>310.6</ele>
        <time>2022-03-02T13:45:58Z</time>
      </trkpt>
      <trkpt lat="46.25257" lon="5.35923">
        <ele>311.6</ele>
        <time>2022-03-02T13:46:05Z</time>
      </trkpt>
      <trkpt lat="46.25245" lon="5.35922">
        <ele>311.8</ele>
        <time>2022-03-02T13:46:07Z</time>
      </trkpt>
      <trkpt lat="46.25209" lon="5.35913">
        <ele>312.4</ele>
        <time>2022-03-02T13:46:13Z</time>
      </trkpt>
      <trkpt lat="46.25173" lon="5.3589">
        <ele>312</ele>
        <time>2022-03-02T13:46:19Z</time>
      </trkpt>
      <trkpt lat="46.25162" lon="5.35875">
        <ele>311.8</ele>
        <time>2022-03-02T13:46:21Z</time>
      </trkpt>
      <trkpt lat="46.25152" lon="5.35858">
        <ele>311.8</ele>
        <time>2022-03-02T13:46:23Z</time>
      </trkpt>
      <trkpt lat="46.25139" lon="5.35828">
        <ele>310.6</ele>
        <time>2022-03-02T13:46:26Z</time>
      </trkpt>
      <trkpt lat="46.2513" lon="5.35807">
        <ele>309.6</ele>
        <time>2022-03-02T13:46:28Z</time>
      </trkpt>
      <trkpt lat="46.25125" lon="5.35796">
        <ele>309.6</ele>
        <time>2022-03-02T13:46:29Z</time>
      </trkpt>
      <trkpt lat="46.25111" lon="5.35763">
        <ele>308</ele>
        <time>2022-03-02T13:46:32Z</time>
      </trkpt>
      <trkpt lat="46.25095" lon="5.35728">
        <ele>306.6</ele>
        <time>2022-03-02T13:46:35Z</time>
      </trkpt>
      <trkpt lat="46.25078" lon="5.35693">
        <ele>305.4</ele>
        <time>2022-03-02T13:46:38Z</time>
      </trkpt>
      <trkpt lat="46.25065" lon="5.35673">
        <ele>304</ele>
        <time>2022-03-02T13:46:40Z</time>
      </trkpt>
      <trkpt lat="46.2505" lon="5.35651">
        <ele>302.8</ele>
        <time>2022-03-02T13:46:42Z</time>
      </trkpt>
      <trkpt lat="46.2503" lon="5.35622">
        <ele>301.6</ele>
        <time>2022-03-02T13:46:45Z</time>
      </trkpt>
      <trkpt lat="46.25023" lon="5.35613">
        <ele>300.8</ele>
        <time>2022-03-02T13:46:46Z</time>
      </trkpt>
      <trkpt lat="46.25016" lon="5.35604">
        <ele>300.4</ele>
        <time>2022-03-02T13:46:47Z</time>
      </trkpt>
      <trkpt lat="46.25" lon="5.35587">
        <ele>299</ele>
        <time>2022-03-02T13:46:49Z</time>
      </trkpt>
      <trkpt lat="46.24984" lon="5.35574">
        <ele>298</ele>
        <time>2022-03-02T13:46:51Z</time>
      </trkpt>
      <trkpt lat="46.24975" lon="5.35568">
        <ele>297.6</ele>
        <time>2022-03-02T13:46:52Z</time>
      </trkpt>
      <trkpt lat="46.24959" lon="5.35557">
        <ele>296.8</ele>
        <time>2022-03-02T13:46:54Z</time>
      </trkpt>
      <trkpt lat="46.24943" lon="5.35545">
        <ele>295</ele>
        <time>2022-03-02T13:46:56Z</time>
      </trkpt>
      <trkpt lat="46.24917" lon="5.35526">
        <ele>294</ele>
        <time>2022-03-02T13:46:59Z</time>
      </trkpt>
      <trkpt lat="46.24866" lon="5.35484">
        <ele>292.8</ele>
        <time>2022-03-02T13:47:06Z</time>
      </trkpt>
      <trkpt lat="46.24851" lon="5.35472">
        <ele>291.8</ele>
        <time>2022-03-02T13:47:08Z</time>
      </trkpt>
      <trkpt lat="46.24821" lon="5.35447">
        <ele>290.8</ele>
        <time>2022-03-02T13:47:12Z</time>
      </trkpt>
      <trkpt lat="46.24807" lon="5.35434">
        <ele>290.2</ele>
        <time>2022-03-02T13:47:14Z</time>
      </trkpt>
      <trkpt lat="46.24793" lon="5.35421">
        <ele>290</ele>
        <time>2022-03-02T13:47:16Z</time>
      </trkpt>
      <trkpt lat="46.24779" lon="5.3541">
        <ele>289.6</ele>
        <time>2022-03-02T13:47:18Z</time>
      </trkpt>
      <trkpt lat="46.24771" lon="5.35404">
        <ele>289.4</ele>
        <time>2022-03-02T13:47:19Z</time>
      </trkpt>
      <trkpt lat="46.24755" lon="5.35392">
        <ele>288.2</ele>
        <time>2022-03-02T13:47:21Z</time>
      </trkpt>
      <trkpt lat="46.24748" lon="5.35386">
        <ele>288</ele>
        <time>2022-03-02T13:47:22Z</time>
      </trkpt>
      <trkpt lat="46.24725" lon="5.35367">
        <ele>287.4</ele>
        <time>2022-03-02T13:47:25Z</time>
      </trkpt>
      <trkpt lat="46.24717" lon="5.3536">
        <ele>287.2</ele>
        <time>2022-03-02T13:47:26Z</time>
      </trkpt>
      <trkpt lat="46.24692" lon="5.35341">
        <ele>286</ele>
        <time>2022-03-02T13:47:29Z</time>
      </trkpt>
      <trkpt lat="46.24675" lon="5.35328">
        <ele>284.8</ele>
        <time>2022-03-02T13:47:31Z</time>
      </trkpt>
      <trkpt lat="46.24666" lon="5.35322">
        <ele>284.4</ele>
        <time>2022-03-02T13:47:32Z</time>
      </trkpt>
      <trkpt lat="46.24648" lon="5.35309">
        <ele>283.6</ele>
        <time>2022-03-02T13:47:34Z</time>
      </trkpt>
      <trkpt lat="46.24631" lon="5.35296">
        <ele>282.4</ele>
        <time>2022-03-02T13:47:36Z</time>
      </trkpt>
      <trkpt lat="46.24623" lon="5.35288">
        <ele>281</ele>
        <time>2022-03-02T13:47:37Z</time>
      </trkpt>
      <trkpt lat="46.24616" lon="5.35279">
        <ele>280.6</ele>
        <time>2022-03-02T13:47:38Z</time>
      </trkpt>
      <trkpt lat="46.2461" lon="5.35269">
        <ele>280</ele>
        <time>2022-03-02T13:47:39Z</time>
      </trkpt>
      <trkpt lat="46.246" lon="5.35248">
        <ele>279.2</ele>
        <time>2022-03-02T13:47:41Z</time>
      </trkpt>
      <trkpt lat="46.24596" lon="5.35237">
        <ele>279</ele>
        <time>2022-03-02T13:47:42Z</time>
      </trkpt>
      <trkpt lat="46.24594" lon="5.35225">
        <ele>278.2</ele>
        <time>2022-03-02T13:47:43Z</time>
      </trkpt>
      <trkpt lat="46.24596" lon="5.35197">
        <ele>277.6</ele>
        <time>2022-03-02T13:47:45Z</time>
      </trkpt>
      <trkpt lat="46.24597" lon="5.35188">
        <ele>277.2</ele>
        <time>2022-03-02T13:47:46Z</time>
      </trkpt>
      <trkpt lat="46.24603" lon="5.35162">
        <ele>276.6</ele>
        <time>2022-03-02T13:47:48Z</time>
      </trkpt>
      <trkpt lat="46.24604" lon="5.35141">
        <ele>276.2</ele>
        <time>2022-03-02T13:47:50Z</time>
      </trkpt>
      <trkpt lat="46.24602" lon="5.35131">
        <ele>276.2</ele>
        <time>2022-03-02T13:47:51Z</time>
      </trkpt>
      <trkpt lat="46.24598" lon="5.35119">
        <ele>276.2</ele>
        <time>2022-03-02T13:47:52Z</time>
      </trkpt>
      <trkpt lat="46.24589" lon="5.35106">
        <ele>276</ele>
        <time>2022-03-02T13:47:54Z</time>
      </trkpt>
      <trkpt lat="46.24557" lon="5.35083">
        <ele>276</ele>
        <time>2022-03-02T13:47:59Z</time>
      </trkpt>
      <trkpt lat="46.2452" lon="5.35057">
        <ele>276</ele>
        <time>2022-03-02T13:48:05Z</time>
      </trkpt>
      <trkpt lat="46.24486" lon="5.35032">
        <ele>276.6</ele>
        <time>2022-03-02T13:48:11Z</time>
      </trkpt>
      <trkpt lat="46.24466" lon="5.35018">
        <ele>277.2</ele>
        <time>2022-03-02T13:48:15Z</time>
      </trkpt>
      <trkpt lat="46.24462" lon="5.35014">
        <ele>277.4</ele>
        <time>2022-03-02T13:48:16Z</time>
      </trkpt>
      <trkpt lat="46.24445" lon="5.34996">
        <ele>278</ele>
        <time>2022-03-02T13:48:20Z</time>
      </trkpt>
      <trkpt lat="46.24441" lon="5.34992">
        <ele>278.2</ele>
        <time>2022-03-02T13:48:21Z</time>
      </trkpt>
      <trkpt lat="46.24429" lon="5.34982">
        <ele>278.6</ele>
        <time>2022-03-02T13:48:24Z</time>
      </trkpt>
      <trkpt lat="46.24419" lon="5.34979">
        <ele>278.8</ele>
        <time>2022-03-02T13:48:26Z</time>
      </trkpt>
      <trkpt lat="46.24415" lon="5.34978">
        <ele>279</ele>
        <time>2022-03-02T13:48:27Z</time>
      </trkpt>
      <trkpt lat="46.2441" lon="5.34978">
        <ele>279</ele>
        <time>2022-03-02T13:48:28Z</time>
      </trkpt>
      <trkpt lat="46.24386" lon="5.3498">
        <ele>280</ele>
        <time>2022-03-02T13:48:33Z</time>
      </trkpt>
      <trkpt lat="46.24369" lon="5.34981">
        <ele>281</ele>
        <time>2022-03-02T13:48:37Z</time>
      </trkpt>
      <trkpt lat="46.24353" lon="5.3498">
        <ele>282.2</ele>
        <time>2022-03-02T13:48:41Z</time>
      </trkpt>
      <trkpt lat="46.24322" lon="5.34977">
        <ele>283.2</ele>
        <time>2022-03-02T13:48:48Z</time>
      </trkpt>
      <trkpt lat="46.24313" lon="5.34976">
        <ele>283.4</ele>
        <time>2022-03-02T13:48:50Z</time>
      </trkpt>
      <trkpt lat="46.24308" lon="5.34975">
        <ele>283.4</ele>
        <time>2022-03-02T13:48:51Z</time>
      </trkpt>
      <trkpt lat="46.24271" lon="5.3497">
        <ele>284.4</ele>
        <time>2022-03-02T13:48:59Z</time>
      </trkpt>
      <trkpt lat="46.24232" lon="5.34957">
        <ele>284.8</ele>
        <time>2022-03-02T13:49:07Z</time>
      </trkpt>
      <trkpt lat="46.24219" lon="5.34949">
        <ele>285</ele>
        <time>2022-03-02T13:49:10Z</time>
      </trkpt>
      <trkpt lat="46.2421" lon="5.34943">
        <ele>285</ele>
        <time>2022-03-02T13:49:12Z</time>
      </trkpt>
      <trkpt lat="46.24201" lon="5.34938">
        <ele>285.2</ele>
        <time>2022-03-02T13:49:14Z</time>
      </trkpt>
      <trkpt lat="46.24193" lon="5.34938">
        <ele>285.2</ele>
        <time>2022-03-02T13:49:16Z</time>
      </trkpt>
      <trkpt lat="46.24188" lon="5.34952">
        <ele>285.4</ele>
        <time>2022-03-02T13:49:19Z</time>
      </trkpt>
      <trkpt lat="46.24184" lon="5.34962">
        <ele>285.4</ele>
        <time>2022-03-02T13:49:22Z</time>
      </trkpt>
      <trkpt lat="46.24183" lon="5.34964">
        <ele>285.4</ele>
        <time>2022-03-02T13:49:23Z</time>
      </trkpt>
      <trkpt lat="46.24183" lon="5.34966">
        <ele>285.4</ele>
        <time>2022-03-02T13:49:24Z</time>
      </trkpt>
      <trkpt lat="46.24183" lon="5.34966">
        <ele>285.6</ele>
        <time>2022-03-02T13:49:27Z</time>
      </trkpt>
      <trkpt lat="46.24183" lon="5.34973">
        <ele>285.4</ele>
        <time>2022-03-02T13:50:06Z</time>
      </trkpt>
      <trkpt lat="46.24181" lon="5.34982">
        <ele>285.4</ele>
        <time>2022-03-02T13:50:08Z</time>
      </trkpt>
      <trkpt lat="46.24176" lon="5.35018">
        <ele>286</ele>
        <time>2022-03-02T13:50:15Z</time>
      </trkpt>
      <trkpt lat="46.24174" lon="5.35033">
        <ele>286.4</ele>
        <time>2022-03-02T13:50:18Z</time>
      </trkpt>
      <trkpt lat="46.24168" lon="5.35047">
        <ele>287.4</ele>
        <time>2022-03-02T13:50:21Z</time>
      </trkpt>
      <trkpt lat="46.24165" lon="5.35051">
        <ele>287.6</ele>
        <time>2022-03-02T13:50:22Z</time>
      </trkpt>
      <trkpt lat="46.24151" lon="5.35059">
        <ele>288.2</ele>
        <time>2022-03-02T13:50:26Z</time>
      </trkpt>
      <trkpt lat="46.24143" lon="5.35062">
        <ele>288.6</ele>
        <time>2022-03-02T13:50:28Z</time>
      </trkpt>
      <trkpt lat="46.24124" lon="5.35069">
        <ele>290</ele>
        <time>2022-03-02T13:50:33Z</time>
      </trkpt>
      <trkpt lat="46.24116" lon="5.35072">
        <ele>290.2</ele>
        <time>2022-03-02T13:50:35Z</time>
      </trkpt>
      <trkpt lat="46.24102" lon="5.35081">
        <ele>291</ele>
        <time>2022-03-02T13:50:39Z</time>
      </trkpt>
      <trkpt lat="46.24096" lon="5.35088">
        <ele>291.2</ele>
        <time>2022-03-02T13:50:41Z</time>
      </trkpt>
      <trkpt lat="46.24084" lon="5.35109">
        <ele>292.2</ele>
        <time>2022-03-02T13:50:46Z</time>
      </trkpt>
      <trkpt lat="46.24079" lon="5.35116">
        <ele>292.6</ele>
        <time>2022-03-02T13:50:48Z</time>
      </trkpt>
      <trkpt lat="46.24072" lon="5.35125">
        <ele>293.4</ele>
        <time>2022-03-02T13:50:51Z</time>
      </trkpt>
      <trkpt lat="46.24065" lon="5.35136">
        <ele>294.2</ele>
        <time>2022-03-02T13:50:54Z</time>
      </trkpt>
      <trkpt lat="46.24062" lon="5.3514">
        <ele>294.6</ele>
        <time>2022-03-02T13:50:55Z</time>
      </trkpt>
      <trkpt lat="46.24049" lon="5.35161">
        <ele>295.6</ele>
        <time>2022-03-02T13:51:00Z</time>
      </trkpt>
      <trkpt lat="46.2404" lon="5.35173">
        <ele>296.2</ele>
        <time>2022-03-02T13:51:03Z</time>
      </trkpt>
      <trkpt lat="46.24035" lon="5.35181">
        <ele>296.8</ele>
        <time>2022-03-02T13:51:05Z</time>
      </trkpt>
      <trkpt lat="46.24024" lon="5.35196">
        <ele>297.4</ele>
        <time>2022-03-02T13:51:10Z</time>
      </trkpt>
      <trkpt lat="46.2402" lon="5.35199">
        <ele>298</ele>
        <time>2022-03-02T13:51:12Z</time>
      </trkpt>
      <trkpt lat="46.24012" lon="5.35206">
        <ele>298.4</ele>
        <time>2022-03-02T13:51:15Z</time>
      </trkpt>
      <trkpt lat="46.23998" lon="5.35219">
        <ele>298.8</ele>
        <time>2022-03-02T13:51:19Z</time>
      </trkpt>
      <trkpt lat="46.2399" lon="5.35227">
        <ele>298.8</ele>
        <time>2022-03-02T13:51:21Z</time>
      </trkpt>
      <trkpt lat="46.23981" lon="5.35238">
        <ele>298.8</ele>
        <time>2022-03-02T13:51:23Z</time>
      </trkpt>
      <trkpt lat="46.23972" lon="5.35246">
        <ele>299</ele>
        <time>2022-03-02T13:51:25Z</time>
      </trkpt>
      <trkpt lat="46.23968" lon="5.35249">
        <ele>299</ele>
        <time>2022-03-02T13:51:26Z</time>
      </trkpt>
      <trkpt lat="46.23963" lon="5.35252">
        <ele>299</ele>
        <time>2022-03-02T13:51:27Z</time>
      </trkpt>
      <trkpt lat="46.23944" lon="5.35259">
        <ele>299.2</ele>
        <time>2022-03-02T13:51:31Z</time>
      </trkpt>
      <trkpt lat="46.23939" lon="5.35259">
        <ele>299.2</ele>
        <time>2022-03-02T13:51:32Z</time>
      </trkpt>
      <trkpt lat="46.23934" lon="5.3526">
        <ele>299.2</ele>
        <time>2022-03-02T13:51:33Z</time>
      </trkpt>
      <trkpt lat="46.23917" lon="5.35263">
        <ele>299.2</ele>
        <time>2022-03-02T13:51:36Z</time>
      </trkpt>
      <trkpt lat="46.23879" lon="5.35268">
        <ele>299</ele>
        <time>2022-03-02T13:51:42Z</time>
      </trkpt>
      <trkpt lat="46.23853" lon="5.35276">
        <ele>298.4</ele>
        <time>2022-03-02T13:51:46Z</time>
      </trkpt>
      <trkpt lat="46.23847" lon="5.3528">
        <ele>298.4</ele>
        <time>2022-03-02T13:51:47Z</time>
      </trkpt>
      <trkpt lat="46.23827" lon="5.35291">
        <ele>297.8</ele>
        <time>2022-03-02T13:51:50Z</time>
      </trkpt>
      <trkpt lat="46.23821" lon="5.35295">
        <ele>297.8</ele>
        <time>2022-03-02T13:51:51Z</time>
      </trkpt>
      <trkpt lat="46.23815" lon="5.353">
        <ele>297.6</ele>
        <time>2022-03-02T13:51:52Z</time>
      </trkpt>
      <trkpt lat="46.23811" lon="5.35306">
        <ele>297.6</ele>
        <time>2022-03-02T13:51:53Z</time>
      </trkpt>
      <trkpt lat="46.23809" lon="5.35319">
        <ele>297.6</ele>
        <time>2022-03-02T13:51:55Z</time>
      </trkpt>
      <trkpt lat="46.23807" lon="5.35357">
        <ele>297.6</ele>
        <time>2022-03-02T13:51:59Z</time>
      </trkpt>
      <trkpt lat="46.23802" lon="5.35374">
        <ele>297.8</ele>
        <time>2022-03-02T13:52:01Z</time>
      </trkpt>
      <trkpt lat="46.23795" lon="5.35387">
        <ele>297.8</ele>
        <time>2022-03-02T13:52:03Z</time>
      </trkpt>
      <trkpt lat="46.23767" lon="5.35431">
        <ele>298.4</ele>
        <time>2022-03-02T13:52:11Z</time>
      </trkpt>
      <trkpt lat="46.23751" lon="5.35456">
        <ele>299</ele>
        <time>2022-03-02T13:52:16Z</time>
      </trkpt>
      <trkpt lat="46.23745" lon="5.35466">
        <ele>299.2</ele>
        <time>2022-03-02T13:52:18Z</time>
      </trkpt>
      <trkpt lat="46.23742" lon="5.3547">
        <ele>299.4</ele>
        <time>2022-03-02T13:52:19Z</time>
      </trkpt>
      <trkpt lat="46.23733" lon="5.35482">
        <ele>299.8</ele>
        <time>2022-03-02T13:52:22Z</time>
      </trkpt>
      <trkpt lat="46.23726" lon="5.35489">
        <ele>300.2</ele>
        <time>2022-03-02T13:52:24Z</time>
      </trkpt>
      <trkpt lat="46.23716" lon="5.35501">
        <ele>300.8</ele>
        <time>2022-03-02T13:52:27Z</time>
      </trkpt>
      <trkpt lat="46.23697" lon="5.35525">
        <ele>301.4</ele>
        <time>2022-03-02T13:52:32Z</time>
      </trkpt>
      <trkpt lat="46.23688" lon="5.3554">
        <ele>302</ele>
        <time>2022-03-02T13:52:35Z</time>
      </trkpt>
      <trkpt lat="46.23678" lon="5.35558">
        <ele>302.2</ele>
        <time>2022-03-02T13:52:38Z</time>
      </trkpt>
      <trkpt lat="46.23674" lon="5.35569">
        <ele>302.6</ele>
        <time>2022-03-02T13:52:40Z</time>
      </trkpt>
      <trkpt lat="46.23672" lon="5.35576">
        <ele>302.8</ele>
        <time>2022-03-02T13:52:41Z</time>
      </trkpt>
      <trkpt lat="46.23671" lon="5.35591">
        <ele>303</ele>
        <time>2022-03-02T13:52:43Z</time>
      </trkpt>
      <trkpt lat="46.23672" lon="5.35605">
        <ele>303.2</ele>
        <time>2022-03-02T13:52:45Z</time>
      </trkpt>
      <trkpt lat="46.23673" lon="5.35613">
        <ele>303.2</ele>
        <time>2022-03-02T13:52:46Z</time>
      </trkpt>
      <trkpt lat="46.23682" lon="5.35671">
        <ele>303.8</ele>
        <time>2022-03-02T13:52:54Z</time>
      </trkpt>
      <trkpt lat="46.23684" lon="5.35688">
        <ele>304</ele>
        <time>2022-03-02T13:52:56Z</time>
      </trkpt>
      <trkpt lat="46.23692" lon="5.35722">
        <ele>304.4</ele>
        <time>2022-03-02T13:53:01Z</time>
      </trkpt>
      <trkpt lat="46.23694" lon="5.35729">
        <ele>304.4</ele>
        <time>2022-03-02T13:53:02Z</time>
      </trkpt>
      <trkpt lat="46.23704" lon="5.35755">
        <ele>305</ele>
        <time>2022-03-02T13:53:06Z</time>
      </trkpt>
      <trkpt lat="46.23707" lon="5.35762">
        <ele>305</ele>
        <time>2022-03-02T13:53:07Z</time>
      </trkpt>
      <trkpt lat="46.23729" lon="5.35804">
        <ele>305.8</ele>
        <time>2022-03-02T13:53:14Z</time>
      </trkpt>
      <trkpt lat="46.2374" lon="5.35822">
        <ele>306</ele>
        <time>2022-03-02T13:53:17Z</time>
      </trkpt>
      <trkpt lat="46.23754" lon="5.35842">
        <ele>306.6</ele>
        <time>2022-03-02T13:53:21Z</time>
      </trkpt>
      <trkpt lat="46.23764" lon="5.35855">
        <ele>307.2</ele>
        <time>2022-03-02T13:53:24Z</time>
      </trkpt>
      <trkpt lat="46.23784" lon="5.35875">
        <ele>308.2</ele>
        <time>2022-03-02T13:53:29Z</time>
      </trkpt>
      <trkpt lat="46.23789" lon="5.3588">
        <ele>308.6</ele>
        <time>2022-03-02T13:53:30Z</time>
      </trkpt>
      <trkpt lat="46.23797" lon="5.35886">
        <ele>309.4</ele>
        <time>2022-03-02T13:53:32Z</time>
      </trkpt>
      <trkpt lat="46.23818" lon="5.35902">
        <ele>310.4</ele>
        <time>2022-03-02T13:53:37Z</time>
      </trkpt>
      <trkpt lat="46.23822" lon="5.35903">
        <ele>310.6</ele>
        <time>2022-03-02T13:53:38Z</time>
      </trkpt>
      <trkpt lat="46.23841" lon="5.3591">
        <ele>311.4</ele>
        <time>2022-03-02T13:53:42Z</time>
      </trkpt>
      <trkpt lat="46.23852" lon="5.35911">
        <ele>312</ele>
        <time>2022-03-02T13:53:44Z</time>
      </trkpt>
      <trkpt lat="46.23878" lon="5.35915">
        <ele>312.6</ele>
        <time>2022-03-02T13:53:49Z</time>
      </trkpt>
      <trkpt lat="46.23897" lon="5.35922">
        <ele>313</ele>
        <time>2022-03-02T13:53:53Z</time>
      </trkpt>
      <trkpt lat="46.23911" lon="5.35931">
        <ele>313.4</ele>
        <time>2022-03-02T13:53:56Z</time>
      </trkpt>
      <trkpt lat="46.2392" lon="5.35938">
        <ele>313.6</ele>
        <time>2022-03-02T13:53:58Z</time>
      </trkpt>
      <trkpt lat="46.23928" lon="5.35947">
        <ele>313.8</ele>
        <time>2022-03-02T13:54:00Z</time>
      </trkpt>
      <trkpt lat="46.23941" lon="5.35959">
        <ele>314.2</ele>
        <time>2022-03-02T13:54:03Z</time>
      </trkpt>
      <trkpt lat="46.23965" lon="5.35983">
        <ele>315.2</ele>
        <time>2022-03-02T13:54:09Z</time>
      </trkpt>
      <trkpt lat="46.23969" lon="5.35988">
        <ele>315.4</ele>
        <time>2022-03-02T13:54:10Z</time>
      </trkpt>
      <trkpt lat="46.23984" lon="5.36004">
        <ele>316</ele>
        <time>2022-03-02T13:54:14Z</time>
      </trkpt>
      <trkpt lat="46.23991" lon="5.36016">
        <ele>316.4</ele>
        <time>2022-03-02T13:54:16Z</time>
      </trkpt>
      <trkpt lat="46.23991" lon="5.36028">
        <ele>316.6</ele>
        <time>2022-03-02T13:54:18Z</time>
      </trkpt>
      <trkpt lat="46.2399" lon="5.36037">
        <ele>317</ele>
        <time>2022-03-02T13:54:19Z</time>
      </trkpt>
      <trkpt lat="46.23988" lon="5.36043">
        <ele>316.8</ele>
        <time>2022-03-02T13:54:20Z</time>
      </trkpt>
      <trkpt lat="46.23985" lon="5.36048">
        <ele>317.4</ele>
        <time>2022-03-02T13:54:21Z</time>
      </trkpt>
      <trkpt lat="46.23981" lon="5.36054">
        <ele>317.4</ele>
        <time>2022-03-02T13:54:22Z</time>
      </trkpt>
      <trkpt lat="46.23976" lon="5.36058">
        <ele>317.6</ele>
        <time>2022-03-02T13:54:23Z</time>
      </trkpt>
      <trkpt lat="46.23971" lon="5.3606">
        <ele>317.6</ele>
        <time>2022-03-02T13:54:24Z</time>
      </trkpt>
      <trkpt lat="46.23961" lon="5.36061">
        <ele>317.6</ele>
        <time>2022-03-02T13:54:26Z</time>
      </trkpt>
      <trkpt lat="46.23957" lon="5.3606">
        <ele>318.2</ele>
        <time>2022-03-02T13:54:27Z</time>
      </trkpt>
      <trkpt lat="46.23941" lon="5.36054">
        <ele>319.4</ele>
        <time>2022-03-02T13:54:31Z</time>
      </trkpt>
      <trkpt lat="46.23937" lon="5.36052">
        <ele>319.6</ele>
        <time>2022-03-02T13:54:32Z</time>
      </trkpt>
      <trkpt lat="46.23926" lon="5.36045">
        <ele>320.6</ele>
        <time>2022-03-02T13:54:35Z</time>
      </trkpt>
      <trkpt lat="46.2391" lon="5.36038">
        <ele>321.6</ele>
        <time>2022-03-02T13:54:39Z</time>
      </trkpt>
      <trkpt lat="46.23906" lon="5.36036">
        <ele>321.8</ele>
        <time>2022-03-02T13:54:40Z</time>
      </trkpt>
      <trkpt lat="46.23894" lon="5.3603">
        <ele>322.8</ele>
        <time>2022-03-02T13:54:43Z</time>
      </trkpt>
      <trkpt lat="46.23883" lon="5.36024">
        <ele>324</ele>
        <time>2022-03-02T13:54:46Z</time>
      </trkpt>
      <trkpt lat="46.23869" lon="5.36017">
        <ele>325</ele>
        <time>2022-03-02T13:54:50Z</time>
      </trkpt>
      <trkpt lat="46.23856" lon="5.36011">
        <ele>326.2</ele>
        <time>2022-03-02T13:54:54Z</time>
      </trkpt>
      <trkpt lat="46.23838" lon="5.36005">
        <ele>327.4</ele>
        <time>2022-03-02T13:54:59Z</time>
      </trkpt>
      <trkpt lat="46.2383" lon="5.36002">
        <ele>327.6</ele>
        <time>2022-03-02T13:55:01Z</time>
      </trkpt>
      <trkpt lat="46.23812" lon="5.35994">
        <ele>328.8</ele>
        <time>2022-03-02T13:55:06Z</time>
      </trkpt>
      <trkpt lat="46.23797" lon="5.35989">
        <ele>330</ele>
        <time>2022-03-02T13:55:10Z</time>
      </trkpt>
      <trkpt lat="46.2378" lon="5.35979">
        <ele>331</ele>
        <time>2022-03-02T13:55:15Z</time>
      </trkpt>
      <trkpt lat="46.2377" lon="5.35977">
        <ele>331.6</ele>
        <time>2022-03-02T13:55:18Z</time>
      </trkpt>
      <trkpt lat="46.23755" lon="5.35983">
        <ele>332.4</ele>
        <time>2022-03-02T13:55:22Z</time>
      </trkpt>
      <trkpt lat="46.23752" lon="5.35986">
        <ele>332.4</ele>
        <time>2022-03-02T13:55:23Z</time>
      </trkpt>
      <trkpt lat="46.23738" lon="5.35993">
        <ele>333.4</ele>
        <time>2022-03-02T13:55:27Z</time>
      </trkpt>
      <trkpt lat="46.23727" lon="5.35993">
        <ele>334.2</ele>
        <time>2022-03-02T13:55:30Z</time>
      </trkpt>
      <trkpt lat="46.23724" lon="5.35992">
        <ele>334.6</ele>
        <time>2022-03-02T13:55:31Z</time>
      </trkpt>
      <trkpt lat="46.23707" lon="5.35979">
        <ele>335.8</ele>
        <time>2022-03-02T13:55:36Z</time>
      </trkpt>
      <trkpt lat="46.23704" lon="5.35977">
        <ele>336</ele>
        <time>2022-03-02T13:55:37Z</time>
      </trkpt>
      <trkpt lat="46.23698" lon="5.35971">
        <ele>336.8</ele>
        <time>2022-03-02T13:55:39Z</time>
      </trkpt>
      <trkpt lat="46.23683" lon="5.35959">
        <ele>337.8</ele>
        <time>2022-03-02T13:55:44Z</time>
      </trkpt>
      <trkpt lat="46.23681" lon="5.35957">
        <ele>338.2</ele>
        <time>2022-03-02T13:55:45Z</time>
      </trkpt>
      <trkpt lat="46.23669" lon="5.35945">
        <ele>339</ele>
        <time>2022-03-02T13:55:49Z</time>
      </trkpt>
      <trkpt lat="46.23654" lon="5.3593">
        <ele>340</ele>
        <time>2022-03-02T13:55:54Z</time>
      </trkpt>
      <trkpt lat="46.23642" lon="5.35918">
        <ele>340.8</ele>
        <time>2022-03-02T13:55:58Z</time>
      </trkpt>
      <trkpt lat="46.23631" lon="5.35906">
        <ele>341.8</ele>
        <time>2022-03-02T13:56:02Z</time>
      </trkpt>
      <trkpt lat="46.23629" lon="5.35902">
        <ele>342.2</ele>
        <time>2022-03-02T13:56:03Z</time>
      </trkpt>
      <trkpt lat="46.23613" lon="5.35882">
        <ele>343.2</ele>
        <time>2022-03-02T13:56:09Z</time>
      </trkpt>
      <trkpt lat="46.23611" lon="5.35878">
        <ele>343.4</ele>
        <time>2022-03-02T13:56:10Z</time>
      </trkpt>
      <trkpt lat="46.23603" lon="5.35869">
        <ele>344.4</ele>
        <time>2022-03-02T13:56:13Z</time>
      </trkpt>
      <trkpt lat="46.23589" lon="5.35852">
        <ele>345.4</ele>
        <time>2022-03-02T13:56:18Z</time>
      </trkpt>
      <trkpt lat="46.23583" lon="5.35847">
        <ele>346</ele>
        <time>2022-03-02T13:56:20Z</time>
      </trkpt>
      <trkpt lat="46.23578" lon="5.35842">
        <ele>346.6</ele>
        <time>2022-03-02T13:56:22Z</time>
      </trkpt>
      <trkpt lat="46.23563" lon="5.35829">
        <ele>347.6</ele>
        <time>2022-03-02T13:56:27Z</time>
      </trkpt>
      <trkpt lat="46.23559" lon="5.35827">
        <ele>348</ele>
        <time>2022-03-02T13:56:28Z</time>
      </trkpt>
      <trkpt lat="46.23552" lon="5.35821">
        <ele>349</ele>
        <time>2022-03-02T13:56:31Z</time>
      </trkpt>
      <trkpt lat="46.23543" lon="5.35817">
        <ele>349.6</ele>
        <time>2022-03-02T13:56:34Z</time>
      </trkpt>
      <trkpt lat="46.23537" lon="5.35815">
        <ele>350.2</ele>
        <time>2022-03-02T13:56:36Z</time>
      </trkpt>
      <trkpt lat="46.23523" lon="5.35808">
        <ele>351.2</ele>
        <time>2022-03-02T13:56:40Z</time>
      </trkpt>
      <trkpt lat="46.23515" lon="5.35803">
        <ele>351.6</ele>
        <time>2022-03-02T13:56:42Z</time>
      </trkpt>
      <trkpt lat="46.23505" lon="5.35795">
        <ele>352.6</ele>
        <time>2022-03-02T13:56:45Z</time>
      </trkpt>
      <trkpt lat="46.23493" lon="5.35783">
        <ele>353.2</ele>
        <time>2022-03-02T13:56:49Z</time>
      </trkpt>
      <trkpt lat="46.23483" lon="5.35775">
        <ele>353.6</ele>
        <time>2022-03-02T13:56:52Z</time>
      </trkpt>
      <trkpt lat="46.23473" lon="5.35767">
        <ele>354.6</ele>
        <time>2022-03-02T13:56:55Z</time>
      </trkpt>
      <trkpt lat="46.23457" lon="5.35756">
        <ele>356</ele>
        <time>2022-03-02T13:57:00Z</time>
      </trkpt>
      <trkpt lat="46.23444" lon="5.3575">
        <ele>356.8</ele>
        <time>2022-03-02T13:57:04Z</time>
      </trkpt>
      <trkpt lat="46.23441" lon="5.35748">
        <ele>357</ele>
        <time>2022-03-02T13:57:05Z</time>
      </trkpt>
      <trkpt lat="46.23426" lon="5.35739">
        <ele>358.2</ele>
        <time>2022-03-02T13:57:10Z</time>
      </trkpt>
      <trkpt lat="46.23417" lon="5.35736">
        <ele>358.8</ele>
        <time>2022-03-02T13:57:13Z</time>
      </trkpt>
      <trkpt lat="46.23409" lon="5.35732">
        <ele>359.4</ele>
        <time>2022-03-02T13:57:16Z</time>
      </trkpt>
      <trkpt lat="46.234" lon="5.3573">
        <ele>360.4</ele>
        <time>2022-03-02T13:57:19Z</time>
      </trkpt>
      <trkpt lat="46.23397" lon="5.35728">
        <ele>360.6</ele>
        <time>2022-03-02T13:57:20Z</time>
      </trkpt>
      <trkpt lat="46.23378" lon="5.35718">
        <ele>361.6</ele>
        <time>2022-03-02T13:57:26Z</time>
      </trkpt>
      <trkpt lat="46.23369" lon="5.35716">
        <ele>362</ele>
        <time>2022-03-02T13:57:29Z</time>
      </trkpt>
      <trkpt lat="46.23357" lon="5.35713">
        <ele>362.8</ele>
        <time>2022-03-02T13:57:33Z</time>
      </trkpt>
      <trkpt lat="46.23346" lon="5.35709">
        <ele>363.8</ele>
        <time>2022-03-02T13:57:37Z</time>
      </trkpt>
      <trkpt lat="46.23343" lon="5.35709">
        <ele>364</ele>
        <time>2022-03-02T13:57:38Z</time>
      </trkpt>
      <trkpt lat="46.2333" lon="5.35706">
        <ele>365</ele>
        <time>2022-03-02T13:57:42Z</time>
      </trkpt>
      <trkpt lat="46.23319" lon="5.35705">
        <ele>365.4</ele>
        <time>2022-03-02T13:57:45Z</time>
      </trkpt>
      <trkpt lat="46.2331" lon="5.35704">
        <ele>366.2</ele>
        <time>2022-03-02T13:57:48Z</time>
      </trkpt>
      <trkpt lat="46.23308" lon="5.35704">
        <ele>366.4</ele>
        <time>2022-03-02T13:57:49Z</time>
      </trkpt>
      <trkpt lat="46.23305" lon="5.35704">
        <ele>366.6</ele>
        <time>2022-03-02T13:57:50Z</time>
      </trkpt>
      <trkpt lat="46.23297" lon="5.35706">
        <ele>367.4</ele>
        <time>2022-03-02T13:57:53Z</time>
      </trkpt>
      <trkpt lat="46.2329" lon="5.35711">
        <ele>368</ele>
        <time>2022-03-02T13:57:55Z</time>
      </trkpt>
      <trkpt lat="46.2328" lon="5.35722">
        <ele>368.6</ele>
        <time>2022-03-02T13:57:58Z</time>
      </trkpt>
      <trkpt lat="46.23274" lon="5.35729">
        <ele>368.8</ele>
        <time>2022-03-02T13:58:00Z</time>
      </trkpt>
      <trkpt lat="46.23262" lon="5.3574">
        <ele>369.6</ele>
        <time>2022-03-02T13:58:04Z</time>
      </trkpt>
      <trkpt lat="46.23252" lon="5.35746">
        <ele>370.2</ele>
        <time>2022-03-02T13:58:07Z</time>
      </trkpt>
      <trkpt lat="46.23247" lon="5.35747">
        <ele>370.6</ele>
        <time>2022-03-02T13:58:09Z</time>
      </trkpt>
      <trkpt lat="46.23237" lon="5.3575">
        <ele>372.2</ele>
        <time>2022-03-02T13:58:13Z</time>
      </trkpt>
      <trkpt lat="46.23232" lon="5.35752">
        <ele>373.4</ele>
        <time>2022-03-02T13:58:16Z</time>
      </trkpt>
      <trkpt lat="46.23225" lon="5.35755">
        <ele>374.2</ele>
        <time>2022-03-02T13:58:19Z</time>
      </trkpt>
      <trkpt lat="46.23222" lon="5.35757">
        <ele>374.6</ele>
        <time>2022-03-02T13:58:21Z</time>
      </trkpt>
      <trkpt lat="46.23212" lon="5.3576">
        <ele>375.4</ele>
        <time>2022-03-02T13:58:24Z</time>
      </trkpt>
      <trkpt lat="46.23209" lon="5.35762">
        <ele>375.8</ele>
        <time>2022-03-02T13:58:25Z</time>
      </trkpt>
      <trkpt lat="46.23192" lon="5.3577">
        <ele>377</ele>
        <time>2022-03-02T13:58:30Z</time>
      </trkpt>
      <trkpt lat="46.23189" lon="5.35773">
        <ele>377</ele>
        <time>2022-03-02T13:58:31Z</time>
      </trkpt>
      <trkpt lat="46.23174" lon="5.35784">
        <ele>378</ele>
        <time>2022-03-02T13:58:35Z</time>
      </trkpt>
      <trkpt lat="46.23166" lon="5.3579">
        <ele>378.6</ele>
        <time>2022-03-02T13:58:37Z</time>
      </trkpt>
      <trkpt lat="46.23159" lon="5.35792">
        <ele>379.2</ele>
        <time>2022-03-02T13:58:39Z</time>
      </trkpt>
      <trkpt lat="46.23155" lon="5.35791">
        <ele>379.6</ele>
        <time>2022-03-02T13:58:41Z</time>
      </trkpt>
      <trkpt lat="46.23153" lon="5.35793">
        <ele>379.6</ele>
        <time>2022-03-02T13:58:42Z</time>
      </trkpt>
      <trkpt lat="46.23144" lon="5.35797">
        <ele>380</ele>
        <time>2022-03-02T13:58:45Z</time>
      </trkpt>
      <trkpt lat="46.23142" lon="5.35801">
        <ele>380</ele>
        <time>2022-03-02T13:58:46Z</time>
      </trkpt>
      <trkpt lat="46.2314" lon="5.35807">
        <ele>380</ele>
        <time>2022-03-02T13:58:47Z</time>
      </trkpt>
      <trkpt lat="46.23133" lon="5.35836">
        <ele>380</ele>
        <time>2022-03-02T13:58:51Z</time>
      </trkpt>
      <trkpt lat="46.23121" lon="5.35891">
        <ele>380</ele>
        <time>2022-03-02T13:58:58Z</time>
      </trkpt>
      <trkpt lat="46.2311" lon="5.35951">
        <ele>379.6</ele>
        <time>2022-03-02T13:59:05Z</time>
      </trkpt>
      <trkpt lat="46.23097" lon="5.36017">
        <ele>379</ele>
        <time>2022-03-02T13:59:12Z</time>
      </trkpt>
      <trkpt lat="46.23087" lon="5.36053">
        <ele>378.8</ele>
        <time>2022-03-02T13:59:16Z</time>
      </trkpt>
      <trkpt lat="46.23081" lon="5.3607">
        <ele>378.6</ele>
        <time>2022-03-02T13:59:18Z</time>
      </trkpt>
      <trkpt lat="46.23068" lon="5.36104">
        <ele>378</ele>
        <time>2022-03-02T13:59:22Z</time>
      </trkpt>
      <trkpt lat="46.23058" lon="5.36141">
        <ele>377.8</ele>
        <time>2022-03-02T13:59:26Z</time>
      </trkpt>
      <trkpt lat="46.23055" lon="5.36172">
        <ele>377.2</ele>
        <time>2022-03-02T13:59:29Z</time>
      </trkpt>
      <trkpt lat="46.23057" lon="5.36194">
        <ele>377</ele>
        <time>2022-03-02T13:59:31Z</time>
      </trkpt>
      <trkpt lat="46.23067" lon="5.3625">
        <ele>375.6</ele>
        <time>2022-03-02T13:59:36Z</time>
      </trkpt>
      <trkpt lat="46.23075" lon="5.36312">
        <ele>374.6</ele>
        <time>2022-03-02T13:59:41Z</time>
      </trkpt>
      <trkpt lat="46.23073" lon="5.3635">
        <ele>373.4</ele>
        <time>2022-03-02T13:59:44Z</time>
      </trkpt>
      <trkpt lat="46.23071" lon="5.36375">
        <ele>373</ele>
        <time>2022-03-02T13:59:46Z</time>
      </trkpt>
      <trkpt lat="46.23065" lon="5.3644">
        <ele>372</ele>
        <time>2022-03-02T13:59:51Z</time>
      </trkpt>
      <trkpt lat="46.23064" lon="5.36466">
        <ele>371.2</ele>
        <time>2022-03-02T13:59:53Z</time>
      </trkpt>
      <trkpt lat="46.23064" lon="5.36479">
        <ele>370.8</ele>
        <time>2022-03-02T13:59:54Z</time>
      </trkpt>
      <trkpt lat="46.23065" lon="5.36505">
        <ele>370.4</ele>
        <time>2022-03-02T13:59:56Z</time>
      </trkpt>
      <trkpt lat="46.23067" lon="5.36517">
        <ele>370.4</ele>
        <time>2022-03-02T13:59:57Z</time>
      </trkpt>
      <trkpt lat="46.23069" lon="5.36529">
        <ele>370</ele>
        <time>2022-03-02T13:59:58Z</time>
      </trkpt>
      <trkpt lat="46.23077" lon="5.36554">
        <ele>369.8</ele>
        <time>2022-03-02T14:00:00Z</time>
      </trkpt>
      <trkpt lat="46.2308" lon="5.36566">
        <ele>369.6</ele>
        <time>2022-03-02T14:00:01Z</time>
      </trkpt>
      <trkpt lat="46.231" lon="5.36625">
        <ele>369</ele>
        <time>2022-03-02T14:00:06Z</time>
      </trkpt>
      <trkpt lat="46.23114" lon="5.36658">
        <ele>368.6</ele>
        <time>2022-03-02T14:00:09Z</time>
      </trkpt>
      <trkpt lat="46.23126" lon="5.36677">
        <ele>368</ele>
        <time>2022-03-02T14:00:11Z</time>
      </trkpt>
      <trkpt lat="46.23133" lon="5.36686">
        <ele>367.8</ele>
        <time>2022-03-02T14:00:12Z</time>
      </trkpt>
      <trkpt lat="46.23149" lon="5.36703">
        <ele>367.4</ele>
        <time>2022-03-02T14:00:14Z</time>
      </trkpt>
      <trkpt lat="46.23154" lon="5.36709">
        <ele>367.2</ele>
        <time>2022-03-02T14:00:15Z</time>
      </trkpt>
      <trkpt lat="46.23183" lon="5.36742">
        <ele>366.4</ele>
        <time>2022-03-02T14:00:19Z</time>
      </trkpt>
      <trkpt lat="46.23194" lon="5.36761">
        <ele>366.2</ele>
        <time>2022-03-02T14:00:21Z</time>
      </trkpt>
      <trkpt lat="46.23202" lon="5.36784">
        <ele>365.8</ele>
        <time>2022-03-02T14:00:23Z</time>
      </trkpt>
      <trkpt lat="46.23204" lon="5.36796">
        <ele>365.8</ele>
        <time>2022-03-02T14:00:24Z</time>
      </trkpt>
      <trkpt lat="46.23206" lon="5.36821">
        <ele>365.2</ele>
        <time>2022-03-02T14:00:26Z</time>
      </trkpt>
      <trkpt lat="46.23208" lon="5.36859">
        <ele>364.8</ele>
        <time>2022-03-02T14:00:29Z</time>
      </trkpt>
      <trkpt lat="46.2321" lon="5.36895">
        <ele>364.2</ele>
        <time>2022-03-02T14:00:32Z</time>
      </trkpt>
      <trkpt lat="46.23215" lon="5.36919">
        <ele>364</ele>
        <time>2022-03-02T14:00:34Z</time>
      </trkpt>
      <trkpt lat="46.23223" lon="5.3694">
        <ele>363.8</ele>
        <time>2022-03-02T14:00:36Z</time>
      </trkpt>
      <trkpt lat="46.23233" lon="5.36959">
        <ele>363.4</ele>
        <time>2022-03-02T14:00:38Z</time>
      </trkpt>
      <trkpt lat="46.23238" lon="5.36968">
        <ele>363.2</ele>
        <time>2022-03-02T14:00:39Z</time>
      </trkpt>
      <trkpt lat="46.23265" lon="5.37001">
        <ele>362.6</ele>
        <time>2022-03-02T14:00:43Z</time>
      </trkpt>
      <trkpt lat="46.23279" lon="5.37016">
        <ele>362</ele>
        <time>2022-03-02T14:00:45Z</time>
      </trkpt>
      <trkpt lat="46.23324" lon="5.37061">
        <ele>361</ele>
        <time>2022-03-02T14:00:51Z</time>
      </trkpt>
      <trkpt lat="46.23375" lon="5.37114">
        <ele>359.8</ele>
        <time>2022-03-02T14:00:58Z</time>
      </trkpt>
      <trkpt lat="46.23382" lon="5.37122">
        <ele>359.8</ele>
        <time>2022-03-02T14:00:59Z</time>
      </trkpt>
      <trkpt lat="46.23395" lon="5.3714">
        <ele>359.4</ele>
        <time>2022-03-02T14:01:01Z</time>
      </trkpt>
      <trkpt lat="46.23413" lon="5.37168">
        <ele>358.8</ele>
        <time>2022-03-02T14:01:04Z</time>
      </trkpt>
      <trkpt lat="46.23448" lon="5.3723">
        <ele>357.6</ele>
        <time>2022-03-02T14:01:10Z</time>
      </trkpt>
      <trkpt lat="46.23453" lon="5.3724">
        <ele>357.2</ele>
        <time>2022-03-02T14:01:11Z</time>
      </trkpt>
      <trkpt lat="46.23481" lon="5.37289">
        <ele>356.4</ele>
        <time>2022-03-02T14:01:16Z</time>
      </trkpt>
      <trkpt lat="46.23509" lon="5.37338">
        <ele>355.6</ele>
        <time>2022-03-02T14:01:21Z</time>
      </trkpt>
      <trkpt lat="46.23515" lon="5.37347">
        <ele>355.2</ele>
        <time>2022-03-02T14:01:22Z</time>
      </trkpt>
      <trkpt lat="46.23547" lon="5.37391">
        <ele>354.8</ele>
        <time>2022-03-02T14:01:27Z</time>
      </trkpt>
      <trkpt lat="46.23587" lon="5.37422">
        <ele>354.2</ele>
        <time>2022-03-02T14:01:32Z</time>
      </trkpt>
      <trkpt lat="46.23596" lon="5.37428">
        <ele>354.2</ele>
        <time>2022-03-02T14:01:33Z</time>
      </trkpt>
      <trkpt lat="46.23638" lon="5.37457">
        <ele>353</ele>
        <time>2022-03-02T14:01:38Z</time>
      </trkpt>
      <trkpt lat="46.23655" lon="5.37469">
        <ele>352.2</ele>
        <time>2022-03-02T14:01:40Z</time>
      </trkpt>
      <trkpt lat="46.23671" lon="5.37481">
        <ele>351.8</ele>
        <time>2022-03-02T14:01:42Z</time>
      </trkpt>
      <trkpt lat="46.23697" lon="5.37498">
        <ele>350.8</ele>
        <time>2022-03-02T14:01:45Z</time>
      </trkpt>
      <trkpt lat="46.23722" lon="5.37517">
        <ele>350</ele>
        <time>2022-03-02T14:01:48Z</time>
      </trkpt>
      <trkpt lat="46.23737" lon="5.37532">
        <ele>350</ele>
        <time>2022-03-02T14:01:50Z</time>
      </trkpt>
      <trkpt lat="46.23751" lon="5.37551">
        <ele>349.4</ele>
        <time>2022-03-02T14:01:52Z</time>
      </trkpt>
      <trkpt lat="46.23762" lon="5.37575">
        <ele>349</ele>
        <time>2022-03-02T14:01:54Z</time>
      </trkpt>
      <trkpt lat="46.23765" lon="5.37588">
        <ele>348.6</ele>
        <time>2022-03-02T14:01:55Z</time>
      </trkpt>
      <trkpt lat="46.23771" lon="5.37613">
        <ele>348</ele>
        <time>2022-03-02T14:01:57Z</time>
      </trkpt>
      <trkpt lat="46.23784" lon="5.37665">
        <ele>346.8</ele>
        <time>2022-03-02T14:02:01Z</time>
      </trkpt>
      <trkpt lat="46.23791" lon="5.37691">
        <ele>346.4</ele>
        <time>2022-03-02T14:02:03Z</time>
      </trkpt>
      <trkpt lat="46.23803" lon="5.37744">
        <ele>345.4</ele>
        <time>2022-03-02T14:02:07Z</time>
      </trkpt>
      <trkpt lat="46.23813" lon="5.37782">
        <ele>344.4</ele>
        <time>2022-03-02T14:02:10Z</time>
      </trkpt>
      <trkpt lat="46.23816" lon="5.37794">
        <ele>344.4</ele>
        <time>2022-03-02T14:02:11Z</time>
      </trkpt>
      <trkpt lat="46.23834" lon="5.37866">
        <ele>343.8</ele>
        <time>2022-03-02T14:02:17Z</time>
      </trkpt>
      <trkpt lat="46.23845" lon="5.379">
        <ele>343.4</ele>
        <time>2022-03-02T14:02:20Z</time>
      </trkpt>
      <trkpt lat="46.23855" lon="5.37922">
        <ele>343.2</ele>
        <time>2022-03-02T14:02:22Z</time>
      </trkpt>
      <trkpt lat="46.23867" lon="5.37942">
        <ele>343.2</ele>
        <time>2022-03-02T14:02:24Z</time>
      </trkpt>
      <trkpt lat="46.23882" lon="5.37959">
        <ele>343</ele>
        <time>2022-03-02T14:02:26Z</time>
      </trkpt>
      <trkpt lat="46.23915" lon="5.37986">
        <ele>343</ele>
        <time>2022-03-02T14:02:30Z</time>
      </trkpt>
      <trkpt lat="46.2397" lon="5.38019">
        <ele>342.8</ele>
        <time>2022-03-02T14:02:36Z</time>
      </trkpt>
      <trkpt lat="46.23989" lon="5.38029">
        <ele>342.6</ele>
        <time>2022-03-02T14:02:38Z</time>
      </trkpt>
      <trkpt lat="46.24042" lon="5.38061">
        <ele>342.6</ele>
        <time>2022-03-02T14:02:44Z</time>
      </trkpt>
      <trkpt lat="46.24059" lon="5.38071">
        <ele>342.6</ele>
        <time>2022-03-02T14:02:46Z</time>
      </trkpt>
      <trkpt lat="46.24099" lon="5.38095">
        <ele>343.4</ele>
        <time>2022-03-02T14:02:51Z</time>
      </trkpt>
      <trkpt lat="46.24144" lon="5.38121">
        <ele>344.2</ele>
        <time>2022-03-02T14:02:57Z</time>
      </trkpt>
      <trkpt lat="46.24159" lon="5.3813">
        <ele>344.4</ele>
        <time>2022-03-02T14:02:59Z</time>
      </trkpt>
      <trkpt lat="46.24193" lon="5.3815">
        <ele>345.2</ele>
        <time>2022-03-02T14:03:04Z</time>
      </trkpt>
      <trkpt lat="46.242" lon="5.38154">
        <ele>345.6</ele>
        <time>2022-03-02T14:03:05Z</time>
      </trkpt>
      <trkpt lat="46.24232" lon="5.38175">
        <ele>346.6</ele>
        <time>2022-03-02T14:03:10Z</time>
      </trkpt>
      <trkpt lat="46.24238" lon="5.38178">
        <ele>346.8</ele>
        <time>2022-03-02T14:03:11Z</time>
      </trkpt>
      <trkpt lat="46.24278" lon="5.38199">
        <ele>347.8</ele>
        <time>2022-03-02T14:03:17Z</time>
      </trkpt>
      <trkpt lat="46.24284" lon="5.38203">
        <ele>348</ele>
        <time>2022-03-02T14:03:18Z</time>
      </trkpt>
      <trkpt lat="46.24315" lon="5.38221">
        <ele>348.6</ele>
        <time>2022-03-02T14:03:23Z</time>
      </trkpt>
      <trkpt lat="46.24321" lon="5.38225">
        <ele>349</ele>
        <time>2022-03-02T14:03:24Z</time>
      </trkpt>
      <trkpt lat="46.24355" lon="5.38245">
        <ele>350.4</ele>
        <time>2022-03-02T14:03:30Z</time>
      </trkpt>
      <trkpt lat="46.24381" lon="5.38261">
        <ele>351.6</ele>
        <time>2022-03-02T14:03:35Z</time>
      </trkpt>
      <trkpt lat="46.24392" lon="5.38268">
        <ele>352.4</ele>
        <time>2022-03-02T14:03:37Z</time>
      </trkpt>
      <trkpt lat="46.24403" lon="5.38274">
        <ele>352.8</ele>
        <time>2022-03-02T14:03:39Z</time>
      </trkpt>
      <trkpt lat="46.24429" lon="5.38289">
        <ele>354.2</ele>
        <time>2022-03-02T14:03:44Z</time>
      </trkpt>
      <trkpt lat="46.2445" lon="5.38302">
        <ele>354.8</ele>
        <time>2022-03-02T14:03:48Z</time>
      </trkpt>
      <trkpt lat="46.2446" lon="5.38309">
        <ele>355.4</ele>
        <time>2022-03-02T14:03:50Z</time>
      </trkpt>
      <trkpt lat="46.24484" lon="5.38328">
        <ele>356.6</ele>
        <time>2022-03-02T14:03:55Z</time>
      </trkpt>
      <trkpt lat="46.24493" lon="5.38336">
        <ele>357.2</ele>
        <time>2022-03-02T14:03:57Z</time>
      </trkpt>
      <trkpt lat="46.24502" lon="5.38346">
        <ele>357.6</ele>
        <time>2022-03-02T14:03:59Z</time>
      </trkpt>
      <trkpt lat="46.24518" lon="5.38366">
        <ele>358.8</ele>
        <time>2022-03-02T14:04:03Z</time>
      </trkpt>
      <trkpt lat="46.24526" lon="5.38378">
        <ele>359.4</ele>
        <time>2022-03-02T14:04:05Z</time>
      </trkpt>
      <trkpt lat="46.2454" lon="5.38403">
        <ele>360</ele>
        <time>2022-03-02T14:04:09Z</time>
      </trkpt>
      <trkpt lat="46.24556" lon="5.38437">
        <ele>361.2</ele>
        <time>2022-03-02T14:04:14Z</time>
      </trkpt>
      <trkpt lat="46.24571" lon="5.3848">
        <ele>362.4</ele>
        <time>2022-03-02T14:04:20Z</time>
      </trkpt>
      <trkpt lat="46.24575" lon="5.38494">
        <ele>362.8</ele>
        <time>2022-03-02T14:04:22Z</time>
      </trkpt>
      <trkpt lat="46.24579" lon="5.38517">
        <ele>363.6</ele>
        <time>2022-03-02T14:04:25Z</time>
      </trkpt>
      <trkpt lat="46.24585" lon="5.38556">
        <ele>364.6</ele>
        <time>2022-03-02T14:04:30Z</time>
      </trkpt>
      <trkpt lat="46.24586" lon="5.38564">
        <ele>364.8</ele>
        <time>2022-03-02T14:04:31Z</time>
      </trkpt>
      <trkpt lat="46.24587" lon="5.3861">
        <ele>365.8</ele>
        <time>2022-03-02T14:04:37Z</time>
      </trkpt>
      <trkpt lat="46.24587" lon="5.38618">
        <ele>366</ele>
        <time>2022-03-02T14:04:38Z</time>
      </trkpt>
      <trkpt lat="46.24587" lon="5.38641">
        <ele>367.2</ele>
        <time>2022-03-02T14:04:41Z</time>
      </trkpt>
      <trkpt lat="46.24587" lon="5.3868">
        <ele>368.2</ele>
        <time>2022-03-02T14:04:46Z</time>
      </trkpt>
      <trkpt lat="46.24587" lon="5.38694">
        <ele>368.8</ele>
        <time>2022-03-02T14:04:48Z</time>
      </trkpt>
      <trkpt lat="46.24586" lon="5.38717">
        <ele>369.2</ele>
        <time>2022-03-02T14:04:51Z</time>
      </trkpt>
      <trkpt lat="46.24589" lon="5.3874">
        <ele>370.4</ele>
        <time>2022-03-02T14:04:54Z</time>
      </trkpt>
      <trkpt lat="46.24596" lon="5.38769">
        <ele>371.4</ele>
        <time>2022-03-02T14:04:58Z</time>
      </trkpt>
      <trkpt lat="46.246" lon="5.38784">
        <ele>372</ele>
        <time>2022-03-02T14:05:00Z</time>
      </trkpt>
      <trkpt lat="46.24603" lon="5.38791">
        <ele>372.4</ele>
        <time>2022-03-02T14:05:01Z</time>
      </trkpt>
      <trkpt lat="46.24606" lon="5.38797">
        <ele>372.6</ele>
        <time>2022-03-02T14:05:02Z</time>
      </trkpt>
      <trkpt lat="46.24618" lon="5.38823">
        <ele>373.4</ele>
        <time>2022-03-02T14:05:06Z</time>
      </trkpt>
      <trkpt lat="46.24621" lon="5.38829">
        <ele>373.6</ele>
        <time>2022-03-02T14:05:07Z</time>
      </trkpt>
      <trkpt lat="46.24636" lon="5.3885">
        <ele>374.6</ele>
        <time>2022-03-02T14:05:11Z</time>
      </trkpt>
      <trkpt lat="46.24643" lon="5.38856">
        <ele>375.2</ele>
        <time>2022-03-02T14:05:13Z</time>
      </trkpt>
      <trkpt lat="46.24652" lon="5.38863">
        <ele>375.8</ele>
        <time>2022-03-02T14:05:15Z</time>
      </trkpt>
      <trkpt lat="46.24674" lon="5.38883">
        <ele>376.8</ele>
        <time>2022-03-02T14:05:20Z</time>
      </trkpt>
      <trkpt lat="46.24679" lon="5.38887">
        <ele>377</ele>
        <time>2022-03-02T14:05:21Z</time>
      </trkpt>
      <trkpt lat="46.24693" lon="5.38898">
        <ele>377.4</ele>
        <time>2022-03-02T14:05:24Z</time>
      </trkpt>
      <trkpt lat="46.24703" lon="5.38906">
        <ele>378.2</ele>
        <time>2022-03-02T14:05:26Z</time>
      </trkpt>
      <trkpt lat="46.24707" lon="5.3891">
        <ele>378.4</ele>
        <time>2022-03-02T14:05:27Z</time>
      </trkpt>
      <trkpt lat="46.24727" lon="5.38926">
        <ele>379.4</ele>
        <time>2022-03-02T14:05:31Z</time>
      </trkpt>
      <trkpt lat="46.24746" lon="5.38945">
        <ele>380.2</ele>
        <time>2022-03-02T14:05:35Z</time>
      </trkpt>
      <trkpt lat="46.24754" lon="5.38955">
        <ele>380.4</ele>
        <time>2022-03-02T14:05:37Z</time>
      </trkpt>
      <trkpt lat="46.24773" lon="5.38983">
        <ele>381.6</ele>
        <time>2022-03-02T14:05:42Z</time>
      </trkpt>
      <trkpt lat="46.24776" lon="5.38989">
        <ele>382</ele>
        <time>2022-03-02T14:05:43Z</time>
      </trkpt>
      <trkpt lat="46.24786" lon="5.39008">
        <ele>382.6</ele>
        <time>2022-03-02T14:05:46Z</time>
      </trkpt>
      <trkpt lat="46.24801" lon="5.39044">
        <ele>383.8</ele>
        <time>2022-03-02T14:05:51Z</time>
      </trkpt>
      <trkpt lat="46.24817" lon="5.39082">
        <ele>384.8</ele>
        <time>2022-03-02T14:05:56Z</time>
      </trkpt>
      <trkpt lat="46.24823" lon="5.39098">
        <ele>385</ele>
        <time>2022-03-02T14:05:58Z</time>
      </trkpt>
      <trkpt lat="46.24836" lon="5.39131">
        <ele>385.8</ele>
        <time>2022-03-02T14:06:02Z</time>
      </trkpt>
      <trkpt lat="46.24847" lon="5.39158">
        <ele>386.4</ele>
        <time>2022-03-02T14:06:05Z</time>
      </trkpt>
      <trkpt lat="46.24876" lon="5.39227">
        <ele>386.4</ele>
        <time>2022-03-02T14:06:12Z</time>
      </trkpt>
      <trkpt lat="46.24907" lon="5.39303">
        <ele>386</ele>
        <time>2022-03-02T14:06:19Z</time>
      </trkpt>
      <trkpt lat="46.24922" lon="5.39356">
        <ele>385.4</ele>
        <time>2022-03-02T14:06:23Z</time>
      </trkpt>
      <trkpt lat="46.24925" lon="5.39371">
        <ele>385</ele>
        <time>2022-03-02T14:06:24Z</time>
      </trkpt>
      <trkpt lat="46.24927" lon="5.39387">
        <ele>384.8</ele>
        <time>2022-03-02T14:06:25Z</time>
      </trkpt>
      <trkpt lat="46.2493" lon="5.39419">
        <ele>383.8</ele>
        <time>2022-03-02T14:06:27Z</time>
      </trkpt>
      <trkpt lat="46.24934" lon="5.39452">
        <ele>383.2</ele>
        <time>2022-03-02T14:06:29Z</time>
      </trkpt>
      <trkpt lat="46.24936" lon="5.39469">
        <ele>382.8</ele>
        <time>2022-03-02T14:06:30Z</time>
      </trkpt>
      <trkpt lat="46.24939" lon="5.39502">
        <ele>381.6</ele>
        <time>2022-03-02T14:06:32Z</time>
      </trkpt>
      <trkpt lat="46.24942" lon="5.39536">
        <ele>380.4</ele>
        <time>2022-03-02T14:06:34Z</time>
      </trkpt>
      <trkpt lat="46.24948" lon="5.3961">
        <ele>379.4</ele>
        <time>2022-03-02T14:06:38Z</time>
      </trkpt>
      <trkpt lat="46.2495" lon="5.39628">
        <ele>378.6</ele>
        <time>2022-03-02T14:06:39Z</time>
      </trkpt>
      <trkpt lat="46.24952" lon="5.39646">
        <ele>378</ele>
        <time>2022-03-02T14:06:40Z</time>
      </trkpt>
      <trkpt lat="46.24955" lon="5.39684">
        <ele>376.8</ele>
        <time>2022-03-02T14:06:42Z</time>
      </trkpt>
      <trkpt lat="46.24961" lon="5.39741">
        <ele>375.8</ele>
        <time>2022-03-02T14:06:45Z</time>
      </trkpt>
      <trkpt lat="46.24965" lon="5.39783">
        <ele>374</ele>
        <time>2022-03-02T14:06:47Z</time>
      </trkpt>
      <trkpt lat="46.2497" lon="5.39817">
        <ele>372.6</ele>
        <time>2022-03-02T14:06:49Z</time>
      </trkpt>
      <trkpt lat="46.24981" lon="5.39851">
        <ele>371.2</ele>
        <time>2022-03-02T14:06:51Z</time>
      </trkpt>
      <trkpt lat="46.24998" lon="5.39883">
        <ele>369.8</ele>
        <time>2022-03-02T14:06:53Z</time>
      </trkpt>
      <trkpt lat="46.25017" lon="5.39917">
        <ele>368.6</ele>
        <time>2022-03-02T14:06:55Z</time>
      </trkpt>
      <trkpt lat="46.25042" lon="5.39958">
        <ele>367.2</ele>
        <time>2022-03-02T14:06:58Z</time>
      </trkpt>
      <trkpt lat="46.25051" lon="5.3997">
        <ele>366.6</ele>
        <time>2022-03-02T14:06:59Z</time>
      </trkpt>
      <trkpt lat="46.25062" lon="5.39981">
        <ele>365.8</ele>
        <time>2022-03-02T14:07:00Z</time>
      </trkpt>
      <trkpt lat="46.25084" lon="5.40001">
        <ele>364.8</ele>
        <time>2022-03-02T14:07:02Z</time>
      </trkpt>
      <trkpt lat="46.25095" lon="5.40011">
        <ele>364.4</ele>
        <time>2022-03-02T14:07:03Z</time>
      </trkpt>
      <trkpt lat="46.25107" lon="5.4002">
        <ele>363.6</ele>
        <time>2022-03-02T14:07:04Z</time>
      </trkpt>
      <trkpt lat="46.25143" lon="5.40046">
        <ele>362</ele>
        <time>2022-03-02T14:07:07Z</time>
      </trkpt>
      <trkpt lat="46.25156" lon="5.40053">
        <ele>361.6</ele>
        <time>2022-03-02T14:07:08Z</time>
      </trkpt>
      <trkpt lat="46.25168" lon="5.40059">
        <ele>360.8</ele>
        <time>2022-03-02T14:07:09Z</time>
      </trkpt>
      <trkpt lat="46.25196" lon="5.4007">
        <ele>359.6</ele>
        <time>2022-03-02T14:07:11Z</time>
      </trkpt>
      <trkpt lat="46.25209" lon="5.40074">
        <ele>359</ele>
        <time>2022-03-02T14:07:12Z</time>
      </trkpt>
      <trkpt lat="46.2522" lon="5.40076">
        <ele>358.8</ele>
        <time>2022-03-02T14:07:13Z</time>
      </trkpt>
      <trkpt lat="46.25234" lon="5.40078">
        <ele>357.8</ele>
        <time>2022-03-02T14:07:14Z</time>
      </trkpt>
      <trkpt lat="46.25247" lon="5.40077">
        <ele>357.4</ele>
        <time>2022-03-02T14:07:15Z</time>
      </trkpt>
      <trkpt lat="46.25276" lon="5.40074">
        <ele>356.2</ele>
        <time>2022-03-02T14:07:17Z</time>
      </trkpt>
      <trkpt lat="46.25301" lon="5.40073">
        <ele>355</ele>
        <time>2022-03-02T14:07:19Z</time>
      </trkpt>
      <trkpt lat="46.25315" lon="5.40075">
        <ele>354</ele>
        <time>2022-03-02T14:07:20Z</time>
      </trkpt>
      <trkpt lat="46.25345" lon="5.40087">
        <ele>352.6</ele>
        <time>2022-03-02T14:07:22Z</time>
      </trkpt>
      <trkpt lat="46.25357" lon="5.40096">
        <ele>351.8</ele>
        <time>2022-03-02T14:07:23Z</time>
      </trkpt>
      <trkpt lat="46.25367" lon="5.40104">
        <ele>351.6</ele>
        <time>2022-03-02T14:07:24Z</time>
      </trkpt>
      <trkpt lat="46.2539" lon="5.40126">
        <ele>350.4</ele>
        <time>2022-03-02T14:07:26Z</time>
      </trkpt>
      <trkpt lat="46.25402" lon="5.40137">
        <ele>349.6</ele>
        <time>2022-03-02T14:07:27Z</time>
      </trkpt>
      <trkpt lat="46.25413" lon="5.40148">
        <ele>349</ele>
        <time>2022-03-02T14:07:28Z</time>
      </trkpt>
      <trkpt lat="46.25435" lon="5.4017">
        <ele>347.6</ele>
        <time>2022-03-02T14:07:30Z</time>
      </trkpt>
      <trkpt lat="46.25458" lon="5.40191">
        <ele>345.8</ele>
        <time>2022-03-02T14:07:32Z</time>
      </trkpt>
      <trkpt lat="46.25481" lon="5.40212">
        <ele>344</ele>
        <time>2022-03-02T14:07:34Z</time>
      </trkpt>
      <trkpt lat="46.25503" lon="5.40234">
        <ele>342.6</ele>
        <time>2022-03-02T14:07:36Z</time>
      </trkpt>
      <trkpt lat="46.25524" lon="5.40258">
        <ele>341.6</ele>
        <time>2022-03-02T14:07:38Z</time>
      </trkpt>
      <trkpt lat="46.25539" lon="5.40287">
        <ele>340.4</ele>
        <time>2022-03-02T14:07:40Z</time>
      </trkpt>
      <trkpt lat="46.25545" lon="5.40304">
        <ele>339.6</ele>
        <time>2022-03-02T14:07:41Z</time>
      </trkpt>
      <trkpt lat="46.2555" lon="5.40321">
        <ele>339.4</ele>
        <time>2022-03-02T14:07:42Z</time>
      </trkpt>
      <trkpt lat="46.25555" lon="5.40357">
        <ele>338.4</ele>
        <time>2022-03-02T14:07:44Z</time>
      </trkpt>
      <trkpt lat="46.25555" lon="5.40375">
        <ele>338.2</ele>
        <time>2022-03-02T14:07:45Z</time>
      </trkpt>
      <trkpt lat="46.25553" lon="5.40393">
        <ele>337.8</ele>
        <time>2022-03-02T14:07:46Z</time>
      </trkpt>
      <trkpt lat="46.25549" lon="5.40411">
        <ele>337.4</ele>
        <time>2022-03-02T14:07:47Z</time>
      </trkpt>
      <trkpt lat="46.25545" lon="5.40428">
        <ele>336.8</ele>
        <time>2022-03-02T14:07:48Z</time>
      </trkpt>
      <trkpt lat="46.25531" lon="5.40477">
        <ele>335.6</ele>
        <time>2022-03-02T14:07:51Z</time>
      </trkpt>
      <trkpt lat="46.25522" lon="5.40508">
        <ele>334.4</ele>
        <time>2022-03-02T14:07:53Z</time>
      </trkpt>
      <trkpt lat="46.25503" lon="5.4057">
        <ele>333.2</ele>
        <time>2022-03-02T14:07:57Z</time>
      </trkpt>
      <trkpt lat="46.25499" lon="5.40586">
        <ele>333</ele>
        <time>2022-03-02T14:07:58Z</time>
      </trkpt>
      <trkpt lat="46.25492" lon="5.40615">
        <ele>332.2</ele>
        <time>2022-03-02T14:08:00Z</time>
      </trkpt>
      <trkpt lat="46.2548" lon="5.40658">
        <ele>331.8</ele>
        <time>2022-03-02T14:08:03Z</time>
      </trkpt>
      <trkpt lat="46.2546" lon="5.40735">
        <ele>331.6</ele>
        <time>2022-03-02T14:08:09Z</time>
      </trkpt>
      <trkpt lat="46.25437" lon="5.40816">
        <ele>331.4</ele>
        <time>2022-03-02T14:08:16Z</time>
      </trkpt>
      <trkpt lat="46.2542" lon="5.40883">
        <ele>331.2</ele>
        <time>2022-03-02T14:08:22Z</time>
      </trkpt>
      <trkpt lat="46.25414" lon="5.40904">
        <ele>331</ele>
        <time>2022-03-02T14:08:24Z</time>
      </trkpt>
      <trkpt lat="46.25396" lon="5.40969">
        <ele>330.6</ele>
        <time>2022-03-02T14:08:30Z</time>
      </trkpt>
      <trkpt lat="46.25376" lon="5.41048">
        <ele>330</ele>
        <time>2022-03-02T14:08:37Z</time>
      </trkpt>
      <trkpt lat="46.2537" lon="5.41071">
        <ele>329.8</ele>
        <time>2022-03-02T14:08:39Z</time>
      </trkpt>
      <trkpt lat="46.25348" lon="5.4115">
        <ele>329</ele>
        <time>2022-03-02T14:08:46Z</time>
      </trkpt>
      <trkpt lat="46.25345" lon="5.41161">
        <ele>328.8</ele>
        <time>2022-03-02T14:08:47Z</time>
      </trkpt>
      <trkpt lat="46.25342" lon="5.41172">
        <ele>328.8</ele>
        <time>2022-03-02T14:08:48Z</time>
      </trkpt>
      <trkpt lat="46.25321" lon="5.41246">
        <ele>328</ele>
        <time>2022-03-02T14:08:55Z</time>
      </trkpt>
      <trkpt lat="46.25316" lon="5.41267">
        <ele>328</ele>
        <time>2022-03-02T14:08:57Z</time>
      </trkpt>
      <trkpt lat="46.25296" lon="5.41321">
        <ele>328.2</ele>
        <time>2022-03-02T14:09:03Z</time>
      </trkpt>
      <trkpt lat="46.25292" lon="5.41328">
        <ele>328.2</ele>
        <time>2022-03-02T14:09:04Z</time>
      </trkpt>
      <trkpt lat="46.25276" lon="5.41352">
        <ele>328.2</ele>
        <time>2022-03-02T14:09:08Z</time>
      </trkpt>
      <trkpt lat="46.2525" lon="5.41388">
        <ele>329.6</ele>
        <time>2022-03-02T14:09:15Z</time>
      </trkpt>
      <trkpt lat="46.25239" lon="5.41403">
        <ele>330.2</ele>
        <time>2022-03-02T14:09:18Z</time>
      </trkpt>
      <trkpt lat="46.25228" lon="5.41418">
        <ele>331.6</ele>
        <time>2022-03-02T14:09:21Z</time>
      </trkpt>
      <trkpt lat="46.25226" lon="5.41421">
        <ele>332</ele>
        <time>2022-03-02T14:09:22Z</time>
      </trkpt>
      <trkpt lat="46.25213" lon="5.41438">
        <ele>332.6</ele>
        <time>2022-03-02T14:09:26Z</time>
      </trkpt>
      <trkpt lat="46.252" lon="5.41454">
        <ele>333.6</ele>
        <time>2022-03-02T14:09:30Z</time>
      </trkpt>
      <trkpt lat="46.25197" lon="5.41457">
        <ele>333.8</ele>
        <time>2022-03-02T14:09:31Z</time>
      </trkpt>
      <trkpt lat="46.25187" lon="5.41468">
        <ele>334.2</ele>
        <time>2022-03-02T14:09:34Z</time>
      </trkpt>
      <trkpt lat="46.25176" lon="5.41477">
        <ele>334.8</ele>
        <time>2022-03-02T14:09:37Z</time>
      </trkpt>
      <trkpt lat="46.25171" lon="5.4148">
        <ele>335</ele>
        <time>2022-03-02T14:09:38Z</time>
      </trkpt>
      <trkpt lat="46.25158" lon="5.41488">
        <ele>335.8</ele>
        <time>2022-03-02T14:09:42Z</time>
      </trkpt>
      <trkpt lat="46.25144" lon="5.41495">
        <ele>336.6</ele>
        <time>2022-03-02T14:09:46Z</time>
      </trkpt>
      <trkpt lat="46.25136" lon="5.41498">
        <ele>337</ele>
        <time>2022-03-02T14:09:48Z</time>
      </trkpt>
      <trkpt lat="46.25118" lon="5.41506">
        <ele>338</ele>
        <time>2022-03-02T14:09:53Z</time>
      </trkpt>
      <trkpt lat="46.25111" lon="5.41509">
        <ele>338.2</ele>
        <time>2022-03-02T14:09:55Z</time>
      </trkpt>
      <trkpt lat="46.2509" lon="5.41519">
        <ele>339</ele>
        <time>2022-03-02T14:10:01Z</time>
      </trkpt>
      <trkpt lat="46.25072" lon="5.41527">
        <ele>339.8</ele>
        <time>2022-03-02T14:10:06Z</time>
      </trkpt>
      <trkpt lat="46.25065" lon="5.41531">
        <ele>340.2</ele>
        <time>2022-03-02T14:10:08Z</time>
      </trkpt>
      <trkpt lat="46.2505" lon="5.41539">
        <ele>341.2</ele>
        <time>2022-03-02T14:10:12Z</time>
      </trkpt>
      <trkpt lat="46.25032" lon="5.41553">
        <ele>341.8</ele>
        <time>2022-03-02T14:10:17Z</time>
      </trkpt>
      <trkpt lat="46.25022" lon="5.41563">
        <ele>342.2</ele>
        <time>2022-03-02T14:10:20Z</time>
      </trkpt>
      <trkpt lat="46.24995" lon="5.41592">
        <ele>343.4</ele>
        <time>2022-03-02T14:10:28Z</time>
      </trkpt>
      <trkpt lat="46.24975" lon="5.41618">
        <ele>344.6</ele>
        <time>2022-03-02T14:10:34Z</time>
      </trkpt>
      <trkpt lat="46.24962" lon="5.41634">
        <ele>345.4</ele>
        <time>2022-03-02T14:10:38Z</time>
      </trkpt>
      <trkpt lat="46.2496" lon="5.41638">
        <ele>345.8</ele>
        <time>2022-03-02T14:10:39Z</time>
      </trkpt>
      <trkpt lat="46.24948" lon="5.41667">
        <ele>346.6</ele>
        <time>2022-03-02T14:10:45Z</time>
      </trkpt>
      <trkpt lat="46.24946" lon="5.41673">
        <ele>347</ele>
        <time>2022-03-02T14:10:46Z</time>
      </trkpt>
      <trkpt lat="46.2494" lon="5.41694">
        <ele>347.8</ele>
        <time>2022-03-02T14:10:51Z</time>
      </trkpt>
      <trkpt lat="46.2494" lon="5.41696">
        <ele>348</ele>
        <time>2022-03-02T14:10:52Z</time>
      </trkpt>
      <trkpt lat="46.2494" lon="5.41696">
        <ele>348.2</ele>
        <time>2022-03-02T14:10:54Z</time>
      </trkpt>
      <trkpt lat="46.2494" lon="5.41696">
        <ele>348.4</ele>
        <time>2022-03-02T14:10:55Z</time>
      </trkpt>
      <trkpt lat="46.2494" lon="5.41704">
        <ele>348.4</ele>
        <time>2022-03-02T14:11:15Z</time>
      </trkpt>
      <trkpt lat="46.24939" lon="5.41713">
        <ele>348.4</ele>
        <time>2022-03-02T14:11:17Z</time>
      </trkpt>
      <trkpt lat="46.24937" lon="5.4174">
        <ele>348.8</ele>
        <time>2022-03-02T14:11:21Z</time>
      </trkpt>
      <trkpt lat="46.24936" lon="5.41777">
        <ele>349</ele>
        <time>2022-03-02T14:11:26Z</time>
      </trkpt>
      <trkpt lat="46.24935" lon="5.41785">
        <ele>349</ele>
        <time>2022-03-02T14:11:27Z</time>
      </trkpt>
      <trkpt lat="46.24932" lon="5.41846">
        <ele>349.4</ele>
        <time>2022-03-02T14:11:35Z</time>
      </trkpt>
      <trkpt lat="46.24931" lon="5.41872">
        <ele>349.2</ele>
        <time>2022-03-02T14:11:38Z</time>
      </trkpt>
      <trkpt lat="46.2493" lon="5.4189">
        <ele>349.2</ele>
        <time>2022-03-02T14:11:40Z</time>
      </trkpt>
      <trkpt lat="46.24924" lon="5.41953">
        <ele>348.4</ele>
        <time>2022-03-02T14:11:46Z</time>
      </trkpt>
      <trkpt lat="46.2492" lon="5.41975">
        <ele>347.8</ele>
        <time>2022-03-02T14:11:48Z</time>
      </trkpt>
      <trkpt lat="46.24916" lon="5.41985">
        <ele>347.6</ele>
        <time>2022-03-02T14:11:49Z</time>
      </trkpt>
      <trkpt lat="46.24912" lon="5.41996">
        <ele>347</ele>
        <time>2022-03-02T14:11:50Z</time>
      </trkpt>
      <trkpt lat="46.24906" lon="5.42005">
        <ele>346.8</ele>
        <time>2022-03-02T14:11:51Z</time>
      </trkpt>
      <trkpt lat="46.24886" lon="5.42031">
        <ele>345.8</ele>
        <time>2022-03-02T14:11:54Z</time>
      </trkpt>
      <trkpt lat="46.24846" lon="5.42065">
        <ele>344.2</ele>
        <time>2022-03-02T14:11:59Z</time>
      </trkpt>
      <trkpt lat="46.24837" lon="5.42072">
        <ele>344</ele>
        <time>2022-03-02T14:12:00Z</time>
      </trkpt>
      <trkpt lat="46.2482" lon="5.42084">
        <ele>343.2</ele>
        <time>2022-03-02T14:12:02Z</time>
      </trkpt>
      <trkpt lat="46.24803" lon="5.42097">
        <ele>342</ele>
        <time>2022-03-02T14:12:04Z</time>
      </trkpt>
      <trkpt lat="46.24786" lon="5.4211">
        <ele>341</ele>
        <time>2022-03-02T14:12:06Z</time>
      </trkpt>
      <trkpt lat="46.24767" lon="5.42123">
        <ele>340.4</ele>
        <time>2022-03-02T14:12:08Z</time>
      </trkpt>
      <trkpt lat="46.24751" lon="5.42135">
        <ele>339.6</ele>
        <time>2022-03-02T14:12:10Z</time>
      </trkpt>
      <trkpt lat="46.24742" lon="5.42141">
        <ele>338.4</ele>
        <time>2022-03-02T14:12:11Z</time>
      </trkpt>
      <trkpt lat="46.24725" lon="5.42155">
        <ele>337.4</ele>
        <time>2022-03-02T14:12:13Z</time>
      </trkpt>
      <trkpt lat="46.24707" lon="5.42168">
        <ele>336.8</ele>
        <time>2022-03-02T14:12:15Z</time>
      </trkpt>
      <trkpt lat="46.24689" lon="5.4218">
        <ele>336</ele>
        <time>2022-03-02T14:12:17Z</time>
      </trkpt>
      <trkpt lat="46.24673" lon="5.42196">
        <ele>335</ele>
        <time>2022-03-02T14:12:19Z</time>
      </trkpt>
      <trkpt lat="46.24664" lon="5.42208">
        <ele>334.6</ele>
        <time>2022-03-02T14:12:20Z</time>
      </trkpt>
      <trkpt lat="46.24659" lon="5.42216">
        <ele>334.2</ele>
        <time>2022-03-02T14:12:21Z</time>
      </trkpt>
      <trkpt lat="46.24654" lon="5.42228">
        <ele>333.2</ele>
        <time>2022-03-02T14:12:22Z</time>
      </trkpt>
      <trkpt lat="46.24649" lon="5.42242">
        <ele>332.8</ele>
        <time>2022-03-02T14:12:23Z</time>
      </trkpt>
      <trkpt lat="46.24646" lon="5.42253">
        <ele>332</ele>
        <time>2022-03-02T14:12:24Z</time>
      </trkpt>
      <trkpt lat="46.24642" lon="5.4228">
        <ele>331.2</ele>
        <time>2022-03-02T14:12:26Z</time>
      </trkpt>
      <trkpt lat="46.2464" lon="5.42294">
        <ele>330.2</ele>
        <time>2022-03-02T14:12:27Z</time>
      </trkpt>
      <trkpt lat="46.2464" lon="5.42319">
        <ele>329</ele>
        <time>2022-03-02T14:12:29Z</time>
      </trkpt>
      <trkpt lat="46.24642" lon="5.42329">
        <ele>328.8</ele>
        <time>2022-03-02T14:12:30Z</time>
      </trkpt>
      <trkpt lat="46.24647" lon="5.42336">
        <ele>328.4</ele>
        <time>2022-03-02T14:12:31Z</time>
      </trkpt>
      <trkpt lat="46.24653" lon="5.4234">
        <ele>328.4</ele>
        <time>2022-03-02T14:12:32Z</time>
      </trkpt>
      <trkpt lat="46.24661" lon="5.42343">
        <ele>328</ele>
        <time>2022-03-02T14:12:33Z</time>
      </trkpt>
      <trkpt lat="46.24668" lon="5.42344">
        <ele>327.8</ele>
        <time>2022-03-02T14:12:34Z</time>
      </trkpt>
      <trkpt lat="46.24677" lon="5.42345">
        <ele>327.2</ele>
        <time>2022-03-02T14:12:35Z</time>
      </trkpt>
      <trkpt lat="46.24684" lon="5.42345">
        <ele>326.8</ele>
        <time>2022-03-02T14:12:36Z</time>
      </trkpt>
      <trkpt lat="46.24692" lon="5.42345">
        <ele>326.4</ele>
        <time>2022-03-02T14:12:37Z</time>
      </trkpt>
      <trkpt lat="46.24717" lon="5.42349">
        <ele>325.2</ele>
        <time>2022-03-02T14:12:40Z</time>
      </trkpt>
      <trkpt lat="46.24733" lon="5.42352">
        <ele>325</ele>
        <time>2022-03-02T14:12:42Z</time>
      </trkpt>
      <trkpt lat="46.2479" lon="5.42359">
        <ele>325.4</ele>
        <time>2022-03-02T14:12:49Z</time>
      </trkpt>
      <trkpt lat="46.24797" lon="5.4236">
        <ele>325.4</ele>
        <time>2022-03-02T14:12:50Z</time>
      </trkpt>
      <trkpt lat="46.24852" lon="5.42366">
        <ele>325.4</ele>
        <time>2022-03-02T14:12:57Z</time>
      </trkpt>
      <trkpt lat="46.24898" lon="5.42372">
        <ele>325.2</ele>
        <time>2022-03-02T14:13:03Z</time>
      </trkpt>
      <trkpt lat="46.2496" lon="5.42379">
        <ele>325.2</ele>
        <time>2022-03-02T14:13:11Z</time>
      </trkpt>
      <trkpt lat="46.24982" lon="5.42381">
        <ele>325.4</ele>
        <time>2022-03-02T14:13:14Z</time>
      </trkpt>
      <trkpt lat="46.25037" lon="5.42388">
        <ele>325.4</ele>
        <time>2022-03-02T14:13:21Z</time>
      </trkpt>
      <trkpt lat="46.25053" lon="5.4239">
        <ele>325.4</ele>
        <time>2022-03-02T14:13:23Z</time>
      </trkpt>
      <trkpt lat="46.25109" lon="5.42396">
        <ele>325.6</ele>
        <time>2022-03-02T14:13:30Z</time>
      </trkpt>
      <trkpt lat="46.25117" lon="5.42397">
        <ele>325.6</ele>
        <time>2022-03-02T14:13:31Z</time>
      </trkpt>
      <trkpt lat="46.25177" lon="5.42404">
        <ele>325.8</ele>
        <time>2022-03-02T14:13:39Z</time>
      </trkpt>
      <trkpt lat="46.25186" lon="5.42406">
        <ele>325.8</ele>
        <time>2022-03-02T14:13:40Z</time>
      </trkpt>
      <trkpt lat="46.25246" lon="5.42414">
        <ele>326</ele>
        <time>2022-03-02T14:13:48Z</time>
      </trkpt>
      <trkpt lat="46.25253" lon="5.42415">
        <ele>326</ele>
        <time>2022-03-02T14:13:49Z</time>
      </trkpt>
      <trkpt lat="46.2531" lon="5.42425">
        <ele>326</ele>
        <time>2022-03-02T14:13:56Z</time>
      </trkpt>
      <trkpt lat="46.25332" lon="5.42429">
        <ele>326</ele>
        <time>2022-03-02T14:13:59Z</time>
      </trkpt>
      <trkpt lat="46.25387" lon="5.42438">
        <ele>325.8</ele>
        <time>2022-03-02T14:14:06Z</time>
      </trkpt>
      <trkpt lat="46.25411" lon="5.42442">
        <ele>325.6</ele>
        <time>2022-03-02T14:14:09Z</time>
      </trkpt>
      <trkpt lat="46.25467" lon="5.42451">
        <ele>325.4</ele>
        <time>2022-03-02T14:14:16Z</time>
      </trkpt>
      <trkpt lat="46.2549" lon="5.42455">
        <ele>325.4</ele>
        <time>2022-03-02T14:14:19Z</time>
      </trkpt>
      <trkpt lat="46.25547" lon="5.42464">
        <ele>325.8</ele>
        <time>2022-03-02T14:14:26Z</time>
      </trkpt>
      <trkpt lat="46.25569" lon="5.42468">
        <ele>325.6</ele>
        <time>2022-03-02T14:14:29Z</time>
      </trkpt>
      <trkpt lat="46.25625" lon="5.42476">
        <ele>325.6</ele>
        <time>2022-03-02T14:14:36Z</time>
      </trkpt>
      <trkpt lat="46.25656" lon="5.42482">
        <ele>325.6</ele>
        <time>2022-03-02T14:14:40Z</time>
      </trkpt>
      <trkpt lat="46.25713" lon="5.4249">
        <ele>326</ele>
        <time>2022-03-02T14:14:47Z</time>
      </trkpt>
      <trkpt lat="46.25743" lon="5.42495">
        <ele>326.2</ele>
        <time>2022-03-02T14:14:51Z</time>
      </trkpt>
      <trkpt lat="46.25804" lon="5.42505">
        <ele>326.4</ele>
        <time>2022-03-02T14:14:59Z</time>
      </trkpt>
      <trkpt lat="46.2586" lon="5.42514">
        <ele>326.4</ele>
        <time>2022-03-02T14:15:06Z</time>
      </trkpt>
      <trkpt lat="46.25881" lon="5.42517">
        <ele>326.4</ele>
        <time>2022-03-02T14:15:09Z</time>
      </trkpt>
      <trkpt lat="46.25896" lon="5.42519">
        <ele>326.6</ele>
        <time>2022-03-02T14:15:11Z</time>
      </trkpt>
      <trkpt lat="46.25951" lon="5.42528">
        <ele>326.8</ele>
        <time>2022-03-02T14:15:18Z</time>
      </trkpt>
      <trkpt lat="46.25957" lon="5.42529">
        <ele>327</ele>
        <time>2022-03-02T14:15:19Z</time>
      </trkpt>
      <trkpt lat="46.26015" lon="5.42538">
        <ele>326.8</ele>
        <time>2022-03-02T14:15:26Z</time>
      </trkpt>
      <trkpt lat="46.26029" lon="5.4254">
        <ele>326.8</ele>
        <time>2022-03-02T14:15:28Z</time>
      </trkpt>
      <trkpt lat="46.26083" lon="5.42549">
        <ele>327</ele>
        <time>2022-03-02T14:15:35Z</time>
      </trkpt>
      <trkpt lat="46.261" lon="5.42552">
        <ele>327</ele>
        <time>2022-03-02T14:15:37Z</time>
      </trkpt>
      <trkpt lat="46.26159" lon="5.4256">
        <ele>326.8</ele>
        <time>2022-03-02T14:15:45Z</time>
      </trkpt>
      <trkpt lat="46.26168" lon="5.42561">
        <ele>326.8</ele>
        <time>2022-03-02T14:15:46Z</time>
      </trkpt>
      <trkpt lat="46.2621" lon="5.42567">
        <ele>327.2</ele>
        <time>2022-03-02T14:15:52Z</time>
      </trkpt>
      <trkpt lat="46.2624" lon="5.42571">
        <ele>327.4</ele>
        <time>2022-03-02T14:15:56Z</time>
      </trkpt>
      <trkpt lat="46.26245" lon="5.42572">
        <ele>327.4</ele>
        <time>2022-03-02T14:15:57Z</time>
      </trkpt>
      <trkpt lat="46.26295" lon="5.42579">
        <ele>327.4</ele>
        <time>2022-03-02T14:16:04Z</time>
      </trkpt>
      <trkpt lat="46.26355" lon="5.42587">
        <ele>327.8</ele>
        <time>2022-03-02T14:16:12Z</time>
      </trkpt>
      <trkpt lat="46.26363" lon="5.42588">
        <ele>327.8</ele>
        <time>2022-03-02T14:16:13Z</time>
      </trkpt>
      <trkpt lat="46.26409" lon="5.42592">
        <ele>328.4</ele>
        <time>2022-03-02T14:16:20Z</time>
      </trkpt>
      <trkpt lat="46.26463" lon="5.42604">
        <ele>328.8</ele>
        <time>2022-03-02T14:16:27Z</time>
      </trkpt>
      <trkpt lat="46.2647" lon="5.42606">
        <ele>328.8</ele>
        <time>2022-03-02T14:16:28Z</time>
      </trkpt>
      <trkpt lat="46.26496" lon="5.42614">
        <ele>328.8</ele>
        <time>2022-03-02T14:16:32Z</time>
      </trkpt>
      <trkpt lat="46.26524" lon="5.4262">
        <ele>329</ele>
        <time>2022-03-02T14:16:36Z</time>
      </trkpt>
      <trkpt lat="46.26583" lon="5.42629">
        <ele>329.6</ele>
        <time>2022-03-02T14:16:44Z</time>
      </trkpt>
      <trkpt lat="46.26644" lon="5.42645">
        <ele>329.4</ele>
        <time>2022-03-02T14:16:52Z</time>
      </trkpt>
      <trkpt lat="46.26658" lon="5.42649">
        <ele>329.4</ele>
        <time>2022-03-02T14:16:54Z</time>
      </trkpt>
      <trkpt lat="46.26692" lon="5.42657">
        <ele>329.8</ele>
        <time>2022-03-02T14:16:59Z</time>
      </trkpt>
      <trkpt lat="46.26726" lon="5.42667">
        <ele>330.2</ele>
        <time>2022-03-02T14:17:04Z</time>
      </trkpt>
      <trkpt lat="46.26778" lon="5.42681">
        <ele>330.2</ele>
        <time>2022-03-02T14:17:11Z</time>
      </trkpt>
      <trkpt lat="46.2682" lon="5.42694">
        <ele>330</ele>
        <time>2022-03-02T14:17:17Z</time>
      </trkpt>
      <trkpt lat="46.26868" lon="5.42709">
        <ele>330.2</ele>
        <time>2022-03-02T14:17:24Z</time>
      </trkpt>
      <trkpt lat="46.269" lon="5.42723">
        <ele>331</ele>
        <time>2022-03-02T14:17:29Z</time>
      </trkpt>
      <trkpt lat="46.26919" lon="5.42731">
        <ele>331.6</ele>
        <time>2022-03-02T14:17:32Z</time>
      </trkpt>
      <trkpt lat="46.26955" lon="5.42744">
        <ele>332</ele>
        <time>2022-03-02T14:17:37Z</time>
      </trkpt>
      <trkpt lat="46.26975" lon="5.4275">
        <ele>332.4</ele>
        <time>2022-03-02T14:17:40Z</time>
      </trkpt>
      <trkpt lat="46.27031" lon="5.42763">
        <ele>332.8</ele>
        <time>2022-03-02T14:17:48Z</time>
      </trkpt>
      <trkpt lat="46.27058" lon="5.42767">
        <ele>333</ele>
        <time>2022-03-02T14:17:52Z</time>
      </trkpt>
      <trkpt lat="46.27065" lon="5.42767">
        <ele>333</ele>
        <time>2022-03-02T14:17:53Z</time>
      </trkpt>
      <trkpt lat="46.27077" lon="5.42766">
        <ele>333.6</ele>
        <time>2022-03-02T14:17:55Z</time>
      </trkpt>
      <trkpt lat="46.27107" lon="5.4277">
        <ele>334.6</ele>
        <time>2022-03-02T14:18:00Z</time>
      </trkpt>
      <trkpt lat="46.27138" lon="5.42775">
        <ele>335.6</ele>
        <time>2022-03-02T14:18:05Z</time>
      </trkpt>
      <trkpt lat="46.27151" lon="5.42779">
        <ele>335.8</ele>
        <time>2022-03-02T14:18:07Z</time>
      </trkpt>
      <trkpt lat="46.27176" lon="5.4279">
        <ele>336.6</ele>
        <time>2022-03-02T14:18:11Z</time>
      </trkpt>
      <trkpt lat="46.27188" lon="5.42796">
        <ele>336.8</ele>
        <time>2022-03-02T14:18:13Z</time>
      </trkpt>
      <trkpt lat="46.27239" lon="5.42827">
        <ele>336.8</ele>
        <time>2022-03-02T14:18:21Z</time>
      </trkpt>
      <trkpt lat="46.27253" lon="5.42836">
        <ele>336.6</ele>
        <time>2022-03-02T14:18:23Z</time>
      </trkpt>
      <trkpt lat="46.27297" lon="5.42866">
        <ele>336.2</ele>
        <time>2022-03-02T14:18:29Z</time>
      </trkpt>
      <trkpt lat="46.2733" lon="5.42884">
        <ele>335.6</ele>
        <time>2022-03-02T14:18:33Z</time>
      </trkpt>
      <trkpt lat="46.27348" lon="5.42891">
        <ele>335.2</ele>
        <time>2022-03-02T14:18:35Z</time>
      </trkpt>
      <trkpt lat="46.27374" lon="5.429">
        <ele>334.4</ele>
        <time>2022-03-02T14:18:38Z</time>
      </trkpt>
      <trkpt lat="46.27417" lon="5.42915">
        <ele>333.4</ele>
        <time>2022-03-02T14:18:43Z</time>
      </trkpt>
      <trkpt lat="46.27427" lon="5.42918">
        <ele>333.2</ele>
        <time>2022-03-02T14:18:44Z</time>
      </trkpt>
      <trkpt lat="46.27484" lon="5.42937">
        <ele>333</ele>
        <time>2022-03-02T14:18:51Z</time>
      </trkpt>
      <trkpt lat="46.275" lon="5.42942">
        <ele>333</ele>
        <time>2022-03-02T14:18:53Z</time>
      </trkpt>
      <trkpt lat="46.27555" lon="5.42959">
        <ele>333.6</ele>
        <time>2022-03-02T14:19:00Z</time>
      </trkpt>
      <trkpt lat="46.27563" lon="5.42962">
        <ele>333.6</ele>
        <time>2022-03-02T14:19:01Z</time>
      </trkpt>
      <trkpt lat="46.27619" lon="5.42981">
        <ele>333.6</ele>
        <time>2022-03-02T14:19:08Z</time>
      </trkpt>
      <trkpt lat="46.27627" lon="5.42983">
        <ele>333.4</ele>
        <time>2022-03-02T14:19:09Z</time>
      </trkpt>
      <trkpt lat="46.27682" lon="5.43002">
        <ele>333.6</ele>
        <time>2022-03-02T14:19:16Z</time>
      </trkpt>
      <trkpt lat="46.27714" lon="5.43013">
        <ele>333.8</ele>
        <time>2022-03-02T14:19:20Z</time>
      </trkpt>
      <trkpt lat="46.27761" lon="5.43034">
        <ele>333.8</ele>
        <time>2022-03-02T14:19:26Z</time>
      </trkpt>
      <trkpt lat="46.27787" lon="5.43043">
        <ele>333.6</ele>
        <time>2022-03-02T14:19:29Z</time>
      </trkpt>
      <trkpt lat="46.27831" lon="5.43049">
        <ele>332.8</ele>
        <time>2022-03-02T14:19:34Z</time>
      </trkpt>
      <trkpt lat="46.27849" lon="5.43047">
        <ele>332.4</ele>
        <time>2022-03-02T14:19:36Z</time>
      </trkpt>
      <trkpt lat="46.27884" lon="5.43049">
        <ele>332.2</ele>
        <time>2022-03-02T14:19:40Z</time>
      </trkpt>
      <trkpt lat="46.27943" lon="5.4306">
        <ele>332.2</ele>
        <time>2022-03-02T14:19:47Z</time>
      </trkpt>
      <trkpt lat="46.28" lon="5.43073">
        <ele>332.4</ele>
        <time>2022-03-02T14:19:54Z</time>
      </trkpt>
      <trkpt lat="46.28008" lon="5.43074">
        <ele>332.4</ele>
        <time>2022-03-02T14:19:55Z</time>
      </trkpt>
      <trkpt lat="46.28065" lon="5.43086">
        <ele>332.8</ele>
        <time>2022-03-02T14:20:02Z</time>
      </trkpt>
      <trkpt lat="46.28089" lon="5.43092">
        <ele>333</ele>
        <time>2022-03-02T14:20:05Z</time>
      </trkpt>
      <trkpt lat="46.28146" lon="5.43104">
        <ele>333.2</ele>
        <time>2022-03-02T14:20:12Z</time>
      </trkpt>
      <trkpt lat="46.28162" lon="5.43106">
        <ele>333.4</ele>
        <time>2022-03-02T14:20:14Z</time>
      </trkpt>
      <trkpt lat="46.2822" lon="5.43117">
        <ele>333.2</ele>
        <time>2022-03-02T14:20:21Z</time>
      </trkpt>
      <trkpt lat="46.28244" lon="5.43122">
        <ele>333.2</ele>
        <time>2022-03-02T14:20:24Z</time>
      </trkpt>
      <trkpt lat="46.28301" lon="5.43131">
        <ele>333.4</ele>
        <time>2022-03-02T14:20:31Z</time>
      </trkpt>
      <trkpt lat="46.28325" lon="5.43132">
        <ele>333.2</ele>
        <time>2022-03-02T14:20:34Z</time>
      </trkpt>
      <trkpt lat="46.28382" lon="5.43125">
        <ele>333.2</ele>
        <time>2022-03-02T14:20:41Z</time>
      </trkpt>
      <trkpt lat="46.28398" lon="5.43123">
        <ele>333.2</ele>
        <time>2022-03-02T14:20:43Z</time>
      </trkpt>
      <trkpt lat="46.2843" lon="5.43118">
        <ele>333.6</ele>
        <time>2022-03-02T14:20:47Z</time>
      </trkpt>
      <trkpt lat="46.28477" lon="5.43113">
        <ele>333.8</ele>
        <time>2022-03-02T14:20:53Z</time>
      </trkpt>
      <trkpt lat="46.28532" lon="5.43108">
        <ele>334.6</ele>
        <time>2022-03-02T14:21:00Z</time>
      </trkpt>
      <trkpt lat="46.28566" lon="5.43108">
        <ele>334.6</ele>
        <time>2022-03-02T14:21:04Z</time>
      </trkpt>
      <trkpt lat="46.2862" lon="5.43109">
        <ele>334.8</ele>
        <time>2022-03-02T14:21:11Z</time>
      </trkpt>
      <trkpt lat="46.28628" lon="5.4311">
        <ele>334.8</ele>
        <time>2022-03-02T14:21:12Z</time>
      </trkpt>
      <trkpt lat="46.28638" lon="5.43111">
        <ele>334.8</ele>
        <time>2022-03-02T14:21:13Z</time>
      </trkpt>
      <trkpt lat="46.28692" lon="5.43116">
        <ele>335</ele>
        <time>2022-03-02T14:21:20Z</time>
      </trkpt>
      <trkpt lat="46.28716" lon="5.43119">
        <ele>335</ele>
        <time>2022-03-02T14:21:23Z</time>
      </trkpt>
      <trkpt lat="46.28773" lon="5.43129">
        <ele>335</ele>
        <time>2022-03-02T14:21:30Z</time>
      </trkpt>
      <trkpt lat="46.28781" lon="5.43131">
        <ele>335</ele>
        <time>2022-03-02T14:21:31Z</time>
      </trkpt>
      <trkpt lat="46.28837" lon="5.43152">
        <ele>334.8</ele>
        <time>2022-03-02T14:21:38Z</time>
      </trkpt>
      <trkpt lat="46.28847" lon="5.43156">
        <ele>334.8</ele>
        <time>2022-03-02T14:21:39Z</time>
      </trkpt>
      <trkpt lat="46.28901" lon="5.43178">
        <ele>334.8</ele>
        <time>2022-03-02T14:21:46Z</time>
      </trkpt>
      <trkpt lat="46.28917" lon="5.43185">
        <ele>334.8</ele>
        <time>2022-03-02T14:21:48Z</time>
      </trkpt>
      <trkpt lat="46.28974" lon="5.43211">
        <ele>334.8</ele>
        <time>2022-03-02T14:21:55Z</time>
      </trkpt>
      <trkpt lat="46.28982" lon="5.43216">
        <ele>334.8</ele>
        <time>2022-03-02T14:21:56Z</time>
      </trkpt>
      <trkpt lat="46.29027" lon="5.43253">
        <ele>334.8</ele>
        <time>2022-03-02T14:22:02Z</time>
      </trkpt>
      <trkpt lat="46.29077" lon="5.43301">
        <ele>335.2</ele>
        <time>2022-03-02T14:22:09Z</time>
      </trkpt>
      <trkpt lat="46.29086" lon="5.43309">
        <ele>335.2</ele>
        <time>2022-03-02T14:22:10Z</time>
      </trkpt>
      <trkpt lat="46.29135" lon="5.4335">
        <ele>335.6</ele>
        <time>2022-03-02T14:22:17Z</time>
      </trkpt>
      <trkpt lat="46.29159" lon="5.43368">
        <ele>335.6</ele>
        <time>2022-03-02T14:22:20Z</time>
      </trkpt>
      <trkpt lat="46.29197" lon="5.43393">
        <ele>336</ele>
        <time>2022-03-02T14:22:25Z</time>
      </trkpt>
      <trkpt lat="46.2921" lon="5.434">
        <ele>336</ele>
        <time>2022-03-02T14:22:27Z</time>
      </trkpt>
      <trkpt lat="46.29266" lon="5.43422">
        <ele>336.2</ele>
        <time>2022-03-02T14:22:34Z</time>
      </trkpt>
      <trkpt lat="46.29324" lon="5.43447">
        <ele>336.2</ele>
        <time>2022-03-02T14:22:41Z</time>
      </trkpt>
      <trkpt lat="46.29373" lon="5.43477">
        <ele>336.4</ele>
        <time>2022-03-02T14:22:48Z</time>
      </trkpt>
      <trkpt lat="46.29422" lon="5.4351">
        <ele>336.6</ele>
        <time>2022-03-02T14:22:55Z</time>
      </trkpt>
      <trkpt lat="46.29445" lon="5.43523">
        <ele>337</ele>
        <time>2022-03-02T14:22:58Z</time>
      </trkpt>
      <trkpt lat="46.29466" lon="5.43534">
        <ele>338</ele>
        <time>2022-03-02T14:23:01Z</time>
      </trkpt>
      <trkpt lat="46.29517" lon="5.43562">
        <ele>339.2</ele>
        <time>2022-03-02T14:23:08Z</time>
      </trkpt>
      <trkpt lat="46.29532" lon="5.4357">
        <ele>339.4</ele>
        <time>2022-03-02T14:23:10Z</time>
      </trkpt>
      <trkpt lat="46.29539" lon="5.43574">
        <ele>339.4</ele>
        <time>2022-03-02T14:23:11Z</time>
      </trkpt>
      <trkpt lat="46.29594" lon="5.43603">
        <ele>339.6</ele>
        <time>2022-03-02T14:23:19Z</time>
      </trkpt>
      <trkpt lat="46.29603" lon="5.43608">
        <ele>339.8</ele>
        <time>2022-03-02T14:23:20Z</time>
      </trkpt>
      <trkpt lat="46.29658" lon="5.43636">
        <ele>340</ele>
        <time>2022-03-02T14:23:28Z</time>
      </trkpt>
      <trkpt lat="46.29671" lon="5.43642">
        <ele>340</ele>
        <time>2022-03-02T14:23:30Z</time>
      </trkpt>
      <trkpt lat="46.29722" lon="5.4367">
        <ele>340.2</ele>
        <time>2022-03-02T14:23:37Z</time>
      </trkpt>
      <trkpt lat="46.29742" lon="5.4368">
        <ele>340.2</ele>
        <time>2022-03-02T14:23:40Z</time>
      </trkpt>
      <trkpt lat="46.29795" lon="5.43707">
        <ele>340.2</ele>
        <time>2022-03-02T14:23:47Z</time>
      </trkpt>
      <trkpt lat="46.29802" lon="5.4371">
        <ele>340.2</ele>
        <time>2022-03-02T14:23:48Z</time>
      </trkpt>
      <trkpt lat="46.29852" lon="5.43732">
        <ele>340.4</ele>
        <time>2022-03-02T14:23:55Z</time>
      </trkpt>
      <trkpt lat="46.29874" lon="5.43742">
        <ele>340.6</ele>
        <time>2022-03-02T14:23:58Z</time>
      </trkpt>
      <trkpt lat="46.29933" lon="5.43766">
        <ele>340.8</ele>
        <time>2022-03-02T14:24:06Z</time>
      </trkpt>
      <trkpt lat="46.29939" lon="5.43768">
        <ele>340.8</ele>
        <time>2022-03-02T14:24:07Z</time>
      </trkpt>
      <trkpt lat="46.29991" lon="5.4379">
        <ele>341</ele>
        <time>2022-03-02T14:24:14Z</time>
      </trkpt>
      <trkpt lat="46.29997" lon="5.43793">
        <ele>341</ele>
        <time>2022-03-02T14:24:15Z</time>
      </trkpt>
      <trkpt lat="46.30049" lon="5.43819">
        <ele>341.4</ele>
        <time>2022-03-02T14:24:22Z</time>
      </trkpt>
      <trkpt lat="46.30056" lon="5.43822">
        <ele>341.4</ele>
        <time>2022-03-02T14:24:23Z</time>
      </trkpt>
      <trkpt lat="46.30112" lon="5.43853">
        <ele>341.6</ele>
        <time>2022-03-02T14:24:31Z</time>
      </trkpt>
      <trkpt lat="46.3012" lon="5.43857">
        <ele>341.6</ele>
        <time>2022-03-02T14:24:32Z</time>
      </trkpt>
      <trkpt lat="46.30176" lon="5.43887">
        <ele>342.2</ele>
        <time>2022-03-02T14:24:40Z</time>
      </trkpt>
      <trkpt lat="46.30198" lon="5.43898">
        <ele>342.4</ele>
        <time>2022-03-02T14:24:43Z</time>
      </trkpt>
      <trkpt lat="46.30234" lon="5.43917">
        <ele>342.8</ele>
        <time>2022-03-02T14:24:48Z</time>
      </trkpt>
      <trkpt lat="46.30261" lon="5.4393">
        <ele>342.8</ele>
        <time>2022-03-02T14:24:52Z</time>
      </trkpt>
      <trkpt lat="46.30313" lon="5.43955">
        <ele>342.8</ele>
        <time>2022-03-02T14:24:59Z</time>
      </trkpt>
      <trkpt lat="46.30337" lon="5.43967">
        <ele>342.6</ele>
        <time>2022-03-02T14:25:02Z</time>
      </trkpt>
      <trkpt lat="46.3039" lon="5.43992">
        <ele>342.8</ele>
        <time>2022-03-02T14:25:09Z</time>
      </trkpt>
      <trkpt lat="46.30411" lon="5.44001">
        <ele>342.8</ele>
        <time>2022-03-02T14:25:12Z</time>
      </trkpt>
      <trkpt lat="46.30469" lon="5.44017">
        <ele>342.8</ele>
        <time>2022-03-02T14:25:19Z</time>
      </trkpt>
      <trkpt lat="46.30476" lon="5.44019">
        <ele>342.8</ele>
        <time>2022-03-02T14:25:20Z</time>
      </trkpt>
      <trkpt lat="46.30525" lon="5.44032">
        <ele>342.8</ele>
        <time>2022-03-02T14:25:27Z</time>
      </trkpt>
      <trkpt lat="46.30568" lon="5.44038">
        <ele>344</ele>
        <time>2022-03-02T14:25:33Z</time>
      </trkpt>
      <trkpt lat="46.30603" lon="5.44043">
        <ele>345</ele>
        <time>2022-03-02T14:25:38Z</time>
      </trkpt>
      <trkpt lat="46.30622" lon="5.44044">
        <ele>345.4</ele>
        <time>2022-03-02T14:25:41Z</time>
      </trkpt>
      <trkpt lat="46.30644" lon="5.44047">
        <ele>346.2</ele>
        <time>2022-03-02T14:25:44Z</time>
      </trkpt>
      <trkpt lat="46.30671" lon="5.44052">
        <ele>346.8</ele>
        <time>2022-03-02T14:25:48Z</time>
      </trkpt>
      <trkpt lat="46.30679" lon="5.44053">
        <ele>347.2</ele>
        <time>2022-03-02T14:25:49Z</time>
      </trkpt>
      <trkpt lat="46.30686" lon="5.44052">
        <ele>347.4</ele>
        <time>2022-03-02T14:25:50Z</time>
      </trkpt>
      <trkpt lat="46.30709" lon="5.44048">
        <ele>347.4</ele>
        <time>2022-03-02T14:25:53Z</time>
      </trkpt>
      <trkpt lat="46.30749" lon="5.44034">
        <ele>347.2</ele>
        <time>2022-03-02T14:25:58Z</time>
      </trkpt>
      <trkpt lat="46.30795" lon="5.4402">
        <ele>346</ele>
        <time>2022-03-02T14:26:03Z</time>
      </trkpt>
      <trkpt lat="46.30805" lon="5.4402">
        <ele>345.8</ele>
        <time>2022-03-02T14:26:04Z</time>
      </trkpt>
      <trkpt lat="46.30845" lon="5.44027">
        <ele>344.6</ele>
        <time>2022-03-02T14:26:08Z</time>
      </trkpt>
      <trkpt lat="46.30854" lon="5.4403">
        <ele>344.2</ele>
        <time>2022-03-02T14:26:09Z</time>
      </trkpt>
      <trkpt lat="46.30872" lon="5.44035">
        <ele>343.4</ele>
        <time>2022-03-02T14:26:11Z</time>
      </trkpt>
      <trkpt lat="46.30915" lon="5.44054">
        <ele>342.6</ele>
        <time>2022-03-02T14:26:16Z</time>
      </trkpt>
      <trkpt lat="46.3093" lon="5.44065">
        <ele>342.4</ele>
        <time>2022-03-02T14:26:18Z</time>
      </trkpt>
      <trkpt lat="46.30966" lon="5.4409">
        <ele>342.2</ele>
        <time>2022-03-02T14:26:23Z</time>
      </trkpt>
      <trkpt lat="46.31006" lon="5.44118">
        <ele>342.6</ele>
        <time>2022-03-02T14:26:29Z</time>
      </trkpt>
      <trkpt lat="46.31029" lon="5.44134">
        <ele>343.6</ele>
        <time>2022-03-02T14:26:33Z</time>
      </trkpt>
      <trkpt lat="46.31046" lon="5.44149">
        <ele>344.2</ele>
        <time>2022-03-02T14:26:36Z</time>
      </trkpt>
      <trkpt lat="46.31073" lon="5.44173">
        <ele>344.8</ele>
        <time>2022-03-02T14:26:41Z</time>
      </trkpt>
      <trkpt lat="46.31099" lon="5.44195">
        <ele>345.4</ele>
        <time>2022-03-02T14:26:46Z</time>
      </trkpt>
      <trkpt lat="46.31119" lon="5.44213">
        <ele>345.8</ele>
        <time>2022-03-02T14:26:50Z</time>
      </trkpt>
      <trkpt lat="46.31155" lon="5.44245">
        <ele>346.2</ele>
        <time>2022-03-02T14:26:56Z</time>
      </trkpt>
      <trkpt lat="46.31196" lon="5.44277">
        <ele>346.2</ele>
        <time>2022-03-02T14:27:03Z</time>
      </trkpt>
      <trkpt lat="46.31232" lon="5.44292">
        <ele>347.2</ele>
        <time>2022-03-02T14:27:09Z</time>
      </trkpt>
      <trkpt lat="46.31239" lon="5.44295">
        <ele>347.4</ele>
        <time>2022-03-02T14:27:10Z</time>
      </trkpt>
      <trkpt lat="46.31293" lon="5.44315">
        <ele>348</ele>
        <time>2022-03-02T14:27:18Z</time>
      </trkpt>
      <trkpt lat="46.31314" lon="5.44324">
        <ele>348</ele>
        <time>2022-03-02T14:27:21Z</time>
      </trkpt>
      <trkpt lat="46.31341" lon="5.44335">
        <ele>348.2</ele>
        <time>2022-03-02T14:27:25Z</time>
      </trkpt>
      <trkpt lat="46.31365" lon="5.44345">
        <ele>348.2</ele>
        <time>2022-03-02T14:27:28Z</time>
      </trkpt>
      <trkpt lat="46.31422" lon="5.44368">
        <ele>348</ele>
        <time>2022-03-02T14:27:35Z</time>
      </trkpt>
      <trkpt lat="46.31431" lon="5.44372">
        <ele>348</ele>
        <time>2022-03-02T14:27:36Z</time>
      </trkpt>
      <trkpt lat="46.3149" lon="5.44395">
        <ele>347.2</ele>
        <time>2022-03-02T14:27:43Z</time>
      </trkpt>
      <trkpt lat="46.31499" lon="5.44399">
        <ele>347.2</ele>
        <time>2022-03-02T14:27:44Z</time>
      </trkpt>
      <trkpt lat="46.31508" lon="5.44402">
        <ele>347.2</ele>
        <time>2022-03-02T14:27:45Z</time>
      </trkpt>
      <trkpt lat="46.31565" lon="5.44418">
        <ele>346.6</ele>
        <time>2022-03-02T14:27:52Z</time>
      </trkpt>
      <trkpt lat="46.31573" lon="5.44419">
        <ele>346.6</ele>
        <time>2022-03-02T14:27:53Z</time>
      </trkpt>
      <trkpt lat="46.31632" lon="5.44425">
        <ele>346.2</ele>
        <time>2022-03-02T14:28:00Z</time>
      </trkpt>
      <trkpt lat="46.31658" lon="5.44428">
        <ele>346.2</ele>
        <time>2022-03-02T14:28:03Z</time>
      </trkpt>
      <trkpt lat="46.31716" lon="5.44428">
        <ele>346.4</ele>
        <time>2022-03-02T14:28:10Z</time>
      </trkpt>
      <trkpt lat="46.31773" lon="5.44409">
        <ele>346.6</ele>
        <time>2022-03-02T14:28:17Z</time>
      </trkpt>
      <trkpt lat="46.31828" lon="5.44386">
        <ele>347.4</ele>
        <time>2022-03-02T14:28:24Z</time>
      </trkpt>
      <trkpt lat="46.31835" lon="5.44383">
        <ele>347.4</ele>
        <time>2022-03-02T14:28:25Z</time>
      </trkpt>
      <trkpt lat="46.31892" lon="5.44359">
        <ele>348.2</ele>
        <time>2022-03-02T14:28:33Z</time>
      </trkpt>
      <trkpt lat="46.31906" lon="5.44353">
        <ele>348.4</ele>
        <time>2022-03-02T14:28:35Z</time>
      </trkpt>
      <trkpt lat="46.3196" lon="5.4433">
        <ele>349.6</ele>
        <time>2022-03-02T14:28:43Z</time>
      </trkpt>
      <trkpt lat="46.31966" lon="5.44327">
        <ele>349.8</ele>
        <time>2022-03-02T14:28:44Z</time>
      </trkpt>
      <trkpt lat="46.32006" lon="5.44311">
        <ele>350.6</ele>
        <time>2022-03-02T14:28:50Z</time>
      </trkpt>
      <trkpt lat="46.32037" lon="5.44296">
        <ele>351.4</ele>
        <time>2022-03-02T14:28:55Z</time>
      </trkpt>
      <trkpt lat="46.32063" lon="5.44285">
        <ele>351.8</ele>
        <time>2022-03-02T14:28:59Z</time>
      </trkpt>
      <trkpt lat="46.32109" lon="5.44264">
        <ele>352.2</ele>
        <time>2022-03-02T14:29:06Z</time>
      </trkpt>
      <trkpt lat="46.32158" lon="5.44233">
        <ele>352.6</ele>
        <time>2022-03-02T14:29:14Z</time>
      </trkpt>
      <trkpt lat="46.32169" lon="5.44223">
        <ele>352.8</ele>
        <time>2022-03-02T14:29:16Z</time>
      </trkpt>
      <trkpt lat="46.32195" lon="5.442">
        <ele>353.8</ele>
        <time>2022-03-02T14:29:21Z</time>
      </trkpt>
      <trkpt lat="46.322" lon="5.44195">
        <ele>353.8</ele>
        <time>2022-03-02T14:29:22Z</time>
      </trkpt>
      <trkpt lat="46.32237" lon="5.44163">
        <ele>354.8</ele>
        <time>2022-03-02T14:29:29Z</time>
      </trkpt>
      <trkpt lat="46.32242" lon="5.44158">
        <ele>355</ele>
        <time>2022-03-02T14:29:30Z</time>
      </trkpt>
      <trkpt lat="46.32277" lon="5.44126">
        <ele>355.8</ele>
        <time>2022-03-02T14:29:37Z</time>
      </trkpt>
      <trkpt lat="46.32282" lon="5.44121">
        <ele>356</ele>
        <time>2022-03-02T14:29:38Z</time>
      </trkpt>
      <trkpt lat="46.32306" lon="5.44101">
        <ele>357</ele>
        <time>2022-03-02T14:29:43Z</time>
      </trkpt>
      <trkpt lat="46.32321" lon="5.44089">
        <ele>357.4</ele>
        <time>2022-03-02T14:29:46Z</time>
      </trkpt>
      <trkpt lat="46.32335" lon="5.44076">
        <ele>358</ele>
        <time>2022-03-02T14:29:49Z</time>
      </trkpt>
      <trkpt lat="46.32355" lon="5.44058">
        <ele>359.2</ele>
        <time>2022-03-02T14:29:53Z</time>
      </trkpt>
      <trkpt lat="46.32373" lon="5.4404">
        <ele>360.2</ele>
        <time>2022-03-02T14:29:57Z</time>
      </trkpt>
      <trkpt lat="46.32378" lon="5.44035">
        <ele>360.6</ele>
        <time>2022-03-02T14:29:58Z</time>
      </trkpt>
      <trkpt lat="46.32397" lon="5.44019">
        <ele>361.4</ele>
        <time>2022-03-02T14:30:02Z</time>
      </trkpt>
      <trkpt lat="46.32422" lon="5.43995">
        <ele>362.4</ele>
        <time>2022-03-02T14:30:08Z</time>
      </trkpt>
      <trkpt lat="46.32446" lon="5.43973">
        <ele>363.8</ele>
        <time>2022-03-02T14:30:14Z</time>
      </trkpt>
      <trkpt lat="46.32458" lon="5.43961">
        <ele>364.6</ele>
        <time>2022-03-02T14:30:17Z</time>
      </trkpt>
      <trkpt lat="46.3247" lon="5.4395">
        <ele>365</ele>
        <time>2022-03-02T14:30:20Z</time>
      </trkpt>
      <trkpt lat="46.32473" lon="5.43947">
        <ele>365.2</ele>
        <time>2022-03-02T14:30:21Z</time>
      </trkpt>
      <trkpt lat="46.32483" lon="5.4394">
        <ele>365.8</ele>
        <time>2022-03-02T14:30:23Z</time>
      </trkpt>
      <trkpt lat="46.32491" lon="5.43933">
        <ele>366.4</ele>
        <time>2022-03-02T14:30:25Z</time>
      </trkpt>
      <trkpt lat="46.32519" lon="5.43907">
        <ele>367.4</ele>
        <time>2022-03-02T14:30:32Z</time>
      </trkpt>
      <trkpt lat="46.32522" lon="5.43904">
        <ele>367.4</ele>
        <time>2022-03-02T14:30:33Z</time>
      </trkpt>
      <trkpt lat="46.32558" lon="5.43875">
        <ele>368.4</ele>
        <time>2022-03-02T14:30:41Z</time>
      </trkpt>
      <trkpt lat="46.32562" lon="5.43872">
        <ele>368.6</ele>
        <time>2022-03-02T14:30:42Z</time>
      </trkpt>
      <trkpt lat="46.32601" lon="5.43847">
        <ele>369.6</ele>
        <time>2022-03-02T14:30:50Z</time>
      </trkpt>
      <trkpt lat="46.32639" lon="5.4383">
        <ele>369.6</ele>
        <time>2022-03-02T14:30:56Z</time>
      </trkpt>
      <trkpt lat="46.32698" lon="5.43815">
        <ele>368.8</ele>
        <time>2022-03-02T14:31:05Z</time>
      </trkpt>
      <trkpt lat="46.32704" lon="5.43813">
        <ele>368.4</ele>
        <time>2022-03-02T14:31:06Z</time>
      </trkpt>
      <trkpt lat="46.32753" lon="5.43802">
        <ele>368.2</ele>
        <time>2022-03-02T14:31:14Z</time>
      </trkpt>
      <trkpt lat="46.32802" lon="5.4379">
        <ele>368.6</ele>
        <time>2022-03-02T14:31:21Z</time>
      </trkpt>
      <trkpt lat="46.32822" lon="5.43783">
        <ele>368.8</ele>
        <time>2022-03-02T14:31:24Z</time>
      </trkpt>
      <trkpt lat="46.32834" lon="5.43781">
        <ele>369</ele>
        <time>2022-03-02T14:31:26Z</time>
      </trkpt>
      <trkpt lat="46.32872" lon="5.4377">
        <ele>369</ele>
        <time>2022-03-02T14:31:32Z</time>
      </trkpt>
      <trkpt lat="46.32897" lon="5.43763">
        <ele>369.2</ele>
        <time>2022-03-02T14:31:36Z</time>
      </trkpt>
      <trkpt lat="46.32909" lon="5.43762">
        <ele>369.4</ele>
        <time>2022-03-02T14:31:38Z</time>
      </trkpt>
      <trkpt lat="46.32916" lon="5.43759">
        <ele>369.4</ele>
        <time>2022-03-02T14:31:39Z</time>
      </trkpt>
      <trkpt lat="46.32923" lon="5.43757">
        <ele>369.6</ele>
        <time>2022-03-02T14:31:40Z</time>
      </trkpt>
      <trkpt lat="46.32963" lon="5.43748">
        <ele>370.2</ele>
        <time>2022-03-02T14:31:46Z</time>
      </trkpt>
      <trkpt lat="46.33015" lon="5.43738">
        <ele>370.2</ele>
        <time>2022-03-02T14:31:53Z</time>
      </trkpt>
      <trkpt lat="46.3307" lon="5.43733">
        <ele>369</ele>
        <time>2022-03-02T14:32:00Z</time>
      </trkpt>
      <trkpt lat="46.33095" lon="5.43732">
        <ele>368.6</ele>
        <time>2022-03-02T14:32:03Z</time>
      </trkpt>
      <trkpt lat="46.3313" lon="5.43732">
        <ele>368</ele>
        <time>2022-03-02T14:32:07Z</time>
      </trkpt>
      <trkpt lat="46.33155" lon="5.43731">
        <ele>367.6</ele>
        <time>2022-03-02T14:32:10Z</time>
      </trkpt>
      <trkpt lat="46.33198" lon="5.43728">
        <ele>366.4</ele>
        <time>2022-03-02T14:32:15Z</time>
      </trkpt>
      <trkpt lat="46.33236" lon="5.43726">
        <ele>365.2</ele>
        <time>2022-03-02T14:32:19Z</time>
      </trkpt>
      <trkpt lat="46.33265" lon="5.43723">
        <ele>364.2</ele>
        <time>2022-03-02T14:32:22Z</time>
      </trkpt>
      <trkpt lat="46.33275" lon="5.43722">
        <ele>364</ele>
        <time>2022-03-02T14:32:23Z</time>
      </trkpt>
      <trkpt lat="46.33307" lon="5.43718">
        <ele>362.8</ele>
        <time>2022-03-02T14:32:26Z</time>
      </trkpt>
      <trkpt lat="46.33347" lon="5.43713">
        <ele>361.2</ele>
        <time>2022-03-02T14:32:30Z</time>
      </trkpt>
      <trkpt lat="46.33378" lon="5.43708">
        <ele>360</ele>
        <time>2022-03-02T14:32:33Z</time>
      </trkpt>
      <trkpt lat="46.33406" lon="5.43702">
        <ele>358.8</ele>
        <time>2022-03-02T14:32:36Z</time>
      </trkpt>
      <trkpt lat="46.33437" lon="5.43695">
        <ele>358</ele>
        <time>2022-03-02T14:32:39Z</time>
      </trkpt>
      <trkpt lat="46.33447" lon="5.43693">
        <ele>357</ele>
        <time>2022-03-02T14:32:40Z</time>
      </trkpt>
      <trkpt lat="46.33478" lon="5.43687">
        <ele>356</ele>
        <time>2022-03-02T14:32:43Z</time>
      </trkpt>
      <trkpt lat="46.33509" lon="5.43684">
        <ele>354.6</ele>
        <time>2022-03-02T14:32:46Z</time>
      </trkpt>
      <trkpt lat="46.3353" lon="5.43682">
        <ele>353.6</ele>
        <time>2022-03-02T14:32:48Z</time>
      </trkpt>
      <trkpt lat="46.3354" lon="5.43682">
        <ele>353.2</ele>
        <time>2022-03-02T14:32:49Z</time>
      </trkpt>
      <trkpt lat="46.33571" lon="5.4368">
        <ele>352</ele>
        <time>2022-03-02T14:32:52Z</time>
      </trkpt>
      <trkpt lat="46.33591" lon="5.4368">
        <ele>350.8</ele>
        <time>2022-03-02T14:32:54Z</time>
      </trkpt>
      <trkpt lat="46.33621" lon="5.43682">
        <ele>350.2</ele>
        <time>2022-03-02T14:32:57Z</time>
      </trkpt>
      <trkpt lat="46.33636" lon="5.43686">
        <ele>349.8</ele>
        <time>2022-03-02T14:32:59Z</time>
      </trkpt>
      <trkpt lat="46.33642" lon="5.43688">
        <ele>349.4</ele>
        <time>2022-03-02T14:33:00Z</time>
      </trkpt>
      <trkpt lat="46.33652" lon="5.43692">
        <ele>348.8</ele>
        <time>2022-03-02T14:33:03Z</time>
      </trkpt>
      <trkpt lat="46.33658" lon="5.43696">
        <ele>347.8</ele>
        <time>2022-03-02T14:33:07Z</time>
      </trkpt>
      <trkpt lat="46.33659" lon="5.43697">
        <ele>347.6</ele>
        <time>2022-03-02T14:33:09Z</time>
      </trkpt>
      <trkpt lat="46.33659" lon="5.43697">
        <ele>347.6</ele>
        <time>2022-03-02T14:33:11Z</time>
      </trkpt>
      <trkpt lat="46.33666" lon="5.43698">
        <ele>347.8</ele>
        <time>2022-03-02T14:36:29Z</time>
      </trkpt>
      <trkpt lat="46.3368" lon="5.43704">
        <ele>348</ele>
        <time>2022-03-02T14:36:35Z</time>
      </trkpt>
      <trkpt lat="46.33696" lon="5.43713">
        <ele>348</ele>
        <time>2022-03-02T14:36:42Z</time>
      </trkpt>
      <trkpt lat="46.33724" lon="5.43732">
        <ele>348</ele>
        <time>2022-03-02T14:36:52Z</time>
      </trkpt>
      <trkpt lat="46.33741" lon="5.43746">
        <ele>348</ele>
        <time>2022-03-02T14:36:57Z</time>
      </trkpt>
      <trkpt lat="46.33772" lon="5.43775">
        <ele>348.2</ele>
        <time>2022-03-02T14:37:05Z</time>
      </trkpt>
      <trkpt lat="46.33804" lon="5.43807">
        <ele>348</ele>
        <time>2022-03-02T14:37:13Z</time>
      </trkpt>
      <trkpt lat="46.33839" lon="5.43842">
        <ele>348.2</ele>
        <time>2022-03-02T14:37:22Z</time>
      </trkpt>
      <trkpt lat="46.33865" lon="5.43869">
        <ele>348.2</ele>
        <time>2022-03-02T14:37:29Z</time>
      </trkpt>
      <trkpt lat="46.33869" lon="5.43873">
        <ele>348.2</ele>
        <time>2022-03-02T14:37:30Z</time>
      </trkpt>
      <trkpt lat="46.33903" lon="5.43906">
        <ele>348</ele>
        <time>2022-03-02T14:37:39Z</time>
      </trkpt>
      <trkpt lat="46.33912" lon="5.43912">
        <ele>347.8</ele>
        <time>2022-03-02T14:37:41Z</time>
      </trkpt>
      <trkpt lat="46.33921" lon="5.43917">
        <ele>348</ele>
        <time>2022-03-02T14:37:43Z</time>
      </trkpt>
      <trkpt lat="46.33931" lon="5.43923">
        <ele>347.8</ele>
        <time>2022-03-02T14:37:45Z</time>
      </trkpt>
      <trkpt lat="46.33957" lon="5.43931">
        <ele>347.8</ele>
        <time>2022-03-02T14:37:49Z</time>
      </trkpt>
      <trkpt lat="46.33962" lon="5.43931">
        <ele>347.8</ele>
        <time>2022-03-02T14:37:50Z</time>
      </trkpt>
      <trkpt lat="46.34008" lon="5.4393">
        <ele>348.8</ele>
        <time>2022-03-02T14:37:57Z</time>
      </trkpt>
      <trkpt lat="46.34029" lon="5.43928">
        <ele>349.4</ele>
        <time>2022-03-02T14:38:00Z</time>
      </trkpt>
      <trkpt lat="46.34063" lon="5.43925">
        <ele>349.8</ele>
        <time>2022-03-02T14:38:05Z</time>
      </trkpt>
      <trkpt lat="46.34119" lon="5.43919">
        <ele>350.2</ele>
        <time>2022-03-02T14:38:13Z</time>
      </trkpt>
      <trkpt lat="46.34133" lon="5.43918">
        <ele>350.2</ele>
        <time>2022-03-02T14:38:15Z</time>
      </trkpt>
      <trkpt lat="46.34145" lon="5.43916">
        <ele>350.6</ele>
        <time>2022-03-02T14:38:17Z</time>
      </trkpt>
      <trkpt lat="46.342" lon="5.4391">
        <ele>351</ele>
        <time>2022-03-02T14:38:25Z</time>
      </trkpt>
      <trkpt lat="46.34255" lon="5.43901">
        <ele>351</ele>
        <time>2022-03-02T14:38:33Z</time>
      </trkpt>
      <trkpt lat="46.34274" lon="5.43897">
        <ele>351</ele>
        <time>2022-03-02T14:38:36Z</time>
      </trkpt>
      <trkpt lat="46.34334" lon="5.43878">
        <ele>351.4</ele>
        <time>2022-03-02T14:38:45Z</time>
      </trkpt>
      <trkpt lat="46.34346" lon="5.43873">
        <ele>351.6</ele>
        <time>2022-03-02T14:38:47Z</time>
      </trkpt>
      <trkpt lat="46.34397" lon="5.43846">
        <ele>352</ele>
        <time>2022-03-02T14:38:55Z</time>
      </trkpt>
      <trkpt lat="46.34448" lon="5.43814">
        <ele>352.2</ele>
        <time>2022-03-02T14:39:03Z</time>
      </trkpt>
      <trkpt lat="46.34459" lon="5.43808">
        <ele>352.2</ele>
        <time>2022-03-02T14:39:05Z</time>
      </trkpt>
      <trkpt lat="46.34509" lon="5.43783">
        <ele>352.6</ele>
        <time>2022-03-02T14:39:13Z</time>
      </trkpt>
      <trkpt lat="46.34514" lon="5.43781">
        <ele>352.6</ele>
        <time>2022-03-02T14:39:14Z</time>
      </trkpt>
      <trkpt lat="46.34572" lon="5.43757">
        <ele>352.8</ele>
        <time>2022-03-02T14:39:23Z</time>
      </trkpt>
      <trkpt lat="46.34593" lon="5.4375">
        <ele>353</ele>
        <time>2022-03-02T14:39:26Z</time>
      </trkpt>
      <trkpt lat="46.34648" lon="5.43731">
        <ele>353.2</ele>
        <time>2022-03-02T14:39:34Z</time>
      </trkpt>
      <trkpt lat="46.34656" lon="5.4373">
        <ele>353.2</ele>
        <time>2022-03-02T14:39:35Z</time>
      </trkpt>
      <trkpt lat="46.34693" lon="5.43729">
        <ele>353.6</ele>
        <time>2022-03-02T14:39:40Z</time>
      </trkpt>
      <trkpt lat="46.34709" lon="5.43732">
        <ele>353.8</ele>
        <time>2022-03-02T14:39:42Z</time>
      </trkpt>
      <trkpt lat="46.34766" lon="5.43754">
        <ele>354</ele>
        <time>2022-03-02T14:39:50Z</time>
      </trkpt>
      <trkpt lat="46.34819" lon="5.43782">
        <ele>354.2</ele>
        <time>2022-03-02T14:39:57Z</time>
      </trkpt>
      <trkpt lat="46.34825" lon="5.43786">
        <ele>354.2</ele>
        <time>2022-03-02T14:39:58Z</time>
      </trkpt>
      <trkpt lat="46.34873" lon="5.43815">
        <ele>353.6</ele>
        <time>2022-03-02T14:40:04Z</time>
      </trkpt>
      <trkpt lat="46.34907" lon="5.43826">
        <ele>352.6</ele>
        <time>2022-03-02T14:40:08Z</time>
      </trkpt>
      <trkpt lat="46.34916" lon="5.43828">
        <ele>352.6</ele>
        <time>2022-03-02T14:40:09Z</time>
      </trkpt>
      <trkpt lat="46.34965" lon="5.43833">
        <ele>352</ele>
        <time>2022-03-02T14:40:15Z</time>
      </trkpt>
      <trkpt lat="46.35001" lon="5.43836">
        <ele>352</ele>
        <time>2022-03-02T14:40:20Z</time>
      </trkpt>
      <trkpt lat="46.35057" lon="5.43839">
        <ele>352.4</ele>
        <time>2022-03-02T14:40:28Z</time>
      </trkpt>
      <trkpt lat="46.35097" lon="5.4383">
        <ele>352.4</ele>
        <time>2022-03-02T14:40:34Z</time>
      </trkpt>
      <trkpt lat="46.35125" lon="5.43808">
        <ele>352.6</ele>
        <time>2022-03-02T14:40:39Z</time>
      </trkpt>
      <trkpt lat="46.35152" lon="5.43775">
        <ele>353.4</ele>
        <time>2022-03-02T14:40:45Z</time>
      </trkpt>
      <trkpt lat="46.35156" lon="5.4377">
        <ele>353.6</ele>
        <time>2022-03-02T14:40:46Z</time>
      </trkpt>
      <trkpt lat="46.35173" lon="5.43747">
        <ele>354.6</ele>
        <time>2022-03-02T14:40:51Z</time>
      </trkpt>
      <trkpt lat="46.35176" lon="5.43743">
        <ele>354.8</ele>
        <time>2022-03-02T14:40:52Z</time>
      </trkpt>
      <trkpt lat="46.35187" lon="5.43731">
        <ele>355.4</ele>
        <time>2022-03-02T14:40:55Z</time>
      </trkpt>
      <trkpt lat="46.35194" lon="5.43724">
        <ele>355.8</ele>
        <time>2022-03-02T14:40:57Z</time>
      </trkpt>
      <trkpt lat="46.35214" lon="5.43705">
        <ele>357</ele>
        <time>2022-03-02T14:41:02Z</time>
      </trkpt>
      <trkpt lat="46.35231" lon="5.43693">
        <ele>358</ele>
        <time>2022-03-02T14:41:06Z</time>
      </trkpt>
      <trkpt lat="46.35255" lon="5.43682">
        <ele>359.2</ele>
        <time>2022-03-02T14:41:11Z</time>
      </trkpt>
      <trkpt lat="46.35273" lon="5.43675">
        <ele>360</ele>
        <time>2022-03-02T14:41:15Z</time>
      </trkpt>
      <trkpt lat="46.35277" lon="5.43674">
        <ele>360.2</ele>
        <time>2022-03-02T14:41:16Z</time>
      </trkpt>
      <trkpt lat="46.35299" lon="5.43669">
        <ele>361.4</ele>
        <time>2022-03-02T14:41:21Z</time>
      </trkpt>
      <trkpt lat="46.35312" lon="5.43667">
        <ele>362</ele>
        <time>2022-03-02T14:41:24Z</time>
      </trkpt>
      <trkpt lat="46.35325" lon="5.43666">
        <ele>362.4</ele>
        <time>2022-03-02T14:41:27Z</time>
      </trkpt>
      <trkpt lat="46.35351" lon="5.43662">
        <ele>363.6</ele>
        <time>2022-03-02T14:41:33Z</time>
      </trkpt>
      <trkpt lat="46.35359" lon="5.43661">
        <ele>364</ele>
        <time>2022-03-02T14:41:35Z</time>
      </trkpt>
      <trkpt lat="46.35368" lon="5.4366">
        <ele>364.8</ele>
        <time>2022-03-02T14:41:37Z</time>
      </trkpt>
      <trkpt lat="46.35385" lon="5.43657">
        <ele>365.6</ele>
        <time>2022-03-02T14:41:41Z</time>
      </trkpt>
      <trkpt lat="46.35389" lon="5.43657">
        <ele>365.8</ele>
        <time>2022-03-02T14:41:42Z</time>
      </trkpt>
      <trkpt lat="46.35397" lon="5.43657">
        <ele>366.2</ele>
        <time>2022-03-02T14:41:44Z</time>
      </trkpt>
      <trkpt lat="46.35414" lon="5.43655">
        <ele>367.2</ele>
        <time>2022-03-02T14:41:48Z</time>
      </trkpt>
      <trkpt lat="46.35436" lon="5.43652">
        <ele>368.2</ele>
        <time>2022-03-02T14:41:53Z</time>
      </trkpt>
      <trkpt lat="46.3544" lon="5.43652">
        <ele>368.4</ele>
        <time>2022-03-02T14:41:54Z</time>
      </trkpt>
      <trkpt lat="46.35462" lon="5.43649">
        <ele>369.4</ele>
        <time>2022-03-02T14:41:59Z</time>
      </trkpt>
      <trkpt lat="46.35479" lon="5.43647">
        <ele>370.4</ele>
        <time>2022-03-02T14:42:03Z</time>
      </trkpt>
      <trkpt lat="46.35488" lon="5.43645">
        <ele>371.2</ele>
        <time>2022-03-02T14:42:05Z</time>
      </trkpt>
      <trkpt lat="46.35505" lon="5.43644">
        <ele>371.8</ele>
        <time>2022-03-02T14:42:09Z</time>
      </trkpt>
      <trkpt lat="46.35527" lon="5.43641">
        <ele>372.8</ele>
        <time>2022-03-02T14:42:14Z</time>
      </trkpt>
      <trkpt lat="46.35532" lon="5.43641">
        <ele>373</ele>
        <time>2022-03-02T14:42:15Z</time>
      </trkpt>
      <trkpt lat="46.35558" lon="5.43638">
        <ele>374</ele>
        <time>2022-03-02T14:42:21Z</time>
      </trkpt>
      <trkpt lat="46.35583" lon="5.43635">
        <ele>375</ele>
        <time>2022-03-02T14:42:26Z</time>
      </trkpt>
      <trkpt lat="46.35587" lon="5.43634">
        <ele>375.2</ele>
        <time>2022-03-02T14:42:27Z</time>
      </trkpt>
      <trkpt lat="46.35634" lon="5.43627">
        <ele>376.2</ele>
        <time>2022-03-02T14:42:36Z</time>
      </trkpt>
      <trkpt lat="46.35645" lon="5.43625">
        <ele>376.2</ele>
        <time>2022-03-02T14:42:38Z</time>
      </trkpt>
      <trkpt lat="46.35685" lon="5.4362">
        <ele>376.6</ele>
        <time>2022-03-02T14:42:45Z</time>
      </trkpt>
      <trkpt lat="46.3573" lon="5.43613">
        <ele>376.6</ele>
        <time>2022-03-02T14:42:52Z</time>
      </trkpt>
      <trkpt lat="46.35775" lon="5.43603">
        <ele>376.2</ele>
        <time>2022-03-02T14:42:58Z</time>
      </trkpt>
      <trkpt lat="46.35832" lon="5.4359">
        <ele>375.4</ele>
        <time>2022-03-02T14:43:05Z</time>
      </trkpt>
      <trkpt lat="46.3584" lon="5.43588">
        <ele>375.2</ele>
        <time>2022-03-02T14:43:06Z</time>
      </trkpt>
      <trkpt lat="46.35899" lon="5.43575">
        <ele>374.2</ele>
        <time>2022-03-02T14:43:13Z</time>
      </trkpt>
      <trkpt lat="46.35909" lon="5.43573">
        <ele>374.2</ele>
        <time>2022-03-02T14:43:14Z</time>
      </trkpt>
      <trkpt lat="46.35917" lon="5.43571">
        <ele>374</ele>
        <time>2022-03-02T14:43:15Z</time>
      </trkpt>
      <trkpt lat="46.35977" lon="5.43565">
        <ele>372.8</ele>
        <time>2022-03-02T14:43:22Z</time>
      </trkpt>
      <trkpt lat="46.36034" lon="5.43566">
        <ele>371.8</ele>
        <time>2022-03-02T14:43:28Z</time>
      </trkpt>
      <trkpt lat="46.36046" lon="5.43566">
        <ele>371.6</ele>
        <time>2022-03-02T14:43:29Z</time>
      </trkpt>
      <trkpt lat="46.36056" lon="5.43566">
        <ele>371.4</ele>
        <time>2022-03-02T14:43:30Z</time>
      </trkpt>
      <trkpt lat="46.36084" lon="5.43569">
        <ele>370.4</ele>
        <time>2022-03-02T14:43:33Z</time>
      </trkpt>
      <trkpt lat="46.36116" lon="5.43571">
        <ele>369.4</ele>
        <time>2022-03-02T14:43:36Z</time>
      </trkpt>
      <trkpt lat="46.36137" lon="5.43573">
        <ele>368.8</ele>
        <time>2022-03-02T14:43:38Z</time>
      </trkpt>
      <trkpt lat="46.36168" lon="5.43575">
        <ele>368.4</ele>
        <time>2022-03-02T14:43:41Z</time>
      </trkpt>
      <trkpt lat="46.36229" lon="5.4358">
        <ele>367.2</ele>
        <time>2022-03-02T14:43:47Z</time>
      </trkpt>
      <trkpt lat="46.36239" lon="5.43581">
        <ele>367.2</ele>
        <time>2022-03-02T14:43:48Z</time>
      </trkpt>
      <trkpt lat="46.36281" lon="5.4359">
        <ele>366.2</ele>
        <time>2022-03-02T14:43:52Z</time>
      </trkpt>
      <trkpt lat="46.36314" lon="5.43598">
        <ele>365.2</ele>
        <time>2022-03-02T14:43:55Z</time>
      </trkpt>
      <trkpt lat="46.36325" lon="5.43601">
        <ele>364.6</ele>
        <time>2022-03-02T14:43:56Z</time>
      </trkpt>
      <trkpt lat="46.36347" lon="5.43605">
        <ele>364</ele>
        <time>2022-03-02T14:43:58Z</time>
      </trkpt>
      <trkpt lat="46.36378" lon="5.43609">
        <ele>363</ele>
        <time>2022-03-02T14:44:01Z</time>
      </trkpt>
      <trkpt lat="46.36411" lon="5.43613">
        <ele>362</ele>
        <time>2022-03-02T14:44:04Z</time>
      </trkpt>
      <trkpt lat="46.36471" lon="5.43612">
        <ele>361</ele>
        <time>2022-03-02T14:44:10Z</time>
      </trkpt>
      <trkpt lat="46.36478" lon="5.43612">
        <ele>361</ele>
        <time>2022-03-02T14:44:11Z</time>
      </trkpt>
      <trkpt lat="46.36535" lon="5.43604">
        <ele>360.2</ele>
        <time>2022-03-02T14:44:17Z</time>
      </trkpt>
      <trkpt lat="46.36544" lon="5.43603">
        <ele>360.2</ele>
        <time>2022-03-02T14:44:18Z</time>
      </trkpt>
      <trkpt lat="46.36599" lon="5.43594">
        <ele>360.4</ele>
        <time>2022-03-02T14:44:24Z</time>
      </trkpt>
      <trkpt lat="46.36626" lon="5.4359">
        <ele>360.4</ele>
        <time>2022-03-02T14:44:27Z</time>
      </trkpt>
      <trkpt lat="46.36687" lon="5.43581">
        <ele>360.2</ele>
        <time>2022-03-02T14:44:34Z</time>
      </trkpt>
      <trkpt lat="46.367" lon="5.43579">
        <ele>360.6</ele>
        <time>2022-03-02T14:44:36Z</time>
      </trkpt>
      <trkpt lat="46.36744" lon="5.43573">
        <ele>361.2</ele>
        <time>2022-03-02T14:44:42Z</time>
      </trkpt>
      <trkpt lat="46.36788" lon="5.43569">
        <ele>362.2</ele>
        <time>2022-03-02T14:44:48Z</time>
      </trkpt>
      <trkpt lat="46.36802" lon="5.43569">
        <ele>362.6</ele>
        <time>2022-03-02T14:44:50Z</time>
      </trkpt>
      <trkpt lat="46.36829" lon="5.43569">
        <ele>363.2</ele>
        <time>2022-03-02T14:44:54Z</time>
      </trkpt>
      <trkpt lat="46.36863" lon="5.43571">
        <ele>363.4</ele>
        <time>2022-03-02T14:44:59Z</time>
      </trkpt>
      <trkpt lat="46.36908" lon="5.43573">
        <ele>364.6</ele>
        <time>2022-03-02T14:45:06Z</time>
      </trkpt>
      <trkpt lat="46.36914" lon="5.43573">
        <ele>364.8</ele>
        <time>2022-03-02T14:45:07Z</time>
      </trkpt>
      <trkpt lat="46.36927" lon="5.43574">
        <ele>365</ele>
        <time>2022-03-02T14:45:09Z</time>
      </trkpt>
      <trkpt lat="46.36944" lon="5.43575">
        <ele>365.4</ele>
        <time>2022-03-02T14:45:12Z</time>
      </trkpt>
      <trkpt lat="46.3695" lon="5.43575">
        <ele>365.8</ele>
        <time>2022-03-02T14:45:13Z</time>
      </trkpt>
      <trkpt lat="46.36982" lon="5.43579">
        <ele>366.6</ele>
        <time>2022-03-02T14:45:19Z</time>
      </trkpt>
      <trkpt lat="46.36987" lon="5.4358">
        <ele>367</ele>
        <time>2022-03-02T14:45:20Z</time>
      </trkpt>
      <trkpt lat="46.37018" lon="5.43588">
        <ele>368</ele>
        <time>2022-03-02T14:45:26Z</time>
      </trkpt>
      <trkpt lat="46.37038" lon="5.43595">
        <ele>368.8</ele>
        <time>2022-03-02T14:45:30Z</time>
      </trkpt>
      <trkpt lat="46.37043" lon="5.43597">
        <ele>369.2</ele>
        <time>2022-03-02T14:45:31Z</time>
      </trkpt>
      <trkpt lat="46.37074" lon="5.43611">
        <ele>370.2</ele>
        <time>2022-03-02T14:45:37Z</time>
      </trkpt>
      <trkpt lat="46.37079" lon="5.43613">
        <ele>370.4</ele>
        <time>2022-03-02T14:45:38Z</time>
      </trkpt>
      <trkpt lat="46.37128" lon="5.43635">
        <ele>371.4</ele>
        <time>2022-03-02T14:45:47Z</time>
      </trkpt>
      <trkpt lat="46.37134" lon="5.43638">
        <ele>371.6</ele>
        <time>2022-03-02T14:45:48Z</time>
      </trkpt>
      <trkpt lat="46.37166" lon="5.43652">
        <ele>372.2</ele>
        <time>2022-03-02T14:45:54Z</time>
      </trkpt>
      <trkpt lat="46.37182" lon="5.43658">
        <ele>372.4</ele>
        <time>2022-03-02T14:45:57Z</time>
      </trkpt>
      <trkpt lat="46.37208" lon="5.4367">
        <ele>373</ele>
        <time>2022-03-02T14:46:02Z</time>
      </trkpt>
      <trkpt lat="46.3723" lon="5.43681">
        <ele>373.6</ele>
        <time>2022-03-02T14:46:06Z</time>
      </trkpt>
      <trkpt lat="46.37262" lon="5.437">
        <ele>374.4</ele>
        <time>2022-03-02T14:46:12Z</time>
      </trkpt>
      <trkpt lat="46.37266" lon="5.43703">
        <ele>374.6</ele>
        <time>2022-03-02T14:46:13Z</time>
      </trkpt>
      <trkpt lat="46.37304" lon="5.43733">
        <ele>375.4</ele>
        <time>2022-03-02T14:46:20Z</time>
      </trkpt>
      <trkpt lat="46.37347" lon="5.43764">
        <ele>375.4</ele>
        <time>2022-03-02T14:46:27Z</time>
      </trkpt>
      <trkpt lat="46.37389" lon="5.43798">
        <ele>374.6</ele>
        <time>2022-03-02T14:46:33Z</time>
      </trkpt>
      <trkpt lat="46.37418" lon="5.43826">
        <ele>373.6</ele>
        <time>2022-03-02T14:46:37Z</time>
      </trkpt>
      <trkpt lat="46.37435" lon="5.43843">
        <ele>373</ele>
        <time>2022-03-02T14:46:39Z</time>
      </trkpt>
      <trkpt lat="46.37453" lon="5.43857">
        <ele>372.4</ele>
        <time>2022-03-02T14:46:41Z</time>
      </trkpt>
      <trkpt lat="46.3748" lon="5.43875">
        <ele>371</ele>
        <time>2022-03-02T14:46:44Z</time>
      </trkpt>
      <trkpt lat="46.37489" lon="5.4388">
        <ele>370.4</ele>
        <time>2022-03-02T14:46:45Z</time>
      </trkpt>
      <trkpt lat="46.37508" lon="5.43889">
        <ele>369.8</ele>
        <time>2022-03-02T14:46:47Z</time>
      </trkpt>
      <trkpt lat="46.37547" lon="5.43905">
        <ele>368.4</ele>
        <time>2022-03-02T14:46:51Z</time>
      </trkpt>
      <trkpt lat="46.37556" lon="5.43909">
        <ele>368</ele>
        <time>2022-03-02T14:46:52Z</time>
      </trkpt>
      <trkpt lat="46.37595" lon="5.43927">
        <ele>367.4</ele>
        <time>2022-03-02T14:46:56Z</time>
      </trkpt>
      <trkpt lat="46.37634" lon="5.43948">
        <ele>366.8</ele>
        <time>2022-03-02T14:47:00Z</time>
      </trkpt>
      <trkpt lat="46.37664" lon="5.43963">
        <ele>366.2</ele>
        <time>2022-03-02T14:47:03Z</time>
      </trkpt>
      <trkpt lat="46.37711" lon="5.43989">
        <ele>365</ele>
        <time>2022-03-02T14:47:08Z</time>
      </trkpt>
      <trkpt lat="46.37764" lon="5.44021">
        <ele>364.2</ele>
        <time>2022-03-02T14:47:14Z</time>
      </trkpt>
      <trkpt lat="46.37773" lon="5.44027">
        <ele>364.2</ele>
        <time>2022-03-02T14:47:15Z</time>
      </trkpt>
      <trkpt lat="46.37782" lon="5.44033">
        <ele>364</ele>
        <time>2022-03-02T14:47:16Z</time>
      </trkpt>
      <trkpt lat="46.37831" lon="5.44068">
        <ele>363.8</ele>
        <time>2022-03-02T14:47:22Z</time>
      </trkpt>
      <trkpt lat="46.37839" lon="5.44074">
        <ele>363.8</ele>
        <time>2022-03-02T14:47:23Z</time>
      </trkpt>
      <trkpt lat="46.37886" lon="5.44114">
        <ele>363.6</ele>
        <time>2022-03-02T14:47:29Z</time>
      </trkpt>
      <trkpt lat="46.37909" lon="5.44133">
        <ele>363.6</ele>
        <time>2022-03-02T14:47:32Z</time>
      </trkpt>
      <trkpt lat="46.37961" lon="5.44179">
        <ele>363.8</ele>
        <time>2022-03-02T14:47:39Z</time>
      </trkpt>
      <trkpt lat="46.37984" lon="5.44198">
        <ele>363.8</ele>
        <time>2022-03-02T14:47:42Z</time>
      </trkpt>
      <trkpt lat="46.38021" lon="5.44232">
        <ele>363.6</ele>
        <time>2022-03-02T14:47:47Z</time>
      </trkpt>
      <trkpt lat="46.38059" lon="5.44267">
        <ele>363.4</ele>
        <time>2022-03-02T14:47:52Z</time>
      </trkpt>
      <trkpt lat="46.38112" lon="5.44315">
        <ele>363.4</ele>
        <time>2022-03-02T14:47:59Z</time>
      </trkpt>
      <trkpt lat="46.38132" lon="5.44334">
        <ele>363.2</ele>
        <time>2022-03-02T14:48:02Z</time>
      </trkpt>
      <trkpt lat="46.38141" lon="5.44342">
        <ele>363.2</ele>
        <time>2022-03-02T14:48:03Z</time>
      </trkpt>
      <trkpt lat="46.38191" lon="5.44387">
        <ele>363.4</ele>
        <time>2022-03-02T14:48:10Z</time>
      </trkpt>
      <trkpt lat="46.38198" lon="5.44392">
        <ele>363.4</ele>
        <time>2022-03-02T14:48:11Z</time>
      </trkpt>
      <trkpt lat="46.38244" lon="5.44435">
        <ele>364</ele>
        <time>2022-03-02T14:48:18Z</time>
      </trkpt>
      <trkpt lat="46.3825" lon="5.44441">
        <ele>364</ele>
        <time>2022-03-02T14:48:19Z</time>
      </trkpt>
      <trkpt lat="46.38262" lon="5.44452">
        <ele>364.2</ele>
        <time>2022-03-02T14:48:21Z</time>
      </trkpt>
      <trkpt lat="46.38308" lon="5.44495">
        <ele>365</ele>
        <time>2022-03-02T14:48:28Z</time>
      </trkpt>
      <trkpt lat="46.3832" lon="5.44506">
        <ele>365.2</ele>
        <time>2022-03-02T14:48:30Z</time>
      </trkpt>
      <trkpt lat="46.38333" lon="5.44518">
        <ele>365.2</ele>
        <time>2022-03-02T14:48:32Z</time>
      </trkpt>
      <trkpt lat="46.38383" lon="5.44565">
        <ele>365.6</ele>
        <time>2022-03-02T14:48:40Z</time>
      </trkpt>
      <trkpt lat="46.38391" lon="5.44572">
        <ele>365.8</ele>
        <time>2022-03-02T14:48:41Z</time>
      </trkpt>
      <trkpt lat="46.38427" lon="5.44608">
        <ele>366.2</ele>
        <time>2022-03-02T14:48:47Z</time>
      </trkpt>
      <trkpt lat="46.38457" lon="5.44636">
        <ele>367</ele>
        <time>2022-03-02T14:48:52Z</time>
      </trkpt>
      <trkpt lat="46.38485" lon="5.44661">
        <ele>367.6</ele>
        <time>2022-03-02T14:48:57Z</time>
      </trkpt>
      <trkpt lat="46.38506" lon="5.4468">
        <ele>368.2</ele>
        <time>2022-03-02T14:49:01Z</time>
      </trkpt>
      <trkpt lat="46.38522" lon="5.44697">
        <ele>368.6</ele>
        <time>2022-03-02T14:49:04Z</time>
      </trkpt>
      <trkpt lat="46.38543" lon="5.44723">
        <ele>369.2</ele>
        <time>2022-03-02T14:49:08Z</time>
      </trkpt>
      <trkpt lat="46.38585" lon="5.44781">
        <ele>369.6</ele>
        <time>2022-03-02T14:49:16Z</time>
      </trkpt>
      <trkpt lat="46.38591" lon="5.44788">
        <ele>369.6</ele>
        <time>2022-03-02T14:49:17Z</time>
      </trkpt>
      <trkpt lat="46.3863" lon="5.44838">
        <ele>369.6</ele>
        <time>2022-03-02T14:49:24Z</time>
      </trkpt>
      <trkpt lat="46.38635" lon="5.44845">
        <ele>369.6</ele>
        <time>2022-03-02T14:49:25Z</time>
      </trkpt>
      <trkpt lat="46.38672" lon="5.44893">
        <ele>370.2</ele>
        <time>2022-03-02T14:49:32Z</time>
      </trkpt>
      <trkpt lat="46.38717" lon="5.44951">
        <ele>370.8</ele>
        <time>2022-03-02T14:49:40Z</time>
      </trkpt>
      <trkpt lat="46.38761" lon="5.45009">
        <ele>370.6</ele>
        <time>2022-03-02T14:49:48Z</time>
      </trkpt>
      <trkpt lat="46.38766" lon="5.45016">
        <ele>370.6</ele>
        <time>2022-03-02T14:49:49Z</time>
      </trkpt>
      <trkpt lat="46.38807" lon="5.45069">
        <ele>371</ele>
        <time>2022-03-02T14:49:57Z</time>
      </trkpt>
      <trkpt lat="46.38834" lon="5.45103">
        <ele>372</ele>
        <time>2022-03-02T14:50:03Z</time>
      </trkpt>
      <trkpt lat="46.38862" lon="5.45135">
        <ele>373.2</ele>
        <time>2022-03-02T14:50:10Z</time>
      </trkpt>
      <trkpt lat="46.38875" lon="5.45149">
        <ele>374.2</ele>
        <time>2022-03-02T14:50:13Z</time>
      </trkpt>
      <trkpt lat="46.3889" lon="5.45165">
        <ele>375.2</ele>
        <time>2022-03-02T14:50:17Z</time>
      </trkpt>
      <trkpt lat="46.38894" lon="5.45168">
        <ele>375.4</ele>
        <time>2022-03-02T14:50:18Z</time>
      </trkpt>
      <trkpt lat="46.38917" lon="5.45186">
        <ele>376.6</ele>
        <time>2022-03-02T14:50:23Z</time>
      </trkpt>
      <trkpt lat="46.38926" lon="5.4519">
        <ele>377</ele>
        <time>2022-03-02T14:50:25Z</time>
      </trkpt>
      <trkpt lat="46.3894" lon="5.45197">
        <ele>377.8</ele>
        <time>2022-03-02T14:50:28Z</time>
      </trkpt>
      <trkpt lat="46.38953" lon="5.45202">
        <ele>379</ele>
        <time>2022-03-02T14:50:31Z</time>
      </trkpt>
      <trkpt lat="46.3897" lon="5.45209">
        <ele>379.8</ele>
        <time>2022-03-02T14:50:35Z</time>
      </trkpt>
      <trkpt lat="46.38974" lon="5.45211">
        <ele>380</ele>
        <time>2022-03-02T14:50:36Z</time>
      </trkpt>
      <trkpt lat="46.38995" lon="5.45219">
        <ele>381.2</ele>
        <time>2022-03-02T14:50:41Z</time>
      </trkpt>
      <trkpt lat="46.39011" lon="5.45225">
        <ele>382</ele>
        <time>2022-03-02T14:50:45Z</time>
      </trkpt>
      <trkpt lat="46.39015" lon="5.45226">
        <ele>382.2</ele>
        <time>2022-03-02T14:50:46Z</time>
      </trkpt>
      <trkpt lat="46.39035" lon="5.45234">
        <ele>383.4</ele>
        <time>2022-03-02T14:50:51Z</time>
      </trkpt>
      <trkpt lat="46.39043" lon="5.45237">
        <ele>383.8</ele>
        <time>2022-03-02T14:50:53Z</time>
      </trkpt>
      <trkpt lat="46.39059" lon="5.45243">
        <ele>384.6</ele>
        <time>2022-03-02T14:50:57Z</time>
      </trkpt>
      <trkpt lat="46.39079" lon="5.45251">
        <ele>385.6</ele>
        <time>2022-03-02T14:51:02Z</time>
      </trkpt>
      <trkpt lat="46.39082" lon="5.45252">
        <ele>385.8</ele>
        <time>2022-03-02T14:51:03Z</time>
      </trkpt>
      <trkpt lat="46.39103" lon="5.4526">
        <ele>386.6</ele>
        <time>2022-03-02T14:51:08Z</time>
      </trkpt>
      <trkpt lat="46.39119" lon="5.45265">
        <ele>387.2</ele>
        <time>2022-03-02T14:51:12Z</time>
      </trkpt>
      <trkpt lat="46.39134" lon="5.4527">
        <ele>387.8</ele>
        <time>2022-03-02T14:51:16Z</time>
      </trkpt>
      <trkpt lat="46.3915" lon="5.45273">
        <ele>388.8</ele>
        <time>2022-03-02T14:51:20Z</time>
      </trkpt>
      <trkpt lat="46.39154" lon="5.45274">
        <ele>389</ele>
        <time>2022-03-02T14:51:21Z</time>
      </trkpt>
      <trkpt lat="46.39178" lon="5.45278">
        <ele>390</ele>
        <time>2022-03-02T14:51:27Z</time>
      </trkpt>
      <trkpt lat="46.39199" lon="5.4528">
        <ele>391</ele>
        <time>2022-03-02T14:51:32Z</time>
      </trkpt>
      <trkpt lat="46.39203" lon="5.45281">
        <ele>391.2</ele>
        <time>2022-03-02T14:51:33Z</time>
      </trkpt>
      <trkpt lat="46.39214" lon="5.45284">
        <ele>391.8</ele>
        <time>2022-03-02T14:51:36Z</time>
      </trkpt>
      <trkpt lat="46.39226" lon="5.45284">
        <ele>392.2</ele>
        <time>2022-03-02T14:51:39Z</time>
      </trkpt>
      <trkpt lat="46.39243" lon="5.45285">
        <ele>393</ele>
        <time>2022-03-02T14:51:43Z</time>
      </trkpt>
      <trkpt lat="46.39247" lon="5.45287">
        <ele>393.4</ele>
        <time>2022-03-02T14:51:44Z</time>
      </trkpt>
      <trkpt lat="46.39255" lon="5.4529">
        <ele>393.8</ele>
        <time>2022-03-02T14:51:46Z</time>
      </trkpt>
      <trkpt lat="46.39272" lon="5.45293">
        <ele>394.6</ele>
        <time>2022-03-02T14:51:50Z</time>
      </trkpt>
      <trkpt lat="46.39281" lon="5.45295">
        <ele>395</ele>
        <time>2022-03-02T14:51:52Z</time>
      </trkpt>
      <trkpt lat="46.39285" lon="5.45295">
        <ele>395.2</ele>
        <time>2022-03-02T14:51:53Z</time>
      </trkpt>
      <trkpt lat="46.39294" lon="5.45295">
        <ele>395.8</ele>
        <time>2022-03-02T14:51:55Z</time>
      </trkpt>
      <trkpt lat="46.39325" lon="5.45291">
        <ele>396.4</ele>
        <time>2022-03-02T14:52:01Z</time>
      </trkpt>
      <trkpt lat="46.39331" lon="5.45289">
        <ele>396.4</ele>
        <time>2022-03-02T14:52:02Z</time>
      </trkpt>
      <trkpt lat="46.39351" lon="5.4528">
        <ele>396.2</ele>
        <time>2022-03-02T14:52:05Z</time>
      </trkpt>
      <trkpt lat="46.39388" lon="5.4526">
        <ele>395</ele>
        <time>2022-03-02T14:52:10Z</time>
      </trkpt>
      <trkpt lat="46.39395" lon="5.45254">
        <ele>394.8</ele>
        <time>2022-03-02T14:52:11Z</time>
      </trkpt>
      <trkpt lat="46.39411" lon="5.4524">
        <ele>394</ele>
        <time>2022-03-02T14:52:13Z</time>
      </trkpt>
      <trkpt lat="46.39419" lon="5.45236">
        <ele>393.2</ele>
        <time>2022-03-02T14:52:14Z</time>
      </trkpt>
      <trkpt lat="46.3944" lon="5.45226">
        <ele>392.2</ele>
        <time>2022-03-02T14:52:16Z</time>
      </trkpt>
      <trkpt lat="46.39471" lon="5.45211">
        <ele>391</ele>
        <time>2022-03-02T14:52:19Z</time>
      </trkpt>
      <trkpt lat="46.39494" lon="5.45201">
        <ele>389.8</ele>
        <time>2022-03-02T14:52:21Z</time>
      </trkpt>
      <trkpt lat="46.39506" lon="5.45196">
        <ele>388.2</ele>
        <time>2022-03-02T14:52:22Z</time>
      </trkpt>
      <trkpt lat="46.39517" lon="5.45191">
        <ele>386.4</ele>
        <time>2022-03-02T14:52:23Z</time>
      </trkpt>
      <trkpt lat="46.39528" lon="5.45185">
        <ele>386</ele>
        <time>2022-03-02T14:52:24Z</time>
      </trkpt>
      <trkpt lat="46.39539" lon="5.45179">
        <ele>384.6</ele>
        <time>2022-03-02T14:52:25Z</time>
      </trkpt>
      <trkpt lat="46.39561" lon="5.45169">
        <ele>383.4</ele>
        <time>2022-03-02T14:52:27Z</time>
      </trkpt>
      <trkpt lat="46.39571" lon="5.45166">
        <ele>383</ele>
        <time>2022-03-02T14:52:28Z</time>
      </trkpt>
      <trkpt lat="46.3958" lon="5.45166">
        <ele>380.6</ele>
        <time>2022-03-02T14:52:29Z</time>
      </trkpt>
      <trkpt lat="46.39592" lon="5.45166">
        <ele>378.8</ele>
        <time>2022-03-02T14:52:30Z</time>
      </trkpt>
      <trkpt lat="46.39602" lon="5.45167">
        <ele>378.2</ele>
        <time>2022-03-02T14:52:31Z</time>
      </trkpt>
      <trkpt lat="46.39611" lon="5.45169">
        <ele>376.8</ele>
        <time>2022-03-02T14:52:32Z</time>
      </trkpt>
      <trkpt lat="46.39626" lon="5.4517">
        <ele>374.8</ele>
        <time>2022-03-02T14:52:34Z</time>
      </trkpt>
      <trkpt lat="46.39633" lon="5.45167">
        <ele>374</ele>
        <time>2022-03-02T14:52:35Z</time>
      </trkpt>
      <trkpt lat="46.39639" lon="5.45162">
        <ele>372</ele>
        <time>2022-03-02T14:52:36Z</time>
      </trkpt>
      <trkpt lat="46.39648" lon="5.45146">
        <ele>369.8</ele>
        <time>2022-03-02T14:52:38Z</time>
      </trkpt>
      <trkpt lat="46.39656" lon="5.45127">
        <ele>368.4</ele>
        <time>2022-03-02T14:52:40Z</time>
      </trkpt>
      <trkpt lat="46.39662" lon="5.45108">
        <ele>367.4</ele>
        <time>2022-03-02T14:52:42Z</time>
      </trkpt>
      <trkpt lat="46.39672" lon="5.45079">
        <ele>366.8</ele>
        <time>2022-03-02T14:52:45Z</time>
      </trkpt>
      <trkpt lat="46.39693" lon="5.45015">
        <ele>367</ele>
        <time>2022-03-02T14:52:52Z</time>
      </trkpt>
      <trkpt lat="46.39713" lon="5.44958">
        <ele>367</ele>
        <time>2022-03-02T14:52:58Z</time>
      </trkpt>
      <trkpt lat="46.39717" lon="5.4495">
        <ele>367.2</ele>
        <time>2022-03-02T14:52:59Z</time>
      </trkpt>
      <trkpt lat="46.39745" lon="5.44908">
        <ele>367.2</ele>
        <time>2022-03-02T14:53:05Z</time>
      </trkpt>
      <trkpt lat="46.39771" lon="5.44865">
        <ele>367.6</ele>
        <time>2022-03-02T14:53:12Z</time>
      </trkpt>
      <trkpt lat="46.39796" lon="5.44825">
        <ele>368.8</ele>
        <time>2022-03-02T14:53:19Z</time>
      </trkpt>
      <trkpt lat="46.39813" lon="5.44797">
        <ele>369.8</ele>
        <time>2022-03-02T14:53:24Z</time>
      </trkpt>
      <trkpt lat="46.39829" lon="5.44772">
        <ele>370.6</ele>
        <time>2022-03-02T14:53:28Z</time>
      </trkpt>
      <trkpt lat="46.3986" lon="5.44719">
        <ele>370.8</ele>
        <time>2022-03-02T14:53:36Z</time>
      </trkpt>
      <trkpt lat="46.39888" lon="5.44673">
        <ele>370.8</ele>
        <time>2022-03-02T14:53:43Z</time>
      </trkpt>
      <trkpt lat="46.39899" lon="5.44653">
        <ele>371.2</ele>
        <time>2022-03-02T14:53:46Z</time>
      </trkpt>
      <trkpt lat="46.3992" lon="5.44624">
        <ele>371.8</ele>
        <time>2022-03-02T14:53:51Z</time>
      </trkpt>
      <trkpt lat="46.39929" lon="5.44614">
        <ele>371.8</ele>
        <time>2022-03-02T14:53:53Z</time>
      </trkpt>
      <trkpt lat="46.3996" lon="5.44592">
        <ele>372.2</ele>
        <time>2022-03-02T14:53:59Z</time>
      </trkpt>
      <trkpt lat="46.40008" lon="5.44563">
        <ele>372.8</ele>
        <time>2022-03-02T14:54:08Z</time>
      </trkpt>
      <trkpt lat="46.40019" lon="5.44556">
        <ele>372.8</ele>
        <time>2022-03-02T14:54:10Z</time>
      </trkpt>
      <trkpt lat="46.40073" lon="5.44524">
        <ele>372.8</ele>
        <time>2022-03-02T14:54:19Z</time>
      </trkpt>
      <trkpt lat="46.40116" lon="5.4449">
        <ele>372.6</ele>
        <time>2022-03-02T14:54:26Z</time>
      </trkpt>
      <trkpt lat="46.40162" lon="5.44447">
        <ele>372.6</ele>
        <time>2022-03-02T14:54:34Z</time>
      </trkpt>
      <trkpt lat="46.40209" lon="5.44393">
        <ele>372.8</ele>
        <time>2022-03-02T14:54:43Z</time>
      </trkpt>
      <trkpt lat="46.40231" lon="5.44355">
        <ele>373</ele>
        <time>2022-03-02T14:54:48Z</time>
      </trkpt>
      <trkpt lat="46.40236" lon="5.44341">
        <ele>373.2</ele>
        <time>2022-03-02T14:54:50Z</time>
      </trkpt>
      <trkpt lat="46.40241" lon="5.44317">
        <ele>373.8</ele>
        <time>2022-03-02T14:54:53Z</time>
      </trkpt>
      <trkpt lat="46.40242" lon="5.44301">
        <ele>374.2</ele>
        <time>2022-03-02T14:54:55Z</time>
      </trkpt>
      <trkpt lat="46.40238" lon="5.44251">
        <ele>375</ele>
        <time>2022-03-02T14:55:01Z</time>
      </trkpt>
      <trkpt lat="46.40236" lon="5.44235">
        <ele>375.2</ele>
        <time>2022-03-02T14:55:03Z</time>
      </trkpt>
      <trkpt lat="46.40228" lon="5.44186">
        <ele>376.4</ele>
        <time>2022-03-02T14:55:09Z</time>
      </trkpt>
      <trkpt lat="46.40227" lon="5.44177">
        <ele>376.4</ele>
        <time>2022-03-02T14:55:10Z</time>
      </trkpt>
      <trkpt lat="46.40223" lon="5.44138">
        <ele>377.2</ele>
        <time>2022-03-02T14:55:15Z</time>
      </trkpt>
      <trkpt lat="46.40223" lon="5.44131">
        <ele>377.2</ele>
        <time>2022-03-02T14:55:16Z</time>
      </trkpt>
      <trkpt lat="46.40224" lon="5.44106">
        <ele>377.4</ele>
        <time>2022-03-02T14:55:19Z</time>
      </trkpt>
      <trkpt lat="46.40225" lon="5.44092">
        <ele>377.6</ele>
        <time>2022-03-02T14:55:21Z</time>
      </trkpt>
      <trkpt lat="46.40227" lon="5.44085">
        <ele>377.6</ele>
        <time>2022-03-02T14:55:22Z</time>
      </trkpt>
      <trkpt lat="46.40233" lon="5.44064">
        <ele>378.2</ele>
        <time>2022-03-02T14:55:25Z</time>
      </trkpt>
      <trkpt lat="46.4024" lon="5.44053">
        <ele>378.6</ele>
        <time>2022-03-02T14:55:27Z</time>
      </trkpt>
      <trkpt lat="46.40264" lon="5.44022">
        <ele>379.4</ele>
        <time>2022-03-02T14:55:33Z</time>
      </trkpt>
      <trkpt lat="46.40268" lon="5.44017">
        <ele>379.6</ele>
        <time>2022-03-02T14:55:34Z</time>
      </trkpt>
      <trkpt lat="46.40309" lon="5.43963">
        <ele>379.8</ele>
        <time>2022-03-02T14:55:43Z</time>
      </trkpt>
      <trkpt lat="46.40333" lon="5.43928">
        <ele>379.8</ele>
        <time>2022-03-02T14:55:48Z</time>
      </trkpt>
      <trkpt lat="46.40376" lon="5.43867">
        <ele>379</ele>
        <time>2022-03-02T14:55:57Z</time>
      </trkpt>
      <trkpt lat="46.4038" lon="5.43862">
        <ele>379</ele>
        <time>2022-03-02T14:55:58Z</time>
      </trkpt>
      <trkpt lat="46.40421" lon="5.4381">
        <ele>379.4</ele>
        <time>2022-03-02T14:56:06Z</time>
      </trkpt>
      <trkpt lat="46.40435" lon="5.43792">
        <ele>379.4</ele>
        <time>2022-03-02T14:56:09Z</time>
      </trkpt>
      <trkpt lat="46.40469" lon="5.4375">
        <ele>379.2</ele>
        <time>2022-03-02T14:56:16Z</time>
      </trkpt>
      <trkpt lat="46.4051" lon="5.43705">
        <ele>379.8</ele>
        <time>2022-03-02T14:56:24Z</time>
      </trkpt>
      <trkpt lat="46.40527" lon="5.43694">
        <ele>379.6</ele>
        <time>2022-03-02T14:56:27Z</time>
      </trkpt>
      <trkpt lat="46.40547" lon="5.43685">
        <ele>379.4</ele>
        <time>2022-03-02T14:56:30Z</time>
      </trkpt>
      <trkpt lat="46.40593" lon="5.43678">
        <ele>379.4</ele>
        <time>2022-03-02T14:56:37Z</time>
      </trkpt>
      <trkpt lat="46.40647" lon="5.43673">
        <ele>380.2</ele>
        <time>2022-03-02T14:56:46Z</time>
      </trkpt>
      <trkpt lat="46.40653" lon="5.43673">
        <ele>380.4</ele>
        <time>2022-03-02T14:56:47Z</time>
      </trkpt>
      <trkpt lat="46.40658" lon="5.43674">
        <ele>380.6</ele>
        <time>2022-03-02T14:56:48Z</time>
      </trkpt>
      <trkpt lat="46.40673" lon="5.43677">
        <ele>381.2</ele>
        <time>2022-03-02T14:56:51Z</time>
      </trkpt>
      <trkpt lat="46.40679" lon="5.43677">
        <ele>381.4</ele>
        <time>2022-03-02T14:56:52Z</time>
      </trkpt>
      <trkpt lat="46.40704" lon="5.43682">
        <ele>382.6</ele>
        <time>2022-03-02T14:56:57Z</time>
      </trkpt>
      <trkpt lat="46.4071" lon="5.43683">
        <ele>382.6</ele>
        <time>2022-03-02T14:56:58Z</time>
      </trkpt>
      <trkpt lat="46.40746" lon="5.43686">
        <ele>383.6</ele>
        <time>2022-03-02T14:57:04Z</time>
      </trkpt>
      <trkpt lat="46.40752" lon="5.43686">
        <ele>383.6</ele>
        <time>2022-03-02T14:57:05Z</time>
      </trkpt>
      <trkpt lat="46.40771" lon="5.43687">
        <ele>383.6</ele>
        <time>2022-03-02T14:57:08Z</time>
      </trkpt>
      <trkpt lat="46.4079" lon="5.43685">
        <ele>383.8</ele>
        <time>2022-03-02T14:57:11Z</time>
      </trkpt>
      <trkpt lat="46.40825" lon="5.43675">
        <ele>383.6</ele>
        <time>2022-03-02T14:57:16Z</time>
      </trkpt>
      <trkpt lat="46.40839" lon="5.43669">
        <ele>383.4</ele>
        <time>2022-03-02T14:57:18Z</time>
      </trkpt>
      <trkpt lat="46.40851" lon="5.43665">
        <ele>383.4</ele>
        <time>2022-03-02T14:57:20Z</time>
      </trkpt>
      <trkpt lat="46.409" lon="5.43645">
        <ele>383</ele>
        <time>2022-03-02T14:57:27Z</time>
      </trkpt>
      <trkpt lat="46.40959" lon="5.43618">
        <ele>383.2</ele>
        <time>2022-03-02T14:57:36Z</time>
      </trkpt>
      <trkpt lat="46.41006" lon="5.43585">
        <ele>383.8</ele>
        <time>2022-03-02T14:57:44Z</time>
      </trkpt>
      <trkpt lat="46.41059" lon="5.43546">
        <ele>384.2</ele>
        <time>2022-03-02T14:57:53Z</time>
      </trkpt>
      <trkpt lat="46.41113" lon="5.43512">
        <ele>384</ele>
        <time>2022-03-02T14:58:02Z</time>
      </trkpt>
      <trkpt lat="46.41125" lon="5.43505">
        <ele>384</ele>
        <time>2022-03-02T14:58:04Z</time>
      </trkpt>
      <trkpt lat="46.41154" lon="5.43487">
        <ele>384.4</ele>
        <time>2022-03-02T14:58:09Z</time>
      </trkpt>
      <trkpt lat="46.4119" lon="5.43465">
        <ele>384.6</ele>
        <time>2022-03-02T14:58:15Z</time>
      </trkpt>
      <trkpt lat="46.41201" lon="5.43456">
        <ele>384.6</ele>
        <time>2022-03-02T14:58:17Z</time>
      </trkpt>
      <trkpt lat="46.41218" lon="5.43441">
        <ele>384.8</ele>
        <time>2022-03-02T14:58:20Z</time>
      </trkpt>
      <trkpt lat="46.41223" lon="5.43435">
        <ele>384.8</ele>
        <time>2022-03-02T14:58:21Z</time>
      </trkpt>
      <trkpt lat="46.41242" lon="5.43408">
        <ele>384.8</ele>
        <time>2022-03-02T14:58:25Z</time>
      </trkpt>
      <trkpt lat="46.41256" lon="5.43388">
        <ele>384.8</ele>
        <time>2022-03-02T14:58:28Z</time>
      </trkpt>
      <trkpt lat="46.41266" lon="5.43378">
        <ele>385</ele>
        <time>2022-03-02T14:58:30Z</time>
      </trkpt>
      <trkpt lat="46.41277" lon="5.43376">
        <ele>385.2</ele>
        <time>2022-03-02T14:58:32Z</time>
      </trkpt>
      <trkpt lat="46.41281" lon="5.43378">
        <ele>385.2</ele>
        <time>2022-03-02T14:58:33Z</time>
      </trkpt>
      <trkpt lat="46.41287" lon="5.43382">
        <ele>385.6</ele>
        <time>2022-03-02T14:58:37Z</time>
      </trkpt>
      <trkpt lat="46.41287" lon="5.43382">
        <ele>386</ele>
        <time>2022-03-02T14:58:38Z</time>
      </trkpt>
      <trkpt lat="46.41283" lon="5.4338">
        <ele>387.6</ele>
        <time>2022-03-02T14:59:49Z</time>
      </trkpt>
      <trkpt lat="46.41279" lon="5.43377">
        <ele>387.6</ele>
        <time>2022-03-02T14:59:50Z</time>
      </trkpt>
      <trkpt lat="46.41275" lon="5.43372">
        <ele>387.6</ele>
        <time>2022-03-02T14:59:51Z</time>
      </trkpt>
      <trkpt lat="46.41272" lon="5.43358">
        <ele>387.2</ele>
        <time>2022-03-02T14:59:53Z</time>
      </trkpt>
      <trkpt lat="46.41273" lon="5.43341">
        <ele>386.4</ele>
        <time>2022-03-02T14:59:55Z</time>
      </trkpt>
      <trkpt lat="46.41274" lon="5.43333">
        <ele>386</ele>
        <time>2022-03-02T14:59:56Z</time>
      </trkpt>
      <trkpt lat="46.41276" lon="5.43326">
        <ele>386</ele>
        <time>2022-03-02T14:59:57Z</time>
      </trkpt>
      <trkpt lat="46.41283" lon="5.43312">
        <ele>385.8</ele>
        <time>2022-03-02T14:59:59Z</time>
      </trkpt>
      <trkpt lat="46.41289" lon="5.43298">
        <ele>385.6</ele>
        <time>2022-03-02T15:00:01Z</time>
      </trkpt>
      <trkpt lat="46.41313" lon="5.43258">
        <ele>386.2</ele>
        <time>2022-03-02T15:00:08Z</time>
      </trkpt>
      <trkpt lat="46.41335" lon="5.43238">
        <ele>386.6</ele>
        <time>2022-03-02T15:00:13Z</time>
      </trkpt>
      <trkpt lat="46.41339" lon="5.43236">
        <ele>386.8</ele>
        <time>2022-03-02T15:00:14Z</time>
      </trkpt>
      <trkpt lat="46.41364" lon="5.43228">
        <ele>387.4</ele>
        <time>2022-03-02T15:00:19Z</time>
      </trkpt>
      <trkpt lat="46.41381" lon="5.43226">
        <ele>387.4</ele>
        <time>2022-03-02T15:00:22Z</time>
      </trkpt>
      <trkpt lat="46.41432" lon="5.4322">
        <ele>387.6</ele>
        <time>2022-03-02T15:00:31Z</time>
      </trkpt>
      <trkpt lat="46.41486" lon="5.43213">
        <ele>388</ele>
        <time>2022-03-02T15:00:40Z</time>
      </trkpt>
      <trkpt lat="46.4154" lon="5.43201">
        <ele>388.4</ele>
        <time>2022-03-02T15:00:49Z</time>
      </trkpt>
      <trkpt lat="46.41553" lon="5.43198">
        <ele>388.4</ele>
        <time>2022-03-02T15:00:51Z</time>
      </trkpt>
      <trkpt lat="46.41593" lon="5.43189">
        <ele>389</ele>
        <time>2022-03-02T15:00:57Z</time>
      </trkpt>
      <trkpt lat="46.41641" lon="5.43177">
        <ele>389</ele>
        <time>2022-03-02T15:01:04Z</time>
      </trkpt>
      <trkpt lat="46.41673" lon="5.4316">
        <ele>389</ele>
        <time>2022-03-02T15:01:09Z</time>
      </trkpt>
      <trkpt lat="46.41685" lon="5.43149">
        <ele>389</ele>
        <time>2022-03-02T15:01:11Z</time>
      </trkpt>
      <trkpt lat="46.41701" lon="5.43129">
        <ele>389</ele>
        <time>2022-03-02T15:01:14Z</time>
      </trkpt>
      <trkpt lat="46.41727" lon="5.43091">
        <ele>389.4</ele>
        <time>2022-03-02T15:01:20Z</time>
      </trkpt>
      <trkpt lat="46.41731" lon="5.43085">
        <ele>389.6</ele>
        <time>2022-03-02T15:01:21Z</time>
      </trkpt>
      <trkpt lat="46.41758" lon="5.43046">
        <ele>390.4</ele>
        <time>2022-03-02T15:01:27Z</time>
      </trkpt>
      <trkpt lat="46.41768" lon="5.43033">
        <ele>390.6</ele>
        <time>2022-03-02T15:01:29Z</time>
      </trkpt>
      <trkpt lat="46.41796" lon="5.42993">
        <ele>391.8</ele>
        <time>2022-03-02T15:01:36Z</time>
      </trkpt>
      <trkpt lat="46.41817" lon="5.42963">
        <ele>392.8</ele>
        <time>2022-03-02T15:01:42Z</time>
      </trkpt>
      <trkpt lat="46.41835" lon="5.42938">
        <ele>393.8</ele>
        <time>2022-03-02T15:01:47Z</time>
      </trkpt>
      <trkpt lat="46.41844" lon="5.42924">
        <ele>394.4</ele>
        <time>2022-03-02T15:01:50Z</time>
      </trkpt>
      <trkpt lat="46.41857" lon="5.42907">
        <ele>395</ele>
        <time>2022-03-02T15:01:54Z</time>
      </trkpt>
      <trkpt lat="46.41871" lon="5.4289">
        <ele>396</ele>
        <time>2022-03-02T15:01:58Z</time>
      </trkpt>
      <trkpt lat="46.41874" lon="5.42886">
        <ele>396.2</ele>
        <time>2022-03-02T15:01:59Z</time>
      </trkpt>
      <trkpt lat="46.41889" lon="5.4287">
        <ele>396.8</ele>
        <time>2022-03-02T15:02:03Z</time>
      </trkpt>
      <trkpt lat="46.41894" lon="5.42863">
        <ele>397.2</ele>
        <time>2022-03-02T15:02:05Z</time>
      </trkpt>
      <trkpt lat="46.41907" lon="5.42847">
        <ele>398</ele>
        <time>2022-03-02T15:02:09Z</time>
      </trkpt>
      <trkpt lat="46.41913" lon="5.42839">
        <ele>398.4</ele>
        <time>2022-03-02T15:02:11Z</time>
      </trkpt>
      <trkpt lat="46.41916" lon="5.42835">
        <ele>398.4</ele>
        <time>2022-03-02T15:02:12Z</time>
      </trkpt>
      <trkpt lat="46.41923" lon="5.42823">
        <ele>399.6</ele>
        <time>2022-03-02T15:02:15Z</time>
      </trkpt>
      <trkpt lat="46.41937" lon="5.42804">
        <ele>400.6</ele>
        <time>2022-03-02T15:02:20Z</time>
      </trkpt>
      <trkpt lat="46.4194" lon="5.428">
        <ele>400.8</ele>
        <time>2022-03-02T15:02:21Z</time>
      </trkpt>
      <trkpt lat="46.41953" lon="5.42784">
        <ele>401.8</ele>
        <time>2022-03-02T15:02:25Z</time>
      </trkpt>
      <trkpt lat="46.41961" lon="5.42772">
        <ele>402.4</ele>
        <time>2022-03-02T15:02:28Z</time>
      </trkpt>
      <trkpt lat="46.41964" lon="5.42767">
        <ele>402.8</ele>
        <time>2022-03-02T15:02:29Z</time>
      </trkpt>
      <trkpt lat="46.41974" lon="5.42748">
        <ele>404</ele>
        <time>2022-03-02T15:02:33Z</time>
      </trkpt>
      <trkpt lat="46.41989" lon="5.42717">
        <ele>404.8</ele>
        <time>2022-03-02T15:02:39Z</time>
      </trkpt>
      <trkpt lat="46.41992" lon="5.42711">
        <ele>405</ele>
        <time>2022-03-02T15:02:40Z</time>
      </trkpt>
      <trkpt lat="46.42016" lon="5.42666">
        <ele>405.6</ele>
        <time>2022-03-02T15:02:48Z</time>
      </trkpt>
      <trkpt lat="46.42047" lon="5.42603">
        <ele>406.4</ele>
        <time>2022-03-02T15:02:58Z</time>
      </trkpt>
      <trkpt lat="46.42076" lon="5.42546">
        <ele>407.4</ele>
        <time>2022-03-02T15:03:08Z</time>
      </trkpt>
      <trkpt lat="46.42096" lon="5.4251">
        <ele>408.6</ele>
        <time>2022-03-02T15:03:15Z</time>
      </trkpt>
      <trkpt lat="46.421" lon="5.42501">
        <ele>409</ele>
        <time>2022-03-02T15:03:17Z</time>
      </trkpt>
      <trkpt lat="46.42108" lon="5.42487">
        <ele>409.6</ele>
        <time>2022-03-02T15:03:20Z</time>
      </trkpt>
      <trkpt lat="46.42122" lon="5.42468">
        <ele>410.8</ele>
        <time>2022-03-02T15:03:25Z</time>
      </trkpt>
      <trkpt lat="46.42134" lon="5.42452">
        <ele>411.8</ele>
        <time>2022-03-02T15:03:29Z</time>
      </trkpt>
      <trkpt lat="46.42148" lon="5.42435">
        <ele>413</ele>
        <time>2022-03-02T15:03:34Z</time>
      </trkpt>
      <trkpt lat="46.42153" lon="5.42427">
        <ele>413.2</ele>
        <time>2022-03-02T15:03:36Z</time>
      </trkpt>
      <trkpt lat="46.42164" lon="5.42408">
        <ele>414</ele>
        <time>2022-03-02T15:03:40Z</time>
      </trkpt>
      <trkpt lat="46.42172" lon="5.42389">
        <ele>414.6</ele>
        <time>2022-03-02T15:03:44Z</time>
      </trkpt>
      <trkpt lat="46.42184" lon="5.42362">
        <ele>415.2</ele>
        <time>2022-03-02T15:03:49Z</time>
      </trkpt>
      <trkpt lat="46.42196" lon="5.42336">
        <ele>415.8</ele>
        <time>2022-03-02T15:03:54Z</time>
      </trkpt>
      <trkpt lat="46.42202" lon="5.42321">
        <ele>416.2</ele>
        <time>2022-03-02T15:03:57Z</time>
      </trkpt>
      <trkpt lat="46.42207" lon="5.42299">
        <ele>416.8</ele>
        <time>2022-03-02T15:04:01Z</time>
      </trkpt>
      <trkpt lat="46.42208" lon="5.42294">
        <ele>416.8</ele>
        <time>2022-03-02T15:04:02Z</time>
      </trkpt>
      <trkpt lat="46.42208" lon="5.42287">
        <ele>417.2</ele>
        <time>2022-03-02T15:04:03Z</time>
      </trkpt>
      <trkpt lat="46.42206" lon="5.4226">
        <ele>417.8</ele>
        <time>2022-03-02T15:04:08Z</time>
      </trkpt>
      <trkpt lat="46.42201" lon="5.42244">
        <ele>418.4</ele>
        <time>2022-03-02T15:04:11Z</time>
      </trkpt>
      <trkpt lat="46.42194" lon="5.42228">
        <ele>419</ele>
        <time>2022-03-02T15:04:14Z</time>
      </trkpt>
      <trkpt lat="46.4219" lon="5.42219">
        <ele>419.4</ele>
        <time>2022-03-02T15:04:16Z</time>
      </trkpt>
      <trkpt lat="46.42175" lon="5.42191">
        <ele>420.6</ele>
        <time>2022-03-02T15:04:22Z</time>
      </trkpt>
      <trkpt lat="46.42171" lon="5.42183">
        <ele>420.8</ele>
        <time>2022-03-02T15:04:24Z</time>
      </trkpt>
      <trkpt lat="46.42162" lon="5.42166">
        <ele>421.6</ele>
        <time>2022-03-02T15:04:28Z</time>
      </trkpt>
      <trkpt lat="46.42144" lon="5.42135">
        <ele>422.8</ele>
        <time>2022-03-02T15:04:35Z</time>
      </trkpt>
      <trkpt lat="46.42125" lon="5.42101">
        <ele>424</ele>
        <time>2022-03-02T15:04:42Z</time>
      </trkpt>
      <trkpt lat="46.42116" lon="5.42084">
        <ele>424.6</ele>
        <time>2022-03-02T15:04:46Z</time>
      </trkpt>
      <trkpt lat="46.42105" lon="5.42066">
        <ele>425</ele>
        <time>2022-03-02T15:04:50Z</time>
      </trkpt>
      <trkpt lat="46.42089" lon="5.42034">
        <ele>426.2</ele>
        <time>2022-03-02T15:04:57Z</time>
      </trkpt>
      <trkpt lat="46.42086" lon="5.42029">
        <ele>426.4</ele>
        <time>2022-03-02T15:04:58Z</time>
      </trkpt>
      <trkpt lat="46.42076" lon="5.42005">
        <ele>427.2</ele>
        <time>2022-03-02T15:05:03Z</time>
      </trkpt>
      <trkpt lat="46.42071" lon="5.41989">
        <ele>427.8</ele>
        <time>2022-03-02T15:05:06Z</time>
      </trkpt>
      <trkpt lat="46.42068" lon="5.41972">
        <ele>428.4</ele>
        <time>2022-03-02T15:05:09Z</time>
      </trkpt>
      <trkpt lat="46.42068" lon="5.41951">
        <ele>429.2</ele>
        <time>2022-03-02T15:05:13Z</time>
      </trkpt>
      <trkpt lat="46.42068" lon="5.41946">
        <ele>429.4</ele>
        <time>2022-03-02T15:05:14Z</time>
      </trkpt>
      <trkpt lat="46.42068" lon="5.41916">
        <ele>430.6</ele>
        <time>2022-03-02T15:05:20Z</time>
      </trkpt>
      <trkpt lat="46.42068" lon="5.41911">
        <ele>430.6</ele>
        <time>2022-03-02T15:05:21Z</time>
      </trkpt>
      <trkpt lat="46.42067" lon="5.4189">
        <ele>431.8</ele>
        <time>2022-03-02T15:05:25Z</time>
      </trkpt>
      <trkpt lat="46.42064" lon="5.41865">
        <ele>432.8</ele>
        <time>2022-03-02T15:05:30Z</time>
      </trkpt>
      <trkpt lat="46.42063" lon="5.4186">
        <ele>432.8</ele>
        <time>2022-03-02T15:05:31Z</time>
      </trkpt>
      <trkpt lat="46.42059" lon="5.41835">
        <ele>433.8</ele>
        <time>2022-03-02T15:05:36Z</time>
      </trkpt>
      <trkpt lat="46.42055" lon="5.41821">
        <ele>434.4</ele>
        <time>2022-03-02T15:05:39Z</time>
      </trkpt>
      <trkpt lat="46.42049" lon="5.41802">
        <ele>435</ele>
        <time>2022-03-02T15:05:43Z</time>
      </trkpt>
      <trkpt lat="46.4204" lon="5.41777">
        <ele>436</ele>
        <time>2022-03-02T15:05:48Z</time>
      </trkpt>
      <trkpt lat="46.42036" lon="5.41768">
        <ele>436.4</ele>
        <time>2022-03-02T15:05:50Z</time>
      </trkpt>
      <trkpt lat="46.42028" lon="5.41755">
        <ele>437</ele>
        <time>2022-03-02T15:05:53Z</time>
      </trkpt>
      <trkpt lat="46.42006" lon="5.41718">
        <ele>438</ele>
        <time>2022-03-02T15:06:01Z</time>
      </trkpt>
      <trkpt lat="46.42003" lon="5.41713">
        <ele>438.2</ele>
        <time>2022-03-02T15:06:02Z</time>
      </trkpt>
      <trkpt lat="46.42001" lon="5.41708">
        <ele>438.4</ele>
        <time>2022-03-02T15:06:03Z</time>
      </trkpt>
      <trkpt lat="46.41998" lon="5.41696">
        <ele>438.6</ele>
        <time>2022-03-02T15:06:05Z</time>
      </trkpt>
      <trkpt lat="46.41998" lon="5.4169">
        <ele>438.8</ele>
        <time>2022-03-02T15:06:06Z</time>
      </trkpt>
      <trkpt lat="46.41998" lon="5.41683">
        <ele>438.8</ele>
        <time>2022-03-02T15:06:07Z</time>
      </trkpt>
      <trkpt lat="46.42001" lon="5.41672">
        <ele>439</ele>
        <time>2022-03-02T15:06:09Z</time>
      </trkpt>
      <trkpt lat="46.42003" lon="5.41666">
        <ele>439</ele>
        <time>2022-03-02T15:06:10Z</time>
      </trkpt>
      <trkpt lat="46.42006" lon="5.41661">
        <ele>439.2</ele>
        <time>2022-03-02T15:06:11Z</time>
      </trkpt>
      <trkpt lat="46.42012" lon="5.41655">
        <ele>439.4</ele>
        <time>2022-03-02T15:06:13Z</time>
      </trkpt>
      <trkpt lat="46.42017" lon="5.41652">
        <ele>439.4</ele>
        <time>2022-03-02T15:06:14Z</time>
      </trkpt>
      <trkpt lat="46.42021" lon="5.41651">
        <ele>439.6</ele>
        <time>2022-03-02T15:06:15Z</time>
      </trkpt>
      <trkpt lat="46.4203" lon="5.4165">
        <ele>439.8</ele>
        <time>2022-03-02T15:06:17Z</time>
      </trkpt>
      <trkpt lat="46.42038" lon="5.41651">
        <ele>440</ele>
        <time>2022-03-02T15:06:19Z</time>
      </trkpt>
      <trkpt lat="46.42043" lon="5.41653">
        <ele>440.2</ele>
        <time>2022-03-02T15:06:20Z</time>
      </trkpt>
      <trkpt lat="46.42046" lon="5.41654">
        <ele>440.2</ele>
        <time>2022-03-02T15:06:21Z</time>
      </trkpt>
      <trkpt lat="46.42064" lon="5.41659">
        <ele>441.2</ele>
        <time>2022-03-02T15:06:25Z</time>
      </trkpt>
      <trkpt lat="46.42067" lon="5.41659">
        <ele>441.4</ele>
        <time>2022-03-02T15:06:26Z</time>
      </trkpt>
      <trkpt lat="46.4208" lon="5.41661">
        <ele>442.6</ele>
        <time>2022-03-02T15:06:29Z</time>
      </trkpt>
      <trkpt lat="46.42089" lon="5.41662">
        <ele>442.8</ele>
        <time>2022-03-02T15:06:31Z</time>
      </trkpt>
      <trkpt lat="46.42093" lon="5.41663">
        <ele>443.2</ele>
        <time>2022-03-02T15:06:32Z</time>
      </trkpt>
      <trkpt lat="46.42097" lon="5.41663">
        <ele>443.2</ele>
        <time>2022-03-02T15:06:33Z</time>
      </trkpt>
      <trkpt lat="46.42107" lon="5.41664">
        <ele>443.4</ele>
        <time>2022-03-02T15:06:35Z</time>
      </trkpt>
      <trkpt lat="46.42111" lon="5.41664">
        <ele>443.6</ele>
        <time>2022-03-02T15:06:36Z</time>
      </trkpt>
      <trkpt lat="46.4212" lon="5.41665">
        <ele>444.2</ele>
        <time>2022-03-02T15:06:38Z</time>
      </trkpt>
      <trkpt lat="46.42128" lon="5.41667">
        <ele>444.6</ele>
        <time>2022-03-02T15:06:40Z</time>
      </trkpt>
      <trkpt lat="46.42133" lon="5.41668">
        <ele>445</ele>
        <time>2022-03-02T15:06:41Z</time>
      </trkpt>
      <trkpt lat="46.42144" lon="5.41674">
        <ele>445.8</ele>
        <time>2022-03-02T15:06:44Z</time>
      </trkpt>
      <trkpt lat="46.42148" lon="5.41676">
        <ele>446</ele>
        <time>2022-03-02T15:06:45Z</time>
      </trkpt>
      <trkpt lat="46.42165" lon="5.41688">
        <ele>446.8</ele>
        <time>2022-03-02T15:06:50Z</time>
      </trkpt>
      <trkpt lat="46.42179" lon="5.41698">
        <ele>447.6</ele>
        <time>2022-03-02T15:06:54Z</time>
      </trkpt>
      <trkpt lat="46.42187" lon="5.41703">
        <ele>447.8</ele>
        <time>2022-03-02T15:06:56Z</time>
      </trkpt>
      <trkpt lat="46.42205" lon="5.41715">
        <ele>448.6</ele>
        <time>2022-03-02T15:07:01Z</time>
      </trkpt>
      <trkpt lat="46.42213" lon="5.4172">
        <ele>449</ele>
        <time>2022-03-02T15:07:03Z</time>
      </trkpt>
      <trkpt lat="46.42244" lon="5.4174">
        <ele>450</ele>
        <time>2022-03-02T15:07:11Z</time>
      </trkpt>
      <trkpt lat="46.42248" lon="5.41742">
        <ele>450.4</ele>
        <time>2022-03-02T15:07:12Z</time>
      </trkpt>
      <trkpt lat="46.42274" lon="5.41757">
        <ele>451.4</ele>
        <time>2022-03-02T15:07:19Z</time>
      </trkpt>
      <trkpt lat="46.42278" lon="5.4176">
        <ele>451.4</ele>
        <time>2022-03-02T15:07:20Z</time>
      </trkpt>
      <trkpt lat="46.42297" lon="5.4177">
        <ele>452.4</ele>
        <time>2022-03-02T15:07:25Z</time>
      </trkpt>
      <trkpt lat="46.42316" lon="5.41778">
        <ele>453.4</ele>
        <time>2022-03-02T15:07:30Z</time>
      </trkpt>
      <trkpt lat="46.42319" lon="5.41779">
        <ele>453.6</ele>
        <time>2022-03-02T15:07:31Z</time>
      </trkpt>
      <trkpt lat="46.42342" lon="5.41786">
        <ele>454.6</ele>
        <time>2022-03-02T15:07:37Z</time>
      </trkpt>
      <trkpt lat="46.4236" lon="5.41794">
        <ele>455.6</ele>
        <time>2022-03-02T15:07:42Z</time>
      </trkpt>
      <trkpt lat="46.42371" lon="5.41798">
        <ele>456.2</ele>
        <time>2022-03-02T15:07:45Z</time>
      </trkpt>
      <trkpt lat="46.42383" lon="5.41801">
        <ele>456.8</ele>
        <time>2022-03-02T15:07:49Z</time>
      </trkpt>
      <trkpt lat="46.4239" lon="5.41802">
        <ele>457.8</ele>
        <time>2022-03-02T15:07:51Z</time>
      </trkpt>
      <trkpt lat="46.42404" lon="5.41803">
        <ele>458.8</ele>
        <time>2022-03-02T15:07:55Z</time>
      </trkpt>
      <trkpt lat="46.42422" lon="5.41801">
        <ele>459.8</ele>
        <time>2022-03-02T15:08:00Z</time>
      </trkpt>
      <trkpt lat="46.42427" lon="5.41801">
        <ele>460</ele>
        <time>2022-03-02T15:08:01Z</time>
      </trkpt>
      <trkpt lat="46.42449" lon="5.41795">
        <ele>461.2</ele>
        <time>2022-03-02T15:08:07Z</time>
      </trkpt>
      <trkpt lat="46.42457" lon="5.41792">
        <ele>461.6</ele>
        <time>2022-03-02T15:08:09Z</time>
      </trkpt>
      <trkpt lat="46.42468" lon="5.41787">
        <ele>462.2</ele>
        <time>2022-03-02T15:08:12Z</time>
      </trkpt>
      <trkpt lat="46.4249" lon="5.41777">
        <ele>463.2</ele>
        <time>2022-03-02T15:08:18Z</time>
      </trkpt>
      <trkpt lat="46.42511" lon="5.41773">
        <ele>464.6</ele>
        <time>2022-03-02T15:08:24Z</time>
      </trkpt>
      <trkpt lat="46.42531" lon="5.41774">
        <ele>465.6</ele>
        <time>2022-03-02T15:08:29Z</time>
      </trkpt>
      <trkpt lat="46.42539" lon="5.41777">
        <ele>466</ele>
        <time>2022-03-02T15:08:31Z</time>
      </trkpt>
      <trkpt lat="46.42553" lon="5.41783">
        <ele>466.6</ele>
        <time>2022-03-02T15:08:35Z</time>
      </trkpt>
      <trkpt lat="46.42565" lon="5.4179">
        <ele>467.8</ele>
        <time>2022-03-02T15:08:39Z</time>
      </trkpt>
      <trkpt lat="46.42582" lon="5.41796">
        <ele>468.8</ele>
        <time>2022-03-02T15:08:44Z</time>
      </trkpt>
      <trkpt lat="46.42586" lon="5.41796">
        <ele>469</ele>
        <time>2022-03-02T15:08:45Z</time>
      </trkpt>
      <trkpt lat="46.42601" lon="5.41793">
        <ele>470.2</ele>
        <time>2022-03-02T15:08:49Z</time>
      </trkpt>
      <trkpt lat="46.42611" lon="5.41785">
        <ele>470.6</ele>
        <time>2022-03-02T15:08:52Z</time>
      </trkpt>
      <trkpt lat="46.42619" lon="5.41777">
        <ele>471.2</ele>
        <time>2022-03-02T15:08:55Z</time>
      </trkpt>
      <trkpt lat="46.42631" lon="5.41765">
        <ele>472</ele>
        <time>2022-03-02T15:08:59Z</time>
      </trkpt>
      <trkpt lat="46.42635" lon="5.4176">
        <ele>472.2</ele>
        <time>2022-03-02T15:09:00Z</time>
      </trkpt>
      <trkpt lat="46.42657" lon="5.41737">
        <ele>473.4</ele>
        <time>2022-03-02T15:09:07Z</time>
      </trkpt>
      <trkpt lat="46.4266" lon="5.41734">
        <ele>473.6</ele>
        <time>2022-03-02T15:09:08Z</time>
      </trkpt>
      <trkpt lat="46.42675" lon="5.41716">
        <ele>474.4</ele>
        <time>2022-03-02T15:09:14Z</time>
      </trkpt>
      <trkpt lat="46.42681" lon="5.41709">
        <ele>474.8</ele>
        <time>2022-03-02T15:09:16Z</time>
      </trkpt>
      <trkpt lat="46.42695" lon="5.41694">
        <ele>476.2</ele>
        <time>2022-03-02T15:09:21Z</time>
      </trkpt>
      <trkpt lat="46.42698" lon="5.41691">
        <ele>476.2</ele>
        <time>2022-03-02T15:09:22Z</time>
      </trkpt>
      <trkpt lat="46.4271" lon="5.41678">
        <ele>477.4</ele>
        <time>2022-03-02T15:09:27Z</time>
      </trkpt>
      <trkpt lat="46.42714" lon="5.41671">
        <ele>478</ele>
        <time>2022-03-02T15:09:29Z</time>
      </trkpt>
      <trkpt lat="46.42716" lon="5.41664">
        <ele>478.6</ele>
        <time>2022-03-02T15:09:31Z</time>
      </trkpt>
      <trkpt lat="46.42715" lon="5.41656">
        <ele>479.2</ele>
        <time>2022-03-02T15:09:33Z</time>
      </trkpt>
      <trkpt lat="46.42712" lon="5.41647">
        <ele>479.8</ele>
        <time>2022-03-02T15:09:35Z</time>
      </trkpt>
      <trkpt lat="46.42707" lon="5.41642">
        <ele>480.2</ele>
        <time>2022-03-02T15:09:37Z</time>
      </trkpt>
      <trkpt lat="46.42693" lon="5.41637">
        <ele>480.8</ele>
        <time>2022-03-02T15:09:41Z</time>
      </trkpt>
      <trkpt lat="46.42686" lon="5.41636">
        <ele>481</ele>
        <time>2022-03-02T15:09:43Z</time>
      </trkpt>
      <trkpt lat="46.42665" lon="5.41625">
        <ele>482</ele>
        <time>2022-03-02T15:09:49Z</time>
      </trkpt>
      <trkpt lat="46.42662" lon="5.41623">
        <ele>482.2</ele>
        <time>2022-03-02T15:09:50Z</time>
      </trkpt>
      <trkpt lat="46.42647" lon="5.41611">
        <ele>483</ele>
        <time>2022-03-02T15:09:55Z</time>
      </trkpt>
      <trkpt lat="46.42641" lon="5.41608">
        <ele>483.4</ele>
        <time>2022-03-02T15:09:57Z</time>
      </trkpt>
      <trkpt lat="46.42632" lon="5.41604">
        <ele>484.2</ele>
        <time>2022-03-02T15:10:00Z</time>
      </trkpt>
      <trkpt lat="46.42623" lon="5.41601">
        <ele>485.2</ele>
        <time>2022-03-02T15:10:03Z</time>
      </trkpt>
      <trkpt lat="46.42617" lon="5.416">
        <ele>485.8</ele>
        <time>2022-03-02T15:10:05Z</time>
      </trkpt>
      <trkpt lat="46.4261" lon="5.41599">
        <ele>486.6</ele>
        <time>2022-03-02T15:10:07Z</time>
      </trkpt>
      <trkpt lat="46.42595" lon="5.41596">
        <ele>487.6</ele>
        <time>2022-03-02T15:10:12Z</time>
      </trkpt>
      <trkpt lat="46.42591" lon="5.41595">
        <ele>488</ele>
        <time>2022-03-02T15:10:13Z</time>
      </trkpt>
      <trkpt lat="46.4258" lon="5.41592">
        <ele>489</ele>
        <time>2022-03-02T15:10:16Z</time>
      </trkpt>
      <trkpt lat="46.42563" lon="5.41588">
        <ele>490.2</ele>
        <time>2022-03-02T15:10:21Z</time>
      </trkpt>
      <trkpt lat="46.42561" lon="5.41588">
        <ele>490.2</ele>
        <time>2022-03-02T15:10:22Z</time>
      </trkpt>
      <trkpt lat="46.42543" lon="5.41585">
        <ele>491.4</ele>
        <time>2022-03-02T15:10:27Z</time>
      </trkpt>
      <trkpt lat="46.42527" lon="5.41583">
        <ele>492</ele>
        <time>2022-03-02T15:10:31Z</time>
      </trkpt>
      <trkpt lat="46.425" lon="5.41577">
        <ele>492.4</ele>
        <time>2022-03-02T15:10:37Z</time>
      </trkpt>
      <trkpt lat="46.42489" lon="5.41575">
        <ele>492.4</ele>
        <time>2022-03-02T15:10:39Z</time>
      </trkpt>
      <trkpt lat="46.42477" lon="5.41571">
        <ele>492.4</ele>
        <time>2022-03-02T15:10:41Z</time>
      </trkpt>
      <trkpt lat="46.42465" lon="5.41564">
        <ele>492.2</ele>
        <time>2022-03-02T15:10:43Z</time>
      </trkpt>
      <trkpt lat="46.42426" lon="5.41545">
        <ele>491.6</ele>
        <time>2022-03-02T15:10:49Z</time>
      </trkpt>
      <trkpt lat="46.4242" lon="5.41543">
        <ele>491.4</ele>
        <time>2022-03-02T15:10:50Z</time>
      </trkpt>
      <trkpt lat="46.42374" lon="5.41528">
        <ele>491</ele>
        <time>2022-03-02T15:10:57Z</time>
      </trkpt>
      <trkpt lat="46.42338" lon="5.41505">
        <ele>491.2</ele>
        <time>2022-03-02T15:11:03Z</time>
      </trkpt>
      <trkpt lat="46.42331" lon="5.41501">
        <ele>491.4</ele>
        <time>2022-03-02T15:11:04Z</time>
      </trkpt>
      <trkpt lat="46.4229" lon="5.41484">
        <ele>491.8</ele>
        <time>2022-03-02T15:11:11Z</time>
      </trkpt>
      <trkpt lat="46.42279" lon="5.41482">
        <ele>492</ele>
        <time>2022-03-02T15:11:13Z</time>
      </trkpt>
      <trkpt lat="46.42268" lon="5.41481">
        <ele>492</ele>
        <time>2022-03-02T15:11:15Z</time>
      </trkpt>
      <trkpt lat="46.42253" lon="5.41478">
        <ele>492.4</ele>
        <time>2022-03-02T15:11:18Z</time>
      </trkpt>
      <trkpt lat="46.42248" lon="5.41478">
        <ele>492.6</ele>
        <time>2022-03-02T15:11:19Z</time>
      </trkpt>
      <trkpt lat="46.42237" lon="5.41477">
        <ele>492.8</ele>
        <time>2022-03-02T15:11:21Z</time>
      </trkpt>
      <trkpt lat="46.42222" lon="5.41475">
        <ele>493.6</ele>
        <time>2022-03-02T15:11:24Z</time>
      </trkpt>
      <trkpt lat="46.42217" lon="5.41474">
        <ele>493.8</ele>
        <time>2022-03-02T15:11:25Z</time>
      </trkpt>
      <trkpt lat="46.42207" lon="5.41473">
        <ele>494.4</ele>
        <time>2022-03-02T15:11:27Z</time>
      </trkpt>
      <trkpt lat="46.42203" lon="5.41473">
        <ele>494.6</ele>
        <time>2022-03-02T15:11:28Z</time>
      </trkpt>
      <trkpt lat="46.42191" lon="5.4147">
        <ele>495.2</ele>
        <time>2022-03-02T15:11:30Z</time>
      </trkpt>
      <trkpt lat="46.42182" lon="5.41467">
        <ele>495.6</ele>
        <time>2022-03-02T15:11:32Z</time>
      </trkpt>
      <trkpt lat="46.42177" lon="5.41465">
        <ele>495.8</ele>
        <time>2022-03-02T15:11:33Z</time>
      </trkpt>
      <trkpt lat="46.42172" lon="5.41464">
        <ele>496</ele>
        <time>2022-03-02T15:11:34Z</time>
      </trkpt>
      <trkpt lat="46.42168" lon="5.41462">
        <ele>496</ele>
        <time>2022-03-02T15:11:35Z</time>
      </trkpt>
      <trkpt lat="46.42159" lon="5.41458">
        <ele>496.2</ele>
        <time>2022-03-02T15:11:37Z</time>
      </trkpt>
      <trkpt lat="46.42145" lon="5.41454">
        <ele>497</ele>
        <time>2022-03-02T15:11:40Z</time>
      </trkpt>
      <trkpt lat="46.42141" lon="5.41451">
        <ele>497.6</ele>
        <time>2022-03-02T15:11:41Z</time>
      </trkpt>
      <trkpt lat="46.42129" lon="5.41444">
        <ele>498.2</ele>
        <time>2022-03-02T15:11:44Z</time>
      </trkpt>
      <trkpt lat="46.42113" lon="5.41435">
        <ele>498.8</ele>
        <time>2022-03-02T15:11:48Z</time>
      </trkpt>
      <trkpt lat="46.42104" lon="5.4143">
        <ele>499.2</ele>
        <time>2022-03-02T15:11:50Z</time>
      </trkpt>
      <trkpt lat="46.421" lon="5.41428">
        <ele>499.2</ele>
        <time>2022-03-02T15:11:51Z</time>
      </trkpt>
      <trkpt lat="46.42084" lon="5.41418">
        <ele>499.8</ele>
        <time>2022-03-02T15:11:55Z</time>
      </trkpt>
      <trkpt lat="46.42077" lon="5.41415">
        <ele>500</ele>
        <time>2022-03-02T15:11:57Z</time>
      </trkpt>
      <trkpt lat="46.42069" lon="5.4141">
        <ele>500.4</ele>
        <time>2022-03-02T15:11:59Z</time>
      </trkpt>
      <trkpt lat="46.42061" lon="5.41407">
        <ele>501</ele>
        <time>2022-03-02T15:12:01Z</time>
      </trkpt>
      <trkpt lat="46.42046" lon="5.414">
        <ele>501.6</ele>
        <time>2022-03-02T15:12:05Z</time>
      </trkpt>
      <trkpt lat="46.42038" lon="5.41397">
        <ele>502</ele>
        <time>2022-03-02T15:12:07Z</time>
      </trkpt>
      <trkpt lat="46.42025" lon="5.41393">
        <ele>502.8</ele>
        <time>2022-03-02T15:12:10Z</time>
      </trkpt>
      <trkpt lat="46.42022" lon="5.41392">
        <ele>503</ele>
        <time>2022-03-02T15:12:11Z</time>
      </trkpt>
      <trkpt lat="46.41999" lon="5.41379">
        <ele>504</ele>
        <time>2022-03-02T15:12:17Z</time>
      </trkpt>
      <trkpt lat="46.41981" lon="5.41365">
        <ele>505.4</ele>
        <time>2022-03-02T15:12:22Z</time>
      </trkpt>
      <trkpt lat="46.41975" lon="5.41356">
        <ele>505.8</ele>
        <time>2022-03-02T15:12:24Z</time>
      </trkpt>
      <trkpt lat="46.41969" lon="5.41337">
        <ele>506.8</ele>
        <time>2022-03-02T15:12:28Z</time>
      </trkpt>
      <trkpt lat="46.41968" lon="5.41329">
        <ele>507.2</ele>
        <time>2022-03-02T15:12:30Z</time>
      </trkpt>
      <trkpt lat="46.41965" lon="5.41319">
        <ele>507.6</ele>
        <time>2022-03-02T15:12:33Z</time>
      </trkpt>
      <trkpt lat="46.41964" lon="5.41315">
        <ele>507.8</ele>
        <time>2022-03-02T15:12:34Z</time>
      </trkpt>
      <trkpt lat="46.41964" lon="5.41312">
        <ele>508.2</ele>
        <time>2022-03-02T15:12:35Z</time>
      </trkpt>
      <trkpt lat="46.41963" lon="5.41298">
        <ele>508.8</ele>
        <time>2022-03-02T15:12:38Z</time>
      </trkpt>
      <trkpt lat="46.41963" lon="5.41294">
        <ele>509</ele>
        <time>2022-03-02T15:12:39Z</time>
      </trkpt>
      <trkpt lat="46.41961" lon="5.41274">
        <ele>509.6</ele>
        <time>2022-03-02T15:12:43Z</time>
      </trkpt>
      <trkpt lat="46.41961" lon="5.41269">
        <ele>510</ele>
        <time>2022-03-02T15:12:44Z</time>
      </trkpt>
      <trkpt lat="46.41961" lon="5.41252">
        <ele>510.6</ele>
        <time>2022-03-02T15:12:47Z</time>
      </trkpt>
      <trkpt lat="46.4196" lon="5.41247">
        <ele>510.8</ele>
        <time>2022-03-02T15:12:48Z</time>
      </trkpt>
      <trkpt lat="46.41958" lon="5.41229">
        <ele>511.2</ele>
        <time>2022-03-02T15:12:51Z</time>
      </trkpt>
      <trkpt lat="46.41955" lon="5.412">
        <ele>512</ele>
        <time>2022-03-02T15:12:55Z</time>
      </trkpt>
      <trkpt lat="46.41955" lon="5.41193">
        <ele>512.4</ele>
        <time>2022-03-02T15:12:56Z</time>
      </trkpt>
      <trkpt lat="46.4195" lon="5.41154">
        <ele>513.4</ele>
        <time>2022-03-02T15:13:02Z</time>
      </trkpt>
      <trkpt lat="46.41947" lon="5.4111">
        <ele>514.6</ele>
        <time>2022-03-02T15:13:09Z</time>
      </trkpt>
      <trkpt lat="46.41946" lon="5.41104">
        <ele>514.6</ele>
        <time>2022-03-02T15:13:10Z</time>
      </trkpt>
      <trkpt lat="46.41949" lon="5.41083">
        <ele>515.6</ele>
        <time>2022-03-02T15:13:14Z</time>
      </trkpt>
      <trkpt lat="46.41954" lon="5.41064">
        <ele>516.2</ele>
        <time>2022-03-02T15:13:17Z</time>
      </trkpt>
      <trkpt lat="46.4196" lon="5.41046">
        <ele>516.6</ele>
        <time>2022-03-02T15:13:20Z</time>
      </trkpt>
      <trkpt lat="46.41966" lon="5.41036">
        <ele>517</ele>
        <time>2022-03-02T15:13:22Z</time>
      </trkpt>
      <trkpt lat="46.41985" lon="5.41019">
        <ele>517.4</ele>
        <time>2022-03-02T15:13:27Z</time>
      </trkpt>
      <trkpt lat="46.41989" lon="5.41015">
        <ele>517.6</ele>
        <time>2022-03-02T15:13:28Z</time>
      </trkpt>
      <trkpt lat="46.41998" lon="5.41005">
        <ele>517.8</ele>
        <time>2022-03-02T15:13:30Z</time>
      </trkpt>
      <trkpt lat="46.42009" lon="5.4099">
        <ele>518</ele>
        <time>2022-03-02T15:13:33Z</time>
      </trkpt>
      <trkpt lat="46.42018" lon="5.40969">
        <ele>518</ele>
        <time>2022-03-02T15:13:36Z</time>
      </trkpt>
      <trkpt lat="46.42021" lon="5.40956">
        <ele>518.2</ele>
        <time>2022-03-02T15:13:38Z</time>
      </trkpt>
      <trkpt lat="46.42023" lon="5.40948">
        <ele>518.2</ele>
        <time>2022-03-02T15:13:39Z</time>
      </trkpt>
      <trkpt lat="46.42027" lon="5.40912">
        <ele>518.6</ele>
        <time>2022-03-02T15:13:44Z</time>
      </trkpt>
      <trkpt lat="46.42028" lon="5.40898">
        <ele>518.8</ele>
        <time>2022-03-02T15:13:46Z</time>
      </trkpt>
      <trkpt lat="46.42031" lon="5.40872">
        <ele>519.2</ele>
        <time>2022-03-02T15:13:50Z</time>
      </trkpt>
      <trkpt lat="46.42035" lon="5.40866">
        <ele>519.4</ele>
        <time>2022-03-02T15:13:51Z</time>
      </trkpt>
      <trkpt lat="46.42066" lon="5.40831">
        <ele>519.6</ele>
        <time>2022-03-02T15:13:57Z</time>
      </trkpt>
      <trkpt lat="46.42079" lon="5.40821">
        <ele>519.2</ele>
        <time>2022-03-02T15:13:59Z</time>
      </trkpt>
      <trkpt lat="46.42087" lon="5.40817">
        <ele>519</ele>
        <time>2022-03-02T15:14:00Z</time>
      </trkpt>
      <trkpt lat="46.42095" lon="5.40814">
        <ele>519</ele>
        <time>2022-03-02T15:14:01Z</time>
      </trkpt>
      <trkpt lat="46.42103" lon="5.40812">
        <ele>518.8</ele>
        <time>2022-03-02T15:14:02Z</time>
      </trkpt>
      <trkpt lat="46.42129" lon="5.40811">
        <ele>518.2</ele>
        <time>2022-03-02T15:14:05Z</time>
      </trkpt>
      <trkpt lat="46.42144" lon="5.40807">
        <ele>518</ele>
        <time>2022-03-02T15:14:07Z</time>
      </trkpt>
      <trkpt lat="46.42162" lon="5.408">
        <ele>517.4</ele>
        <time>2022-03-02T15:14:09Z</time>
      </trkpt>
      <trkpt lat="46.42178" lon="5.40787">
        <ele>517</ele>
        <time>2022-03-02T15:14:11Z</time>
      </trkpt>
      <trkpt lat="46.42192" lon="5.4077">
        <ele>516.4</ele>
        <time>2022-03-02T15:14:13Z</time>
      </trkpt>
      <trkpt lat="46.422" lon="5.40761">
        <ele>516</ele>
        <time>2022-03-02T15:14:14Z</time>
      </trkpt>
      <trkpt lat="46.42215" lon="5.40745">
        <ele>515.2</ele>
        <time>2022-03-02T15:14:16Z</time>
      </trkpt>
      <trkpt lat="46.42224" lon="5.40737">
        <ele>515</ele>
        <time>2022-03-02T15:14:17Z</time>
      </trkpt>
      <trkpt lat="46.42233" lon="5.40729">
        <ele>514.4</ele>
        <time>2022-03-02T15:14:18Z</time>
      </trkpt>
      <trkpt lat="46.4226" lon="5.40705">
        <ele>513.2</ele>
        <time>2022-03-02T15:14:21Z</time>
      </trkpt>
      <trkpt lat="46.42279" lon="5.40688">
        <ele>511.8</ele>
        <time>2022-03-02T15:14:23Z</time>
      </trkpt>
      <trkpt lat="46.42296" lon="5.40671">
        <ele>510.8</ele>
        <time>2022-03-02T15:14:25Z</time>
      </trkpt>
      <trkpt lat="46.42313" lon="5.4065">
        <ele>509.4</ele>
        <time>2022-03-02T15:14:27Z</time>
      </trkpt>
      <trkpt lat="46.4233" lon="5.40633">
        <ele>508.2</ele>
        <time>2022-03-02T15:14:29Z</time>
      </trkpt>
      <trkpt lat="46.42352" lon="5.40614">
        <ele>507.6</ele>
        <time>2022-03-02T15:14:31Z</time>
      </trkpt>
      <trkpt lat="46.4236" lon="5.40607">
        <ele>506.8</ele>
        <time>2022-03-02T15:14:32Z</time>
      </trkpt>
      <trkpt lat="46.42382" lon="5.4059">
        <ele>505.8</ele>
        <time>2022-03-02T15:14:34Z</time>
      </trkpt>
      <trkpt lat="46.42401" lon="5.40573">
        <ele>504.4</ele>
        <time>2022-03-02T15:14:36Z</time>
      </trkpt>
      <trkpt lat="46.4242" lon="5.40556">
        <ele>502.8</ele>
        <time>2022-03-02T15:14:38Z</time>
      </trkpt>
      <trkpt lat="46.4243" lon="5.40547">
        <ele>502</ele>
        <time>2022-03-02T15:14:39Z</time>
      </trkpt>
      <trkpt lat="46.4244" lon="5.40538">
        <ele>501.6</ele>
        <time>2022-03-02T15:14:40Z</time>
      </trkpt>
      <trkpt lat="46.42458" lon="5.40518">
        <ele>500.4</ele>
        <time>2022-03-02T15:14:42Z</time>
      </trkpt>
      <trkpt lat="46.42475" lon="5.40497">
        <ele>499.2</ele>
        <time>2022-03-02T15:14:44Z</time>
      </trkpt>
      <trkpt lat="46.42491" lon="5.40472">
        <ele>498.4</ele>
        <time>2022-03-02T15:14:46Z</time>
      </trkpt>
      <trkpt lat="46.42496" lon="5.40458">
        <ele>497.8</ele>
        <time>2022-03-02T15:14:47Z</time>
      </trkpt>
      <trkpt lat="46.42499" lon="5.40442">
        <ele>496.6</ele>
        <time>2022-03-02T15:14:48Z</time>
      </trkpt>
      <trkpt lat="46.425" lon="5.4041">
        <ele>495.6</ele>
        <time>2022-03-02T15:14:50Z</time>
      </trkpt>
      <trkpt lat="46.42491" lon="5.40381">
        <ele>494.8</ele>
        <time>2022-03-02T15:14:52Z</time>
      </trkpt>
      <trkpt lat="46.42482" lon="5.40365">
        <ele>494.2</ele>
        <time>2022-03-02T15:14:53Z</time>
      </trkpt>
      <trkpt lat="46.42472" lon="5.40355">
        <ele>493.6</ele>
        <time>2022-03-02T15:14:54Z</time>
      </trkpt>
      <trkpt lat="46.42462" lon="5.40346">
        <ele>492.8</ele>
        <time>2022-03-02T15:14:55Z</time>
      </trkpt>
      <trkpt lat="46.42442" lon="5.4033">
        <ele>490.8</ele>
        <time>2022-03-02T15:14:57Z</time>
      </trkpt>
      <trkpt lat="46.42419" lon="5.40308">
        <ele>489</ele>
        <time>2022-03-02T15:14:59Z</time>
      </trkpt>
      <trkpt lat="46.42402" lon="5.4028">
        <ele>487</ele>
        <time>2022-03-02T15:15:01Z</time>
      </trkpt>
      <trkpt lat="46.42397" lon="5.40263">
        <ele>485.4</ele>
        <time>2022-03-02T15:15:02Z</time>
      </trkpt>
      <trkpt lat="46.42394" lon="5.40247">
        <ele>484.6</ele>
        <time>2022-03-02T15:15:03Z</time>
      </trkpt>
      <trkpt lat="46.42393" lon="5.40229">
        <ele>483.4</ele>
        <time>2022-03-02T15:15:04Z</time>
      </trkpt>
      <trkpt lat="46.42394" lon="5.40195">
        <ele>481.8</ele>
        <time>2022-03-02T15:15:06Z</time>
      </trkpt>
      <trkpt lat="46.42395" lon="5.40161">
        <ele>480.2</ele>
        <time>2022-03-02T15:15:08Z</time>
      </trkpt>
      <trkpt lat="46.42396" lon="5.40145">
        <ele>479</ele>
        <time>2022-03-02T15:15:09Z</time>
      </trkpt>
      <trkpt lat="46.42396" lon="5.40115">
        <ele>477.8</ele>
        <time>2022-03-02T15:15:11Z</time>
      </trkpt>
      <trkpt lat="46.42397" lon="5.40083">
        <ele>476.6</ele>
        <time>2022-03-02T15:15:13Z</time>
      </trkpt>
      <trkpt lat="46.42398" lon="5.4005">
        <ele>475.2</ele>
        <time>2022-03-02T15:15:15Z</time>
      </trkpt>
      <trkpt lat="46.42399" lon="5.40018">
        <ele>474.2</ele>
        <time>2022-03-02T15:15:17Z</time>
      </trkpt>
      <trkpt lat="46.424" lon="5.3997">
        <ele>473</ele>
        <time>2022-03-02T15:15:20Z</time>
      </trkpt>
      <trkpt lat="46.42402" lon="5.3994">
        <ele>472</ele>
        <time>2022-03-02T15:15:22Z</time>
      </trkpt>
      <trkpt lat="46.42403" lon="5.39884">
        <ele>470.8</ele>
        <time>2022-03-02T15:15:26Z</time>
      </trkpt>
      <trkpt lat="46.42406" lon="5.39814">
        <ele>470.6</ele>
        <time>2022-03-02T15:15:32Z</time>
      </trkpt>
      <trkpt lat="46.42411" lon="5.39795">
        <ele>470.8</ele>
        <time>2022-03-02T15:15:34Z</time>
      </trkpt>
      <trkpt lat="46.42416" lon="5.39789">
        <ele>471</ele>
        <time>2022-03-02T15:15:35Z</time>
      </trkpt>
      <trkpt lat="46.42422" lon="5.39787">
        <ele>471.6</ele>
        <time>2022-03-02T15:15:36Z</time>
      </trkpt>
      <trkpt lat="46.42436" lon="5.39788">
        <ele>472.2</ele>
        <time>2022-03-02T15:15:38Z</time>
      </trkpt>
      <trkpt lat="46.42459" lon="5.398">
        <ele>472.4</ele>
        <time>2022-03-02T15:15:41Z</time>
      </trkpt>
      <trkpt lat="46.42466" lon="5.39807">
        <ele>472.4</ele>
        <time>2022-03-02T15:15:42Z</time>
      </trkpt>
      <trkpt lat="46.42473" lon="5.39814">
        <ele>472.4</ele>
        <time>2022-03-02T15:15:43Z</time>
      </trkpt>
      <trkpt lat="46.4249" lon="5.3984">
        <ele>472.4</ele>
        <time>2022-03-02T15:15:46Z</time>
      </trkpt>
      <trkpt lat="46.42522" lon="5.39878">
        <ele>471.8</ele>
        <time>2022-03-02T15:15:51Z</time>
      </trkpt>
      <trkpt lat="46.42573" lon="5.39918">
        <ele>471.2</ele>
        <time>2022-03-02T15:15:58Z</time>
      </trkpt>
      <trkpt lat="46.42586" lon="5.3993">
        <ele>471</ele>
        <time>2022-03-02T15:16:00Z</time>
      </trkpt>
      <trkpt lat="46.4262" lon="5.39949">
        <ele>471</ele>
        <time>2022-03-02T15:16:05Z</time>
      </trkpt>
      <trkpt lat="46.42667" lon="5.39971">
        <ele>472</ele>
        <time>2022-03-02T15:16:12Z</time>
      </trkpt>
      <trkpt lat="46.42674" lon="5.39974">
        <ele>472.2</ele>
        <time>2022-03-02T15:16:13Z</time>
      </trkpt>
      <trkpt lat="46.42725" lon="5.39998">
        <ele>472.8</ele>
        <time>2022-03-02T15:16:20Z</time>
      </trkpt>
      <trkpt lat="46.4278" lon="5.40021">
        <ele>473.4</ele>
        <time>2022-03-02T15:16:28Z</time>
      </trkpt>
      <trkpt lat="46.42794" lon="5.40026">
        <ele>473.4</ele>
        <time>2022-03-02T15:16:30Z</time>
      </trkpt>
      <trkpt lat="46.42801" lon="5.40029">
        <ele>473.6</ele>
        <time>2022-03-02T15:16:31Z</time>
      </trkpt>
      <trkpt lat="46.42847" lon="5.40045">
        <ele>473.6</ele>
        <time>2022-03-02T15:16:37Z</time>
      </trkpt>
      <trkpt lat="46.42901" lon="5.40054">
        <ele>473.2</ele>
        <time>2022-03-02T15:16:44Z</time>
      </trkpt>
      <trkpt lat="46.42956" lon="5.40061">
        <ele>473.8</ele>
        <time>2022-03-02T15:16:52Z</time>
      </trkpt>
      <trkpt lat="46.42975" lon="5.40063">
        <ele>474.6</ele>
        <time>2022-03-02T15:16:55Z</time>
      </trkpt>
      <trkpt lat="46.42994" lon="5.40067">
        <ele>475.6</ele>
        <time>2022-03-02T15:16:58Z</time>
      </trkpt>
      <trkpt lat="46.43007" lon="5.40069">
        <ele>476</ele>
        <time>2022-03-02T15:17:00Z</time>
      </trkpt>
      <trkpt lat="46.43065" lon="5.40075">
        <ele>476.4</ele>
        <time>2022-03-02T15:17:09Z</time>
      </trkpt>
      <trkpt lat="46.43101" lon="5.4008">
        <ele>476.4</ele>
        <time>2022-03-02T15:17:14Z</time>
      </trkpt>
      <trkpt lat="46.43143" lon="5.40088">
        <ele>475.2</ele>
        <time>2022-03-02T15:17:19Z</time>
      </trkpt>
      <trkpt lat="46.43167" lon="5.40091">
        <ele>474.6</ele>
        <time>2022-03-02T15:17:22Z</time>
      </trkpt>
      <trkpt lat="46.43183" lon="5.40095">
        <ele>474.6</ele>
        <time>2022-03-02T15:17:24Z</time>
      </trkpt>
      <trkpt lat="46.4319" lon="5.40098">
        <ele>474.4</ele>
        <time>2022-03-02T15:17:25Z</time>
      </trkpt>
      <trkpt lat="46.43228" lon="5.40118">
        <ele>474.2</ele>
        <time>2022-03-02T15:17:30Z</time>
      </trkpt>
      <trkpt lat="46.43236" lon="5.4012">
        <ele>474.2</ele>
        <time>2022-03-02T15:17:31Z</time>
      </trkpt>
      <trkpt lat="46.4326" lon="5.40121">
        <ele>474.2</ele>
        <time>2022-03-02T15:17:34Z</time>
      </trkpt>
      <trkpt lat="46.43307" lon="5.40115">
        <ele>474</ele>
        <time>2022-03-02T15:17:40Z</time>
      </trkpt>
      <trkpt lat="46.43362" lon="5.40118">
        <ele>473.6</ele>
        <time>2022-03-02T15:17:47Z</time>
      </trkpt>
      <trkpt lat="46.43408" lon="5.40132">
        <ele>473</ele>
        <time>2022-03-02T15:17:53Z</time>
      </trkpt>
      <trkpt lat="46.43461" lon="5.40154">
        <ele>472.6</ele>
        <time>2022-03-02T15:18:00Z</time>
      </trkpt>
      <trkpt lat="46.43468" lon="5.40158">
        <ele>472.6</ele>
        <time>2022-03-02T15:18:01Z</time>
      </trkpt>
      <trkpt lat="46.43503" lon="5.40171">
        <ele>473</ele>
        <time>2022-03-02T15:18:06Z</time>
      </trkpt>
      <trkpt lat="46.43546" lon="5.40175">
        <ele>473.6</ele>
        <time>2022-03-02T15:18:12Z</time>
      </trkpt>
      <trkpt lat="46.43602" lon="5.40187">
        <ele>474</ele>
        <time>2022-03-02T15:18:19Z</time>
      </trkpt>
      <trkpt lat="46.43608" lon="5.40188">
        <ele>474</ele>
        <time>2022-03-02T15:18:20Z</time>
      </trkpt>
      <trkpt lat="46.43623" lon="5.40188">
        <ele>474.2</ele>
        <time>2022-03-02T15:18:22Z</time>
      </trkpt>
      <trkpt lat="46.43644" lon="5.40186">
        <ele>474.4</ele>
        <time>2022-03-02T15:18:25Z</time>
      </trkpt>
      <trkpt lat="46.43665" lon="5.40183">
        <ele>474.6</ele>
        <time>2022-03-02T15:18:28Z</time>
      </trkpt>
      <trkpt lat="46.43696" lon="5.40178">
        <ele>475.6</ele>
        <time>2022-03-02T15:18:33Z</time>
      </trkpt>
      <trkpt lat="46.43727" lon="5.40173">
        <ele>475.8</ele>
        <time>2022-03-02T15:18:38Z</time>
      </trkpt>
      <trkpt lat="46.43739" lon="5.40171">
        <ele>476</ele>
        <time>2022-03-02T15:18:40Z</time>
      </trkpt>
      <trkpt lat="46.43772" lon="5.40164">
        <ele>476.2</ele>
        <time>2022-03-02T15:18:45Z</time>
      </trkpt>
      <trkpt lat="46.43825" lon="5.40147">
        <ele>476.4</ele>
        <time>2022-03-02T15:18:53Z</time>
      </trkpt>
      <trkpt lat="46.43869" lon="5.40131">
        <ele>476.4</ele>
        <time>2022-03-02T15:18:59Z</time>
      </trkpt>
      <trkpt lat="46.43884" lon="5.40121">
        <ele>476.2</ele>
        <time>2022-03-02T15:19:01Z</time>
      </trkpt>
      <trkpt lat="46.43905" lon="5.40102">
        <ele>475.6</ele>
        <time>2022-03-02T15:19:04Z</time>
      </trkpt>
      <trkpt lat="46.43925" lon="5.40088">
        <ele>475.4</ele>
        <time>2022-03-02T15:19:07Z</time>
      </trkpt>
      <trkpt lat="46.43932" lon="5.40086">
        <ele>475.2</ele>
        <time>2022-03-02T15:19:08Z</time>
      </trkpt>
      <trkpt lat="46.43964" lon="5.40084">
        <ele>475.2</ele>
        <time>2022-03-02T15:19:12Z</time>
      </trkpt>
      <trkpt lat="46.44004" lon="5.40081">
        <ele>474.8</ele>
        <time>2022-03-02T15:19:17Z</time>
      </trkpt>
      <trkpt lat="46.44012" lon="5.4008">
        <ele>474.8</ele>
        <time>2022-03-02T15:19:18Z</time>
      </trkpt>
      <trkpt lat="46.44055" lon="5.40069">
        <ele>474.8</ele>
        <time>2022-03-02T15:19:24Z</time>
      </trkpt>
      <trkpt lat="46.44104" lon="5.40057">
        <ele>475.6</ele>
        <time>2022-03-02T15:19:31Z</time>
      </trkpt>
      <trkpt lat="46.44123" lon="5.40051">
        <ele>475.8</ele>
        <time>2022-03-02T15:19:34Z</time>
      </trkpt>
      <trkpt lat="46.44136" lon="5.40045">
        <ele>476</ele>
        <time>2022-03-02T15:19:36Z</time>
      </trkpt>
      <trkpt lat="46.44142" lon="5.40041">
        <ele>476.2</ele>
        <time>2022-03-02T15:19:37Z</time>
      </trkpt>
      <trkpt lat="46.44148" lon="5.40036">
        <ele>476.2</ele>
        <time>2022-03-02T15:19:38Z</time>
      </trkpt>
      <trkpt lat="46.44169" lon="5.40016">
        <ele>476.6</ele>
        <time>2022-03-02T15:19:42Z</time>
      </trkpt>
      <trkpt lat="46.44184" lon="5.40001">
        <ele>477</ele>
        <time>2022-03-02T15:19:45Z</time>
      </trkpt>
      <trkpt lat="46.44206" lon="5.39982">
        <ele>477.2</ele>
        <time>2022-03-02T15:19:49Z</time>
      </trkpt>
      <trkpt lat="46.44242" lon="5.39957">
        <ele>477.4</ele>
        <time>2022-03-02T15:19:55Z</time>
      </trkpt>
      <trkpt lat="46.44249" lon="5.39955">
        <ele>477.6</ele>
        <time>2022-03-02T15:19:56Z</time>
      </trkpt>
      <trkpt lat="46.44289" lon="5.39952">
        <ele>477.4</ele>
        <time>2022-03-02T15:20:02Z</time>
      </trkpt>
      <trkpt lat="46.44316" lon="5.39949">
        <ele>477.8</ele>
        <time>2022-03-02T15:20:07Z</time>
      </trkpt>
      <trkpt lat="46.44326" lon="5.3995">
        <ele>478.2</ele>
        <time>2022-03-02T15:20:09Z</time>
      </trkpt>
      <trkpt lat="46.44341" lon="5.39952">
        <ele>479.4</ele>
        <time>2022-03-02T15:20:12Z</time>
      </trkpt>
      <trkpt lat="46.44356" lon="5.39952">
        <ele>480</ele>
        <time>2022-03-02T15:20:15Z</time>
      </trkpt>
      <trkpt lat="46.44361" lon="5.39952">
        <ele>480.4</ele>
        <time>2022-03-02T15:20:16Z</time>
      </trkpt>
      <trkpt lat="46.44391" lon="5.3995">
        <ele>481.4</ele>
        <time>2022-03-02T15:20:21Z</time>
      </trkpt>
      <trkpt lat="46.44412" lon="5.39949">
        <ele>481.4</ele>
        <time>2022-03-02T15:20:24Z</time>
      </trkpt>
      <trkpt lat="46.44428" lon="5.39946">
        <ele>481.2</ele>
        <time>2022-03-02T15:20:26Z</time>
      </trkpt>
      <trkpt lat="46.44472" lon="5.39927">
        <ele>480.6</ele>
        <time>2022-03-02T15:20:32Z</time>
      </trkpt>
      <trkpt lat="46.44511" lon="5.39907">
        <ele>480.8</ele>
        <time>2022-03-02T15:20:38Z</time>
      </trkpt>
      <trkpt lat="46.44568" lon="5.39881">
        <ele>481.8</ele>
        <time>2022-03-02T15:20:47Z</time>
      </trkpt>
      <trkpt lat="46.44587" lon="5.3987">
        <ele>482</ele>
        <time>2022-03-02T15:20:50Z</time>
      </trkpt>
      <trkpt lat="46.44598" lon="5.3986">
        <ele>482</ele>
        <time>2022-03-02T15:20:52Z</time>
      </trkpt>
      <trkpt lat="46.44622" lon="5.39833">
        <ele>482.4</ele>
        <time>2022-03-02T15:20:57Z</time>
      </trkpt>
      <trkpt lat="46.44637" lon="5.39816">
        <ele>482.4</ele>
        <time>2022-03-02T15:21:00Z</time>
      </trkpt>
      <trkpt lat="46.44643" lon="5.39811">
        <ele>482.4</ele>
        <time>2022-03-02T15:21:01Z</time>
      </trkpt>
      <trkpt lat="46.44658" lon="5.39802">
        <ele>482.4</ele>
        <time>2022-03-02T15:21:03Z</time>
      </trkpt>
      <trkpt lat="46.44683" lon="5.39795">
        <ele>482</ele>
        <time>2022-03-02T15:21:06Z</time>
      </trkpt>
      <trkpt lat="46.44692" lon="5.39795">
        <ele>481.6</ele>
        <time>2022-03-02T15:21:07Z</time>
      </trkpt>
      <trkpt lat="46.447" lon="5.39795">
        <ele>481.2</ele>
        <time>2022-03-02T15:21:08Z</time>
      </trkpt>
      <trkpt lat="46.44735" lon="5.39798">
        <ele>480.8</ele>
        <time>2022-03-02T15:21:13Z</time>
      </trkpt>
      <trkpt lat="46.44771" lon="5.39798">
        <ele>481.8</ele>
        <time>2022-03-02T15:21:19Z</time>
      </trkpt>
      <trkpt lat="46.44777" lon="5.39799">
        <ele>482.2</ele>
        <time>2022-03-02T15:21:20Z</time>
      </trkpt>
      <trkpt lat="46.448" lon="5.39795">
        <ele>483.2</ele>
        <time>2022-03-02T15:21:24Z</time>
      </trkpt>
      <trkpt lat="46.44806" lon="5.39793">
        <ele>483.6</ele>
        <time>2022-03-02T15:21:25Z</time>
      </trkpt>
      <trkpt lat="46.44831" lon="5.39776">
        <ele>483.8</ele>
        <time>2022-03-02T15:21:29Z</time>
      </trkpt>
      <trkpt lat="46.44866" lon="5.39756">
        <ele>483.4</ele>
        <time>2022-03-02T15:21:34Z</time>
      </trkpt>
      <trkpt lat="46.44897" lon="5.39749">
        <ele>483.2</ele>
        <time>2022-03-02T15:21:39Z</time>
      </trkpt>
      <trkpt lat="46.44937" lon="5.39737">
        <ele>484.4</ele>
        <time>2022-03-02T15:21:46Z</time>
      </trkpt>
      <trkpt lat="46.44951" lon="5.39734">
        <ele>484.8</ele>
        <time>2022-03-02T15:21:48Z</time>
      </trkpt>
      <trkpt lat="46.44978" lon="5.39724">
        <ele>484.8</ele>
        <time>2022-03-02T15:21:52Z</time>
      </trkpt>
      <trkpt lat="46.45004" lon="5.39701">
        <ele>484.6</ele>
        <time>2022-03-02T15:21:57Z</time>
      </trkpt>
      <trkpt lat="46.45026" lon="5.39677">
        <ele>484.8</ele>
        <time>2022-03-02T15:22:02Z</time>
      </trkpt>
      <trkpt lat="46.45046" lon="5.39658">
        <ele>486</ele>
        <time>2022-03-02T15:22:06Z</time>
      </trkpt>
      <trkpt lat="46.4506" lon="5.39648">
        <ele>486.6</ele>
        <time>2022-03-02T15:22:09Z</time>
      </trkpt>
      <trkpt lat="46.45076" lon="5.39636">
        <ele>487</ele>
        <time>2022-03-02T15:22:12Z</time>
      </trkpt>
      <trkpt lat="46.45104" lon="5.39616">
        <ele>488</ele>
        <time>2022-03-02T15:22:17Z</time>
      </trkpt>
      <trkpt lat="46.45109" lon="5.39613">
        <ele>488.6</ele>
        <time>2022-03-02T15:22:19Z</time>
      </trkpt>
      <trkpt lat="46.45145" lon="5.39595">
        <ele>489</ele>
        <time>2022-03-02T15:22:25Z</time>
      </trkpt>
      <trkpt lat="46.45197" lon="5.39571">
        <ele>488.6</ele>
        <time>2022-03-02T15:22:32Z</time>
      </trkpt>
      <trkpt lat="46.45252" lon="5.39543">
        <ele>487.4</ele>
        <time>2022-03-02T15:22:39Z</time>
      </trkpt>
      <trkpt lat="46.45259" lon="5.39537">
        <ele>487.2</ele>
        <time>2022-03-02T15:22:40Z</time>
      </trkpt>
      <trkpt lat="46.45273" lon="5.39524">
        <ele>486</ele>
        <time>2022-03-02T15:22:43Z</time>
      </trkpt>
      <trkpt lat="46.45286" lon="5.39509">
        <ele>485.8</ele>
        <time>2022-03-02T15:22:44Z</time>
      </trkpt>
      <trkpt lat="46.45292" lon="5.39502">
        <ele>485.6</ele>
        <time>2022-03-02T15:22:45Z</time>
      </trkpt>
      <trkpt lat="46.45309" lon="5.39478">
        <ele>485</ele>
        <time>2022-03-02T15:22:48Z</time>
      </trkpt>
      <trkpt lat="46.45309" lon="5.39478">
        <ele>484.8</ele>
        <time>2022-03-02T15:22:49Z</time>
      </trkpt>
      <trkpt lat="46.45322" lon="5.39453">
        <ele>484.6</ele>
        <time>2022-03-02T15:22:51Z</time>
      </trkpt>
      <trkpt lat="46.45331" lon="5.39432">
        <ele>484.2</ele>
        <time>2022-03-02T15:22:53Z</time>
      </trkpt>
      <trkpt lat="46.4534" lon="5.39402">
        <ele>484</ele>
        <time>2022-03-02T15:22:57Z</time>
      </trkpt>
      <trkpt lat="46.45358" lon="5.39354">
        <ele>483.6</ele>
        <time>2022-03-02T15:23:01Z</time>
      </trkpt>
      <trkpt lat="46.45362" lon="5.39342">
        <ele>483.4</ele>
        <time>2022-03-02T15:23:02Z</time>
      </trkpt>
      <trkpt lat="46.45381" lon="5.39293">
        <ele>482.2</ele>
        <time>2022-03-02T15:23:05Z</time>
      </trkpt>
      <trkpt lat="46.45381" lon="5.39293">
        <ele>481.2</ele>
        <time>2022-03-02T15:23:06Z</time>
      </trkpt>
      <trkpt lat="46.45398" lon="5.39246">
        <ele>480</ele>
        <time>2022-03-02T15:23:09Z</time>
      </trkpt>
      <trkpt lat="46.45412" lon="5.39211">
        <ele>478.8</ele>
        <time>2022-03-02T15:23:13Z</time>
      </trkpt>
      <trkpt lat="46.45427" lon="5.39165">
        <ele>477.6</ele>
        <time>2022-03-02T15:23:16Z</time>
      </trkpt>
      <trkpt lat="46.45431" lon="5.39154">
        <ele>477.4</ele>
        <time>2022-03-02T15:23:17Z</time>
      </trkpt>
      <trkpt lat="46.45442" lon="5.39123">
        <ele>476.6</ele>
        <time>2022-03-02T15:23:21Z</time>
      </trkpt>
      <trkpt lat="46.45448" lon="5.3911">
        <ele>476.4</ele>
        <time>2022-03-02T15:23:22Z</time>
      </trkpt>
      <trkpt lat="46.45462" lon="5.39093">
        <ele>476.2</ele>
        <time>2022-03-02T15:23:23Z</time>
      </trkpt>
      <trkpt lat="46.45477" lon="5.39091">
        <ele>475.8</ele>
        <time>2022-03-02T15:23:25Z</time>
      </trkpt>
      <trkpt lat="46.45486" lon="5.39096">
        <ele>475</ele>
        <time>2022-03-02T15:23:26Z</time>
      </trkpt>
      <trkpt lat="46.45492" lon="5.39101">
        <ele>474.8</ele>
        <time>2022-03-02T15:23:27Z</time>
      </trkpt>
      <trkpt lat="46.45497" lon="5.39107">
        <ele>474</ele>
        <time>2022-03-02T15:23:29Z</time>
      </trkpt>
      <trkpt lat="46.45503" lon="5.39113">
        <ele>473.8</ele>
        <time>2022-03-02T15:23:30Z</time>
      </trkpt>
      <trkpt lat="46.45547" lon="5.3916">
        <ele>473.6</ele>
        <time>2022-03-02T15:23:37Z</time>
      </trkpt>
      <trkpt lat="46.45552" lon="5.39163">
        <ele>474</ele>
        <time>2022-03-02T15:23:38Z</time>
      </trkpt>
      <trkpt lat="46.45581" lon="5.39192">
        <ele>475.4</ele>
        <time>2022-03-02T15:23:44Z</time>
      </trkpt>
      <trkpt lat="46.45587" lon="5.39198">
        <ele>475.4</ele>
        <time>2022-03-02T15:23:45Z</time>
      </trkpt>
      <trkpt lat="46.45598" lon="5.39212">
        <ele>476.6</ele>
        <time>2022-03-02T15:23:49Z</time>
      </trkpt>
      <trkpt lat="46.45619" lon="5.39233">
        <ele>477.6</ele>
        <time>2022-03-02T15:23:53Z</time>
      </trkpt>
      <trkpt lat="46.45635" lon="5.39248">
        <ele>478.6</ele>
        <time>2022-03-02T15:23:57Z</time>
      </trkpt>
      <trkpt lat="46.45646" lon="5.39261">
        <ele>479.4</ele>
        <time>2022-03-02T15:24:00Z</time>
      </trkpt>
      <trkpt lat="46.45653" lon="5.39268">
        <ele>479.8</ele>
        <time>2022-03-02T15:24:02Z</time>
      </trkpt>
      <trkpt lat="46.45671" lon="5.39287">
        <ele>481</ele>
        <time>2022-03-02T15:24:08Z</time>
      </trkpt>
      <trkpt lat="46.45685" lon="5.39302">
        <ele>481.6</ele>
        <time>2022-03-02T15:24:12Z</time>
      </trkpt>
      <trkpt lat="46.45695" lon="5.39312">
        <ele>482</ele>
        <time>2022-03-02T15:24:15Z</time>
      </trkpt>
      <trkpt lat="46.45711" lon="5.3933">
        <ele>483.2</ele>
        <time>2022-03-02T15:24:19Z</time>
      </trkpt>
      <trkpt lat="46.4572" lon="5.3934">
        <ele>483.8</ele>
        <time>2022-03-02T15:24:22Z</time>
      </trkpt>
      <trkpt lat="46.4573" lon="5.39351">
        <ele>484.4</ele>
        <time>2022-03-02T15:24:25Z</time>
      </trkpt>
      <trkpt lat="46.45741" lon="5.39365">
        <ele>485.4</ele>
        <time>2022-03-02T15:24:29Z</time>
      </trkpt>
      <trkpt lat="46.45751" lon="5.3938">
        <ele>486.4</ele>
        <time>2022-03-02T15:24:33Z</time>
      </trkpt>
      <trkpt lat="46.45751" lon="5.3938">
        <ele>486.8</ele>
        <time>2022-03-02T15:24:34Z</time>
      </trkpt>
      <trkpt lat="46.45761" lon="5.39402">
        <ele>487.8</ele>
        <time>2022-03-02T15:24:38Z</time>
      </trkpt>
      <trkpt lat="46.45767" lon="5.3942">
        <ele>488.8</ele>
        <time>2022-03-02T15:24:42Z</time>
      </trkpt>
      <trkpt lat="46.45773" lon="5.39456">
        <ele>489.8</ele>
        <time>2022-03-02T15:24:49Z</time>
      </trkpt>
      <trkpt lat="46.45773" lon="5.39456">
        <ele>490</ele>
        <time>2022-03-02T15:24:50Z</time>
      </trkpt>
      <trkpt lat="46.45772" lon="5.3948">
        <ele>491</ele>
        <time>2022-03-02T15:24:55Z</time>
      </trkpt>
      <trkpt lat="46.4577" lon="5.395">
        <ele>491.4</ele>
        <time>2022-03-02T15:24:58Z</time>
      </trkpt>
      <trkpt lat="46.45769" lon="5.39513">
        <ele>492</ele>
        <time>2022-03-02T15:25:00Z</time>
      </trkpt>
      <trkpt lat="46.45763" lon="5.39549">
        <ele>493.2</ele>
        <time>2022-03-02T15:25:07Z</time>
      </trkpt>
      <trkpt lat="46.4576" lon="5.39587">
        <ele>493.8</ele>
        <time>2022-03-02T15:25:12Z</time>
      </trkpt>
      <trkpt lat="46.45761" lon="5.39612">
        <ele>494</ele>
        <time>2022-03-02T15:25:16Z</time>
      </trkpt>
      <trkpt lat="46.45763" lon="5.39625">
        <ele>494.2</ele>
        <time>2022-03-02T15:25:18Z</time>
      </trkpt>
      <trkpt lat="46.45764" lon="5.39637">
        <ele>494.4</ele>
        <time>2022-03-02T15:25:20Z</time>
      </trkpt>
      <trkpt lat="46.45767" lon="5.39648">
        <ele>494.6</ele>
        <time>2022-03-02T15:25:22Z</time>
      </trkpt>
      <trkpt lat="46.45775" lon="5.39667">
        <ele>495.2</ele>
        <time>2022-03-02T15:25:26Z</time>
      </trkpt>
      <trkpt lat="46.4578" lon="5.39677">
        <ele>495.4</ele>
        <time>2022-03-02T15:25:28Z</time>
      </trkpt>
      <trkpt lat="46.45797" lon="5.39704">
        <ele>496.2</ele>
        <time>2022-03-02T15:25:34Z</time>
      </trkpt>
      <trkpt lat="46.45801" lon="5.39709">
        <ele>496.6</ele>
        <time>2022-03-02T15:25:36Z</time>
      </trkpt>
      <trkpt lat="46.45808" lon="5.39715">
        <ele>496.8</ele>
        <time>2022-03-02T15:25:37Z</time>
      </trkpt>
      <trkpt lat="46.45817" lon="5.39724">
        <ele>497.4</ele>
        <time>2022-03-02T15:25:40Z</time>
      </trkpt>
      <trkpt lat="46.45826" lon="5.39731">
        <ele>497.8</ele>
        <time>2022-03-02T15:25:42Z</time>
      </trkpt>
      <trkpt lat="46.45837" lon="5.3974">
        <ele>498.4</ele>
        <time>2022-03-02T15:25:46Z</time>
      </trkpt>
      <trkpt lat="46.45869" lon="5.39767">
        <ele>499.4</ele>
        <time>2022-03-02T15:25:53Z</time>
      </trkpt>
      <trkpt lat="46.45872" lon="5.39771">
        <ele>499.6</ele>
        <time>2022-03-02T15:25:54Z</time>
      </trkpt>
      <trkpt lat="46.45903" lon="5.39798">
        <ele>500.4</ele>
        <time>2022-03-02T15:26:01Z</time>
      </trkpt>
      <trkpt lat="46.45912" lon="5.39806">
        <ele>500.6</ele>
        <time>2022-03-02T15:26:03Z</time>
      </trkpt>
      <trkpt lat="46.45945" lon="5.39833">
        <ele>501</ele>
        <time>2022-03-02T15:26:10Z</time>
      </trkpt>
      <trkpt lat="46.45985" lon="5.39867">
        <ele>501.4</ele>
        <time>2022-03-02T15:26:18Z</time>
      </trkpt>
      <trkpt lat="46.4599" lon="5.39871">
        <ele>501.8</ele>
        <time>2022-03-02T15:26:20Z</time>
      </trkpt>
      <trkpt lat="46.46026" lon="5.39901">
        <ele>502.2</ele>
        <time>2022-03-02T15:26:26Z</time>
      </trkpt>
      <trkpt lat="46.46052" lon="5.39923">
        <ele>502.8</ele>
        <time>2022-03-02T15:26:31Z</time>
      </trkpt>
      <trkpt lat="46.4607" lon="5.39938">
        <ele>503</ele>
        <time>2022-03-02T15:26:35Z</time>
      </trkpt>
      <trkpt lat="46.46104" lon="5.39967">
        <ele>503.8</ele>
        <time>2022-03-02T15:26:43Z</time>
      </trkpt>
      <trkpt lat="46.4612" lon="5.3998">
        <ele>504.4</ele>
        <time>2022-03-02T15:26:45Z</time>
      </trkpt>
      <trkpt lat="46.46154" lon="5.4001">
        <ele>504.4</ele>
        <time>2022-03-02T15:26:52Z</time>
      </trkpt>
      <trkpt lat="46.46163" lon="5.4002">
        <ele>504.4</ele>
        <time>2022-03-02T15:26:54Z</time>
      </trkpt>
      <trkpt lat="46.46179" lon="5.40044">
        <ele>504.8</ele>
        <time>2022-03-02T15:26:58Z</time>
      </trkpt>
      <trkpt lat="46.46182" lon="5.40052">
        <ele>504.8</ele>
        <time>2022-03-02T15:26:59Z</time>
      </trkpt>
      <trkpt lat="46.46192" lon="5.40087">
        <ele>505.4</ele>
        <time>2022-03-02T15:27:04Z</time>
      </trkpt>
      <trkpt lat="46.46193" lon="5.40094">
        <ele>505.6</ele>
        <time>2022-03-02T15:27:05Z</time>
      </trkpt>
      <trkpt lat="46.46194" lon="5.40116">
        <ele>506</ele>
        <time>2022-03-02T15:27:09Z</time>
      </trkpt>
      <trkpt lat="46.46195" lon="5.4013">
        <ele>506.4</ele>
        <time>2022-03-02T15:27:10Z</time>
      </trkpt>
      <trkpt lat="46.462" lon="5.40138">
        <ele>506.6</ele>
        <time>2022-03-02T15:27:12Z</time>
      </trkpt>
      <trkpt lat="46.46204" lon="5.40139">
        <ele>506.6</ele>
        <time>2022-03-02T15:27:13Z</time>
      </trkpt>
      <trkpt lat="46.46212" lon="5.40135">
        <ele>506.8</ele>
        <time>2022-03-02T15:27:15Z</time>
      </trkpt>
      <trkpt lat="46.46217" lon="5.4013">
        <ele>507.2</ele>
        <time>2022-03-02T15:27:16Z</time>
      </trkpt>
      <trkpt lat="46.46221" lon="5.40126">
        <ele>507.2</ele>
        <time>2022-03-02T15:27:17Z</time>
      </trkpt>
      <trkpt lat="46.46248" lon="5.401">
        <ele>507.8</ele>
        <time>2022-03-02T15:27:23Z</time>
      </trkpt>
      <trkpt lat="46.46257" lon="5.40095">
        <ele>507.8</ele>
        <time>2022-03-02T15:27:25Z</time>
      </trkpt>
      <trkpt lat="46.46267" lon="5.40092">
        <ele>508</ele>
        <time>2022-03-02T15:27:27Z</time>
      </trkpt>
      <trkpt lat="46.46271" lon="5.40091">
        <ele>508.2</ele>
        <time>2022-03-02T15:27:28Z</time>
      </trkpt>
      <trkpt lat="46.46271" lon="5.40091">
        <ele>508.2</ele>
        <time>2022-03-02T15:27:29Z</time>
      </trkpt>
      <trkpt lat="46.46304" lon="5.40092">
        <ele>509.4</ele>
        <time>2022-03-02T15:27:36Z</time>
      </trkpt>
      <trkpt lat="46.46316" lon="5.40093">
        <ele>510.4</ele>
        <time>2022-03-02T15:27:39Z</time>
      </trkpt>
      <trkpt lat="46.46334" lon="5.40093">
        <ele>511.6</ele>
        <time>2022-03-02T15:27:43Z</time>
      </trkpt>
      <trkpt lat="46.46343" lon="5.40092">
        <ele>512</ele>
        <time>2022-03-02T15:27:45Z</time>
      </trkpt>
      <trkpt lat="46.46362" lon="5.4009">
        <ele>512.6</ele>
        <time>2022-03-02T15:27:49Z</time>
      </trkpt>
      <trkpt lat="46.4638" lon="5.40086">
        <ele>513.4</ele>
        <time>2022-03-02T15:27:53Z</time>
      </trkpt>
      <trkpt lat="46.46394" lon="5.40084">
        <ele>513.8</ele>
        <time>2022-03-02T15:27:56Z</time>
      </trkpt>
      <trkpt lat="46.46421" lon="5.40079">
        <ele>514.8</ele>
        <time>2022-03-02T15:28:02Z</time>
      </trkpt>
      <trkpt lat="46.4644" lon="5.40075">
        <ele>515.8</ele>
        <time>2022-03-02T15:28:06Z</time>
      </trkpt>
      <trkpt lat="46.46443" lon="5.40074">
        <ele>516</ele>
        <time>2022-03-02T15:28:07Z</time>
      </trkpt>
      <trkpt lat="46.46485" lon="5.4007">
        <ele>517.2</ele>
        <time>2022-03-02T15:28:16Z</time>
      </trkpt>
      <trkpt lat="46.46495" lon="5.4007">
        <ele>517.6</ele>
        <time>2022-03-02T15:28:18Z</time>
      </trkpt>
      <trkpt lat="46.46515" lon="5.40075">
        <ele>518.2</ele>
        <time>2022-03-02T15:28:22Z</time>
      </trkpt>
      <trkpt lat="46.46519" lon="5.40077">
        <ele>518.4</ele>
        <time>2022-03-02T15:28:23Z</time>
      </trkpt>
      <trkpt lat="46.46551" lon="5.40094">
        <ele>519.2</ele>
        <time>2022-03-02T15:28:30Z</time>
      </trkpt>
      <trkpt lat="46.46555" lon="5.40096">
        <ele>519.4</ele>
        <time>2022-03-02T15:28:31Z</time>
      </trkpt>
      <trkpt lat="46.46578" lon="5.40108">
        <ele>520.8</ele>
        <time>2022-03-02T15:28:36Z</time>
      </trkpt>
      <trkpt lat="46.46594" lon="5.40117">
        <ele>521.4</ele>
        <time>2022-03-02T15:28:40Z</time>
      </trkpt>
      <trkpt lat="46.46606" lon="5.40123">
        <ele>521.8</ele>
        <time>2022-03-02T15:28:43Z</time>
      </trkpt>
      <trkpt lat="46.4662" lon="5.40131">
        <ele>522.4</ele>
        <time>2022-03-02T15:28:47Z</time>
      </trkpt>
      <trkpt lat="46.46628" lon="5.40135">
        <ele>522.8</ele>
        <time>2022-03-02T15:28:49Z</time>
      </trkpt>
      <trkpt lat="46.4665" lon="5.40147">
        <ele>524</ele>
        <time>2022-03-02T15:28:55Z</time>
      </trkpt>
      <trkpt lat="46.46664" lon="5.40153">
        <ele>525</ele>
        <time>2022-03-02T15:28:59Z</time>
      </trkpt>
      <trkpt lat="46.46681" lon="5.40162">
        <ele>526</ele>
        <time>2022-03-02T15:29:04Z</time>
      </trkpt>
      <trkpt lat="46.46687" lon="5.40165">
        <ele>526.4</ele>
        <time>2022-03-02T15:29:06Z</time>
      </trkpt>
      <trkpt lat="46.46694" lon="5.40169">
        <ele>527</ele>
        <time>2022-03-02T15:29:08Z</time>
      </trkpt>
      <trkpt lat="46.46715" lon="5.40179">
        <ele>528.4</ele>
        <time>2022-03-02T15:29:14Z</time>
      </trkpt>
      <trkpt lat="46.46722" lon="5.40182">
        <ele>529</ele>
        <time>2022-03-02T15:29:16Z</time>
      </trkpt>
      <trkpt lat="46.46732" lon="5.40187">
        <ele>529.4</ele>
        <time>2022-03-02T15:29:19Z</time>
      </trkpt>
      <trkpt lat="46.46753" lon="5.40197">
        <ele>530.4</ele>
        <time>2022-03-02T15:29:25Z</time>
      </trkpt>
      <trkpt lat="46.46756" lon="5.40199">
        <ele>530.6</ele>
        <time>2022-03-02T15:29:26Z</time>
      </trkpt>
      <trkpt lat="46.46774" lon="5.40208">
        <ele>531.6</ele>
        <time>2022-03-02T15:29:31Z</time>
      </trkpt>
      <trkpt lat="46.46787" lon="5.40216">
        <ele>532.6</ele>
        <time>2022-03-02T15:29:35Z</time>
      </trkpt>
      <trkpt lat="46.46797" lon="5.40222">
        <ele>533.4</ele>
        <time>2022-03-02T15:29:38Z</time>
      </trkpt>
      <trkpt lat="46.46802" lon="5.40224">
        <ele>533.6</ele>
        <time>2022-03-02T15:29:40Z</time>
      </trkpt>
      <trkpt lat="46.46822" lon="5.40235">
        <ele>534.8</ele>
        <time>2022-03-02T15:29:45Z</time>
      </trkpt>
      <trkpt lat="46.46829" lon="5.40238">
        <ele>535.4</ele>
        <time>2022-03-02T15:29:47Z</time>
      </trkpt>
      <trkpt lat="46.46835" lon="5.40241">
        <ele>535.8</ele>
        <time>2022-03-02T15:29:49Z</time>
      </trkpt>
      <trkpt lat="46.46854" lon="5.40249">
        <ele>537.2</ele>
        <time>2022-03-02T15:29:54Z</time>
      </trkpt>
      <trkpt lat="46.46861" lon="5.40253">
        <ele>537.4</ele>
        <time>2022-03-02T15:29:56Z</time>
      </trkpt>
      <trkpt lat="46.46877" lon="5.40261">
        <ele>538.2</ele>
        <time>2022-03-02T15:30:00Z</time>
      </trkpt>
      <trkpt lat="46.46902" lon="5.40273">
        <ele>539.2</ele>
        <time>2022-03-02T15:30:06Z</time>
      </trkpt>
      <trkpt lat="46.46933" lon="5.40289">
        <ele>540</ele>
        <time>2022-03-02T15:30:13Z</time>
      </trkpt>
      <trkpt lat="46.46938" lon="5.40291">
        <ele>540.2</ele>
        <time>2022-03-02T15:30:14Z</time>
      </trkpt>
      <trkpt lat="46.46973" lon="5.40307">
        <ele>541.4</ele>
        <time>2022-03-02T15:30:21Z</time>
      </trkpt>
      <trkpt lat="46.46989" lon="5.40311">
        <ele>542</ele>
        <time>2022-03-02T15:30:24Z</time>
      </trkpt>
      <trkpt lat="46.46994" lon="5.40313">
        <ele>542.6</ele>
        <time>2022-03-02T15:30:25Z</time>
      </trkpt>
      <trkpt lat="46.47015" lon="5.4032">
        <ele>543.6</ele>
        <time>2022-03-02T15:30:29Z</time>
      </trkpt>
      <trkpt lat="46.47021" lon="5.40322">
        <ele>543.8</ele>
        <time>2022-03-02T15:30:30Z</time>
      </trkpt>
      <trkpt lat="46.47057" lon="5.40324">
        <ele>544.2</ele>
        <time>2022-03-02T15:30:36Z</time>
      </trkpt>
      <trkpt lat="46.47095" lon="5.40327">
        <ele>544.2</ele>
        <time>2022-03-02T15:30:41Z</time>
      </trkpt>
      <trkpt lat="46.47132" lon="5.40332">
        <ele>542.6</ele>
        <time>2022-03-02T15:30:45Z</time>
      </trkpt>
      <trkpt lat="46.47148" lon="5.40337">
        <ele>541.8</ele>
        <time>2022-03-02T15:30:47Z</time>
      </trkpt>
      <trkpt lat="46.4716" lon="5.4034">
        <ele>541.4</ele>
        <time>2022-03-02T15:30:48Z</time>
      </trkpt>
      <trkpt lat="46.47187" lon="5.40353">
        <ele>540.4</ele>
        <time>2022-03-02T15:30:51Z</time>
      </trkpt>
      <trkpt lat="46.47198" lon="5.40361">
        <ele>540.4</ele>
        <time>2022-03-02T15:30:52Z</time>
      </trkpt>
      <trkpt lat="46.47214" lon="5.40381">
        <ele>539.8</ele>
        <time>2022-03-02T15:30:54Z</time>
      </trkpt>
      <trkpt lat="46.47228" lon="5.404">
        <ele>539.2</ele>
        <time>2022-03-02T15:30:56Z</time>
      </trkpt>
      <trkpt lat="46.47238" lon="5.40412">
        <ele>538.6</ele>
        <time>2022-03-02T15:30:57Z</time>
      </trkpt>
      <trkpt lat="46.47246" lon="5.40417">
        <ele>538.4</ele>
        <time>2022-03-02T15:30:58Z</time>
      </trkpt>
      <trkpt lat="46.47259" lon="5.40424">
        <ele>537.8</ele>
        <time>2022-03-02T15:30:59Z</time>
      </trkpt>
      <trkpt lat="46.47279" lon="5.40433">
        <ele>536.2</ele>
        <time>2022-03-02T15:31:01Z</time>
      </trkpt>
      <trkpt lat="46.4729" lon="5.40436">
        <ele>535.4</ele>
        <time>2022-03-02T15:31:02Z</time>
      </trkpt>
      <trkpt lat="46.47304" lon="5.4044">
        <ele>535</ele>
        <time>2022-03-02T15:31:03Z</time>
      </trkpt>
      <trkpt lat="46.47324" lon="5.40445">
        <ele>533.8</ele>
        <time>2022-03-02T15:31:05Z</time>
      </trkpt>
      <trkpt lat="46.4736" lon="5.40449">
        <ele>532.4</ele>
        <time>2022-03-02T15:31:08Z</time>
      </trkpt>
      <trkpt lat="46.47383" lon="5.4045">
        <ele>531.4</ele>
        <time>2022-03-02T15:31:10Z</time>
      </trkpt>
      <trkpt lat="46.47394" lon="5.40449">
        <ele>530.4</ele>
        <time>2022-03-02T15:31:11Z</time>
      </trkpt>
      <trkpt lat="46.47405" lon="5.40447">
        <ele>530</ele>
        <time>2022-03-02T15:31:12Z</time>
      </trkpt>
      <trkpt lat="46.47438" lon="5.40445">
        <ele>528</ele>
        <time>2022-03-02T15:31:15Z</time>
      </trkpt>
      <trkpt lat="46.47447" lon="5.40446">
        <ele>527</ele>
        <time>2022-03-02T15:31:16Z</time>
      </trkpt>
      <trkpt lat="46.4746" lon="5.40448">
        <ele>526.6</ele>
        <time>2022-03-02T15:31:17Z</time>
      </trkpt>
      <trkpt lat="46.47468" lon="5.4045">
        <ele>525.8</ele>
        <time>2022-03-02T15:31:18Z</time>
      </trkpt>
      <trkpt lat="46.47488" lon="5.40457">
        <ele>524.8</ele>
        <time>2022-03-02T15:31:20Z</time>
      </trkpt>
      <trkpt lat="46.47497" lon="5.40463">
        <ele>524.6</ele>
        <time>2022-03-02T15:31:21Z</time>
      </trkpt>
      <trkpt lat="46.47504" lon="5.40471">
        <ele>524</ele>
        <time>2022-03-02T15:31:22Z</time>
      </trkpt>
      <trkpt lat="46.47511" lon="5.40478">
        <ele>523.6</ele>
        <time>2022-03-02T15:31:23Z</time>
      </trkpt>
      <trkpt lat="46.4752" lon="5.40478">
        <ele>522.6</ele>
        <time>2022-03-02T15:31:24Z</time>
      </trkpt>
      <trkpt lat="46.47527" lon="5.40473">
        <ele>521.8</ele>
        <time>2022-03-02T15:31:25Z</time>
      </trkpt>
      <trkpt lat="46.47531" lon="5.40466">
        <ele>521.6</ele>
        <time>2022-03-02T15:31:26Z</time>
      </trkpt>
      <trkpt lat="46.47535" lon="5.40452">
        <ele>520.8</ele>
        <time>2022-03-02T15:31:27Z</time>
      </trkpt>
      <trkpt lat="46.47537" lon="5.40439">
        <ele>520.2</ele>
        <time>2022-03-02T15:31:28Z</time>
      </trkpt>
      <trkpt lat="46.47537" lon="5.40425">
        <ele>519</ele>
        <time>2022-03-02T15:31:29Z</time>
      </trkpt>
      <trkpt lat="46.47536" lon="5.40411">
        <ele>518.2</ele>
        <time>2022-03-02T15:31:30Z</time>
      </trkpt>
      <trkpt lat="46.47533" lon="5.404">
        <ele>517.4</ele>
        <time>2022-03-02T15:31:31Z</time>
      </trkpt>
      <trkpt lat="46.47523" lon="5.40369">
        <ele>516.2</ele>
        <time>2022-03-02T15:31:33Z</time>
      </trkpt>
      <trkpt lat="46.47519" lon="5.40338">
        <ele>515.4</ele>
        <time>2022-03-02T15:31:35Z</time>
      </trkpt>
      <trkpt lat="46.47521" lon="5.40326">
        <ele>515</ele>
        <time>2022-03-02T15:31:36Z</time>
      </trkpt>
      <trkpt lat="46.47528" lon="5.4031">
        <ele>514.8</ele>
        <time>2022-03-02T15:31:37Z</time>
      </trkpt>
      <trkpt lat="46.47545" lon="5.40286">
        <ele>514.2</ele>
        <time>2022-03-02T15:31:39Z</time>
      </trkpt>
      <trkpt lat="46.47554" lon="5.40276">
        <ele>514</ele>
        <time>2022-03-02T15:31:40Z</time>
      </trkpt>
      <trkpt lat="46.47563" lon="5.40269">
        <ele>513</ele>
        <time>2022-03-02T15:31:41Z</time>
      </trkpt>
      <trkpt lat="46.4759" lon="5.40258">
        <ele>511.2</ele>
        <time>2022-03-02T15:31:43Z</time>
      </trkpt>
      <trkpt lat="46.47615" lon="5.40253">
        <ele>509.4</ele>
        <time>2022-03-02T15:31:45Z</time>
      </trkpt>
      <trkpt lat="46.47637" lon="5.40249">
        <ele>508.2</ele>
        <time>2022-03-02T15:31:47Z</time>
      </trkpt>
      <trkpt lat="46.47652" lon="5.40247">
        <ele>507.8</ele>
        <time>2022-03-02T15:31:48Z</time>
      </trkpt>
      <trkpt lat="46.47664" lon="5.40248">
        <ele>507</ele>
        <time>2022-03-02T15:31:49Z</time>
      </trkpt>
      <trkpt lat="46.47686" lon="5.40246">
        <ele>506.2</ele>
        <time>2022-03-02T15:31:51Z</time>
      </trkpt>
      <trkpt lat="46.47698" lon="5.40238">
        <ele>505.6</ele>
        <time>2022-03-02T15:31:52Z</time>
      </trkpt>
      <trkpt lat="46.47706" lon="5.40227">
        <ele>505.2</ele>
        <time>2022-03-02T15:31:53Z</time>
      </trkpt>
      <trkpt lat="46.47715" lon="5.40204">
        <ele>504.6</ele>
        <time>2022-03-02T15:31:55Z</time>
      </trkpt>
      <trkpt lat="46.4772" lon="5.40187">
        <ele>503.8</ele>
        <time>2022-03-02T15:31:56Z</time>
      </trkpt>
      <trkpt lat="46.47727" lon="5.40174">
        <ele>503.6</ele>
        <time>2022-03-02T15:31:57Z</time>
      </trkpt>
      <trkpt lat="46.47735" lon="5.40165">
        <ele>502.8</ele>
        <time>2022-03-02T15:31:58Z</time>
      </trkpt>
      <trkpt lat="46.47743" lon="5.40155">
        <ele>502.2</ele>
        <time>2022-03-02T15:31:59Z</time>
      </trkpt>
      <trkpt lat="46.47751" lon="5.40143">
        <ele>501.8</ele>
        <time>2022-03-02T15:32:00Z</time>
      </trkpt>
      <trkpt lat="46.47757" lon="5.40128">
        <ele>501</ele>
        <time>2022-03-02T15:32:01Z</time>
      </trkpt>
      <trkpt lat="46.47761" lon="5.40113">
        <ele>500.6</ele>
        <time>2022-03-02T15:32:02Z</time>
      </trkpt>
      <trkpt lat="46.47763" lon="5.40096">
        <ele>500</ele>
        <time>2022-03-02T15:32:03Z</time>
      </trkpt>
      <trkpt lat="46.47764" lon="5.40079">
        <ele>499.4</ele>
        <time>2022-03-02T15:32:04Z</time>
      </trkpt>
      <trkpt lat="46.47762" lon="5.40063">
        <ele>498.4</ele>
        <time>2022-03-02T15:32:05Z</time>
      </trkpt>
      <trkpt lat="46.47762" lon="5.4005">
        <ele>497.2</ele>
        <time>2022-03-02T15:32:06Z</time>
      </trkpt>
      <trkpt lat="46.47768" lon="5.4002">
        <ele>496.4</ele>
        <time>2022-03-02T15:32:08Z</time>
      </trkpt>
      <trkpt lat="46.47775" lon="5.4001">
        <ele>496</ele>
        <time>2022-03-02T15:32:09Z</time>
      </trkpt>
      <trkpt lat="46.47784" lon="5.40003">
        <ele>495.6</ele>
        <time>2022-03-02T15:32:10Z</time>
      </trkpt>
      <trkpt lat="46.47804" lon="5.39993">
        <ele>493.8</ele>
        <time>2022-03-02T15:32:12Z</time>
      </trkpt>
      <trkpt lat="46.47825" lon="5.39982">
        <ele>492.2</ele>
        <time>2022-03-02T15:32:14Z</time>
      </trkpt>
      <trkpt lat="46.47849" lon="5.39968">
        <ele>490.8</ele>
        <time>2022-03-02T15:32:16Z</time>
      </trkpt>
      <trkpt lat="46.47876" lon="5.39953">
        <ele>489.6</ele>
        <time>2022-03-02T15:32:18Z</time>
      </trkpt>
      <trkpt lat="46.47898" lon="5.3994">
        <ele>488.8</ele>
        <time>2022-03-02T15:32:20Z</time>
      </trkpt>
      <trkpt lat="46.4791" lon="5.39933">
        <ele>487.8</ele>
        <time>2022-03-02T15:32:21Z</time>
      </trkpt>
      <trkpt lat="46.47937" lon="5.39918">
        <ele>486.8</ele>
        <time>2022-03-02T15:32:23Z</time>
      </trkpt>
      <trkpt lat="46.47946" lon="5.39913">
        <ele>485.8</ele>
        <time>2022-03-02T15:32:24Z</time>
      </trkpt>
      <trkpt lat="46.4797" lon="5.399">
        <ele>484.6</ele>
        <time>2022-03-02T15:32:26Z</time>
      </trkpt>
      <trkpt lat="46.47993" lon="5.39889">
        <ele>484</ele>
        <time>2022-03-02T15:32:28Z</time>
      </trkpt>
      <trkpt lat="46.48005" lon="5.39886">
        <ele>483.8</ele>
        <time>2022-03-02T15:32:29Z</time>
      </trkpt>
      <trkpt lat="46.48016" lon="5.39885">
        <ele>482.6</ele>
        <time>2022-03-02T15:32:30Z</time>
      </trkpt>
      <trkpt lat="46.48028" lon="5.39887">
        <ele>481.8</ele>
        <time>2022-03-02T15:32:31Z</time>
      </trkpt>
      <trkpt lat="46.48041" lon="5.39892">
        <ele>481.6</ele>
        <time>2022-03-02T15:32:32Z</time>
      </trkpt>
      <trkpt lat="46.48062" lon="5.39905">
        <ele>481.2</ele>
        <time>2022-03-02T15:32:34Z</time>
      </trkpt>
      <trkpt lat="46.48071" lon="5.39908">
        <ele>481</ele>
        <time>2022-03-02T15:32:35Z</time>
      </trkpt>
      <trkpt lat="46.48094" lon="5.39911">
        <ele>480.8</ele>
        <time>2022-03-02T15:32:37Z</time>
      </trkpt>
      <trkpt lat="46.48105" lon="5.3991">
        <ele>480.6</ele>
        <time>2022-03-02T15:32:38Z</time>
      </trkpt>
      <trkpt lat="46.48145" lon="5.39897">
        <ele>480.4</ele>
        <time>2022-03-02T15:32:42Z</time>
      </trkpt>
      <trkpt lat="46.48179" lon="5.39876">
        <ele>480.6</ele>
        <time>2022-03-02T15:32:46Z</time>
      </trkpt>
      <trkpt lat="46.48189" lon="5.39868">
        <ele>480.6</ele>
        <time>2022-03-02T15:32:47Z</time>
      </trkpt>
      <trkpt lat="46.48199" lon="5.3985">
        <ele>480.6</ele>
        <time>2022-03-02T15:32:49Z</time>
      </trkpt>
      <trkpt lat="46.48202" lon="5.39826">
        <ele>480.6</ele>
        <time>2022-03-02T15:32:51Z</time>
      </trkpt>
      <trkpt lat="46.48191" lon="5.39774">
        <ele>480.4</ele>
        <time>2022-03-02T15:32:55Z</time>
      </trkpt>
      <trkpt lat="46.4818" lon="5.39706">
        <ele>479.6</ele>
        <time>2022-03-02T15:33:00Z</time>
      </trkpt>
      <trkpt lat="46.48179" lon="5.39692">
        <ele>479.4</ele>
        <time>2022-03-02T15:33:01Z</time>
      </trkpt>
      <trkpt lat="46.48184" lon="5.3965">
        <ele>478.6</ele>
        <time>2022-03-02T15:33:04Z</time>
      </trkpt>
      <trkpt lat="46.48188" lon="5.39636">
        <ele>478.2</ele>
        <time>2022-03-02T15:33:05Z</time>
      </trkpt>
      <trkpt lat="46.48193" lon="5.39622">
        <ele>478.2</ele>
        <time>2022-03-02T15:33:06Z</time>
      </trkpt>
      <trkpt lat="46.48211" lon="5.39578">
        <ele>477.2</ele>
        <time>2022-03-02T15:33:09Z</time>
      </trkpt>
      <trkpt lat="46.48222" lon="5.3953">
        <ele>476</ele>
        <time>2022-03-02T15:33:12Z</time>
      </trkpt>
      <trkpt lat="46.48225" lon="5.39514">
        <ele>474.8</ele>
        <time>2022-03-02T15:33:13Z</time>
      </trkpt>
      <trkpt lat="46.48236" lon="5.39491">
        <ele>472.8</ele>
        <time>2022-03-02T15:33:15Z</time>
      </trkpt>
      <trkpt lat="46.48244" lon="5.39478">
        <ele>471.4</ele>
        <time>2022-03-02T15:33:16Z</time>
      </trkpt>
      <trkpt lat="46.48251" lon="5.39471">
        <ele>470.8</ele>
        <time>2022-03-02T15:33:17Z</time>
      </trkpt>
      <trkpt lat="46.48259" lon="5.39466">
        <ele>470.2</ele>
        <time>2022-03-02T15:33:18Z</time>
      </trkpt>
      <trkpt lat="46.48266" lon="5.39465">
        <ele>468.6</ele>
        <time>2022-03-02T15:33:19Z</time>
      </trkpt>
      <trkpt lat="46.48276" lon="5.39464">
        <ele>466.6</ele>
        <time>2022-03-02T15:33:20Z</time>
      </trkpt>
      <trkpt lat="46.48287" lon="5.39461">
        <ele>465.4</ele>
        <time>2022-03-02T15:33:21Z</time>
      </trkpt>
      <trkpt lat="46.48295" lon="5.39455">
        <ele>464.4</ele>
        <time>2022-03-02T15:33:22Z</time>
      </trkpt>
      <trkpt lat="46.48301" lon="5.39445">
        <ele>463</ele>
        <time>2022-03-02T15:33:23Z</time>
      </trkpt>
      <trkpt lat="46.48304" lon="5.39434">
        <ele>462.6</ele>
        <time>2022-03-02T15:33:24Z</time>
      </trkpt>
      <trkpt lat="46.48307" lon="5.3942">
        <ele>461.6</ele>
        <time>2022-03-02T15:33:25Z</time>
      </trkpt>
      <trkpt lat="46.48316" lon="5.39392">
        <ele>459.8</ele>
        <time>2022-03-02T15:33:27Z</time>
      </trkpt>
      <trkpt lat="46.4832" lon="5.3938">
        <ele>459.6</ele>
        <time>2022-03-02T15:33:28Z</time>
      </trkpt>
      <trkpt lat="46.48327" lon="5.39367">
        <ele>458.8</ele>
        <time>2022-03-02T15:33:29Z</time>
      </trkpt>
      <trkpt lat="46.48334" lon="5.39355">
        <ele>458</ele>
        <time>2022-03-02T15:33:30Z</time>
      </trkpt>
      <trkpt lat="46.48343" lon="5.39344">
        <ele>457.8</ele>
        <time>2022-03-02T15:33:31Z</time>
      </trkpt>
      <trkpt lat="46.48351" lon="5.39335">
        <ele>457</ele>
        <time>2022-03-02T15:33:32Z</time>
      </trkpt>
      <trkpt lat="46.48371" lon="5.39325">
        <ele>455.8</ele>
        <time>2022-03-02T15:33:34Z</time>
      </trkpt>
      <trkpt lat="46.48393" lon="5.39325">
        <ele>453.6</ele>
        <time>2022-03-02T15:33:36Z</time>
      </trkpt>
      <trkpt lat="46.48408" lon="5.39327">
        <ele>452.4</ele>
        <time>2022-03-02T15:33:37Z</time>
      </trkpt>
      <trkpt lat="46.48421" lon="5.39328">
        <ele>450.8</ele>
        <time>2022-03-02T15:33:38Z</time>
      </trkpt>
      <trkpt lat="46.48434" lon="5.39327">
        <ele>449.4</ele>
        <time>2022-03-02T15:33:39Z</time>
      </trkpt>
      <trkpt lat="46.48445" lon="5.39324">
        <ele>448.8</ele>
        <time>2022-03-02T15:33:40Z</time>
      </trkpt>
      <trkpt lat="46.4846" lon="5.3932">
        <ele>447.6</ele>
        <time>2022-03-02T15:33:41Z</time>
      </trkpt>
      <trkpt lat="46.48488" lon="5.39314">
        <ele>446.2</ele>
        <time>2022-03-02T15:33:43Z</time>
      </trkpt>
      <trkpt lat="46.48513" lon="5.39308">
        <ele>444</ele>
        <time>2022-03-02T15:33:45Z</time>
      </trkpt>
      <trkpt lat="46.48526" lon="5.39305">
        <ele>442.8</ele>
        <time>2022-03-02T15:33:46Z</time>
      </trkpt>
      <trkpt lat="46.48553" lon="5.39298">
        <ele>441.4</ele>
        <time>2022-03-02T15:33:48Z</time>
      </trkpt>
      <trkpt lat="46.48595" lon="5.39287">
        <ele>440</ele>
        <time>2022-03-02T15:33:51Z</time>
      </trkpt>
      <trkpt lat="46.48611" lon="5.39283">
        <ele>438.4</ele>
        <time>2022-03-02T15:33:52Z</time>
      </trkpt>
      <trkpt lat="46.48636" lon="5.3928">
        <ele>436.6</ele>
        <time>2022-03-02T15:33:54Z</time>
      </trkpt>
      <trkpt lat="46.4865" lon="5.39279">
        <ele>435.4</ele>
        <time>2022-03-02T15:33:55Z</time>
      </trkpt>
      <trkpt lat="46.48663" lon="5.3928">
        <ele>435</ele>
        <time>2022-03-02T15:33:56Z</time>
      </trkpt>
      <trkpt lat="46.48675" lon="5.39282">
        <ele>433.2</ele>
        <time>2022-03-02T15:33:57Z</time>
      </trkpt>
      <trkpt lat="46.48689" lon="5.39286">
        <ele>432.2</ele>
        <time>2022-03-02T15:33:58Z</time>
      </trkpt>
      <trkpt lat="46.487" lon="5.39292">
        <ele>430.4</ele>
        <time>2022-03-02T15:33:59Z</time>
      </trkpt>
      <trkpt lat="46.48716" lon="5.39303">
        <ele>428.2</ele>
        <time>2022-03-02T15:34:01Z</time>
      </trkpt>
      <trkpt lat="46.48724" lon="5.39307">
        <ele>427.4</ele>
        <time>2022-03-02T15:34:02Z</time>
      </trkpt>
      <trkpt lat="46.48732" lon="5.39306">
        <ele>426.6</ele>
        <time>2022-03-02T15:34:03Z</time>
      </trkpt>
      <trkpt lat="46.48737" lon="5.393">
        <ele>424.6</ele>
        <time>2022-03-02T15:34:04Z</time>
      </trkpt>
      <trkpt lat="46.48739" lon="5.39291">
        <ele>423.8</ele>
        <time>2022-03-02T15:34:05Z</time>
      </trkpt>
      <trkpt lat="46.48738" lon="5.3928">
        <ele>422.8</ele>
        <time>2022-03-02T15:34:06Z</time>
      </trkpt>
      <trkpt lat="46.48734" lon="5.39269">
        <ele>422</ele>
        <time>2022-03-02T15:34:07Z</time>
      </trkpt>
      <trkpt lat="46.48726" lon="5.39259">
        <ele>420.8</ele>
        <time>2022-03-02T15:34:08Z</time>
      </trkpt>
      <trkpt lat="46.48717" lon="5.39248">
        <ele>419.6</ele>
        <time>2022-03-02T15:34:09Z</time>
      </trkpt>
      <trkpt lat="46.48709" lon="5.39239">
        <ele>418.2</ele>
        <time>2022-03-02T15:34:10Z</time>
      </trkpt>
      <trkpt lat="46.48699" lon="5.39226">
        <ele>416.8</ele>
        <time>2022-03-02T15:34:11Z</time>
      </trkpt>
      <trkpt lat="46.48679" lon="5.392">
        <ele>415</ele>
        <time>2022-03-02T15:34:13Z</time>
      </trkpt>
      <trkpt lat="46.48668" lon="5.39184">
        <ele>414.6</ele>
        <time>2022-03-02T15:34:14Z</time>
      </trkpt>
      <trkpt lat="46.48661" lon="5.39173">
        <ele>413.8</ele>
        <time>2022-03-02T15:34:15Z</time>
      </trkpt>
      <trkpt lat="46.48651" lon="5.3916">
        <ele>413.4</ele>
        <time>2022-03-02T15:34:16Z</time>
      </trkpt>
      <trkpt lat="46.4864" lon="5.39148">
        <ele>412.6</ele>
        <time>2022-03-02T15:34:17Z</time>
      </trkpt>
      <trkpt lat="46.48627" lon="5.39135">
        <ele>411.6</ele>
        <time>2022-03-02T15:34:18Z</time>
      </trkpt>
      <trkpt lat="46.48605" lon="5.39117">
        <ele>410</ele>
        <time>2022-03-02T15:34:20Z</time>
      </trkpt>
      <trkpt lat="46.4858" lon="5.39099">
        <ele>408.6</ele>
        <time>2022-03-02T15:34:22Z</time>
      </trkpt>
      <trkpt lat="46.48556" lon="5.39081">
        <ele>405.6</ele>
        <time>2022-03-02T15:34:24Z</time>
      </trkpt>
      <trkpt lat="46.48531" lon="5.39065">
        <ele>404</ele>
        <time>2022-03-02T15:34:26Z</time>
      </trkpt>
      <trkpt lat="46.48518" lon="5.39057">
        <ele>402.6</ele>
        <time>2022-03-02T15:34:27Z</time>
      </trkpt>
      <trkpt lat="46.48508" lon="5.39044">
        <ele>401.4</ele>
        <time>2022-03-02T15:34:28Z</time>
      </trkpt>
      <trkpt lat="46.48499" lon="5.39024">
        <ele>399.8</ele>
        <time>2022-03-02T15:34:29Z</time>
      </trkpt>
      <trkpt lat="46.48494" lon="5.39009">
        <ele>398.2</ele>
        <time>2022-03-02T15:34:30Z</time>
      </trkpt>
      <trkpt lat="46.4849" lon="5.3899">
        <ele>396.4</ele>
        <time>2022-03-02T15:34:31Z</time>
      </trkpt>
      <trkpt lat="46.48485" lon="5.38972">
        <ele>395.8</ele>
        <time>2022-03-02T15:34:32Z</time>
      </trkpt>
      <trkpt lat="46.48479" lon="5.38955">
        <ele>394.6</ele>
        <time>2022-03-02T15:34:33Z</time>
      </trkpt>
      <trkpt lat="46.4847" lon="5.38939">
        <ele>393.4</ele>
        <time>2022-03-02T15:34:34Z</time>
      </trkpt>
      <trkpt lat="46.48456" lon="5.3891">
        <ele>391.2</ele>
        <time>2022-03-02T15:34:36Z</time>
      </trkpt>
      <trkpt lat="46.48452" lon="5.38894">
        <ele>390.6</ele>
        <time>2022-03-02T15:34:37Z</time>
      </trkpt>
      <trkpt lat="46.48452" lon="5.38876">
        <ele>389.8</ele>
        <time>2022-03-02T15:34:38Z</time>
      </trkpt>
      <trkpt lat="46.48457" lon="5.38862">
        <ele>389.4</ele>
        <time>2022-03-02T15:34:39Z</time>
      </trkpt>
      <trkpt lat="46.48465" lon="5.38853">
        <ele>388.6</ele>
        <time>2022-03-02T15:34:40Z</time>
      </trkpt>
      <trkpt lat="46.48473" lon="5.38847">
        <ele>387.8</ele>
        <time>2022-03-02T15:34:41Z</time>
      </trkpt>
      <trkpt lat="46.48483" lon="5.3884">
        <ele>386.2</ele>
        <time>2022-03-02T15:34:42Z</time>
      </trkpt>
      <trkpt lat="46.48493" lon="5.38833">
        <ele>385.2</ele>
        <time>2022-03-02T15:34:43Z</time>
      </trkpt>
      <trkpt lat="46.48514" lon="5.3882">
        <ele>384</ele>
        <time>2022-03-02T15:34:45Z</time>
      </trkpt>
      <trkpt lat="46.48536" lon="5.38806">
        <ele>382.8</ele>
        <time>2022-03-02T15:34:47Z</time>
      </trkpt>
      <trkpt lat="46.48569" lon="5.38784">
        <ele>380.6</ele>
        <time>2022-03-02T15:34:50Z</time>
      </trkpt>
      <trkpt lat="46.48585" lon="5.38777">
        <ele>379</ele>
        <time>2022-03-02T15:34:52Z</time>
      </trkpt>
      <trkpt lat="46.48593" lon="5.38777">
        <ele>378.8</ele>
        <time>2022-03-02T15:34:53Z</time>
      </trkpt>
      <trkpt lat="46.48603" lon="5.38779">
        <ele>376.8</ele>
        <time>2022-03-02T15:34:54Z</time>
      </trkpt>
      <trkpt lat="46.4861" lon="5.38779">
        <ele>376</ele>
        <time>2022-03-02T15:34:55Z</time>
      </trkpt>
      <trkpt lat="46.48615" lon="5.38774">
        <ele>375</ele>
        <time>2022-03-02T15:34:56Z</time>
      </trkpt>
      <trkpt lat="46.48621" lon="5.38766">
        <ele>374.6</ele>
        <time>2022-03-02T15:34:57Z</time>
      </trkpt>
      <trkpt lat="46.48626" lon="5.38754">
        <ele>372.8</ele>
        <time>2022-03-02T15:34:58Z</time>
      </trkpt>
      <trkpt lat="46.48631" lon="5.38742">
        <ele>372</ele>
        <time>2022-03-02T15:34:59Z</time>
      </trkpt>
      <trkpt lat="46.48635" lon="5.38732">
        <ele>371.6</ele>
        <time>2022-03-02T15:35:00Z</time>
      </trkpt>
      <trkpt lat="46.48641" lon="5.38703">
        <ele>370.2</ele>
        <time>2022-03-02T15:35:02Z</time>
      </trkpt>
      <trkpt lat="46.48643" lon="5.38684">
        <ele>369.2</ele>
        <time>2022-03-02T15:35:03Z</time>
      </trkpt>
      <trkpt lat="46.48642" lon="5.38671">
        <ele>368.4</ele>
        <time>2022-03-02T15:35:04Z</time>
      </trkpt>
      <trkpt lat="46.4864" lon="5.38655">
        <ele>367.4</ele>
        <time>2022-03-02T15:35:05Z</time>
      </trkpt>
      <trkpt lat="46.48634" lon="5.38624">
        <ele>366.6</ele>
        <time>2022-03-02T15:35:07Z</time>
      </trkpt>
      <trkpt lat="46.48628" lon="5.38605">
        <ele>366.2</ele>
        <time>2022-03-02T15:35:08Z</time>
      </trkpt>
      <trkpt lat="46.48624" lon="5.3859">
        <ele>366</ele>
        <time>2022-03-02T15:35:09Z</time>
      </trkpt>
      <trkpt lat="46.48621" lon="5.38578">
        <ele>365</ele>
        <time>2022-03-02T15:35:10Z</time>
      </trkpt>
      <trkpt lat="46.48613" lon="5.38547">
        <ele>364</ele>
        <time>2022-03-02T15:35:12Z</time>
      </trkpt>
      <trkpt lat="46.48604" lon="5.38512">
        <ele>362.4</ele>
        <time>2022-03-02T15:35:14Z</time>
      </trkpt>
      <trkpt lat="46.48599" lon="5.38497">
        <ele>361</ele>
        <time>2022-03-02T15:35:15Z</time>
      </trkpt>
    </trkseg>
  </trk>
</gpx>